<?xml version="1.0" encoding="UTF-8"?>
<gpx version="1.1" creator="https://www.youtrack.es" xsi:schemaLocation="http://www.topografix.com/GPX/1/1 http://www.topografix.com/GPX/1/1/gpx.xsd http://www.garmin.com/xmlschemas/GpxExtensions/v3 http://www.garmin.com/xmlschemas/GpxExtensionsv3.xsd http://www.garmin.com/xmlschemas/TrackPointExtension/v1 http://www.garmin.com/xmlschemas/TrackPointExtensionv1.xsd" xmlns:gpxtpx="http://www.garmin.com/xmlschemas/TrackPointExtension/v1" xmlns:gpxx="http://www.garmin.com/xmlschemas/GpxExtensions/v3" xmlns:xsi="http://www.w3.org/2001/XMLSchema-instance">
  <metadata>
    <author>
      <name>Ignacio Muñoz</name>
      <email id="ignaciom.pedemonte" domain="gmail.com"/>
    </author>
    <link href="https://www.youtrack.es">
      <text>YouTrack.es</text>
    </link>
    <time>2026-05-08T23:19:37Z</time>
  </metadata>
  <trk>
    <src>https://www.youtrack.es</src>
    <link href="https://www.youtrack.es/ruta/7351-dia-1-cppo-b-salada">
      <text>YouTrack.es</text>
    </link>
    <trkseg>
      <trkpt lat="-27.35428" lon="-70.34918">
        <ele>370.959</ele>
        <time>2019-07-18T13:39:53Z</time>
      </trkpt>
      <trkpt lat="-27.354347" lon="-70.34982">
        <ele>370.714</ele>
        <time>2019-07-18T13:41:31Z</time>
      </trkpt>
      <trkpt lat="-27.354216" lon="-70.349976">
        <ele>370.169</ele>
        <time>2019-07-18T13:41:36Z</time>
      </trkpt>
      <trkpt lat="-27.35408" lon="-70.350136">
        <ele>370.391</ele>
        <time>2019-07-18T13:41:41Z</time>
      </trkpt>
      <trkpt lat="-27.353952" lon="-70.35031">
        <ele>370.36</ele>
        <time>2019-07-18T13:41:46Z</time>
      </trkpt>
      <trkpt lat="-27.353823" lon="-70.35047">
        <ele>370.048</ele>
        <time>2019-07-18T13:41:51Z</time>
      </trkpt>
      <trkpt lat="-27.35369" lon="-70.350655">
        <ele>369.358</ele>
        <time>2019-07-18T13:41:56Z</time>
      </trkpt>
      <trkpt lat="-27.353556" lon="-70.350815">
        <ele>369.363</ele>
        <time>2019-07-18T13:42:01Z</time>
      </trkpt>
      <trkpt lat="-27.353434" lon="-70.35097">
        <ele>369.192</ele>
        <time>2019-07-18T13:42:06Z</time>
      </trkpt>
      <trkpt lat="-27.353306" lon="-70.35115">
        <ele>369.025</ele>
        <time>2019-07-18T13:42:11Z</time>
      </trkpt>
      <trkpt lat="-27.353146" lon="-70.35135">
        <ele>368.875</ele>
        <time>2019-07-18T13:42:16Z</time>
      </trkpt>
      <trkpt lat="-27.35299" lon="-70.351524">
        <ele>369.052</ele>
        <time>2019-07-18T13:42:21Z</time>
      </trkpt>
      <trkpt lat="-27.352833" lon="-70.35171">
        <ele>368.711</ele>
        <time>2019-07-18T13:42:26Z</time>
      </trkpt>
      <trkpt lat="-27.352688" lon="-70.35187">
        <ele>368.51</ele>
        <time>2019-07-18T13:42:31Z</time>
      </trkpt>
      <trkpt lat="-27.352541" lon="-70.35206">
        <ele>368.581</ele>
        <time>2019-07-18T13:42:36Z</time>
      </trkpt>
      <trkpt lat="-27.352392" lon="-70.35222">
        <ele>368.462</ele>
        <time>2019-07-18T13:42:41Z</time>
      </trkpt>
      <trkpt lat="-27.352224" lon="-70.35236">
        <ele>368.431</ele>
        <time>2019-07-18T13:42:46Z</time>
      </trkpt>
      <trkpt lat="-27.352043" lon="-70.352486">
        <ele>368.489</ele>
        <time>2019-07-18T13:42:51Z</time>
      </trkpt>
      <trkpt lat="-27.351847" lon="-70.352585">
        <ele>368.507</ele>
        <time>2019-07-18T13:42:56Z</time>
      </trkpt>
      <trkpt lat="-27.35162" lon="-70.35263">
        <ele>368.375</ele>
        <time>2019-07-18T13:43:01Z</time>
      </trkpt>
      <trkpt lat="-27.351381" lon="-70.35265">
        <ele>368.351</ele>
        <time>2019-07-18T13:43:06Z</time>
      </trkpt>
      <trkpt lat="-27.351128" lon="-70.352684">
        <ele>368.365</ele>
        <time>2019-07-18T13:43:11Z</time>
      </trkpt>
      <trkpt lat="-27.350868" lon="-70.352745">
        <ele>367.9</ele>
        <time>2019-07-18T13:43:16Z</time>
      </trkpt>
      <trkpt lat="-27.350607" lon="-70.352844">
        <ele>367.868</ele>
        <time>2019-07-18T13:43:21Z</time>
      </trkpt>
      <trkpt lat="-27.350357" lon="-70.353">
        <ele>367.643</ele>
        <time>2019-07-18T13:43:26Z</time>
      </trkpt>
      <trkpt lat="-27.35008" lon="-70.3532">
        <ele>367.02</ele>
        <time>2019-07-18T13:43:31Z</time>
      </trkpt>
      <trkpt lat="-27.34985" lon="-70.35342">
        <ele>366.682</ele>
        <time>2019-07-18T13:43:36Z</time>
      </trkpt>
      <trkpt lat="-27.349646" lon="-70.35368">
        <ele>366.46</ele>
        <time>2019-07-18T13:43:41Z</time>
      </trkpt>
      <trkpt lat="-27.349478" lon="-70.35398">
        <ele>365.825</ele>
        <time>2019-07-18T13:43:46Z</time>
      </trkpt>
      <trkpt lat="-27.34934" lon="-70.354294">
        <ele>365.276</ele>
        <time>2019-07-18T13:43:51Z</time>
      </trkpt>
      <trkpt lat="-27.349197" lon="-70.3546">
        <ele>364.998</ele>
        <time>2019-07-18T13:43:56Z</time>
      </trkpt>
      <trkpt lat="-27.349052" lon="-70.354904">
        <ele>364.465</ele>
        <time>2019-07-18T13:44:00Z</time>
      </trkpt>
      <trkpt lat="-27.3489" lon="-70.3552">
        <ele>364.29</ele>
        <time>2019-07-18T13:44:05Z</time>
      </trkpt>
      <trkpt lat="-27.348745" lon="-70.35551">
        <ele>363.928</ele>
        <time>2019-07-18T13:44:10Z</time>
      </trkpt>
      <trkpt lat="-27.348597" lon="-70.3558">
        <ele>363.741</ele>
        <time>2019-07-18T13:44:15Z</time>
      </trkpt>
      <trkpt lat="-27.348448" lon="-70.35608">
        <ele>363.675</ele>
        <time>2019-07-18T13:44:20Z</time>
      </trkpt>
      <trkpt lat="-27.348259" lon="-70.35642">
        <ele>363.077</ele>
        <time>2019-07-18T13:44:26Z</time>
      </trkpt>
      <trkpt lat="-27.348082" lon="-70.35669">
        <ele>362.842</ele>
        <time>2019-07-18T13:44:31Z</time>
      </trkpt>
      <trkpt lat="-27.347923" lon="-70.35697">
        <ele>362.626</ele>
        <time>2019-07-18T13:44:36Z</time>
      </trkpt>
      <trkpt lat="-27.347761" lon="-70.35724">
        <ele>362.287</ele>
        <time>2019-07-18T13:44:41Z</time>
      </trkpt>
      <trkpt lat="-27.347593" lon="-70.357506">
        <ele>362.198</ele>
        <time>2019-07-18T13:44:46Z</time>
      </trkpt>
      <trkpt lat="-27.34744" lon="-70.357765">
        <ele>361.875</ele>
        <time>2019-07-18T13:44:51Z</time>
      </trkpt>
      <trkpt lat="-27.34726" lon="-70.35804">
        <ele>361.299</ele>
        <time>2019-07-18T13:44:56Z</time>
      </trkpt>
      <trkpt lat="-27.347084" lon="-70.35831">
        <ele>361.405</ele>
        <time>2019-07-18T13:45:01Z</time>
      </trkpt>
      <trkpt lat="-27.34689" lon="-70.35856">
        <ele>361.109</ele>
        <time>2019-07-18T13:45:06Z</time>
      </trkpt>
      <trkpt lat="-27.346685" lon="-70.3588">
        <ele>360.662</ele>
        <time>2019-07-18T13:45:11Z</time>
      </trkpt>
      <trkpt lat="-27.346495" lon="-70.359055">
        <ele>360.43</ele>
        <time>2019-07-18T13:45:16Z</time>
      </trkpt>
      <trkpt lat="-27.346365" lon="-70.359215">
        <ele>360.599</ele>
        <time>2019-07-18T13:45:21Z</time>
      </trkpt>
      <trkpt lat="-27.346354" lon="-70.35922">
        <ele>360.211</ele>
        <time>2019-07-18T13:45:27Z</time>
      </trkpt>
      <trkpt lat="-27.346087" lon="-70.359634">
        <ele>359.931</ele>
        <time>2019-07-18T13:45:47Z</time>
      </trkpt>
      <trkpt lat="-27.345896" lon="-70.35987">
        <ele>359.775</ele>
        <time>2019-07-18T13:45:52Z</time>
      </trkpt>
      <trkpt lat="-27.345724" lon="-70.36007">
        <ele>359.55</ele>
        <time>2019-07-18T13:45:58Z</time>
      </trkpt>
      <trkpt lat="-27.345512" lon="-70.36034">
        <ele>359.032</ele>
        <time>2019-07-18T13:46:04Z</time>
      </trkpt>
      <trkpt lat="-27.345337" lon="-70.36058">
        <ele>359.111</ele>
        <time>2019-07-18T13:46:09Z</time>
      </trkpt>
      <trkpt lat="-27.345085" lon="-70.36091">
        <ele>358.572</ele>
        <time>2019-07-18T13:46:15Z</time>
      </trkpt>
      <trkpt lat="-27.34488" lon="-70.361176">
        <ele>358.816</ele>
        <time>2019-07-18T13:46:21Z</time>
      </trkpt>
      <trkpt lat="-27.34471" lon="-70.36139">
        <ele>358.292</ele>
        <time>2019-07-18T13:46:26Z</time>
      </trkpt>
      <trkpt lat="-27.344515" lon="-70.36167">
        <ele>358.398</ele>
        <time>2019-07-18T13:46:32Z</time>
      </trkpt>
      <trkpt lat="-27.344337" lon="-70.361916">
        <ele>358.321</ele>
        <time>2019-07-18T13:46:37Z</time>
      </trkpt>
      <trkpt lat="-27.344166" lon="-70.362144">
        <ele>357.854</ele>
        <time>2019-07-18T13:46:42Z</time>
      </trkpt>
      <trkpt lat="-27.344006" lon="-70.36237">
        <ele>357.537</ele>
        <time>2019-07-18T13:46:47Z</time>
      </trkpt>
      <trkpt lat="-27.343842" lon="-70.36261">
        <ele>357.325</ele>
        <time>2019-07-18T13:46:52Z</time>
      </trkpt>
      <trkpt lat="-27.343687" lon="-70.362854">
        <ele>356.932</ele>
        <time>2019-07-18T13:46:57Z</time>
      </trkpt>
      <trkpt lat="-27.343517" lon="-70.3631">
        <ele>356.781</ele>
        <time>2019-07-18T13:47:02Z</time>
      </trkpt>
      <trkpt lat="-27.343351" lon="-70.36339">
        <ele>356.699</ele>
        <time>2019-07-18T13:47:08Z</time>
      </trkpt>
      <trkpt lat="-27.343239" lon="-70.36361">
        <ele>356.556</ele>
        <time>2019-07-18T13:47:13Z</time>
      </trkpt>
      <trkpt lat="-27.343071" lon="-70.36387">
        <ele>356.102</ele>
        <time>2019-07-18T13:47:18Z</time>
      </trkpt>
      <trkpt lat="-27.342916" lon="-70.36411">
        <ele>355.848</ele>
        <time>2019-07-18T13:47:23Z</time>
      </trkpt>
      <trkpt lat="-27.34271" lon="-70.36442">
        <ele>355.898</ele>
        <time>2019-07-18T13:47:28Z</time>
      </trkpt>
      <trkpt lat="-27.34255" lon="-70.36469">
        <ele>355.373</ele>
        <time>2019-07-18T13:47:33Z</time>
      </trkpt>
      <trkpt lat="-27.342386" lon="-70.36496">
        <ele>354.99</ele>
        <time>2019-07-18T13:47:38Z</time>
      </trkpt>
      <trkpt lat="-27.342228" lon="-70.36523">
        <ele>355.452</ele>
        <time>2019-07-18T13:47:43Z</time>
      </trkpt>
      <trkpt lat="-27.342056" lon="-70.36549">
        <ele>354.741</ele>
        <time>2019-07-18T13:47:48Z</time>
      </trkpt>
      <trkpt lat="-27.341888" lon="-70.36576">
        <ele>354.617</ele>
        <time>2019-07-18T13:47:53Z</time>
      </trkpt>
      <trkpt lat="-27.341726" lon="-70.36603">
        <ele>354.202</ele>
        <time>2019-07-18T13:47:58Z</time>
      </trkpt>
      <trkpt lat="-27.341564" lon="-70.366295">
        <ele>354.194</ele>
        <time>2019-07-18T13:48:03Z</time>
      </trkpt>
      <trkpt lat="-27.341385" lon="-70.36656">
        <ele>353.727</ele>
        <time>2019-07-18T13:48:08Z</time>
      </trkpt>
      <trkpt lat="-27.34122" lon="-70.36684">
        <ele>353.478</ele>
        <time>2019-07-18T13:48:13Z</time>
      </trkpt>
      <trkpt lat="-27.34105" lon="-70.36711">
        <ele>353.243</ele>
        <time>2019-07-18T13:48:18Z</time>
      </trkpt>
      <trkpt lat="-27.340878" lon="-70.36736">
        <ele>353.145</ele>
        <time>2019-07-18T13:48:23Z</time>
      </trkpt>
      <trkpt lat="-27.340687" lon="-70.367645">
        <ele>352.799</ele>
        <time>2019-07-18T13:48:30Z</time>
      </trkpt>
      <trkpt lat="-27.340498" lon="-70.36791">
        <ele>352.651</ele>
        <time>2019-07-18T13:48:35Z</time>
      </trkpt>
      <trkpt lat="-27.340302" lon="-70.36819">
        <ele>352.4</ele>
        <time>2019-07-18T13:48:40Z</time>
      </trkpt>
      <trkpt lat="-27.340122" lon="-70.36847">
        <ele>352.162</ele>
        <time>2019-07-18T13:48:45Z</time>
      </trkpt>
      <trkpt lat="-27.339952" lon="-70.36876">
        <ele>351.89</ele>
        <time>2019-07-18T13:48:50Z</time>
      </trkpt>
      <trkpt lat="-27.339777" lon="-70.36906">
        <ele>351.663</ele>
        <time>2019-07-18T13:48:55Z</time>
      </trkpt>
      <trkpt lat="-27.339602" lon="-70.36936">
        <ele>351.327</ele>
        <time>2019-07-18T13:49:00Z</time>
      </trkpt>
      <trkpt lat="-27.339426" lon="-70.36967">
        <ele>351.343</ele>
        <time>2019-07-18T13:49:05Z</time>
      </trkpt>
      <trkpt lat="-27.339254" lon="-70.36996">
        <ele>350.857</ele>
        <time>2019-07-18T13:49:10Z</time>
      </trkpt>
      <trkpt lat="-27.339066" lon="-70.37024">
        <ele>350.59</ele>
        <time>2019-07-18T13:49:15Z</time>
      </trkpt>
      <trkpt lat="-27.338875" lon="-70.37052">
        <ele>350.426</ele>
        <time>2019-07-18T13:49:20Z</time>
      </trkpt>
      <trkpt lat="-27.338697" lon="-70.37082">
        <ele>350.247</ele>
        <time>2019-07-18T13:49:25Z</time>
      </trkpt>
      <trkpt lat="-27.338518" lon="-70.37111">
        <ele>349.573</ele>
        <time>2019-07-18T13:49:30Z</time>
      </trkpt>
      <trkpt lat="-27.338337" lon="-70.37141">
        <ele>349.694</ele>
        <time>2019-07-18T13:49:35Z</time>
      </trkpt>
      <trkpt lat="-27.338163" lon="-70.37171">
        <ele>349.216</ele>
        <time>2019-07-18T13:49:40Z</time>
      </trkpt>
      <trkpt lat="-27.337984" lon="-70.37201">
        <ele>348.807</ele>
        <time>2019-07-18T13:49:45Z</time>
      </trkpt>
      <trkpt lat="-27.337797" lon="-70.37231">
        <ele>348.513</ele>
        <time>2019-07-18T13:49:50Z</time>
      </trkpt>
      <trkpt lat="-27.337624" lon="-70.3726">
        <ele>348.109</ele>
        <time>2019-07-18T13:49:55Z</time>
      </trkpt>
      <trkpt lat="-27.337366" lon="-70.37301">
        <ele>347.787</ele>
        <time>2019-07-18T13:50:02Z</time>
      </trkpt>
      <trkpt lat="-27.337194" lon="-70.37331">
        <ele>347.789</ele>
        <time>2019-07-18T13:50:07Z</time>
      </trkpt>
      <trkpt lat="-27.337011" lon="-70.37361">
        <ele>347.364</ele>
        <time>2019-07-18T13:50:12Z</time>
      </trkpt>
      <trkpt lat="-27.336828" lon="-70.37392">
        <ele>346.952</ele>
        <time>2019-07-18T13:50:17Z</time>
      </trkpt>
      <trkpt lat="-27.336653" lon="-70.37424">
        <ele>346.669</ele>
        <time>2019-07-18T13:50:22Z</time>
      </trkpt>
      <trkpt lat="-27.336483" lon="-70.374535">
        <ele>346.569</ele>
        <time>2019-07-18T13:50:27Z</time>
      </trkpt>
      <trkpt lat="-27.336327" lon="-70.374825">
        <ele>346.096</ele>
        <time>2019-07-18T13:50:32Z</time>
      </trkpt>
      <trkpt lat="-27.336153" lon="-70.37513">
        <ele>345.591</ele>
        <time>2019-07-18T13:50:37Z</time>
      </trkpt>
      <trkpt lat="-27.335978" lon="-70.37544">
        <ele>345.528</ele>
        <time>2019-07-18T13:50:42Z</time>
      </trkpt>
      <trkpt lat="-27.335802" lon="-70.37575">
        <ele>345.258</ele>
        <time>2019-07-18T13:50:47Z</time>
      </trkpt>
      <trkpt lat="-27.33565" lon="-70.37607">
        <ele>344.656</ele>
        <time>2019-07-18T13:50:52Z</time>
      </trkpt>
      <trkpt lat="-27.33547" lon="-70.376366">
        <ele>344.537</ele>
        <time>2019-07-18T13:50:57Z</time>
      </trkpt>
      <trkpt lat="-27.335258" lon="-70.376625">
        <ele>344.267</ele>
        <time>2019-07-18T13:51:02Z</time>
      </trkpt>
      <trkpt lat="-27.335081" lon="-70.376884">
        <ele>343.974</ele>
        <time>2019-07-18T13:51:07Z</time>
      </trkpt>
      <trkpt lat="-27.334902" lon="-70.37717">
        <ele>343.366</ele>
        <time>2019-07-18T13:51:12Z</time>
      </trkpt>
      <trkpt lat="-27.334713" lon="-70.37748">
        <ele>343.319</ele>
        <time>2019-07-18T13:51:17Z</time>
      </trkpt>
      <trkpt lat="-27.334536" lon="-70.37778">
        <ele>343.424</ele>
        <time>2019-07-18T13:51:22Z</time>
      </trkpt>
      <trkpt lat="-27.334356" lon="-70.37806">
        <ele>342.999</ele>
        <time>2019-07-18T13:51:27Z</time>
      </trkpt>
      <trkpt lat="-27.33418" lon="-70.37836">
        <ele>342.787</ele>
        <time>2019-07-18T13:51:32Z</time>
      </trkpt>
      <trkpt lat="-27.334003" lon="-70.37865">
        <ele>342.069</ele>
        <time>2019-07-18T13:51:37Z</time>
      </trkpt>
      <trkpt lat="-27.333834" lon="-70.37893">
        <ele>341.947</ele>
        <time>2019-07-18T13:51:42Z</time>
      </trkpt>
      <trkpt lat="-27.333656" lon="-70.37921">
        <ele>342.005</ele>
        <time>2019-07-18T13:51:47Z</time>
      </trkpt>
      <trkpt lat="-27.333477" lon="-70.37949">
        <ele>341.437</ele>
        <time>2019-07-18T13:51:52Z</time>
      </trkpt>
      <trkpt lat="-27.3333" lon="-70.37978">
        <ele>341.39</ele>
        <time>2019-07-18T13:51:57Z</time>
      </trkpt>
      <trkpt lat="-27.33313" lon="-70.380066">
        <ele>340.742</ele>
        <time>2019-07-18T13:52:02Z</time>
      </trkpt>
      <trkpt lat="-27.332945" lon="-70.38035">
        <ele>340.468</ele>
        <time>2019-07-18T13:52:07Z</time>
      </trkpt>
      <trkpt lat="-27.332764" lon="-70.380615">
        <ele>340.291</ele>
        <time>2019-07-18T13:52:12Z</time>
      </trkpt>
      <trkpt lat="-27.332592" lon="-70.3809">
        <ele>340.47</ele>
        <time>2019-07-18T13:52:16Z</time>
      </trkpt>
      <trkpt lat="-27.332424" lon="-70.38118">
        <ele>339.802</ele>
        <time>2019-07-18T13:52:21Z</time>
      </trkpt>
      <trkpt lat="-27.332268" lon="-70.38145">
        <ele>339.374</ele>
        <time>2019-07-18T13:52:26Z</time>
      </trkpt>
      <trkpt lat="-27.332104" lon="-70.38173">
        <ele>339.548</ele>
        <time>2019-07-18T13:52:31Z</time>
      </trkpt>
      <trkpt lat="-27.331942" lon="-70.38202">
        <ele>338.85</ele>
        <time>2019-07-18T13:52:36Z</time>
      </trkpt>
      <trkpt lat="-27.331757" lon="-70.38229">
        <ele>338.716</ele>
        <time>2019-07-18T13:52:41Z</time>
      </trkpt>
      <trkpt lat="-27.331589" lon="-70.38255">
        <ele>338.684</ele>
        <time>2019-07-18T13:52:46Z</time>
      </trkpt>
      <trkpt lat="-27.331423" lon="-70.38282">
        <ele>338.385</ele>
        <time>2019-07-18T13:52:51Z</time>
      </trkpt>
      <trkpt lat="-27.331251" lon="-70.38309">
        <ele>338.15</ele>
        <time>2019-07-18T13:52:56Z</time>
      </trkpt>
      <trkpt lat="-27.331085" lon="-70.38337">
        <ele>337.875</ele>
        <time>2019-07-18T13:53:01Z</time>
      </trkpt>
      <trkpt lat="-27.33091" lon="-70.383644">
        <ele>337.865</ele>
        <time>2019-07-18T13:53:06Z</time>
      </trkpt>
      <trkpt lat="-27.330727" lon="-70.383934">
        <ele>337.305</ele>
        <time>2019-07-18T13:53:11Z</time>
      </trkpt>
      <trkpt lat="-27.330547" lon="-70.38422">
        <ele>337.13</ele>
        <time>2019-07-18T13:53:16Z</time>
      </trkpt>
      <trkpt lat="-27.330385" lon="-70.38451">
        <ele>337.078</ele>
        <time>2019-07-18T13:53:21Z</time>
      </trkpt>
      <trkpt lat="-27.330214" lon="-70.384796">
        <ele>336.642</ele>
        <time>2019-07-18T13:53:26Z</time>
      </trkpt>
      <trkpt lat="-27.330029" lon="-70.385086">
        <ele>336.961</ele>
        <time>2019-07-18T13:53:31Z</time>
      </trkpt>
      <trkpt lat="-27.329851" lon="-70.38538">
        <ele>336.686</ele>
        <time>2019-07-18T13:53:36Z</time>
      </trkpt>
      <trkpt lat="-27.32968" lon="-70.38567">
        <ele>336.562</ele>
        <time>2019-07-18T13:53:41Z</time>
      </trkpt>
      <trkpt lat="-27.329514" lon="-70.38593">
        <ele>336.457</ele>
        <time>2019-07-18T13:53:46Z</time>
      </trkpt>
      <trkpt lat="-27.329344" lon="-70.386215">
        <ele>336.179</ele>
        <time>2019-07-18T13:53:51Z</time>
      </trkpt>
      <trkpt lat="-27.329159" lon="-70.38651">
        <ele>335.611</ele>
        <time>2019-07-18T13:53:56Z</time>
      </trkpt>
      <trkpt lat="-27.328947" lon="-70.38685">
        <ele>335.875</ele>
        <time>2019-07-18T13:54:02Z</time>
      </trkpt>
      <trkpt lat="-27.32871" lon="-70.38725">
        <ele>335.421</ele>
        <time>2019-07-18T13:54:08Z</time>
      </trkpt>
      <trkpt lat="-27.328552" lon="-70.38752">
        <ele>335.608</ele>
        <time>2019-07-18T13:54:13Z</time>
      </trkpt>
      <trkpt lat="-27.328402" lon="-70.38777">
        <ele>334.94</ele>
        <time>2019-07-18T13:54:18Z</time>
      </trkpt>
      <trkpt lat="-27.328241" lon="-70.388054">
        <ele>334.834</ele>
        <time>2019-07-18T13:54:23Z</time>
      </trkpt>
      <trkpt lat="-27.328074" lon="-70.388336">
        <ele>334.456</ele>
        <time>2019-07-18T13:54:28Z</time>
      </trkpt>
      <trkpt lat="-27.327888" lon="-70.38862">
        <ele>334.665</ele>
        <time>2019-07-18T13:54:33Z</time>
      </trkpt>
      <trkpt lat="-27.327715" lon="-70.3889">
        <ele>334.044</ele>
        <time>2019-07-18T13:54:38Z</time>
      </trkpt>
      <trkpt lat="-27.32741" lon="-70.38941">
        <ele>333.547</ele>
        <time>2019-07-18T13:54:48Z</time>
      </trkpt>
      <trkpt lat="-27.327248" lon="-70.38971">
        <ele>333.148</ele>
        <time>2019-07-18T13:54:53Z</time>
      </trkpt>
      <trkpt lat="-27.32707" lon="-70.38999">
        <ele>332.895</ele>
        <time>2019-07-18T13:54:58Z</time>
      </trkpt>
      <trkpt lat="-27.326902" lon="-70.390274">
        <ele>332.879</ele>
        <time>2019-07-18T13:55:03Z</time>
      </trkpt>
      <trkpt lat="-27.32673" lon="-70.39054">
        <ele>332.382</ele>
        <time>2019-07-18T13:55:08Z</time>
      </trkpt>
      <trkpt lat="-27.326561" lon="-70.39081">
        <ele>332.549</ele>
        <time>2019-07-18T13:55:13Z</time>
      </trkpt>
      <trkpt lat="-27.326393" lon="-70.39109">
        <ele>332.409</ele>
        <time>2019-07-18T13:55:18Z</time>
      </trkpt>
      <trkpt lat="-27.326227" lon="-70.39135">
        <ele>331.975</ele>
        <time>2019-07-18T13:55:23Z</time>
      </trkpt>
      <trkpt lat="-27.326061" lon="-70.39162">
        <ele>332.097</ele>
        <time>2019-07-18T13:55:28Z</time>
      </trkpt>
      <trkpt lat="-27.325888" lon="-70.39189">
        <ele>332.023</ele>
        <time>2019-07-18T13:55:33Z</time>
      </trkpt>
      <trkpt lat="-27.325718" lon="-70.39216">
        <ele>331.769</ele>
        <time>2019-07-18T13:55:38Z</time>
      </trkpt>
      <trkpt lat="-27.325518" lon="-70.39244">
        <ele>331.682</ele>
        <time>2019-07-18T13:55:43Z</time>
      </trkpt>
      <trkpt lat="-27.32533" lon="-70.39272">
        <ele>331.159</ele>
        <time>2019-07-18T13:55:48Z</time>
      </trkpt>
      <trkpt lat="-27.325132" lon="-70.39301">
        <ele>331.513</ele>
        <time>2019-07-18T13:55:53Z</time>
      </trkpt>
      <trkpt lat="-27.324938" lon="-70.39331">
        <ele>331.42</ele>
        <time>2019-07-18T13:55:58Z</time>
      </trkpt>
      <trkpt lat="-27.324759" lon="-70.39359">
        <ele>331.299</ele>
        <time>2019-07-18T13:56:03Z</time>
      </trkpt>
      <trkpt lat="-27.324562" lon="-70.39386">
        <ele>331.072</ele>
        <time>2019-07-18T13:56:08Z</time>
      </trkpt>
      <trkpt lat="-27.324358" lon="-70.39412">
        <ele>330.966</ele>
        <time>2019-07-18T13:56:13Z</time>
      </trkpt>
      <trkpt lat="-27.324173" lon="-70.39438">
        <ele>330.398</ele>
        <time>2019-07-18T13:56:18Z</time>
      </trkpt>
      <trkpt lat="-27.323948" lon="-70.394585">
        <ele>329.647</ele>
        <time>2019-07-18T13:56:23Z</time>
      </trkpt>
      <trkpt lat="-27.323704" lon="-70.39485">
        <ele>329.7</ele>
        <time>2019-07-18T13:56:28Z</time>
      </trkpt>
      <trkpt lat="-27.323313" lon="-70.39526">
        <ele>329.542</ele>
        <time>2019-07-18T13:56:37Z</time>
      </trkpt>
      <trkpt lat="-27.323088" lon="-70.39549">
        <ele>329.19</ele>
        <time>2019-07-18T13:56:42Z</time>
      </trkpt>
      <trkpt lat="-27.322878" lon="-70.39574">
        <ele>328.561</ele>
        <time>2019-07-18T13:56:47Z</time>
      </trkpt>
      <trkpt lat="-27.322659" lon="-70.39598">
        <ele>328.371</ele>
        <time>2019-07-18T13:56:52Z</time>
      </trkpt>
      <trkpt lat="-27.322447" lon="-70.39623">
        <ele>328.427</ele>
        <time>2019-07-18T13:56:57Z</time>
      </trkpt>
      <trkpt lat="-27.322231" lon="-70.39649">
        <ele>328.004</ele>
        <time>2019-07-18T13:57:02Z</time>
      </trkpt>
      <trkpt lat="-27.322027" lon="-70.39678">
        <ele>327.357</ele>
        <time>2019-07-18T13:57:07Z</time>
      </trkpt>
      <trkpt lat="-27.321718" lon="-70.397156">
        <ele>326.899</ele>
        <time>2019-07-18T13:57:15Z</time>
      </trkpt>
      <trkpt lat="-27.32146" lon="-70.39745">
        <ele>326.453</ele>
        <time>2019-07-18T13:57:20Z</time>
      </trkpt>
      <trkpt lat="-27.321198" lon="-70.397766">
        <ele>325.993</ele>
        <time>2019-07-18T13:57:28Z</time>
      </trkpt>
      <trkpt lat="-27.320986" lon="-70.39803">
        <ele>325.869</ele>
        <time>2019-07-18T13:57:33Z</time>
      </trkpt>
      <trkpt lat="-27.320786" lon="-70.39831">
        <ele>325.391</ele>
        <time>2019-07-18T13:57:38Z</time>
      </trkpt>
      <trkpt lat="-27.320581" lon="-70.398575">
        <ele>325.216</ele>
        <time>2019-07-18T13:57:43Z</time>
      </trkpt>
      <trkpt lat="-27.32036" lon="-70.39883">
        <ele>325.029</ele>
        <time>2019-07-18T13:57:48Z</time>
      </trkpt>
      <trkpt lat="-27.320139" lon="-70.39907">
        <ele>325.021</ele>
        <time>2019-07-18T13:57:53Z</time>
      </trkpt>
      <trkpt lat="-27.319931" lon="-70.399315">
        <ele>324.247</ele>
        <time>2019-07-18T13:57:58Z</time>
      </trkpt>
      <trkpt lat="-27.319752" lon="-70.399536">
        <ele>324.12</ele>
        <time>2019-07-18T13:58:03Z</time>
      </trkpt>
      <trkpt lat="-27.319529" lon="-70.399796">
        <ele>323.718</ele>
        <time>2019-07-18T13:58:08Z</time>
      </trkpt>
      <trkpt lat="-27.319305" lon="-70.400055">
        <ele>323.565</ele>
        <time>2019-07-18T13:58:13Z</time>
      </trkpt>
      <trkpt lat="-27.319078" lon="-70.40028">
        <ele>323.393</ele>
        <time>2019-07-18T13:58:18Z</time>
      </trkpt>
      <trkpt lat="-27.318855" lon="-70.40052">
        <ele>323.483</ele>
        <time>2019-07-18T13:58:23Z</time>
      </trkpt>
      <trkpt lat="-27.31865" lon="-70.400764">
        <ele>323.24</ele>
        <time>2019-07-18T13:58:28Z</time>
      </trkpt>
      <trkpt lat="-27.31843" lon="-70.40103">
        <ele>322.711</ele>
        <time>2019-07-18T13:58:33Z</time>
      </trkpt>
      <trkpt lat="-27.318207" lon="-70.4013">
        <ele>322.622</ele>
        <time>2019-07-18T13:58:38Z</time>
      </trkpt>
      <trkpt lat="-27.317972" lon="-70.40153">
        <ele>322.262</ele>
        <time>2019-07-18T13:58:43Z</time>
      </trkpt>
      <trkpt lat="-27.317741" lon="-70.40175">
        <ele>321.76</ele>
        <time>2019-07-18T13:58:48Z</time>
      </trkpt>
      <trkpt lat="-27.317486" lon="-70.401955">
        <ele>321.929</ele>
        <time>2019-07-18T13:58:53Z</time>
      </trkpt>
      <trkpt lat="-27.31726" lon="-70.40214">
        <ele>321.678</ele>
        <time>2019-07-18T13:58:58Z</time>
      </trkpt>
      <trkpt lat="-27.317017" lon="-70.40233">
        <ele>321.549</ele>
        <time>2019-07-18T13:59:03Z</time>
      </trkpt>
      <trkpt lat="-27.316788" lon="-70.40251">
        <ele>321.454</ele>
        <time>2019-07-18T13:59:08Z</time>
      </trkpt>
      <trkpt lat="-27.316576" lon="-70.4027">
        <ele>321.454</ele>
        <time>2019-07-18T13:59:13Z</time>
      </trkpt>
      <trkpt lat="-27.316372" lon="-70.40291">
        <ele>321.525</ele>
        <time>2019-07-18T13:59:18Z</time>
      </trkpt>
      <trkpt lat="-27.316168" lon="-70.40311">
        <ele>321.237</ele>
        <time>2019-07-18T13:59:23Z</time>
      </trkpt>
      <trkpt lat="-27.315952" lon="-70.403305">
        <ele>321.126</ele>
        <time>2019-07-18T13:59:28Z</time>
      </trkpt>
      <trkpt lat="-27.315754" lon="-70.40353">
        <ele>321.034</ele>
        <time>2019-07-18T13:59:33Z</time>
      </trkpt>
      <trkpt lat="-27.31555" lon="-70.40376">
        <ele>320.614</ele>
        <time>2019-07-18T13:59:38Z</time>
      </trkpt>
      <trkpt lat="-27.315351" lon="-70.40401">
        <ele>320.333</ele>
        <time>2019-07-18T13:59:43Z</time>
      </trkpt>
      <trkpt lat="-27.31512" lon="-70.40425">
        <ele>320.249</ele>
        <time>2019-07-18T13:59:49Z</time>
      </trkpt>
      <trkpt lat="-27.31547" lon="-70.40397">
        <ele>319.913</ele>
        <time>2019-07-18T14:15:25Z</time>
      </trkpt>
      <trkpt lat="-27.315418" lon="-70.404106">
        <ele>319.662</ele>
        <time>2019-07-18T14:15:29Z</time>
      </trkpt>
      <trkpt lat="-27.315311" lon="-70.40424">
        <ele>319.8</ele>
        <time>2019-07-18T14:15:34Z</time>
      </trkpt>
      <trkpt lat="-27.315096" lon="-70.40443">
        <ele>319.282</ele>
        <time>2019-07-18T14:15:39Z</time>
      </trkpt>
      <trkpt lat="-27.314919" lon="-70.40465">
        <ele>318.69</ele>
        <time>2019-07-18T14:15:44Z</time>
      </trkpt>
      <trkpt lat="-27.314766" lon="-70.40486">
        <ele>318.582</ele>
        <time>2019-07-18T14:15:50Z</time>
      </trkpt>
      <trkpt lat="-27.314606" lon="-70.4051">
        <ele>318.613</ele>
        <time>2019-07-18T14:15:54Z</time>
      </trkpt>
      <trkpt lat="-27.31444" lon="-70.40537">
        <ele>318.674</ele>
        <time>2019-07-18T14:15:59Z</time>
      </trkpt>
      <trkpt lat="-27.314276" lon="-70.40564">
        <ele>318.225</ele>
        <time>2019-07-18T14:16:04Z</time>
      </trkpt>
      <trkpt lat="-27.3141" lon="-70.4059">
        <ele>318.053</ele>
        <time>2019-07-18T14:16:10Z</time>
      </trkpt>
      <trkpt lat="-27.313934" lon="-70.40615">
        <ele>318.114</ele>
        <time>2019-07-18T14:16:14Z</time>
      </trkpt>
      <trkpt lat="-27.313757" lon="-70.40643">
        <ele>317.813</ele>
        <time>2019-07-18T14:16:20Z</time>
      </trkpt>
      <trkpt lat="-27.313478" lon="-70.4069">
        <ele>317.527</ele>
        <time>2019-07-18T14:16:28Z</time>
      </trkpt>
      <trkpt lat="-27.313286" lon="-70.40719">
        <ele>317.245</ele>
        <time>2019-07-18T14:16:33Z</time>
      </trkpt>
      <trkpt lat="-27.313122" lon="-70.40746">
        <ele>317.163</ele>
        <time>2019-07-18T14:16:38Z</time>
      </trkpt>
      <trkpt lat="-27.312975" lon="-70.40773">
        <ele>316.558</ele>
        <time>2019-07-18T14:16:43Z</time>
      </trkpt>
      <trkpt lat="-27.312838" lon="-70.408035">
        <ele>316.682</ele>
        <time>2019-07-18T14:16:48Z</time>
      </trkpt>
      <trkpt lat="-27.312725" lon="-70.408356">
        <ele>316.373</ele>
        <time>2019-07-18T14:16:53Z</time>
      </trkpt>
      <trkpt lat="-27.312609" lon="-70.40864">
        <ele>316.219</ele>
        <time>2019-07-18T14:16:58Z</time>
      </trkpt>
      <trkpt lat="-27.3125" lon="-70.40891">
        <ele>315.955</ele>
        <time>2019-07-18T14:17:03Z</time>
      </trkpt>
      <trkpt lat="-27.312395" lon="-70.40919">
        <ele>316.027</ele>
        <time>2019-07-18T14:17:08Z</time>
      </trkpt>
      <trkpt lat="-27.31228" lon="-70.40947">
        <ele>315.781</ele>
        <time>2019-07-18T14:17:13Z</time>
      </trkpt>
      <trkpt lat="-27.312162" lon="-70.40975">
        <ele>315.752</ele>
        <time>2019-07-18T14:17:18Z</time>
      </trkpt>
      <trkpt lat="-27.312052" lon="-70.41004">
        <ele>315.799</ele>
        <time>2019-07-18T14:17:23Z</time>
      </trkpt>
      <trkpt lat="-27.31194" lon="-70.41032">
        <ele>315.313</ele>
        <time>2019-07-18T14:17:28Z</time>
      </trkpt>
      <trkpt lat="-27.31182" lon="-70.41059">
        <ele>315.118</ele>
        <time>2019-07-18T14:17:33Z</time>
      </trkpt>
      <trkpt lat="-27.311682" lon="-70.41085">
        <ele>315.297</ele>
        <time>2019-07-18T14:17:38Z</time>
      </trkpt>
      <trkpt lat="-27.31154" lon="-70.411125">
        <ele>315.287</ele>
        <time>2019-07-18T14:17:43Z</time>
      </trkpt>
      <trkpt lat="-27.311422" lon="-70.411385">
        <ele>314.758</ele>
        <time>2019-07-18T14:17:48Z</time>
      </trkpt>
      <trkpt lat="-27.31129" lon="-70.41165">
        <ele>314.925</ele>
        <time>2019-07-18T14:17:53Z</time>
      </trkpt>
      <trkpt lat="-27.31117" lon="-70.41193">
        <ele>314.338</ele>
        <time>2019-07-18T14:17:58Z</time>
      </trkpt>
      <trkpt lat="-27.311045" lon="-70.41222">
        <ele>314.372</ele>
        <time>2019-07-18T14:18:03Z</time>
      </trkpt>
      <trkpt lat="-27.310925" lon="-70.41246">
        <ele>314.145</ele>
        <time>2019-07-18T14:18:08Z</time>
      </trkpt>
      <trkpt lat="-27.310787" lon="-70.41273">
        <ele>313.995</ele>
        <time>2019-07-18T14:18:13Z</time>
      </trkpt>
      <trkpt lat="-27.310661" lon="-70.413">
        <ele>313.672</ele>
        <time>2019-07-18T14:18:18Z</time>
      </trkpt>
      <trkpt lat="-27.310558" lon="-70.413284">
        <ele>313.699</ele>
        <time>2019-07-18T14:18:23Z</time>
      </trkpt>
      <trkpt lat="-27.310448" lon="-70.41356">
        <ele>313.709</ele>
        <time>2019-07-18T14:18:28Z</time>
      </trkpt>
      <trkpt lat="-27.310331" lon="-70.41383">
        <ele>313.136</ele>
        <time>2019-07-18T14:18:33Z</time>
      </trkpt>
      <trkpt lat="-27.310217" lon="-70.41409">
        <ele>313.136</ele>
        <time>2019-07-18T14:18:38Z</time>
      </trkpt>
      <trkpt lat="-27.310099" lon="-70.41436">
        <ele>312.644</ele>
        <time>2019-07-18T14:18:43Z</time>
      </trkpt>
      <trkpt lat="-27.30999" lon="-70.4146">
        <ele>312.948</ele>
        <time>2019-07-18T14:18:48Z</time>
      </trkpt>
      <trkpt lat="-27.309874" lon="-70.41486">
        <ele>312.156</ele>
        <time>2019-07-18T14:18:53Z</time>
      </trkpt>
      <trkpt lat="-27.309755" lon="-70.41513">
        <ele>312.37</ele>
        <time>2019-07-18T14:18:58Z</time>
      </trkpt>
      <trkpt lat="-27.309628" lon="-70.415436">
        <ele>311.844</ele>
        <time>2019-07-18T14:19:03Z</time>
      </trkpt>
      <trkpt lat="-27.309437" lon="-70.415855">
        <ele>311.625</ele>
        <time>2019-07-18T14:19:12Z</time>
      </trkpt>
      <trkpt lat="-27.309315" lon="-70.41612">
        <ele>311.265</ele>
        <time>2019-07-18T14:19:17Z</time>
      </trkpt>
      <trkpt lat="-27.309195" lon="-70.41639">
        <ele>311.218</ele>
        <time>2019-07-18T14:19:22Z</time>
      </trkpt>
      <trkpt lat="-27.309065" lon="-70.41666">
        <ele>310.763</ele>
        <time>2019-07-18T14:19:27Z</time>
      </trkpt>
      <trkpt lat="-27.308924" lon="-70.41694">
        <ele>310.7</ele>
        <time>2019-07-18T14:19:32Z</time>
      </trkpt>
      <trkpt lat="-27.308792" lon="-70.41721">
        <ele>310.483</ele>
        <time>2019-07-18T14:19:37Z</time>
      </trkpt>
      <trkpt lat="-27.308678" lon="-70.41747">
        <ele>310.396</ele>
        <time>2019-07-18T14:19:42Z</time>
      </trkpt>
      <trkpt lat="-27.308556" lon="-70.41774">
        <ele>310.084</ele>
        <time>2019-07-18T14:19:47Z</time>
      </trkpt>
      <trkpt lat="-27.308443" lon="-70.41797">
        <ele>310.441</ele>
        <time>2019-07-18T14:19:52Z</time>
      </trkpt>
      <trkpt lat="-27.30832" lon="-70.418236">
        <ele>309.886</ele>
        <time>2019-07-18T14:19:57Z</time>
      </trkpt>
      <trkpt lat="-27.308195" lon="-70.41851">
        <ele>309.931</ele>
        <time>2019-07-18T14:20:02Z</time>
      </trkpt>
      <trkpt lat="-27.308077" lon="-70.41878">
        <ele>310.058</ele>
        <time>2019-07-18T14:20:07Z</time>
      </trkpt>
      <trkpt lat="-27.307955" lon="-70.41904">
        <ele>310.14</ele>
        <time>2019-07-18T14:20:12Z</time>
      </trkpt>
      <trkpt lat="-27.30784" lon="-70.41932">
        <ele>310.055</ele>
        <time>2019-07-18T14:20:17Z</time>
      </trkpt>
      <trkpt lat="-27.307732" lon="-70.41958">
        <ele>309.722</ele>
        <time>2019-07-18T14:20:22Z</time>
      </trkpt>
      <trkpt lat="-27.307608" lon="-70.41986">
        <ele>309.357</ele>
        <time>2019-07-18T14:20:27Z</time>
      </trkpt>
      <trkpt lat="-27.307503" lon="-70.42013">
        <ele>309.392</ele>
        <time>2019-07-18T14:20:32Z</time>
      </trkpt>
      <trkpt lat="-27.307375" lon="-70.42044">
        <ele>309.038</ele>
        <time>2019-07-18T14:20:38Z</time>
      </trkpt>
      <trkpt lat="-27.30726" lon="-70.42073">
        <ele>308.895</ele>
        <time>2019-07-18T14:20:43Z</time>
      </trkpt>
      <trkpt lat="-27.307161" lon="-70.42103">
        <ele>308.382</ele>
        <time>2019-07-18T14:20:48Z</time>
      </trkpt>
      <trkpt lat="-27.307056" lon="-70.421364">
        <ele>308.409</ele>
        <time>2019-07-18T14:20:54Z</time>
      </trkpt>
      <trkpt lat="-27.306927" lon="-70.421776">
        <ele>308.023</ele>
        <time>2019-07-18T14:20:59Z</time>
      </trkpt>
      <trkpt lat="-27.306807" lon="-70.42219">
        <ele>307.783</ele>
        <time>2019-07-18T14:21:07Z</time>
      </trkpt>
      <trkpt lat="-27.306726" lon="-70.422485">
        <ele>307.13</ele>
        <time>2019-07-18T14:21:12Z</time>
      </trkpt>
      <trkpt lat="-27.306654" lon="-70.42279">
        <ele>306.982</ele>
        <time>2019-07-18T14:21:17Z</time>
      </trkpt>
      <trkpt lat="-27.30659" lon="-70.423096">
        <ele>306.625</ele>
        <time>2019-07-18T14:21:22Z</time>
      </trkpt>
      <trkpt lat="-27.306513" lon="-70.42343">
        <ele>306.535</ele>
        <time>2019-07-18T14:21:27Z</time>
      </trkpt>
      <trkpt lat="-27.306446" lon="-70.423744">
        <ele>306.369</ele>
        <time>2019-07-18T14:21:32Z</time>
      </trkpt>
      <trkpt lat="-27.306383" lon="-70.424065">
        <ele>306.411</ele>
        <time>2019-07-18T14:21:37Z</time>
      </trkpt>
      <trkpt lat="-27.306328" lon="-70.42436">
        <ele>306.078</ele>
        <time>2019-07-18T14:21:42Z</time>
      </trkpt>
      <trkpt lat="-27.306255" lon="-70.424675">
        <ele>305.801</ele>
        <time>2019-07-18T14:21:47Z</time>
      </trkpt>
      <trkpt lat="-27.306189" lon="-70.42499">
        <ele>305.748</ele>
        <time>2019-07-18T14:21:52Z</time>
      </trkpt>
      <trkpt lat="-27.306118" lon="-70.42531">
        <ele>305.65</ele>
        <time>2019-07-18T14:21:57Z</time>
      </trkpt>
      <trkpt lat="-27.306047" lon="-70.42561">
        <ele>305.407</ele>
        <time>2019-07-18T14:22:02Z</time>
      </trkpt>
      <trkpt lat="-27.305977" lon="-70.4259">
        <ele>305.309</ele>
        <time>2019-07-18T14:22:07Z</time>
      </trkpt>
      <trkpt lat="-27.305906" lon="-70.42619">
        <ele>305.386</ele>
        <time>2019-07-18T14:22:12Z</time>
      </trkpt>
      <trkpt lat="-27.30585" lon="-70.426476">
        <ele>305.354</ele>
        <time>2019-07-18T14:22:17Z</time>
      </trkpt>
      <trkpt lat="-27.30579" lon="-70.426735">
        <ele>304.834</ele>
        <time>2019-07-18T14:22:22Z</time>
      </trkpt>
      <trkpt lat="-27.305727" lon="-70.42699">
        <ele>304.667</ele>
        <time>2019-07-18T14:22:27Z</time>
      </trkpt>
      <trkpt lat="-27.305653" lon="-70.42726">
        <ele>304.702</ele>
        <time>2019-07-18T14:22:32Z</time>
      </trkpt>
      <trkpt lat="-27.305595" lon="-70.42751">
        <ele>304.377</ele>
        <time>2019-07-18T14:22:37Z</time>
      </trkpt>
      <trkpt lat="-27.30554" lon="-70.42778">
        <ele>304.216</ele>
        <time>2019-07-18T14:22:42Z</time>
      </trkpt>
      <trkpt lat="-27.305475" lon="-70.428085">
        <ele>303.822</ele>
        <time>2019-07-18T14:22:47Z</time>
      </trkpt>
      <trkpt lat="-27.305391" lon="-70.428375">
        <ele>303.597</ele>
        <time>2019-07-18T14:22:52Z</time>
      </trkpt>
      <trkpt lat="-27.305311" lon="-70.42864">
        <ele>303.888</ele>
        <time>2019-07-18T14:22:57Z</time>
      </trkpt>
      <trkpt lat="-27.305225" lon="-70.42891">
        <ele>303.928</ele>
        <time>2019-07-18T14:23:02Z</time>
      </trkpt>
      <trkpt lat="-27.30513" lon="-70.42915">
        <ele>304.128</ele>
        <time>2019-07-18T14:23:07Z</time>
      </trkpt>
      <trkpt lat="-27.305027" lon="-70.42939">
        <ele>304.752</ele>
        <time>2019-07-18T14:23:12Z</time>
      </trkpt>
      <trkpt lat="-27.30493" lon="-70.42963">
        <ele>304.438</ele>
        <time>2019-07-18T14:23:17Z</time>
      </trkpt>
      <trkpt lat="-27.30483" lon="-70.429886">
        <ele>304.562</ele>
        <time>2019-07-18T14:23:22Z</time>
      </trkpt>
      <trkpt lat="-27.304737" lon="-70.43017">
        <ele>304.324</ele>
        <time>2019-07-18T14:23:27Z</time>
      </trkpt>
      <trkpt lat="-27.304653" lon="-70.430466">
        <ele>304.239</ele>
        <time>2019-07-18T14:23:31Z</time>
      </trkpt>
      <trkpt lat="-27.304583" lon="-70.43077">
        <ele>304.105</ele>
        <time>2019-07-18T14:23:36Z</time>
      </trkpt>
      <trkpt lat="-27.304527" lon="-70.43118">
        <ele>303.56</ele>
        <time>2019-07-18T14:23:45Z</time>
      </trkpt>
      <trkpt lat="-27.304508" lon="-70.4315">
        <ele>303.7</ele>
        <time>2019-07-18T14:23:50Z</time>
      </trkpt>
      <trkpt lat="-27.304502" lon="-70.431816">
        <ele>302.923</ele>
        <time>2019-07-18T14:23:55Z</time>
      </trkpt>
      <trkpt lat="-27.304474" lon="-70.43215">
        <ele>302.506</ele>
        <time>2019-07-18T14:24:00Z</time>
      </trkpt>
      <trkpt lat="-27.304441" lon="-70.43249">
        <ele>302.456</ele>
        <time>2019-07-18T14:24:05Z</time>
      </trkpt>
      <trkpt lat="-27.304392" lon="-70.43279">
        <ele>302.419</ele>
        <time>2019-07-18T14:24:10Z</time>
      </trkpt>
      <trkpt lat="-27.304348" lon="-70.43308">
        <ele>302.609</ele>
        <time>2019-07-18T14:24:15Z</time>
      </trkpt>
      <trkpt lat="-27.304287" lon="-70.433365">
        <ele>302.329</ele>
        <time>2019-07-18T14:24:20Z</time>
      </trkpt>
      <trkpt lat="-27.30422" lon="-70.43365">
        <ele>302.474</ele>
        <time>2019-07-18T14:24:25Z</time>
      </trkpt>
      <trkpt lat="-27.304155" lon="-70.43392">
        <ele>302.194</ele>
        <time>2019-07-18T14:24:30Z</time>
      </trkpt>
      <trkpt lat="-27.30409" lon="-70.43421">
        <ele>302.012</ele>
        <time>2019-07-18T14:24:35Z</time>
      </trkpt>
      <trkpt lat="-27.304022" lon="-70.4345">
        <ele>301.703</ele>
        <time>2019-07-18T14:24:40Z</time>
      </trkpt>
      <trkpt lat="-27.303938" lon="-70.4348">
        <ele>302.398</ele>
        <time>2019-07-18T14:24:45Z</time>
      </trkpt>
      <trkpt lat="-27.303837" lon="-70.435074">
        <ele>302.971</ele>
        <time>2019-07-18T14:24:50Z</time>
      </trkpt>
      <trkpt lat="-27.303724" lon="-70.43535">
        <ele>303.788</ele>
        <time>2019-07-18T14:24:55Z</time>
      </trkpt>
      <trkpt lat="-27.303629" lon="-70.43559">
        <ele>304.29</ele>
        <time>2019-07-18T14:25:00Z</time>
      </trkpt>
      <trkpt lat="-27.30354" lon="-70.43583">
        <ele>304.424</ele>
        <time>2019-07-18T14:25:05Z</time>
      </trkpt>
      <trkpt lat="-27.303453" lon="-70.43606">
        <ele>304.197</ele>
        <time>2019-07-18T14:25:10Z</time>
      </trkpt>
      <trkpt lat="-27.30337" lon="-70.436295">
        <ele>303.394</ele>
        <time>2019-07-18T14:25:15Z</time>
      </trkpt>
      <trkpt lat="-27.303297" lon="-70.43656">
        <ele>303.037</ele>
        <time>2019-07-18T14:25:20Z</time>
      </trkpt>
      <trkpt lat="-27.303234" lon="-70.43686">
        <ele>302.292</ele>
        <time>2019-07-18T14:25:25Z</time>
      </trkpt>
      <trkpt lat="-27.303185" lon="-70.43717">
        <ele>301.631</ele>
        <time>2019-07-18T14:25:30Z</time>
      </trkpt>
      <trkpt lat="-27.303158" lon="-70.43753">
        <ele>301.314</ele>
        <time>2019-07-18T14:25:35Z</time>
      </trkpt>
      <trkpt lat="-27.303152" lon="-70.43792">
        <ele>300.411</ele>
        <time>2019-07-18T14:25:40Z</time>
      </trkpt>
      <trkpt lat="-27.303139" lon="-70.43831">
        <ele>300.445</ele>
        <time>2019-07-18T14:25:45Z</time>
      </trkpt>
      <trkpt lat="-27.303085" lon="-70.43866">
        <ele>299.6</ele>
        <time>2019-07-18T14:25:50Z</time>
      </trkpt>
      <trkpt lat="-27.303005" lon="-70.439064">
        <ele>300.36</ele>
        <time>2019-07-18T14:25:55Z</time>
      </trkpt>
      <trkpt lat="-27.302946" lon="-70.43938">
        <ele>300.286</ele>
        <time>2019-07-18T14:26:00Z</time>
      </trkpt>
      <trkpt lat="-27.30283" lon="-70.439896">
        <ele>300.017</ele>
        <time>2019-07-18T14:26:08Z</time>
      </trkpt>
      <trkpt lat="-27.302761" lon="-70.4402">
        <ele>300.117</ele>
        <time>2019-07-18T14:26:13Z</time>
      </trkpt>
      <trkpt lat="-27.302694" lon="-70.44051">
        <ele>299.454</ele>
        <time>2019-07-18T14:26:18Z</time>
      </trkpt>
      <trkpt lat="-27.3026" lon="-70.44095">
        <ele>299.288</ele>
        <time>2019-07-18T14:26:26Z</time>
      </trkpt>
      <trkpt lat="-27.302525" lon="-70.44133">
        <ele>298.902</ele>
        <time>2019-07-18T14:26:31Z</time>
      </trkpt>
      <trkpt lat="-27.30243" lon="-70.44179">
        <ele>298.952</ele>
        <time>2019-07-18T14:26:39Z</time>
      </trkpt>
      <trkpt lat="-27.302357" lon="-70.44209">
        <ele>298.561</ele>
        <time>2019-07-18T14:26:44Z</time>
      </trkpt>
      <trkpt lat="-27.302284" lon="-70.44243">
        <ele>298.625</ele>
        <time>2019-07-18T14:26:49Z</time>
      </trkpt>
      <trkpt lat="-27.302214" lon="-70.44273">
        <ele>298.389</ele>
        <time>2019-07-18T14:26:54Z</time>
      </trkpt>
      <trkpt lat="-27.302137" lon="-70.44305">
        <ele>298.202</ele>
        <time>2019-07-18T14:26:59Z</time>
      </trkpt>
      <trkpt lat="-27.30207" lon="-70.44337">
        <ele>298.268</ele>
        <time>2019-07-18T14:27:04Z</time>
      </trkpt>
      <trkpt lat="-27.302" lon="-70.44369">
        <ele>297.861</ele>
        <time>2019-07-18T14:27:09Z</time>
      </trkpt>
      <trkpt lat="-27.301939" lon="-70.44399">
        <ele>297.56</ele>
        <time>2019-07-18T14:27:14Z</time>
      </trkpt>
      <trkpt lat="-27.301874" lon="-70.44428">
        <ele>297.697</ele>
        <time>2019-07-18T14:27:19Z</time>
      </trkpt>
      <trkpt lat="-27.30181" lon="-70.444595">
        <ele>297.465</ele>
        <time>2019-07-18T14:27:24Z</time>
      </trkpt>
      <trkpt lat="-27.30174" lon="-70.44488">
        <ele>296.949</ele>
        <time>2019-07-18T14:27:29Z</time>
      </trkpt>
      <trkpt lat="-27.301674" lon="-70.44516">
        <ele>296.923</ele>
        <time>2019-07-18T14:27:34Z</time>
      </trkpt>
      <trkpt lat="-27.301613" lon="-70.44546">
        <ele>296.759</ele>
        <time>2019-07-18T14:27:39Z</time>
      </trkpt>
      <trkpt lat="-27.301542" lon="-70.44575">
        <ele>296.701</ele>
        <time>2019-07-18T14:27:44Z</time>
      </trkpt>
      <trkpt lat="-27.301476" lon="-70.44605">
        <ele>296.342</ele>
        <time>2019-07-18T14:27:49Z</time>
      </trkpt>
      <trkpt lat="-27.301403" lon="-70.44635">
        <ele>296.046</ele>
        <time>2019-07-18T14:27:54Z</time>
      </trkpt>
      <trkpt lat="-27.30133" lon="-70.44665">
        <ele>296.241</ele>
        <time>2019-07-18T14:27:59Z</time>
      </trkpt>
      <trkpt lat="-27.30127" lon="-70.44694">
        <ele>295.589</ele>
        <time>2019-07-18T14:28:04Z</time>
      </trkpt>
      <trkpt lat="-27.301203" lon="-70.44719">
        <ele>295.776</ele>
        <time>2019-07-18T14:28:09Z</time>
      </trkpt>
      <trkpt lat="-27.301142" lon="-70.44746">
        <ele>295.472</ele>
        <time>2019-07-18T14:28:14Z</time>
      </trkpt>
      <trkpt lat="-27.301085" lon="-70.4477">
        <ele>294.888</ele>
        <time>2019-07-18T14:28:19Z</time>
      </trkpt>
      <trkpt lat="-27.301027" lon="-70.44795">
        <ele>294.043</ele>
        <time>2019-07-18T14:28:24Z</time>
      </trkpt>
      <trkpt lat="-27.300957" lon="-70.448204">
        <ele>294.135</ele>
        <time>2019-07-18T14:28:29Z</time>
      </trkpt>
      <trkpt lat="-27.300905" lon="-70.44843">
        <ele>293.644</ele>
        <time>2019-07-18T14:28:34Z</time>
      </trkpt>
      <trkpt lat="-27.30085" lon="-70.44867">
        <ele>292.775</ele>
        <time>2019-07-18T14:28:39Z</time>
      </trkpt>
      <trkpt lat="-27.300797" lon="-70.44891">
        <ele>295.33</ele>
        <time>2019-07-18T14:28:44Z</time>
      </trkpt>
      <trkpt lat="-27.30074" lon="-70.449165">
        <ele>293.739</ele>
        <time>2019-07-18T14:28:49Z</time>
      </trkpt>
      <trkpt lat="-27.30068" lon="-70.449425">
        <ele>294.315</ele>
        <time>2019-07-18T14:28:54Z</time>
      </trkpt>
      <trkpt lat="-27.300623" lon="-70.44969">
        <ele>293.697</ele>
        <time>2019-07-18T14:28:59Z</time>
      </trkpt>
      <trkpt lat="-27.300512" lon="-70.450226">
        <ele>293.876</ele>
        <time>2019-07-18T14:29:07Z</time>
      </trkpt>
      <trkpt lat="-27.300455" lon="-70.45048">
        <ele>293.607</ele>
        <time>2019-07-18T14:29:13Z</time>
      </trkpt>
      <trkpt lat="-27.300379" lon="-70.4508">
        <ele>293.316</ele>
        <time>2019-07-18T14:29:18Z</time>
      </trkpt>
      <trkpt lat="-27.300283" lon="-70.4512">
        <ele>293.21</ele>
        <time>2019-07-18T14:29:27Z</time>
      </trkpt>
      <trkpt lat="-27.300203" lon="-70.451485">
        <ele>292.835</ele>
        <time>2019-07-18T14:29:32Z</time>
      </trkpt>
      <trkpt lat="-27.300129" lon="-70.45177">
        <ele>292.571</ele>
        <time>2019-07-18T14:29:37Z</time>
      </trkpt>
      <trkpt lat="-27.30005" lon="-70.452065">
        <ele>292.629</ele>
        <time>2019-07-18T14:29:42Z</time>
      </trkpt>
      <trkpt lat="-27.299992" lon="-70.45237">
        <ele>292.6</ele>
        <time>2019-07-18T14:29:47Z</time>
      </trkpt>
      <trkpt lat="-27.299927" lon="-70.45267">
        <ele>292.077</ele>
        <time>2019-07-18T14:29:52Z</time>
      </trkpt>
      <trkpt lat="-27.29986" lon="-70.452965">
        <ele>292.143</ele>
        <time>2019-07-18T14:29:57Z</time>
      </trkpt>
      <trkpt lat="-27.299795" lon="-70.45327">
        <ele>292.019</ele>
        <time>2019-07-18T14:30:02Z</time>
      </trkpt>
      <trkpt lat="-27.299732" lon="-70.453575">
        <ele>291.654</ele>
        <time>2019-07-18T14:30:07Z</time>
      </trkpt>
      <trkpt lat="-27.299673" lon="-70.45385">
        <ele>291.337</ele>
        <time>2019-07-18T14:30:12Z</time>
      </trkpt>
      <trkpt lat="-27.299612" lon="-70.4541">
        <ele>291.295</ele>
        <time>2019-07-18T14:30:17Z</time>
      </trkpt>
      <trkpt lat="-27.299553" lon="-70.454384">
        <ele>290.835</ele>
        <time>2019-07-18T14:30:22Z</time>
      </trkpt>
      <trkpt lat="-27.299479" lon="-70.45468">
        <ele>290.611</ele>
        <time>2019-07-18T14:30:27Z</time>
      </trkpt>
      <trkpt lat="-27.299397" lon="-70.45499">
        <ele>290.386</ele>
        <time>2019-07-18T14:30:32Z</time>
      </trkpt>
      <trkpt lat="-27.299307" lon="-70.45528">
        <ele>290.132</ele>
        <time>2019-07-18T14:30:37Z</time>
      </trkpt>
      <trkpt lat="-27.299213" lon="-70.455574">
        <ele>290.127</ele>
        <time>2019-07-18T14:30:42Z</time>
      </trkpt>
      <trkpt lat="-27.299114" lon="-70.45584">
        <ele>289.709</ele>
        <time>2019-07-18T14:30:47Z</time>
      </trkpt>
      <trkpt lat="-27.299028" lon="-70.45611">
        <ele>289.686</ele>
        <time>2019-07-18T14:30:52Z</time>
      </trkpt>
      <trkpt lat="-27.298939" lon="-70.45636">
        <ele>289.979</ele>
        <time>2019-07-18T14:30:57Z</time>
      </trkpt>
      <trkpt lat="-27.29884" lon="-70.45663">
        <ele>290.132</ele>
        <time>2019-07-18T14:31:02Z</time>
      </trkpt>
      <trkpt lat="-27.298698" lon="-70.456894">
        <ele>290.05</ele>
        <time>2019-07-18T14:31:07Z</time>
      </trkpt>
      <trkpt lat="-27.298561" lon="-70.45712">
        <ele>290.5</ele>
        <time>2019-07-18T14:31:12Z</time>
      </trkpt>
      <trkpt lat="-27.298416" lon="-70.45736">
        <ele>290.098</ele>
        <time>2019-07-18T14:31:17Z</time>
      </trkpt>
      <trkpt lat="-27.29826" lon="-70.45761">
        <ele>289.929</ele>
        <time>2019-07-18T14:31:22Z</time>
      </trkpt>
      <trkpt lat="-27.298096" lon="-70.457855">
        <ele>289.879</ele>
        <time>2019-07-18T14:31:27Z</time>
      </trkpt>
      <trkpt lat="-27.297943" lon="-70.4581">
        <ele>289.868</ele>
        <time>2019-07-18T14:31:32Z</time>
      </trkpt>
      <trkpt lat="-27.29779" lon="-70.45834">
        <ele>289.303</ele>
        <time>2019-07-18T14:31:37Z</time>
      </trkpt>
      <trkpt lat="-27.297628" lon="-70.458595">
        <ele>289.263</ele>
        <time>2019-07-18T14:31:42Z</time>
      </trkpt>
      <trkpt lat="-27.297478" lon="-70.45885">
        <ele>289.062</ele>
        <time>2019-07-18T14:31:47Z</time>
      </trkpt>
      <trkpt lat="-27.297333" lon="-70.459114">
        <ele>289.022</ele>
        <time>2019-07-18T14:31:51Z</time>
      </trkpt>
      <trkpt lat="-27.297186" lon="-70.45937">
        <ele>288.954</ele>
        <time>2019-07-18T14:31:56Z</time>
      </trkpt>
      <trkpt lat="-27.297033" lon="-70.45964">
        <ele>288.526</ele>
        <time>2019-07-18T14:32:01Z</time>
      </trkpt>
      <trkpt lat="-27.296797" lon="-70.46005">
        <ele>288.557</ele>
        <time>2019-07-18T14:32:10Z</time>
      </trkpt>
      <trkpt lat="-27.296642" lon="-70.46031">
        <ele>288.682</ele>
        <time>2019-07-18T14:32:15Z</time>
      </trkpt>
      <trkpt lat="-27.296494" lon="-70.46057">
        <ele>289.03</ele>
        <time>2019-07-18T14:32:20Z</time>
      </trkpt>
      <trkpt lat="-27.296343" lon="-70.46082">
        <ele>289.234</ele>
        <time>2019-07-18T14:32:25Z</time>
      </trkpt>
      <trkpt lat="-27.296202" lon="-70.461075">
        <ele>289.173</ele>
        <time>2019-07-18T14:32:30Z</time>
      </trkpt>
      <trkpt lat="-27.296064" lon="-70.46131">
        <ele>289.075</ele>
        <time>2019-07-18T14:32:35Z</time>
      </trkpt>
      <trkpt lat="-27.29594" lon="-70.461555">
        <ele>289.046</ele>
        <time>2019-07-18T14:32:40Z</time>
      </trkpt>
      <trkpt lat="-27.295822" lon="-70.46179">
        <ele>288.766</ele>
        <time>2019-07-18T14:32:45Z</time>
      </trkpt>
      <trkpt lat="-27.295702" lon="-70.462036">
        <ele>288.497</ele>
        <time>2019-07-18T14:32:50Z</time>
      </trkpt>
      <trkpt lat="-27.295593" lon="-70.462296">
        <ele>288.24</ele>
        <time>2019-07-18T14:32:55Z</time>
      </trkpt>
      <trkpt lat="-27.295483" lon="-70.46255">
        <ele>287.754</ele>
        <time>2019-07-18T14:33:00Z</time>
      </trkpt>
      <trkpt lat="-27.295376" lon="-70.4628">
        <ele>287.477</ele>
        <time>2019-07-18T14:33:05Z</time>
      </trkpt>
      <trkpt lat="-27.295279" lon="-70.46307">
        <ele>287.239</ele>
        <time>2019-07-18T14:33:10Z</time>
      </trkpt>
      <trkpt lat="-27.295183" lon="-70.46333">
        <ele>287.03</ele>
        <time>2019-07-18T14:33:15Z</time>
      </trkpt>
      <trkpt lat="-27.295105" lon="-70.46358">
        <ele>286.972</ele>
        <time>2019-07-18T14:33:20Z</time>
      </trkpt>
      <trkpt lat="-27.29503" lon="-70.46382">
        <ele>286.79</ele>
        <time>2019-07-18T14:33:25Z</time>
      </trkpt>
      <trkpt lat="-27.294952" lon="-70.46409">
        <ele>286.56</ele>
        <time>2019-07-18T14:33:30Z</time>
      </trkpt>
      <trkpt lat="-27.294886" lon="-70.46434">
        <ele>286.378</ele>
        <time>2019-07-18T14:33:35Z</time>
      </trkpt>
      <trkpt lat="-27.294825" lon="-70.46461">
        <ele>286.475</ele>
        <time>2019-07-18T14:33:40Z</time>
      </trkpt>
      <trkpt lat="-27.294765" lon="-70.46487">
        <ele>286.259</ele>
        <time>2019-07-18T14:33:45Z</time>
      </trkpt>
      <trkpt lat="-27.294708" lon="-70.46515">
        <ele>285.96</ele>
        <time>2019-07-18T14:33:50Z</time>
      </trkpt>
      <trkpt lat="-27.294659" lon="-70.46544">
        <ele>285.92</ele>
        <time>2019-07-18T14:33:55Z</time>
      </trkpt>
      <trkpt lat="-27.294613" lon="-70.46571">
        <ele>285.902</ele>
        <time>2019-07-18T14:34:00Z</time>
      </trkpt>
      <trkpt lat="-27.294567" lon="-70.465996">
        <ele>285.918</ele>
        <time>2019-07-18T14:34:05Z</time>
      </trkpt>
      <trkpt lat="-27.294538" lon="-70.46627">
        <ele>285.902</ele>
        <time>2019-07-18T14:34:10Z</time>
      </trkpt>
      <trkpt lat="-27.29451" lon="-70.46652">
        <ele>285.883</ele>
        <time>2019-07-18T14:34:15Z</time>
      </trkpt>
      <trkpt lat="-27.294483" lon="-70.46679">
        <ele>285.469</ele>
        <time>2019-07-18T14:34:20Z</time>
      </trkpt>
      <trkpt lat="-27.294468" lon="-70.46706">
        <ele>285.659</ele>
        <time>2019-07-18T14:34:25Z</time>
      </trkpt>
      <trkpt lat="-27.29445" lon="-70.46731">
        <ele>285.477</ele>
        <time>2019-07-18T14:34:30Z</time>
      </trkpt>
      <trkpt lat="-27.294443" lon="-70.467575">
        <ele>285.374</ele>
        <time>2019-07-18T14:34:34Z</time>
      </trkpt>
      <trkpt lat="-27.294436" lon="-70.46786">
        <ele>285.136</ele>
        <time>2019-07-18T14:34:39Z</time>
      </trkpt>
      <trkpt lat="-27.294437" lon="-70.46813">
        <ele>284.882</ele>
        <time>2019-07-18T14:34:44Z</time>
      </trkpt>
      <trkpt lat="-27.294441" lon="-70.46842">
        <ele>284.972</ele>
        <time>2019-07-18T14:34:49Z</time>
      </trkpt>
      <trkpt lat="-27.294449" lon="-70.46871">
        <ele>284.697</ele>
        <time>2019-07-18T14:34:54Z</time>
      </trkpt>
      <trkpt lat="-27.294462" lon="-70.46901">
        <ele>284.546</ele>
        <time>2019-07-18T14:34:59Z</time>
      </trkpt>
      <trkpt lat="-27.294489" lon="-70.469345">
        <ele>284.335</ele>
        <time>2019-07-18T14:35:07Z</time>
      </trkpt>
      <trkpt lat="-27.294521" lon="-70.469635">
        <ele>284.277</ele>
        <time>2019-07-18T14:35:12Z</time>
      </trkpt>
      <trkpt lat="-27.29455" lon="-70.469925">
        <ele>283.931</ele>
        <time>2019-07-18T14:35:17Z</time>
      </trkpt>
      <trkpt lat="-27.294588" lon="-70.47024">
        <ele>283.955</ele>
        <time>2019-07-18T14:35:22Z</time>
      </trkpt>
      <trkpt lat="-27.294632" lon="-70.47054">
        <ele>283.957</ele>
        <time>2019-07-18T14:35:27Z</time>
      </trkpt>
      <trkpt lat="-27.294674" lon="-70.47084">
        <ele>283.693</ele>
        <time>2019-07-18T14:35:32Z</time>
      </trkpt>
      <trkpt lat="-27.29472" lon="-70.47113">
        <ele>283.516</ele>
        <time>2019-07-18T14:35:37Z</time>
      </trkpt>
      <trkpt lat="-27.294773" lon="-70.47139">
        <ele>283.323</ele>
        <time>2019-07-18T14:35:42Z</time>
      </trkpt>
      <trkpt lat="-27.294836" lon="-70.47164">
        <ele>283.289</ele>
        <time>2019-07-18T14:35:47Z</time>
      </trkpt>
      <trkpt lat="-27.29491" lon="-70.4719">
        <ele>282.924</ele>
        <time>2019-07-18T14:35:52Z</time>
      </trkpt>
      <trkpt lat="-27.294983" lon="-70.472176">
        <ele>282.787</ele>
        <time>2019-07-18T14:35:57Z</time>
      </trkpt>
      <trkpt lat="-27.29506" lon="-70.47245">
        <ele>282.678</ele>
        <time>2019-07-18T14:36:02Z</time>
      </trkpt>
      <trkpt lat="-27.295132" lon="-70.47272">
        <ele>282.438</ele>
        <time>2019-07-18T14:36:07Z</time>
      </trkpt>
      <trkpt lat="-27.295198" lon="-70.47299">
        <ele>282.332</ele>
        <time>2019-07-18T14:36:12Z</time>
      </trkpt>
      <trkpt lat="-27.295263" lon="-70.47328">
        <ele>282.195</ele>
        <time>2019-07-18T14:36:17Z</time>
      </trkpt>
      <trkpt lat="-27.295332" lon="-70.473564">
        <ele>282.057</ele>
        <time>2019-07-18T14:36:22Z</time>
      </trkpt>
      <trkpt lat="-27.295414" lon="-70.47382">
        <ele>281.793</ele>
        <time>2019-07-18T14:36:27Z</time>
      </trkpt>
      <trkpt lat="-27.2955" lon="-70.4741">
        <ele>281.762</ele>
        <time>2019-07-18T14:36:32Z</time>
      </trkpt>
      <trkpt lat="-27.295565" lon="-70.47434">
        <ele>281.521</ele>
        <time>2019-07-18T14:36:37Z</time>
      </trkpt>
      <trkpt lat="-27.295603" lon="-70.47453">
        <ele>281.162</ele>
        <time>2019-07-18T14:36:42Z</time>
      </trkpt>
      <trkpt lat="-27.295626" lon="-70.4746">
        <ele>281.339</ele>
        <time>2019-07-18T14:36:47Z</time>
      </trkpt>
      <trkpt lat="-27.295681" lon="-70.4749">
        <ele>281.41</ele>
        <time>2019-07-18T14:37:17Z</time>
      </trkpt>
      <trkpt lat="-27.295736" lon="-70.475105">
        <ele>281.51</ele>
        <time>2019-07-18T14:37:22Z</time>
      </trkpt>
      <trkpt lat="-27.29581" lon="-70.475334">
        <ele>281.18</ele>
        <time>2019-07-18T14:37:27Z</time>
      </trkpt>
      <trkpt lat="-27.295887" lon="-70.475586">
        <ele>280.956</ele>
        <time>2019-07-18T14:37:32Z</time>
      </trkpt>
      <trkpt lat="-27.295965" lon="-70.47585">
        <ele>280.784</ele>
        <time>2019-07-18T14:37:37Z</time>
      </trkpt>
      <trkpt lat="-27.296038" lon="-70.47612">
        <ele>280.879</ele>
        <time>2019-07-18T14:37:42Z</time>
      </trkpt>
      <trkpt lat="-27.296116" lon="-70.47638">
        <ele>280.707</ele>
        <time>2019-07-18T14:37:47Z</time>
      </trkpt>
      <trkpt lat="-27.296188" lon="-70.47663">
        <ele>280.57</ele>
        <time>2019-07-18T14:37:52Z</time>
      </trkpt>
      <trkpt lat="-27.296272" lon="-70.47689">
        <ele>280.263</ele>
        <time>2019-07-18T14:37:57Z</time>
      </trkpt>
      <trkpt lat="-27.296347" lon="-70.47715">
        <ele>280.102</ele>
        <time>2019-07-18T14:38:02Z</time>
      </trkpt>
      <trkpt lat="-27.296434" lon="-70.477425">
        <ele>279.825</ele>
        <time>2019-07-18T14:38:07Z</time>
      </trkpt>
      <trkpt lat="-27.296509" lon="-70.47769">
        <ele>279.819</ele>
        <time>2019-07-18T14:38:12Z</time>
      </trkpt>
      <trkpt lat="-27.29659" lon="-70.47797">
        <ele>279.722</ele>
        <time>2019-07-18T14:38:17Z</time>
      </trkpt>
      <trkpt lat="-27.29665" lon="-70.478226">
        <ele>279.259</ele>
        <time>2019-07-18T14:38:22Z</time>
      </trkpt>
      <trkpt lat="-27.296705" lon="-70.47848">
        <ele>279.365</ele>
        <time>2019-07-18T14:38:27Z</time>
      </trkpt>
      <trkpt lat="-27.296753" lon="-70.47874">
        <ele>278.992</ele>
        <time>2019-07-18T14:38:33Z</time>
      </trkpt>
      <trkpt lat="-27.29679" lon="-70.47903">
        <ele>279.008</ele>
        <time>2019-07-18T14:38:38Z</time>
      </trkpt>
      <trkpt lat="-27.296837" lon="-70.479324">
        <ele>278.755</ele>
        <time>2019-07-18T14:38:43Z</time>
      </trkpt>
      <trkpt lat="-27.296871" lon="-70.479614">
        <ele>278.628</ele>
        <time>2019-07-18T14:38:48Z</time>
      </trkpt>
      <trkpt lat="-27.296906" lon="-70.47989">
        <ele>278.665</ele>
        <time>2019-07-18T14:38:53Z</time>
      </trkpt>
      <trkpt lat="-27.296938" lon="-70.48014">
        <ele>278.667</ele>
        <time>2019-07-18T14:38:58Z</time>
      </trkpt>
      <trkpt lat="-27.296968" lon="-70.48043">
        <ele>278.501</ele>
        <time>2019-07-18T14:39:03Z</time>
      </trkpt>
      <trkpt lat="-27.296986" lon="-70.480736">
        <ele>278.374</ele>
        <time>2019-07-18T14:39:08Z</time>
      </trkpt>
      <trkpt lat="-27.297007" lon="-70.481026">
        <ele>278.089</ele>
        <time>2019-07-18T14:39:13Z</time>
      </trkpt>
      <trkpt lat="-27.297026" lon="-70.48132">
        <ele>278.171</ele>
        <time>2019-07-18T14:39:18Z</time>
      </trkpt>
      <trkpt lat="-27.297043" lon="-70.48163">
        <ele>277.764</ele>
        <time>2019-07-18T14:39:23Z</time>
      </trkpt>
      <trkpt lat="-27.297071" lon="-70.48192">
        <ele>277.51</ele>
        <time>2019-07-18T14:39:28Z</time>
      </trkpt>
      <trkpt lat="-27.297094" lon="-70.482216">
        <ele>277.426</ele>
        <time>2019-07-18T14:39:33Z</time>
      </trkpt>
      <trkpt lat="-27.29712" lon="-70.482506">
        <ele>277.093</ele>
        <time>2019-07-18T14:39:38Z</time>
      </trkpt>
      <trkpt lat="-27.297144" lon="-70.4828">
        <ele>277.053</ele>
        <time>2019-07-18T14:39:43Z</time>
      </trkpt>
      <trkpt lat="-27.29716" lon="-70.4831">
        <ele>277.344</ele>
        <time>2019-07-18T14:39:48Z</time>
      </trkpt>
      <trkpt lat="-27.297182" lon="-70.48339">
        <ele>276.892</ele>
        <time>2019-07-18T14:39:53Z</time>
      </trkpt>
      <trkpt lat="-27.297207" lon="-70.48367">
        <ele>277.071</ele>
        <time>2019-07-18T14:39:58Z</time>
      </trkpt>
      <trkpt lat="-27.297235" lon="-70.48396">
        <ele>276.596</ele>
        <time>2019-07-18T14:40:03Z</time>
      </trkpt>
      <trkpt lat="-27.297262" lon="-70.484245">
        <ele>276.559</ele>
        <time>2019-07-18T14:40:08Z</time>
      </trkpt>
      <trkpt lat="-27.297295" lon="-70.48453">
        <ele>276.548</ele>
        <time>2019-07-18T14:40:13Z</time>
      </trkpt>
      <trkpt lat="-27.297327" lon="-70.48482">
        <ele>276.366</ele>
        <time>2019-07-18T14:40:18Z</time>
      </trkpt>
      <trkpt lat="-27.29736" lon="-70.48511">
        <ele>276.234</ele>
        <time>2019-07-18T14:40:23Z</time>
      </trkpt>
      <trkpt lat="-27.297398" lon="-70.485405">
        <ele>275.922</ele>
        <time>2019-07-18T14:40:28Z</time>
      </trkpt>
      <trkpt lat="-27.297451" lon="-70.4857">
        <ele>275.835</ele>
        <time>2019-07-18T14:40:33Z</time>
      </trkpt>
      <trkpt lat="-27.29751" lon="-70.485985">
        <ele>275.624</ele>
        <time>2019-07-18T14:40:38Z</time>
      </trkpt>
      <trkpt lat="-27.297585" lon="-70.48627">
        <ele>275.6</ele>
        <time>2019-07-18T14:40:43Z</time>
      </trkpt>
      <trkpt lat="-27.297676" lon="-70.48653">
        <ele>275.563</ele>
        <time>2019-07-18T14:40:48Z</time>
      </trkpt>
      <trkpt lat="-27.297771" lon="-70.48679">
        <ele>275.309</ele>
        <time>2019-07-18T14:40:53Z</time>
      </trkpt>
      <trkpt lat="-27.29788" lon="-70.487045">
        <ele>275.095</ele>
        <time>2019-07-18T14:40:58Z</time>
      </trkpt>
      <trkpt lat="-27.298006" lon="-70.48729">
        <ele>275.077</ele>
        <time>2019-07-18T14:41:02Z</time>
      </trkpt>
      <trkpt lat="-27.298141" lon="-70.487526">
        <ele>274.836</ele>
        <time>2019-07-18T14:41:07Z</time>
      </trkpt>
      <trkpt lat="-27.29828" lon="-70.48775">
        <ele>274.791</ele>
        <time>2019-07-18T14:41:12Z</time>
      </trkpt>
      <trkpt lat="-27.298435" lon="-70.48794">
        <ele>275.003</ele>
        <time>2019-07-18T14:41:17Z</time>
      </trkpt>
      <trkpt lat="-27.298597" lon="-70.48811">
        <ele>274.545</ele>
        <time>2019-07-18T14:41:22Z</time>
      </trkpt>
      <trkpt lat="-27.298769" lon="-70.48828">
        <ele>274.12</ele>
        <time>2019-07-18T14:41:28Z</time>
      </trkpt>
      <trkpt lat="-27.298965" lon="-70.48844">
        <ele>274.146</ele>
        <time>2019-07-18T14:41:33Z</time>
      </trkpt>
      <trkpt lat="-27.299187" lon="-70.488556">
        <ele>274.205</ele>
        <time>2019-07-18T14:41:38Z</time>
      </trkpt>
      <trkpt lat="-27.299393" lon="-70.48866">
        <ele>273.811</ele>
        <time>2019-07-18T14:41:43Z</time>
      </trkpt>
      <trkpt lat="-27.299603" lon="-70.488785">
        <ele>273.47</ele>
        <time>2019-07-18T14:41:48Z</time>
      </trkpt>
      <trkpt lat="-27.299816" lon="-70.48891">
        <ele>273.071</ele>
        <time>2019-07-18T14:41:53Z</time>
      </trkpt>
      <trkpt lat="-27.299948" lon="-70.489">
        <ele>273.137</ele>
        <time>2019-07-18T14:41:55Z</time>
      </trkpt>
      <trkpt lat="-27.300049" lon="-70.48905">
        <ele>273.198</ele>
        <time>2019-07-18T14:41:57Z</time>
      </trkpt>
      <trkpt lat="-27.30009" lon="-70.489075">
        <time>2019-07-18T14:41:58Z</time>
      </trkpt>
      <trkpt lat="-27.306705" lon="-70.49305">
        <ele>268.164</ele>
        <time>2019-07-18T14:48:34Z</time>
      </trkpt>
      <trkpt lat="-27.306707" lon="-70.49305">
        <ele>267.744</ele>
        <time>2019-07-18T14:48:36Z</time>
      </trkpt>
      <trkpt lat="-27.306696" lon="-70.4931">
        <ele>267.53</ele>
        <time>2019-07-18T14:50:24Z</time>
      </trkpt>
      <trkpt lat="-27.307001" lon="-70.493164">
        <ele>267.322</ele>
        <time>2019-07-18T14:50:46Z</time>
      </trkpt>
      <trkpt lat="-27.307175" lon="-70.493256">
        <ele>267.16</ele>
        <time>2019-07-18T14:50:51Z</time>
      </trkpt>
      <trkpt lat="-27.307352" lon="-70.49336">
        <ele>266.859</ele>
        <time>2019-07-18T14:50:56Z</time>
      </trkpt>
      <trkpt lat="-27.307526" lon="-70.49347">
        <ele>266.748</ele>
        <time>2019-07-18T14:51:01Z</time>
      </trkpt>
      <trkpt lat="-27.30775" lon="-70.4936">
        <ele>266.751</ele>
        <time>2019-07-18T14:51:06Z</time>
      </trkpt>
      <trkpt lat="-27.307938" lon="-70.493706">
        <ele>266.568</ele>
        <time>2019-07-18T14:51:11Z</time>
      </trkpt>
      <trkpt lat="-27.308115" lon="-70.49381">
        <ele>266.775</ele>
        <time>2019-07-18T14:51:16Z</time>
      </trkpt>
      <trkpt lat="-27.308289" lon="-70.49393">
        <ele>266.764</ele>
        <time>2019-07-18T14:51:21Z</time>
      </trkpt>
      <trkpt lat="-27.308462" lon="-70.49403">
        <ele>266.386</ele>
        <time>2019-07-18T14:51:26Z</time>
      </trkpt>
      <trkpt lat="-27.308641" lon="-70.49415">
        <ele>266.243</ele>
        <time>2019-07-18T14:51:31Z</time>
      </trkpt>
      <trkpt lat="-27.308828" lon="-70.49427">
        <ele>266.169</ele>
        <time>2019-07-18T14:51:36Z</time>
      </trkpt>
      <trkpt lat="-27.309023" lon="-70.49439">
        <ele>266.513</ele>
        <time>2019-07-18T14:51:41Z</time>
      </trkpt>
      <trkpt lat="-27.309206" lon="-70.49453">
        <ele>266.812</ele>
        <time>2019-07-18T14:51:46Z</time>
      </trkpt>
      <trkpt lat="-27.309397" lon="-70.4947">
        <ele>266.978</ele>
        <time>2019-07-18T14:51:51Z</time>
      </trkpt>
      <trkpt lat="-27.30958" lon="-70.49487">
        <ele>267.216</ele>
        <time>2019-07-18T14:51:56Z</time>
      </trkpt>
      <trkpt lat="-27.309753" lon="-70.495056">
        <ele>266.809</ele>
        <time>2019-07-18T14:52:02Z</time>
      </trkpt>
      <trkpt lat="-27.309917" lon="-70.49525">
        <ele>267.366</ele>
        <time>2019-07-18T14:52:07Z</time>
      </trkpt>
      <trkpt lat="-27.310081" lon="-70.495445">
        <ele>267.277</ele>
        <time>2019-07-18T14:52:12Z</time>
      </trkpt>
      <trkpt lat="-27.31023" lon="-70.49566">
        <ele>267.007</ele>
        <time>2019-07-18T14:52:17Z</time>
      </trkpt>
      <trkpt lat="-27.310366" lon="-70.495895">
        <ele>266.743</ele>
        <time>2019-07-18T14:52:22Z</time>
      </trkpt>
      <trkpt lat="-27.310501" lon="-70.496155">
        <ele>266.058</ele>
        <time>2019-07-18T14:52:27Z</time>
      </trkpt>
      <trkpt lat="-27.310623" lon="-70.49642">
        <ele>265.823</ele>
        <time>2019-07-18T14:52:32Z</time>
      </trkpt>
      <trkpt lat="-27.31073" lon="-70.49671">
        <ele>266.246</ele>
        <time>2019-07-18T14:52:37Z</time>
      </trkpt>
      <trkpt lat="-27.310778" lon="-70.49689">
        <ele>265.303</ele>
        <time>2019-07-18T14:52:42Z</time>
      </trkpt>
      <trkpt lat="-27.310814" lon="-70.49696">
        <ele>265.15</ele>
        <time>2019-07-18T14:52:47Z</time>
      </trkpt>
      <trkpt lat="-27.310852" lon="-70.4971">
        <ele>265.226</ele>
        <time>2019-07-18T14:52:52Z</time>
      </trkpt>
      <trkpt lat="-27.310886" lon="-70.49728">
        <ele>264.513</ele>
        <time>2019-07-18T14:52:57Z</time>
      </trkpt>
      <trkpt lat="-27.310938" lon="-70.4975">
        <ele>263.834</ele>
        <time>2019-07-18T14:53:02Z</time>
      </trkpt>
      <trkpt lat="-27.310999" lon="-70.49774">
        <ele>263.419</ele>
        <time>2019-07-18T14:53:07Z</time>
      </trkpt>
      <trkpt lat="-27.311068" lon="-70.49799">
        <ele>262.943</ele>
        <time>2019-07-18T14:53:12Z</time>
      </trkpt>
      <trkpt lat="-27.311125" lon="-70.498245">
        <ele>262.285</ele>
        <time>2019-07-18T14:53:17Z</time>
      </trkpt>
      <trkpt lat="-27.311192" lon="-70.49854">
        <ele>261.823</ele>
        <time>2019-07-18T14:53:22Z</time>
      </trkpt>
      <trkpt lat="-27.311295" lon="-70.49895">
        <ele>261.234</ele>
        <time>2019-07-18T14:53:29Z</time>
      </trkpt>
      <trkpt lat="-27.311348" lon="-70.49921">
        <ele>260.732</ele>
        <time>2019-07-18T14:53:34Z</time>
      </trkpt>
      <trkpt lat="-27.311407" lon="-70.49948">
        <ele>260.716</ele>
        <time>2019-07-18T14:53:39Z</time>
      </trkpt>
      <trkpt lat="-27.31146" lon="-70.49975">
        <ele>260.05</ele>
        <time>2019-07-18T14:53:44Z</time>
      </trkpt>
      <trkpt lat="-27.311504" lon="-70.50001">
        <ele>260.098</ele>
        <time>2019-07-18T14:53:49Z</time>
      </trkpt>
      <trkpt lat="-27.311548" lon="-70.50026">
        <ele>259.683</ele>
        <time>2019-07-18T14:53:54Z</time>
      </trkpt>
      <trkpt lat="-27.311588" lon="-70.50051">
        <ele>259.278</ele>
        <time>2019-07-18T14:53:59Z</time>
      </trkpt>
      <trkpt lat="-27.311619" lon="-70.50076">
        <ele>258.871</ele>
        <time>2019-07-18T14:54:04Z</time>
      </trkpt>
      <trkpt lat="-27.311678" lon="-70.501114">
        <ele>258.457</ele>
        <time>2019-07-18T14:54:13Z</time>
      </trkpt>
      <trkpt lat="-27.311716" lon="-70.50136">
        <ele>258.177</ele>
        <time>2019-07-18T14:54:18Z</time>
      </trkpt>
      <trkpt lat="-27.311762" lon="-70.501595">
        <ele>258.005</ele>
        <time>2019-07-18T14:54:23Z</time>
      </trkpt>
      <trkpt lat="-27.311804" lon="-70.50182">
        <ele>257.429</ele>
        <time>2019-07-18T14:54:28Z</time>
      </trkpt>
      <trkpt lat="-27.31185" lon="-70.50206">
        <ele>257.257</ele>
        <time>2019-07-18T14:54:33Z</time>
      </trkpt>
      <trkpt lat="-27.311903" lon="-70.50231">
        <ele>257.125</ele>
        <time>2019-07-18T14:54:38Z</time>
      </trkpt>
      <trkpt lat="-27.311962" lon="-70.502556">
        <ele>256.758</ele>
        <time>2019-07-18T14:54:43Z</time>
      </trkpt>
      <trkpt lat="-27.312025" lon="-70.50281">
        <ele>256.8</ele>
        <time>2019-07-18T14:54:48Z</time>
      </trkpt>
      <trkpt lat="-27.312096" lon="-70.50306">
        <ele>256.314</ele>
        <time>2019-07-18T14:54:53Z</time>
      </trkpt>
      <trkpt lat="-27.312162" lon="-70.50331">
        <ele>256.192</ele>
        <time>2019-07-18T14:54:58Z</time>
      </trkpt>
      <trkpt lat="-27.312231" lon="-70.503555">
        <ele>255.846</ele>
        <time>2019-07-18T14:55:03Z</time>
      </trkpt>
      <trkpt lat="-27.312302" lon="-70.5038">
        <ele>255.508</ele>
        <time>2019-07-18T14:55:08Z</time>
      </trkpt>
      <trkpt lat="-27.312365" lon="-70.50403">
        <ele>255.223</ele>
        <time>2019-07-18T14:55:13Z</time>
      </trkpt>
      <trkpt lat="-27.312435" lon="-70.50427">
        <ele>254.787</ele>
        <time>2019-07-18T14:55:18Z</time>
      </trkpt>
      <trkpt lat="-27.3125" lon="-70.50452">
        <ele>254.747</ele>
        <time>2019-07-18T14:55:23Z</time>
      </trkpt>
      <trkpt lat="-27.312563" lon="-70.50476">
        <ele>254.472</ele>
        <time>2019-07-18T14:55:28Z</time>
      </trkpt>
      <trkpt lat="-27.312637" lon="-70.50501">
        <ele>254.089</ele>
        <time>2019-07-18T14:55:33Z</time>
      </trkpt>
      <trkpt lat="-27.312708" lon="-70.505264">
        <ele>253.812</ele>
        <time>2019-07-18T14:55:38Z</time>
      </trkpt>
      <trkpt lat="-27.312788" lon="-70.50554">
        <ele>253.909</ele>
        <time>2019-07-18T14:55:43Z</time>
      </trkpt>
      <trkpt lat="-27.312874" lon="-70.50583">
        <ele>253.04</ele>
        <time>2019-07-18T14:55:49Z</time>
      </trkpt>
      <trkpt lat="-27.312952" lon="-70.50608">
        <ele>253.315</ele>
        <time>2019-07-18T14:55:54Z</time>
      </trkpt>
      <trkpt lat="-27.313026" lon="-70.50634">
        <ele>252.792</ele>
        <time>2019-07-18T14:55:59Z</time>
      </trkpt>
      <trkpt lat="-27.31312" lon="-70.5066">
        <ele>252.327</ele>
        <time>2019-07-18T14:56:04Z</time>
      </trkpt>
      <trkpt lat="-27.313215" lon="-70.50686">
        <ele>252.142</ele>
        <time>2019-07-18T14:56:09Z</time>
      </trkpt>
      <trkpt lat="-27.313318" lon="-70.50712">
        <ele>252.004</ele>
        <time>2019-07-18T14:56:14Z</time>
      </trkpt>
      <trkpt lat="-27.313421" lon="-70.50738">
        <ele>251.795</ele>
        <time>2019-07-18T14:56:19Z</time>
      </trkpt>
      <trkpt lat="-27.313477" lon="-70.507614">
        <ele>251.592</ele>
        <time>2019-07-18T14:56:24Z</time>
      </trkpt>
      <trkpt lat="-27.313496" lon="-70.50784">
        <ele>250.876</ele>
        <time>2019-07-18T14:56:29Z</time>
      </trkpt>
      <trkpt lat="-27.31354" lon="-70.508095">
        <ele>251.214</ele>
        <time>2019-07-18T14:56:34Z</time>
      </trkpt>
      <trkpt lat="-27.3136" lon="-70.50833">
        <ele>250.482</ele>
        <time>2019-07-18T14:56:39Z</time>
      </trkpt>
      <trkpt lat="-27.313663" lon="-70.508545">
        <ele>250.918</ele>
        <time>2019-07-18T14:56:44Z</time>
      </trkpt>
      <trkpt lat="-27.31376" lon="-70.50876">
        <ele>250.609</ele>
        <time>2019-07-18T14:56:49Z</time>
      </trkpt>
      <trkpt lat="-27.313858" lon="-70.50897">
        <ele>250.525</ele>
        <time>2019-07-18T14:56:54Z</time>
      </trkpt>
      <trkpt lat="-27.313957" lon="-70.50932">
        <ele>250.223</ele>
        <time>2019-07-18T14:57:03Z</time>
      </trkpt>
      <trkpt lat="-27.314024" lon="-70.50956">
        <ele>249.235</ele>
        <time>2019-07-18T14:57:08Z</time>
      </trkpt>
      <trkpt lat="-27.314095" lon="-70.5098">
        <ele>249.46</ele>
        <time>2019-07-18T14:57:13Z</time>
      </trkpt>
      <trkpt lat="-27.31416" lon="-70.510025">
        <ele>249.19</ele>
        <time>2019-07-18T14:57:18Z</time>
      </trkpt>
      <trkpt lat="-27.314222" lon="-70.51026">
        <ele>248.865</ele>
        <time>2019-07-18T14:57:23Z</time>
      </trkpt>
      <trkpt lat="-27.314272" lon="-70.51046">
        <ele>248.762</ele>
        <time>2019-07-18T14:57:27Z</time>
      </trkpt>
      <trkpt lat="-27.314333" lon="-70.51068">
        <ele>248.981</ele>
        <time>2019-07-18T14:57:34Z</time>
      </trkpt>
      <trkpt lat="-27.31439" lon="-70.51088">
        <ele>248.197</ele>
        <time>2019-07-18T14:57:39Z</time>
      </trkpt>
      <trkpt lat="-27.314453" lon="-70.51105">
        <ele>248.892</ele>
        <time>2019-07-18T14:57:44Z</time>
      </trkpt>
      <trkpt lat="-27.314495" lon="-70.51117">
        <ele>248.472</ele>
        <time>2019-07-18T14:57:49Z</time>
      </trkpt>
      <trkpt lat="-27.314486" lon="-70.51121">
        <ele>247.46</ele>
        <time>2019-07-18T14:57:54Z</time>
      </trkpt>
      <trkpt lat="-27.31446" lon="-70.51131">
        <ele>247.467</ele>
        <time>2019-07-18T15:01:48Z</time>
      </trkpt>
      <trkpt lat="-27.314548" lon="-70.511536">
        <ele>247.491</ele>
        <time>2019-07-18T15:02:05Z</time>
      </trkpt>
      <trkpt lat="-27.314585" lon="-70.5117">
        <ele>247.245</ele>
        <time>2019-07-18T15:02:10Z</time>
      </trkpt>
      <trkpt lat="-27.314634" lon="-70.51189">
        <ele>247.56</ele>
        <time>2019-07-18T15:02:15Z</time>
      </trkpt>
      <trkpt lat="-27.314695" lon="-70.512085">
        <ele>246.849</ele>
        <time>2019-07-18T15:02:20Z</time>
      </trkpt>
      <trkpt lat="-27.31476" lon="-70.512314">
        <ele>246.508</ele>
        <time>2019-07-18T15:02:25Z</time>
      </trkpt>
      <trkpt lat="-27.314827" lon="-70.512535">
        <ele>246.181</ele>
        <time>2019-07-18T15:02:30Z</time>
      </trkpt>
      <trkpt lat="-27.314888" lon="-70.51275">
        <ele>246.21</ele>
        <time>2019-07-18T15:02:35Z</time>
      </trkpt>
      <trkpt lat="-27.314955" lon="-70.51296">
        <ele>246.117</ele>
        <time>2019-07-18T15:02:40Z</time>
      </trkpt>
      <trkpt lat="-27.31502" lon="-70.51312">
        <ele>246.569</ele>
        <time>2019-07-18T15:02:45Z</time>
      </trkpt>
      <trkpt lat="-27.315063" lon="-70.51327">
        <ele>246.617</ele>
        <time>2019-07-18T15:02:50Z</time>
      </trkpt>
      <trkpt lat="-27.315126" lon="-70.51341">
        <ele>246.397</ele>
        <time>2019-07-18T15:02:55Z</time>
      </trkpt>
      <trkpt lat="-27.315187" lon="-70.51355">
        <ele>246.236</ele>
        <time>2019-07-18T15:03:00Z</time>
      </trkpt>
      <trkpt lat="-27.315258" lon="-70.51372">
        <ele>246.162</ele>
        <time>2019-07-18T15:03:06Z</time>
      </trkpt>
      <trkpt lat="-27.315329" lon="-70.51392">
        <ele>245.842</ele>
        <time>2019-07-18T15:03:11Z</time>
      </trkpt>
      <trkpt lat="-27.315393" lon="-70.51414">
        <ele>245.475</ele>
        <time>2019-07-18T15:03:16Z</time>
      </trkpt>
      <trkpt lat="-27.315441" lon="-70.514366">
        <ele>245.372</ele>
        <time>2019-07-18T15:03:21Z</time>
      </trkpt>
      <trkpt lat="-27.315496" lon="-70.51459">
        <ele>245.338</ele>
        <time>2019-07-18T15:03:26Z</time>
      </trkpt>
      <trkpt lat="-27.315552" lon="-70.51479">
        <ele>245.018</ele>
        <time>2019-07-18T15:03:31Z</time>
      </trkpt>
      <trkpt lat="-27.315607" lon="-70.515">
        <ele>245.026</ele>
        <time>2019-07-18T15:03:36Z</time>
      </trkpt>
      <trkpt lat="-27.315655" lon="-70.515236">
        <ele>244.915</ele>
        <time>2019-07-18T15:03:41Z</time>
      </trkpt>
      <trkpt lat="-27.315708" lon="-70.51545">
        <ele>244.965</ele>
        <time>2019-07-18T15:03:46Z</time>
      </trkpt>
      <trkpt lat="-27.315763" lon="-70.51567">
        <ele>244.394</ele>
        <time>2019-07-18T15:03:51Z</time>
      </trkpt>
      <trkpt lat="-27.315825" lon="-70.51588">
        <ele>244.495</ele>
        <time>2019-07-18T15:03:56Z</time>
      </trkpt>
      <trkpt lat="-27.315884" lon="-70.51609">
        <ele>244.355</ele>
        <time>2019-07-18T15:04:01Z</time>
      </trkpt>
      <trkpt lat="-27.315943" lon="-70.51631">
        <ele>243.977</ele>
        <time>2019-07-18T15:04:06Z</time>
      </trkpt>
      <trkpt lat="-27.316006" lon="-70.51653">
        <ele>243.916</ele>
        <time>2019-07-18T15:04:11Z</time>
      </trkpt>
      <trkpt lat="-27.316061" lon="-70.51675">
        <ele>243.731</ele>
        <time>2019-07-18T15:04:16Z</time>
      </trkpt>
      <trkpt lat="-27.316114" lon="-70.51695">
        <ele>243.779</ele>
        <time>2019-07-18T15:04:21Z</time>
      </trkpt>
      <trkpt lat="-27.316172" lon="-70.51716">
        <ele>243.581</ele>
        <time>2019-07-18T15:04:26Z</time>
      </trkpt>
      <trkpt lat="-27.316229" lon="-70.517365">
        <ele>243.768</ele>
        <time>2019-07-18T15:04:31Z</time>
      </trkpt>
      <trkpt lat="-27.316288" lon="-70.51757">
        <ele>243.375</ele>
        <time>2019-07-18T15:04:36Z</time>
      </trkpt>
      <trkpt lat="-27.316347" lon="-70.517784">
        <ele>243.19</ele>
        <time>2019-07-18T15:04:41Z</time>
      </trkpt>
      <trkpt lat="-27.316406" lon="-70.518">
        <ele>243.028</ele>
        <time>2019-07-18T15:04:46Z</time>
      </trkpt>
      <trkpt lat="-27.31646" lon="-70.5182">
        <ele>243.036</ele>
        <time>2019-07-18T15:04:51Z</time>
      </trkpt>
      <trkpt lat="-27.316519" lon="-70.51841">
        <ele>242.92</ele>
        <time>2019-07-18T15:04:56Z</time>
      </trkpt>
      <trkpt lat="-27.31657" lon="-70.51862">
        <ele>242.524</ele>
        <time>2019-07-18T15:05:01Z</time>
      </trkpt>
      <trkpt lat="-27.316628" lon="-70.518845">
        <ele>242.492</ele>
        <time>2019-07-18T15:05:06Z</time>
      </trkpt>
      <trkpt lat="-27.316689" lon="-70.519066">
        <ele>242.674</ele>
        <time>2019-07-18T15:05:11Z</time>
      </trkpt>
      <trkpt lat="-27.31674" lon="-70.51929">
        <ele>242.595</ele>
        <time>2019-07-18T15:05:16Z</time>
      </trkpt>
      <trkpt lat="-27.316797" lon="-70.519516">
        <ele>242.223</ele>
        <time>2019-07-18T15:05:21Z</time>
      </trkpt>
      <trkpt lat="-27.316866" lon="-70.51974">
        <ele>241.995</ele>
        <time>2019-07-18T15:05:26Z</time>
      </trkpt>
      <trkpt lat="-27.316929" lon="-70.51997">
        <ele>241.525</ele>
        <time>2019-07-18T15:05:31Z</time>
      </trkpt>
      <trkpt lat="-27.317005" lon="-70.52029">
        <ele>241.781</ele>
        <time>2019-07-18T15:05:38Z</time>
      </trkpt>
      <trkpt lat="-27.31706" lon="-70.5205">
        <ele>241.38</ele>
        <time>2019-07-18T15:05:43Z</time>
      </trkpt>
      <trkpt lat="-27.317122" lon="-70.52071">
        <ele>241.322</ele>
        <time>2019-07-18T15:05:48Z</time>
      </trkpt>
      <trkpt lat="-27.317184" lon="-70.520935">
        <ele>241.824</ele>
        <time>2019-07-18T15:05:53Z</time>
      </trkpt>
      <trkpt lat="-27.31725" lon="-70.52116">
        <ele>240.78</ele>
        <time>2019-07-18T15:05:58Z</time>
      </trkpt>
      <trkpt lat="-27.317308" lon="-70.5214">
        <ele>240.909</ele>
        <time>2019-07-18T15:06:03Z</time>
      </trkpt>
      <trkpt lat="-27.317366" lon="-70.52162">
        <ele>240.727</ele>
        <time>2019-07-18T15:06:08Z</time>
      </trkpt>
      <trkpt lat="-27.317425" lon="-70.52183">
        <ele>240.582</ele>
        <time>2019-07-18T15:06:13Z</time>
      </trkpt>
      <trkpt lat="-27.317488" lon="-70.52204">
        <ele>240.391</ele>
        <time>2019-07-18T15:06:18Z</time>
      </trkpt>
      <trkpt lat="-27.317554" lon="-70.52226">
        <ele>239.871</ele>
        <time>2019-07-18T15:06:23Z</time>
      </trkpt>
      <trkpt lat="-27.317617" lon="-70.5225">
        <ele>240.304</ele>
        <time>2019-07-18T15:06:28Z</time>
      </trkpt>
      <trkpt lat="-27.317677" lon="-70.52273">
        <ele>239.977</ele>
        <time>2019-07-18T15:06:33Z</time>
      </trkpt>
      <trkpt lat="-27.317736" lon="-70.52296">
        <ele>239.493</ele>
        <time>2019-07-18T15:06:38Z</time>
      </trkpt>
      <trkpt lat="-27.317795" lon="-70.52318">
        <ele>237.163</ele>
        <time>2019-07-18T15:06:43Z</time>
      </trkpt>
      <trkpt lat="-27.317852" lon="-70.52339">
        <ele>235.992</ele>
        <time>2019-07-18T15:06:48Z</time>
      </trkpt>
      <trkpt lat="-27.31791" lon="-70.52358">
        <ele>235.575</ele>
        <time>2019-07-18T15:06:53Z</time>
      </trkpt>
      <trkpt lat="-27.317965" lon="-70.52377">
        <ele>235.281</ele>
        <time>2019-07-18T15:06:58Z</time>
      </trkpt>
      <trkpt lat="-27.318016" lon="-70.523964">
        <ele>235.744</ele>
        <time>2019-07-18T15:07:03Z</time>
      </trkpt>
      <trkpt lat="-27.31808" lon="-70.52417">
        <ele>236.668</ele>
        <time>2019-07-18T15:07:08Z</time>
      </trkpt>
      <trkpt lat="-27.31814" lon="-70.52437">
        <ele>235.715</ele>
        <time>2019-07-18T15:07:13Z</time>
      </trkpt>
      <trkpt lat="-27.318197" lon="-70.52457">
        <ele>236.172</ele>
        <time>2019-07-18T15:07:18Z</time>
      </trkpt>
      <trkpt lat="-27.318254" lon="-70.524765">
        <ele>237.152</ele>
        <time>2019-07-18T15:07:23Z</time>
      </trkpt>
      <trkpt lat="-27.318304" lon="-70.52497">
        <ele>235.279</ele>
        <time>2019-07-18T15:07:28Z</time>
      </trkpt>
      <trkpt lat="-27.31836" lon="-70.52518">
        <ele>235.77</ele>
        <time>2019-07-18T15:07:33Z</time>
      </trkpt>
      <trkpt lat="-27.318415" lon="-70.52538">
        <ele>237.141</ele>
        <time>2019-07-18T15:07:38Z</time>
      </trkpt>
      <trkpt lat="-27.318466" lon="-70.52558">
        <ele>236.993</ele>
        <time>2019-07-18T15:07:43Z</time>
      </trkpt>
      <trkpt lat="-27.318514" lon="-70.52577">
        <ele>237.641</ele>
        <time>2019-07-18T15:07:48Z</time>
      </trkpt>
      <trkpt lat="-27.31857" lon="-70.52596">
        <ele>239.2</ele>
        <time>2019-07-18T15:07:53Z</time>
      </trkpt>
      <trkpt lat="-27.318619" lon="-70.52615">
        <ele>238.201</ele>
        <time>2019-07-18T15:07:58Z</time>
      </trkpt>
      <trkpt lat="-27.318659" lon="-70.526344">
        <ele>238.109</ele>
        <time>2019-07-18T15:08:02Z</time>
      </trkpt>
      <trkpt lat="-27.318708" lon="-70.526566">
        <ele>237.887</ele>
        <time>2019-07-18T15:08:07Z</time>
      </trkpt>
      <trkpt lat="-27.31876" lon="-70.52678">
        <ele>237.593</ele>
        <time>2019-07-18T15:08:12Z</time>
      </trkpt>
      <trkpt lat="-27.318815" lon="-70.527016">
        <ele>237.398</ele>
        <time>2019-07-18T15:08:17Z</time>
      </trkpt>
      <trkpt lat="-27.318874" lon="-70.52722">
        <ele>236.975</ele>
        <time>2019-07-18T15:08:22Z</time>
      </trkpt>
      <trkpt lat="-27.318935" lon="-70.52746">
        <ele>236.956</ele>
        <time>2019-07-18T15:08:27Z</time>
      </trkpt>
      <trkpt lat="-27.31899" lon="-70.52767">
        <ele>237.094</ele>
        <time>2019-07-18T15:08:32Z</time>
      </trkpt>
      <trkpt lat="-27.319054" lon="-70.527885">
        <ele>237.03</ele>
        <time>2019-07-18T15:08:37Z</time>
      </trkpt>
      <trkpt lat="-27.319118" lon="-70.52811">
        <ele>236.721</ele>
        <time>2019-07-18T15:08:42Z</time>
      </trkpt>
      <trkpt lat="-27.319176" lon="-70.528336">
        <ele>236.513</ele>
        <time>2019-07-18T15:08:47Z</time>
      </trkpt>
      <trkpt lat="-27.319233" lon="-70.52858">
        <ele>236.285</ele>
        <time>2019-07-18T15:08:52Z</time>
      </trkpt>
      <trkpt lat="-27.319294" lon="-70.52881">
        <ele>236.275</ele>
        <time>2019-07-18T15:08:57Z</time>
      </trkpt>
      <trkpt lat="-27.319355" lon="-70.52902">
        <ele>236.114</ele>
        <time>2019-07-18T15:09:02Z</time>
      </trkpt>
      <trkpt lat="-27.31941" lon="-70.52924">
        <ele>235.696</ele>
        <time>2019-07-18T15:09:07Z</time>
      </trkpt>
      <trkpt lat="-27.319473" lon="-70.529465">
        <ele>235.857</ele>
        <time>2019-07-18T15:09:12Z</time>
      </trkpt>
      <trkpt lat="-27.31954" lon="-70.52971">
        <ele>235.207</ele>
        <time>2019-07-18T15:09:18Z</time>
      </trkpt>
      <trkpt lat="-27.319635" lon="-70.53009">
        <ele>235.131</ele>
        <time>2019-07-18T15:09:27Z</time>
      </trkpt>
      <trkpt lat="-27.31969" lon="-70.530334">
        <ele>235.117</ele>
        <time>2019-07-18T15:09:32Z</time>
      </trkpt>
      <trkpt lat="-27.31975" lon="-70.530556">
        <ele>234.37</ele>
        <time>2019-07-18T15:09:37Z</time>
      </trkpt>
      <trkpt lat="-27.319805" lon="-70.53078">
        <ele>234.491</ele>
        <time>2019-07-18T15:09:42Z</time>
      </trkpt>
      <trkpt lat="-27.319859" lon="-70.53098">
        <ele>234.502</ele>
        <time>2019-07-18T15:09:46Z</time>
      </trkpt>
      <trkpt lat="-27.31991" lon="-70.53119">
        <ele>234.647</ele>
        <time>2019-07-18T15:09:51Z</time>
      </trkpt>
      <trkpt lat="-27.319975" lon="-70.53139">
        <ele>234.026</ele>
        <time>2019-07-18T15:09:56Z</time>
      </trkpt>
      <trkpt lat="-27.320045" lon="-70.53159">
        <ele>233.942</ele>
        <time>2019-07-18T15:10:01Z</time>
      </trkpt>
      <trkpt lat="-27.320103" lon="-70.53183">
        <ele>233.775</ele>
        <time>2019-07-18T15:10:07Z</time>
      </trkpt>
      <trkpt lat="-27.32015" lon="-70.53202">
        <ele>233.646</ele>
        <time>2019-07-18T15:10:11Z</time>
      </trkpt>
      <trkpt lat="-27.320204" lon="-70.53218">
        <ele>233.524</ele>
        <time>2019-07-18T15:10:16Z</time>
      </trkpt>
      <trkpt lat="-27.320255" lon="-70.53238">
        <ele>232.961</ele>
        <time>2019-07-18T15:10:21Z</time>
      </trkpt>
      <trkpt lat="-27.320318" lon="-70.5326">
        <ele>233.022</ele>
        <time>2019-07-18T15:10:26Z</time>
      </trkpt>
      <trkpt lat="-27.320404" lon="-70.532906">
        <ele>232.768</ele>
        <time>2019-07-18T15:10:34Z</time>
      </trkpt>
      <trkpt lat="-27.320463" lon="-70.53312">
        <ele>232.51</ele>
        <time>2019-07-18T15:10:39Z</time>
      </trkpt>
      <trkpt lat="-27.320522" lon="-70.53333">
        <ele>232.459</ele>
        <time>2019-07-18T15:10:44Z</time>
      </trkpt>
      <trkpt lat="-27.320581" lon="-70.533554">
        <ele>232.1</ele>
        <time>2019-07-18T15:10:49Z</time>
      </trkpt>
      <trkpt lat="-27.320642" lon="-70.53378">
        <ele>232.023</ele>
        <time>2019-07-18T15:10:54Z</time>
      </trkpt>
      <trkpt lat="-27.3207" lon="-70.53402">
        <ele>231.934</ele>
        <time>2019-07-18T15:10:59Z</time>
      </trkpt>
      <trkpt lat="-27.320757" lon="-70.53424">
        <ele>231.635</ele>
        <time>2019-07-18T15:11:04Z</time>
      </trkpt>
      <trkpt lat="-27.320818" lon="-70.53446">
        <ele>231.561</ele>
        <time>2019-07-18T15:11:09Z</time>
      </trkpt>
      <trkpt lat="-27.320879" lon="-70.53469">
        <ele>231.461</ele>
        <time>2019-07-18T15:11:14Z</time>
      </trkpt>
      <trkpt lat="-27.320934" lon="-70.53492">
        <ele>231.439</ele>
        <time>2019-07-18T15:11:19Z</time>
      </trkpt>
      <trkpt lat="-27.321003" lon="-70.53516">
        <ele>231.239</ele>
        <time>2019-07-18T15:11:24Z</time>
      </trkpt>
      <trkpt lat="-27.32107" lon="-70.535385">
        <ele>231.215</ele>
        <time>2019-07-18T15:11:29Z</time>
      </trkpt>
      <trkpt lat="-27.32113" lon="-70.53562">
        <ele>231.21</ele>
        <time>2019-07-18T15:11:34Z</time>
      </trkpt>
      <trkpt lat="-27.32119" lon="-70.53586">
        <ele>230.988</ele>
        <time>2019-07-18T15:11:39Z</time>
      </trkpt>
      <trkpt lat="-27.32125" lon="-70.53609">
        <ele>230.631</ele>
        <time>2019-07-18T15:11:44Z</time>
      </trkpt>
      <trkpt lat="-27.321314" lon="-70.53631">
        <ele>230.623</ele>
        <time>2019-07-18T15:11:49Z</time>
      </trkpt>
      <trkpt lat="-27.321375" lon="-70.53653">
        <ele>230.356</ele>
        <time>2019-07-18T15:11:54Z</time>
      </trkpt>
      <trkpt lat="-27.32143" lon="-70.53675">
        <ele>230.221</ele>
        <time>2019-07-18T15:11:59Z</time>
      </trkpt>
      <trkpt lat="-27.321476" lon="-70.53695">
        <ele>230.081</ele>
        <time>2019-07-18T15:12:04Z</time>
      </trkpt>
      <trkpt lat="-27.32154" lon="-70.537155">
        <ele>229.585</ele>
        <time>2019-07-18T15:12:09Z</time>
      </trkpt>
      <trkpt lat="-27.321562" lon="-70.537346">
        <ele>229.783</ele>
        <time>2019-07-18T15:12:14Z</time>
      </trkpt>
      <trkpt lat="-27.32161" lon="-70.53754">
        <ele>229.68</ele>
        <time>2019-07-18T15:12:19Z</time>
      </trkpt>
      <trkpt lat="-27.321667" lon="-70.53775">
        <ele>229.423</ele>
        <time>2019-07-18T15:12:24Z</time>
      </trkpt>
      <trkpt lat="-27.321726" lon="-70.537964">
        <ele>229.196</ele>
        <time>2019-07-18T15:12:29Z</time>
      </trkpt>
      <trkpt lat="-27.32179" lon="-70.53816">
        <ele>229.26</ele>
        <time>2019-07-18T15:12:34Z</time>
      </trkpt>
      <trkpt lat="-27.321856" lon="-70.53836">
        <ele>229.069</ele>
        <time>2019-07-18T15:12:39Z</time>
      </trkpt>
      <trkpt lat="-27.321922" lon="-70.538574">
        <ele>229.04</ele>
        <time>2019-07-18T15:12:44Z</time>
      </trkpt>
      <trkpt lat="-27.321978" lon="-70.53879">
        <ele>229.252</ele>
        <time>2019-07-18T15:12:49Z</time>
      </trkpt>
      <trkpt lat="-27.322042" lon="-70.53902">
        <ele>228.908</ele>
        <time>2019-07-18T15:12:54Z</time>
      </trkpt>
      <trkpt lat="-27.322107" lon="-70.539246">
        <ele>228.763</ele>
        <time>2019-07-18T15:12:58Z</time>
      </trkpt>
      <trkpt lat="-27.322178" lon="-70.53948">
        <ele>228.673</ele>
        <time>2019-07-18T15:13:04Z</time>
      </trkpt>
      <trkpt lat="-27.322245" lon="-70.53971">
        <ele>228.269</ele>
        <time>2019-07-18T15:13:09Z</time>
      </trkpt>
      <trkpt lat="-27.322304" lon="-70.53995">
        <ele>228.073</ele>
        <time>2019-07-18T15:13:14Z</time>
      </trkpt>
      <trkpt lat="-27.322365" lon="-70.540184">
        <ele>228.081</ele>
        <time>2019-07-18T15:13:19Z</time>
      </trkpt>
      <trkpt lat="-27.322432" lon="-70.54042">
        <ele>227.579</ele>
        <time>2019-07-18T15:13:24Z</time>
      </trkpt>
      <trkpt lat="-27.322496" lon="-70.54066">
        <ele>228.559</ele>
        <time>2019-07-18T15:13:29Z</time>
      </trkpt>
      <trkpt lat="-27.322557" lon="-70.5409">
        <ele>227.605</ele>
        <time>2019-07-18T15:13:34Z</time>
      </trkpt>
      <trkpt lat="-27.32262" lon="-70.54114">
        <ele>227.241</ele>
        <time>2019-07-18T15:13:39Z</time>
      </trkpt>
      <trkpt lat="-27.322687" lon="-70.541374">
        <ele>226.977</ele>
        <time>2019-07-18T15:13:44Z</time>
      </trkpt>
      <trkpt lat="-27.322748" lon="-70.54161">
        <ele>226.644</ele>
        <time>2019-07-18T15:13:49Z</time>
      </trkpt>
      <trkpt lat="-27.322803" lon="-70.54184">
        <ele>226.773</ele>
        <time>2019-07-18T15:13:54Z</time>
      </trkpt>
      <trkpt lat="-27.322851" lon="-70.54205">
        <ele>226.612</ele>
        <time>2019-07-18T15:13:59Z</time>
      </trkpt>
      <trkpt lat="-27.322884" lon="-70.54226">
        <ele>226.464</ele>
        <time>2019-07-18T15:14:04Z</time>
      </trkpt>
      <trkpt lat="-27.322943" lon="-70.54248">
        <ele>226.187</ele>
        <time>2019-07-18T15:14:09Z</time>
      </trkpt>
      <trkpt lat="-27.323008" lon="-70.542694">
        <ele>225.88</ele>
        <time>2019-07-18T15:14:14Z</time>
      </trkpt>
      <trkpt lat="-27.32307" lon="-70.542946">
        <ele>225.611</ele>
        <time>2019-07-18T15:14:19Z</time>
      </trkpt>
      <trkpt lat="-27.323103" lon="-70.543144">
        <ele>225.589</ele>
        <time>2019-07-18T15:14:26Z</time>
      </trkpt>
      <trkpt lat="-27.32318" lon="-70.54336">
        <ele>225.465</ele>
        <time>2019-07-18T15:14:31Z</time>
      </trkpt>
      <trkpt lat="-27.323244" lon="-70.54358">
        <ele>225.251</ele>
        <time>2019-07-18T15:14:36Z</time>
      </trkpt>
      <trkpt lat="-27.323313" lon="-70.543816">
        <ele>225.315</ele>
        <time>2019-07-18T15:14:41Z</time>
      </trkpt>
      <trkpt lat="-27.323372" lon="-70.54404">
        <ele>225.04</ele>
        <time>2019-07-18T15:14:46Z</time>
      </trkpt>
      <trkpt lat="-27.323431" lon="-70.54425">
        <ele>225.146</ele>
        <time>2019-07-18T15:14:51Z</time>
      </trkpt>
      <trkpt lat="-27.323488" lon="-70.544464">
        <ele>225.013</ele>
        <time>2019-07-18T15:14:56Z</time>
      </trkpt>
      <trkpt lat="-27.32355" lon="-70.544685">
        <ele>225.042</ele>
        <time>2019-07-18T15:15:01Z</time>
      </trkpt>
      <trkpt lat="-27.323608" lon="-70.54488">
        <ele>225.087</ele>
        <time>2019-07-18T15:15:06Z</time>
      </trkpt>
      <trkpt lat="-27.323662" lon="-70.54509">
        <ele>224.728</ele>
        <time>2019-07-18T15:15:11Z</time>
      </trkpt>
      <trkpt lat="-27.323713" lon="-70.545296">
        <ele>224.828</ele>
        <time>2019-07-18T15:15:16Z</time>
      </trkpt>
      <trkpt lat="-27.323772" lon="-70.545494">
        <ele>224.651</ele>
        <time>2019-07-18T15:15:21Z</time>
      </trkpt>
      <trkpt lat="-27.323832" lon="-70.54569">
        <ele>224.255</ele>
        <time>2019-07-18T15:15:26Z</time>
      </trkpt>
      <trkpt lat="-27.323904" lon="-70.54588">
        <ele>223.816</ele>
        <time>2019-07-18T15:15:31Z</time>
      </trkpt>
      <trkpt lat="-27.323954" lon="-70.54608">
        <ele>223.478</ele>
        <time>2019-07-18T15:15:36Z</time>
      </trkpt>
      <trkpt lat="-27.324007" lon="-70.54629">
        <ele>223.531</ele>
        <time>2019-07-18T15:15:41Z</time>
      </trkpt>
      <trkpt lat="-27.324062" lon="-70.54648">
        <ele>223.233</ele>
        <time>2019-07-18T15:15:46Z</time>
      </trkpt>
      <trkpt lat="-27.324106" lon="-70.54668">
        <ele>223.243</ele>
        <time>2019-07-18T15:15:51Z</time>
      </trkpt>
      <trkpt lat="-27.324165" lon="-70.54689">
        <ele>222.9</ele>
        <time>2019-07-18T15:15:56Z</time>
      </trkpt>
      <trkpt lat="-27.32422" lon="-70.547104">
        <ele>222.662</ele>
        <time>2019-07-18T15:16:01Z</time>
      </trkpt>
      <trkpt lat="-27.32427" lon="-70.5473">
        <ele>222.823</ele>
        <time>2019-07-18T15:16:06Z</time>
      </trkpt>
      <trkpt lat="-27.324316" lon="-70.54747">
        <ele>222.59</ele>
        <time>2019-07-18T15:16:11Z</time>
      </trkpt>
      <trkpt lat="-27.324371" lon="-70.547676">
        <ele>222.472</ele>
        <time>2019-07-18T15:16:16Z</time>
      </trkpt>
      <trkpt lat="-27.324427" lon="-70.54788">
        <ele>222.287</ele>
        <time>2019-07-18T15:16:21Z</time>
      </trkpt>
      <trkpt lat="-27.324486" lon="-70.54808">
        <ele>222.131</ele>
        <time>2019-07-18T15:16:26Z</time>
      </trkpt>
      <trkpt lat="-27.32454" lon="-70.54829">
        <ele>221.917</ele>
        <time>2019-07-18T15:16:31Z</time>
      </trkpt>
      <trkpt lat="-27.324596" lon="-70.54851">
        <ele>221.676</ele>
        <time>2019-07-18T15:16:36Z</time>
      </trkpt>
      <trkpt lat="-27.324652" lon="-70.54871">
        <ele>221.642</ele>
        <time>2019-07-18T15:16:41Z</time>
      </trkpt>
      <trkpt lat="-27.324713" lon="-70.54892">
        <ele>221.19</ele>
        <time>2019-07-18T15:16:46Z</time>
      </trkpt>
      <trkpt lat="-27.324806" lon="-70.549286">
        <ele>221.412</ele>
        <time>2019-07-18T15:16:54Z</time>
      </trkpt>
      <trkpt lat="-27.32486" lon="-70.54949">
        <ele>220.812</ele>
        <time>2019-07-18T15:16:59Z</time>
      </trkpt>
      <trkpt lat="-27.324915" lon="-70.5497">
        <ele>220.87</ele>
        <time>2019-07-18T15:17:04Z</time>
      </trkpt>
      <trkpt lat="-27.324974" lon="-70.549904">
        <ele>220.664</ele>
        <time>2019-07-18T15:17:09Z</time>
      </trkpt>
      <trkpt lat="-27.32503" lon="-70.550125">
        <ele>220.551</ele>
        <time>2019-07-18T15:17:14Z</time>
      </trkpt>
      <trkpt lat="-27.325087" lon="-70.55034">
        <ele>220.492</ele>
        <time>2019-07-18T15:17:19Z</time>
      </trkpt>
      <trkpt lat="-27.325153" lon="-70.55055">
        <ele>220.31</ele>
        <time>2019-07-18T15:17:24Z</time>
      </trkpt>
      <trkpt lat="-27.325207" lon="-70.55077">
        <ele>219.948</ele>
        <time>2019-07-18T15:17:29Z</time>
      </trkpt>
      <trkpt lat="-27.325272" lon="-70.55097">
        <ele>219.605</ele>
        <time>2019-07-18T15:17:34Z</time>
      </trkpt>
      <trkpt lat="-27.325314" lon="-70.55115">
        <ele>219.848</ele>
        <time>2019-07-18T15:17:39Z</time>
      </trkpt>
      <trkpt lat="-27.325367" lon="-70.551346">
        <ele>219.499</ele>
        <time>2019-07-18T15:17:44Z</time>
      </trkpt>
      <trkpt lat="-27.325422" lon="-70.551544">
        <ele>219.488</ele>
        <time>2019-07-18T15:17:49Z</time>
      </trkpt>
      <trkpt lat="-27.325472" lon="-70.55175">
        <ele>219.319</ele>
        <time>2019-07-18T15:17:54Z</time>
      </trkpt>
      <trkpt lat="-27.32553" lon="-70.551956">
        <ele>219.348</ele>
        <time>2019-07-18T15:17:59Z</time>
      </trkpt>
      <trkpt lat="-27.325584" lon="-70.55217">
        <ele>219.673</ele>
        <time>2019-07-18T15:18:04Z</time>
      </trkpt>
      <trkpt lat="-27.325638" lon="-70.55237">
        <ele>219.525</ele>
        <time>2019-07-18T15:18:09Z</time>
      </trkpt>
      <trkpt lat="-27.325693" lon="-70.55257">
        <ele>219.539</ele>
        <time>2019-07-18T15:18:14Z</time>
      </trkpt>
      <trkpt lat="-27.325747" lon="-70.55277">
        <ele>219.837</ele>
        <time>2019-07-18T15:18:19Z</time>
      </trkpt>
      <trkpt lat="-27.325806" lon="-70.55299">
        <ele>220.025</ele>
        <time>2019-07-18T15:18:24Z</time>
      </trkpt>
      <trkpt lat="-27.325861" lon="-70.55321">
        <ele>219.79</ele>
        <time>2019-07-18T15:18:29Z</time>
      </trkpt>
      <trkpt lat="-27.325918" lon="-70.55342">
        <ele>219.819</ele>
        <time>2019-07-18T15:18:34Z</time>
      </trkpt>
      <trkpt lat="-27.32598" lon="-70.553635">
        <ele>219.975</ele>
        <time>2019-07-18T15:18:39Z</time>
      </trkpt>
      <trkpt lat="-27.32603" lon="-70.55384">
        <ele>219.647</ele>
        <time>2019-07-18T15:18:44Z</time>
      </trkpt>
      <trkpt lat="-27.326088" lon="-70.554054">
        <ele>219.417</ele>
        <time>2019-07-18T15:18:49Z</time>
      </trkpt>
      <trkpt lat="-27.326147" lon="-70.55426">
        <ele>218.815</ele>
        <time>2019-07-18T15:18:54Z</time>
      </trkpt>
      <trkpt lat="-27.326202" lon="-70.554474">
        <ele>220.128</ele>
        <time>2019-07-18T15:18:59Z</time>
      </trkpt>
      <trkpt lat="-27.326263" lon="-70.55467">
        <ele>219.026</ele>
        <time>2019-07-18T15:19:04Z</time>
      </trkpt>
      <trkpt lat="-27.32631" lon="-70.55487">
        <ele>218.844</ele>
        <time>2019-07-18T15:19:09Z</time>
      </trkpt>
      <trkpt lat="-27.326363" lon="-70.55505">
        <ele>218.78</ele>
        <time>2019-07-18T15:19:14Z</time>
      </trkpt>
      <trkpt lat="-27.326416" lon="-70.55526">
        <ele>218.321</ele>
        <time>2019-07-18T15:19:20Z</time>
      </trkpt>
      <trkpt lat="-27.326464" lon="-70.55546">
        <ele>218.59</ele>
        <time>2019-07-18T15:19:25Z</time>
      </trkpt>
      <trkpt lat="-27.326517" lon="-70.55564">
        <ele>218.455</ele>
        <time>2019-07-18T15:19:30Z</time>
      </trkpt>
      <trkpt lat="-27.326563" lon="-70.55583">
        <ele>218.442</ele>
        <time>2019-07-18T15:19:35Z</time>
      </trkpt>
      <trkpt lat="-27.326614" lon="-70.556015">
        <ele>218.212</ele>
        <time>2019-07-18T15:19:40Z</time>
      </trkpt>
      <trkpt lat="-27.32666" lon="-70.55619">
        <ele>218.321</ele>
        <time>2019-07-18T15:19:45Z</time>
      </trkpt>
      <trkpt lat="-27.326712" lon="-70.55639">
        <ele>218.273</ele>
        <time>2019-07-18T15:19:50Z</time>
      </trkpt>
      <trkpt lat="-27.326769" lon="-70.556595">
        <ele>217.935</ele>
        <time>2019-07-18T15:19:55Z</time>
      </trkpt>
      <trkpt lat="-27.326824" lon="-70.5568">
        <ele>218.122</ele>
        <time>2019-07-18T15:20:00Z</time>
      </trkpt>
      <trkpt lat="-27.326883" lon="-70.55701">
        <ele>218.022</ele>
        <time>2019-07-18T15:20:05Z</time>
      </trkpt>
      <trkpt lat="-27.326935" lon="-70.55722">
        <ele>217.84</ele>
        <time>2019-07-18T15:20:10Z</time>
      </trkpt>
      <trkpt lat="-27.326988" lon="-70.55743">
        <ele>217.718</ele>
        <time>2019-07-18T15:20:15Z</time>
      </trkpt>
      <trkpt lat="-27.327044" lon="-70.557625">
        <ele>217.697</ele>
        <time>2019-07-18T15:20:20Z</time>
      </trkpt>
      <trkpt lat="-27.3271" lon="-70.55784">
        <ele>217.665</ele>
        <time>2019-07-18T15:20:25Z</time>
      </trkpt>
      <trkpt lat="-27.327154" lon="-70.55804">
        <ele>217.274</ele>
        <time>2019-07-18T15:20:30Z</time>
      </trkpt>
      <trkpt lat="-27.327206" lon="-70.55823">
        <ele>217.139</ele>
        <time>2019-07-18T15:20:35Z</time>
      </trkpt>
      <trkpt lat="-27.327261" lon="-70.558426">
        <ele>217.039</ele>
        <time>2019-07-18T15:20:40Z</time>
      </trkpt>
      <trkpt lat="-27.327314" lon="-70.55862">
        <ele>217.005</ele>
        <time>2019-07-18T15:20:44Z</time>
      </trkpt>
      <trkpt lat="-27.327375" lon="-70.55885">
        <ele>216.466</ele>
        <time>2019-07-18T15:20:51Z</time>
      </trkpt>
      <trkpt lat="-27.327436" lon="-70.55906">
        <ele>216.725</ele>
        <time>2019-07-18T15:20:56Z</time>
      </trkpt>
      <trkpt lat="-27.327496" lon="-70.55926">
        <ele>216.651</ele>
        <time>2019-07-18T15:21:01Z</time>
      </trkpt>
      <trkpt lat="-27.32755" lon="-70.55946">
        <ele>216.542</ele>
        <time>2019-07-18T15:21:06Z</time>
      </trkpt>
      <trkpt lat="-27.327602" lon="-70.559685">
        <ele>216.291</ele>
        <time>2019-07-18T15:21:11Z</time>
      </trkpt>
      <trkpt lat="-27.327656" lon="-70.55988">
        <ele>216.386</ele>
        <time>2019-07-18T15:21:16Z</time>
      </trkpt>
      <trkpt lat="-27.327705" lon="-70.56008">
        <ele>216.26</ele>
        <time>2019-07-18T15:21:21Z</time>
      </trkpt>
      <trkpt lat="-27.327757" lon="-70.56029">
        <ele>215.797</ele>
        <time>2019-07-18T15:21:26Z</time>
      </trkpt>
      <trkpt lat="-27.327812" lon="-70.56048">
        <ele>215.892</ele>
        <time>2019-07-18T15:21:31Z</time>
      </trkpt>
      <trkpt lat="-27.327864" lon="-70.560684">
        <ele>215.845</ele>
        <time>2019-07-18T15:21:36Z</time>
      </trkpt>
      <trkpt lat="-27.327919" lon="-70.56089">
        <ele>216.891</ele>
        <time>2019-07-18T15:21:41Z</time>
      </trkpt>
      <trkpt lat="-27.32797" lon="-70.5611">
        <ele>215.649</ele>
        <time>2019-07-18T15:21:46Z</time>
      </trkpt>
      <trkpt lat="-27.328026" lon="-70.561295">
        <ele>215.388</ele>
        <time>2019-07-18T15:21:51Z</time>
      </trkpt>
      <trkpt lat="-27.328083" lon="-70.5615">
        <ele>215.332</ele>
        <time>2019-07-18T15:21:56Z</time>
      </trkpt>
      <trkpt lat="-27.328135" lon="-70.5617">
        <ele>215.356</ele>
        <time>2019-07-18T15:22:01Z</time>
      </trkpt>
      <trkpt lat="-27.328192" lon="-70.56188">
        <ele>215.475</ele>
        <time>2019-07-18T15:22:06Z</time>
      </trkpt>
      <trkpt lat="-27.328243" lon="-70.56208">
        <ele>215.139</ele>
        <time>2019-07-18T15:22:11Z</time>
      </trkpt>
      <trkpt lat="-27.328295" lon="-70.56228">
        <ele>214.769</ele>
        <time>2019-07-18T15:22:16Z</time>
      </trkpt>
      <trkpt lat="-27.328352" lon="-70.56247">
        <ele>214.616</ele>
        <time>2019-07-18T15:22:21Z</time>
      </trkpt>
      <trkpt lat="-27.328402" lon="-70.56267">
        <ele>214.587</ele>
        <time>2019-07-18T15:22:26Z</time>
      </trkpt>
      <trkpt lat="-27.32845" lon="-70.562874">
        <ele>214.423</ele>
        <time>2019-07-18T15:22:31Z</time>
      </trkpt>
      <trkpt lat="-27.3285" lon="-70.56306">
        <ele>214.394</ele>
        <time>2019-07-18T15:22:36Z</time>
      </trkpt>
      <trkpt lat="-27.32855" lon="-70.56324">
        <ele>214.175</ele>
        <time>2019-07-18T15:22:41Z</time>
      </trkpt>
      <trkpt lat="-27.328602" lon="-70.56344">
        <ele>213.934</ele>
        <time>2019-07-18T15:22:46Z</time>
      </trkpt>
      <trkpt lat="-27.32866" lon="-70.56363">
        <ele>213.831</ele>
        <time>2019-07-18T15:22:51Z</time>
      </trkpt>
      <trkpt lat="-27.32871" lon="-70.56381">
        <ele>213.736</ele>
        <time>2019-07-18T15:22:56Z</time>
      </trkpt>
      <trkpt lat="-27.328766" lon="-70.56401">
        <ele>214.241</ele>
        <time>2019-07-18T15:23:01Z</time>
      </trkpt>
      <trkpt lat="-27.328821" lon="-70.56422">
        <ele>212.64</ele>
        <time>2019-07-18T15:23:06Z</time>
      </trkpt>
      <trkpt lat="-27.32887" lon="-70.56441">
        <ele>213.467</ele>
        <time>2019-07-18T15:23:11Z</time>
      </trkpt>
      <trkpt lat="-27.328972" lon="-70.5648">
        <ele>213.337</ele>
        <time>2019-07-18T15:23:20Z</time>
      </trkpt>
      <trkpt lat="-27.329039" lon="-70.56503">
        <ele>213.385</ele>
        <time>2019-07-18T15:23:25Z</time>
      </trkpt>
      <trkpt lat="-27.32911" lon="-70.56529">
        <ele>213.15</ele>
        <time>2019-07-18T15:23:32Z</time>
      </trkpt>
      <trkpt lat="-27.32916" lon="-70.5655">
        <ele>212.825</ele>
        <time>2019-07-18T15:23:37Z</time>
      </trkpt>
      <trkpt lat="-27.329226" lon="-70.56575">
        <ele>212.827</ele>
        <time>2019-07-18T15:23:42Z</time>
      </trkpt>
      <trkpt lat="-27.329279" lon="-70.565956">
        <ele>212.597</ele>
        <time>2019-07-18T15:23:47Z</time>
      </trkpt>
      <trkpt lat="-27.329329" lon="-70.566154">
        <ele>212.489</ele>
        <time>2019-07-18T15:23:52Z</time>
      </trkpt>
      <trkpt lat="-27.329374" lon="-70.566345">
        <ele>212.389</ele>
        <time>2019-07-18T15:23:57Z</time>
      </trkpt>
      <trkpt lat="-27.329416" lon="-70.56654">
        <ele>212.447</ele>
        <time>2019-07-18T15:24:02Z</time>
      </trkpt>
      <trkpt lat="-27.329458" lon="-70.56675">
        <ele>212.243</ele>
        <time>2019-07-18T15:24:07Z</time>
      </trkpt>
      <trkpt lat="-27.329498" lon="-70.566956">
        <ele>212.645</ele>
        <time>2019-07-18T15:24:12Z</time>
      </trkpt>
      <trkpt lat="-27.329533" lon="-70.567154">
        <ele>212.143</ele>
        <time>2019-07-18T15:24:17Z</time>
      </trkpt>
      <trkpt lat="-27.329575" lon="-70.56737">
        <ele>211.784</ele>
        <time>2019-07-18T15:24:22Z</time>
      </trkpt>
      <trkpt lat="-27.329615" lon="-70.56758">
        <ele>211.678</ele>
        <time>2019-07-18T15:24:27Z</time>
      </trkpt>
      <trkpt lat="-27.329647" lon="-70.5678">
        <ele>211.884</ele>
        <time>2019-07-18T15:24:32Z</time>
      </trkpt>
      <trkpt lat="-27.329685" lon="-70.56802">
        <ele>211.691</ele>
        <time>2019-07-18T15:24:37Z</time>
      </trkpt>
      <trkpt lat="-27.32972" lon="-70.56824">
        <ele>211.622</ele>
        <time>2019-07-18T15:24:42Z</time>
      </trkpt>
      <trkpt lat="-27.329756" lon="-70.56847">
        <ele>211.551</ele>
        <time>2019-07-18T15:24:46Z</time>
      </trkpt>
      <trkpt lat="-27.329796" lon="-70.56867">
        <ele>211.477</ele>
        <time>2019-07-18T15:24:51Z</time>
      </trkpt>
      <trkpt lat="-27.329844" lon="-70.568886">
        <ele>211.424</ele>
        <time>2019-07-18T15:24:58Z</time>
      </trkpt>
      <trkpt lat="-27.329893" lon="-70.569115">
        <ele>211.213</ele>
        <time>2019-07-18T15:25:03Z</time>
      </trkpt>
      <trkpt lat="-27.329943" lon="-70.56936">
        <ele>211.456</ele>
        <time>2019-07-18T15:25:08Z</time>
      </trkpt>
      <trkpt lat="-27.330008" lon="-70.569595">
        <ele>212.761</ele>
        <time>2019-07-18T15:25:13Z</time>
      </trkpt>
      <trkpt lat="-27.330065" lon="-70.56985">
        <ele>211.004</ele>
        <time>2019-07-18T15:25:18Z</time>
      </trkpt>
      <trkpt lat="-27.330128" lon="-70.5701">
        <ele>210.846</ele>
        <time>2019-07-18T15:25:23Z</time>
      </trkpt>
      <trkpt lat="-27.330198" lon="-70.57035">
        <ele>210.573</ele>
        <time>2019-07-18T15:25:28Z</time>
      </trkpt>
      <trkpt lat="-27.330254" lon="-70.570595">
        <ele>210.872</ele>
        <time>2019-07-18T15:25:33Z</time>
      </trkpt>
      <trkpt lat="-27.330318" lon="-70.57082">
        <ele>210.653</ele>
        <time>2019-07-18T15:25:38Z</time>
      </trkpt>
      <trkpt lat="-27.330383" lon="-70.57106">
        <ele>210.412</ele>
        <time>2019-07-18T15:25:43Z</time>
      </trkpt>
      <trkpt lat="-27.330442" lon="-70.5713">
        <ele>210.299</ele>
        <time>2019-07-18T15:25:48Z</time>
      </trkpt>
      <trkpt lat="-27.330502" lon="-70.5715">
        <ele>210.177</ele>
        <time>2019-07-18T15:25:53Z</time>
      </trkpt>
      <trkpt lat="-27.330566" lon="-70.571724">
        <ele>210.098</ele>
        <time>2019-07-18T15:25:58Z</time>
      </trkpt>
      <trkpt lat="-27.330633" lon="-70.57194">
        <ele>210.238</ele>
        <time>2019-07-18T15:26:03Z</time>
      </trkpt>
      <trkpt lat="-27.3307" lon="-70.57216">
        <ele>209.889</ele>
        <time>2019-07-18T15:26:08Z</time>
      </trkpt>
      <trkpt lat="-27.330763" lon="-70.57235">
        <ele>209.844</ele>
        <time>2019-07-18T15:26:13Z</time>
      </trkpt>
      <trkpt lat="-27.330816" lon="-70.57252">
        <ele>209.588</ele>
        <time>2019-07-18T15:26:18Z</time>
      </trkpt>
      <trkpt lat="-27.330883" lon="-70.572716">
        <ele>209.479</ele>
        <time>2019-07-18T15:26:23Z</time>
      </trkpt>
      <trkpt lat="-27.330952" lon="-70.57292">
        <ele>209.049</ele>
        <time>2019-07-18T15:26:28Z</time>
      </trkpt>
      <trkpt lat="-27.331022" lon="-70.573105">
        <ele>209.247</ele>
        <time>2019-07-18T15:26:33Z</time>
      </trkpt>
      <trkpt lat="-27.331087" lon="-70.57328">
        <ele>209.226</ele>
        <time>2019-07-18T15:26:38Z</time>
      </trkpt>
      <trkpt lat="-27.331156" lon="-70.57347">
        <ele>209.279</ele>
        <time>2019-07-18T15:26:43Z</time>
      </trkpt>
      <trkpt lat="-27.331242" lon="-70.57367">
        <ele>209.218</ele>
        <time>2019-07-18T15:26:48Z</time>
      </trkpt>
      <trkpt lat="-27.331324" lon="-70.57389">
        <ele>209.162</ele>
        <time>2019-07-18T15:26:53Z</time>
      </trkpt>
      <trkpt lat="-27.3314" lon="-70.574104">
        <ele>209.149</ele>
        <time>2019-07-18T15:26:58Z</time>
      </trkpt>
      <trkpt lat="-27.331474" lon="-70.57433">
        <ele>209.112</ele>
        <time>2019-07-18T15:27:03Z</time>
      </trkpt>
      <trkpt lat="-27.33155" lon="-70.57455">
        <ele>208.734</ele>
        <time>2019-07-18T15:27:08Z</time>
      </trkpt>
      <trkpt lat="-27.331623" lon="-70.574776">
        <ele>208.304</ele>
        <time>2019-07-18T15:27:13Z</time>
      </trkpt>
      <trkpt lat="-27.33169" lon="-70.57499">
        <ele>208.512</ele>
        <time>2019-07-18T15:27:18Z</time>
      </trkpt>
      <trkpt lat="-27.331758" lon="-70.57521">
        <ele>207.971</ele>
        <time>2019-07-18T15:27:23Z</time>
      </trkpt>
      <trkpt lat="-27.331884" lon="-70.57567">
        <ele>208.219</ele>
        <time>2019-07-18T15:27:31Z</time>
      </trkpt>
      <trkpt lat="-27.331955" lon="-70.57591">
        <ele>207.833</ele>
        <time>2019-07-18T15:27:36Z</time>
      </trkpt>
      <trkpt lat="-27.332024" lon="-70.57617">
        <ele>207.828</ele>
        <time>2019-07-18T15:27:41Z</time>
      </trkpt>
      <trkpt lat="-27.332094" lon="-70.576416">
        <ele>207.524</ele>
        <time>2019-07-18T15:27:46Z</time>
      </trkpt>
      <trkpt lat="-27.332151" lon="-70.57667">
        <ele>207.342</ele>
        <time>2019-07-18T15:27:51Z</time>
      </trkpt>
      <trkpt lat="-27.33221" lon="-70.57691">
        <ele>207.392</ele>
        <time>2019-07-18T15:27:56Z</time>
      </trkpt>
      <trkpt lat="-27.332273" lon="-70.57714">
        <ele>207.178</ele>
        <time>2019-07-18T15:28:01Z</time>
      </trkpt>
      <trkpt lat="-27.33233" lon="-70.577354">
        <ele>207.017</ele>
        <time>2019-07-18T15:28:06Z</time>
      </trkpt>
      <trkpt lat="-27.332392" lon="-70.57758">
        <ele>207.149</ele>
        <time>2019-07-18T15:28:11Z</time>
      </trkpt>
      <trkpt lat="-27.332455" lon="-70.57781">
        <ele>206.774</ele>
        <time>2019-07-18T15:28:16Z</time>
      </trkpt>
      <trkpt lat="-27.332516" lon="-70.57805">
        <ele>206.821</ele>
        <time>2019-07-18T15:28:22Z</time>
      </trkpt>
      <trkpt lat="-27.332579" lon="-70.57828">
        <ele>206.798</ele>
        <time>2019-07-18T15:28:27Z</time>
      </trkpt>
      <trkpt lat="-27.332645" lon="-70.57851">
        <ele>206.496</ele>
        <time>2019-07-18T15:28:32Z</time>
      </trkpt>
      <trkpt lat="-27.33271" lon="-70.578735">
        <ele>206.533</ele>
        <time>2019-07-18T15:28:37Z</time>
      </trkpt>
      <trkpt lat="-27.332767" lon="-70.578964">
        <ele>206.269</ele>
        <time>2019-07-18T15:28:42Z</time>
      </trkpt>
      <trkpt lat="-27.332825" lon="-70.57916">
        <ele>206.06</ele>
        <time>2019-07-18T15:28:47Z</time>
      </trkpt>
      <trkpt lat="-27.332876" lon="-70.57938">
        <ele>205.984</ele>
        <time>2019-07-18T15:28:52Z</time>
      </trkpt>
      <trkpt lat="-27.33294" lon="-70.5796">
        <ele>206.092</ele>
        <time>2019-07-18T15:28:57Z</time>
      </trkpt>
      <trkpt lat="-27.333002" lon="-70.57984">
        <ele>205.836</ele>
        <time>2019-07-18T15:29:02Z</time>
      </trkpt>
      <trkpt lat="-27.33307" lon="-70.58008">
        <ele>205.54</ele>
        <time>2019-07-18T15:29:07Z</time>
      </trkpt>
      <trkpt lat="-27.33313" lon="-70.58033">
        <ele>205.883</ele>
        <time>2019-07-18T15:29:12Z</time>
      </trkpt>
      <trkpt lat="-27.333193" lon="-70.58056">
        <ele>205.881</ele>
        <time>2019-07-18T15:29:17Z</time>
      </trkpt>
      <trkpt lat="-27.333256" lon="-70.580795">
        <ele>205.424</ele>
        <time>2019-07-18T15:29:22Z</time>
      </trkpt>
      <trkpt lat="-27.333323" lon="-70.58103">
        <ele>205.305</ele>
        <time>2019-07-18T15:29:27Z</time>
      </trkpt>
      <trkpt lat="-27.333387" lon="-70.581276">
        <ele>205.299</ele>
        <time>2019-07-18T15:29:32Z</time>
      </trkpt>
      <trkpt lat="-27.333454" lon="-70.58152">
        <ele>205.144</ele>
        <time>2019-07-18T15:29:37Z</time>
      </trkpt>
      <trkpt lat="-27.333517" lon="-70.58176">
        <ele>204.256</ele>
        <time>2019-07-18T15:29:42Z</time>
      </trkpt>
      <trkpt lat="-27.33358" lon="-70.58199">
        <ele>204.758</ele>
        <time>2019-07-18T15:29:47Z</time>
      </trkpt>
      <trkpt lat="-27.333647" lon="-70.58223">
        <ele>204.982</ele>
        <time>2019-07-18T15:29:52Z</time>
      </trkpt>
      <trkpt lat="-27.33372" lon="-70.58248">
        <ele>204.668</ele>
        <time>2019-07-18T15:29:57Z</time>
      </trkpt>
      <trkpt lat="-27.333784" lon="-70.58273">
        <ele>204.504</ele>
        <time>2019-07-18T15:30:02Z</time>
      </trkpt>
      <trkpt lat="-27.333855" lon="-70.582985">
        <ele>204.676</ele>
        <time>2019-07-18T15:30:07Z</time>
      </trkpt>
      <trkpt lat="-27.333925" lon="-70.58324">
        <ele>204.496</ele>
        <time>2019-07-18T15:30:12Z</time>
      </trkpt>
      <trkpt lat="-27.333996" lon="-70.5835">
        <ele>204.327</ele>
        <time>2019-07-18T15:30:17Z</time>
      </trkpt>
      <trkpt lat="-27.334066" lon="-70.58377">
        <ele>204.29</ele>
        <time>2019-07-18T15:30:22Z</time>
      </trkpt>
      <trkpt lat="-27.334133" lon="-70.58403">
        <ele>203.883</ele>
        <time>2019-07-18T15:30:27Z</time>
      </trkpt>
      <trkpt lat="-27.334202" lon="-70.58428">
        <ele>203.925</ele>
        <time>2019-07-18T15:30:32Z</time>
      </trkpt>
      <trkpt lat="-27.33427" lon="-70.58453">
        <ele>203.352</ele>
        <time>2019-07-18T15:30:37Z</time>
      </trkpt>
      <trkpt lat="-27.33434" lon="-70.58477">
        <ele>203.421</ele>
        <time>2019-07-18T15:30:42Z</time>
      </trkpt>
      <trkpt lat="-27.334398" lon="-70.58501">
        <ele>203.46</ele>
        <time>2019-07-18T15:30:47Z</time>
      </trkpt>
      <trkpt lat="-27.33446" lon="-70.58524">
        <ele>203.529</ele>
        <time>2019-07-18T15:30:53Z</time>
      </trkpt>
      <trkpt lat="-27.334522" lon="-70.58547">
        <ele>203.415</ele>
        <time>2019-07-18T15:30:58Z</time>
      </trkpt>
      <trkpt lat="-27.334578" lon="-70.58571">
        <ele>203.339</ele>
        <time>2019-07-18T15:31:03Z</time>
      </trkpt>
      <trkpt lat="-27.334639" lon="-70.58594">
        <ele>203.016</ele>
        <time>2019-07-18T15:31:08Z</time>
      </trkpt>
      <trkpt lat="-27.334703" lon="-70.58617">
        <ele>203.016</ele>
        <time>2019-07-18T15:31:13Z</time>
      </trkpt>
      <trkpt lat="-27.334751" lon="-70.586365">
        <ele>202.935</ele>
        <time>2019-07-18T15:31:18Z</time>
      </trkpt>
      <trkpt lat="-27.334797" lon="-70.58653">
        <ele>202.66</ele>
        <time>2019-07-18T15:31:23Z</time>
      </trkpt>
      <trkpt lat="-27.334766" lon="-70.58663">
        <ele>202.866</ele>
        <time>2019-07-18T15:31:28Z</time>
      </trkpt>
      <trkpt lat="-27.33477" lon="-70.58667">
        <ele>203.709</ele>
        <time>2019-07-18T15:31:33Z</time>
      </trkpt>
      <trkpt lat="-27.334864" lon="-70.58693">
        <ele>203.355</ele>
        <time>2019-07-18T15:34:15Z</time>
      </trkpt>
      <trkpt lat="-27.334923" lon="-70.58713">
        <ele>203.614</ele>
        <time>2019-07-18T15:34:20Z</time>
      </trkpt>
      <trkpt lat="-27.334976" lon="-70.58732">
        <ele>203.458</ele>
        <time>2019-07-18T15:34:25Z</time>
      </trkpt>
      <trkpt lat="-27.335033" lon="-70.58752">
        <ele>203.445</ele>
        <time>2019-07-18T15:34:30Z</time>
      </trkpt>
      <trkpt lat="-27.335102" lon="-70.587715">
        <ele>203.503</ele>
        <time>2019-07-18T15:34:35Z</time>
      </trkpt>
      <trkpt lat="-27.335157" lon="-70.58791">
        <ele>203.27</ele>
        <time>2019-07-18T15:34:40Z</time>
      </trkpt>
      <trkpt lat="-27.335218" lon="-70.58811">
        <ele>203.201</ele>
        <time>2019-07-18T15:34:45Z</time>
      </trkpt>
      <trkpt lat="-27.335272" lon="-70.58832">
        <ele>203.521</ele>
        <time>2019-07-18T15:34:50Z</time>
      </trkpt>
      <trkpt lat="-27.33533" lon="-70.58854">
        <ele>203.178</ele>
        <time>2019-07-18T15:34:55Z</time>
      </trkpt>
      <trkpt lat="-27.335394" lon="-70.58877">
        <ele>203.23</ele>
        <time>2019-07-18T15:35:00Z</time>
      </trkpt>
      <trkpt lat="-27.335459" lon="-70.589">
        <ele>203.204</ele>
        <time>2019-07-18T15:35:05Z</time>
      </trkpt>
      <trkpt lat="-27.335512" lon="-70.58922">
        <ele>203.022</ele>
        <time>2019-07-18T15:35:10Z</time>
      </trkpt>
      <trkpt lat="-27.335567" lon="-70.58943">
        <ele>203.006</ele>
        <time>2019-07-18T15:35:15Z</time>
      </trkpt>
      <trkpt lat="-27.335636" lon="-70.58969">
        <ele>203.064</ele>
        <time>2019-07-18T15:35:22Z</time>
      </trkpt>
      <trkpt lat="-27.335695" lon="-70.58992">
        <ele>202.995</ele>
        <time>2019-07-18T15:35:27Z</time>
      </trkpt>
      <trkpt lat="-27.335756" lon="-70.59014">
        <ele>202.987</ele>
        <time>2019-07-18T15:35:32Z</time>
      </trkpt>
      <trkpt lat="-27.335817" lon="-70.59037">
        <ele>203.003</ele>
        <time>2019-07-18T15:35:37Z</time>
      </trkpt>
      <trkpt lat="-27.33588" lon="-70.59061">
        <ele>203.088</ele>
        <time>2019-07-18T15:35:42Z</time>
      </trkpt>
      <trkpt lat="-27.335943" lon="-70.59086">
        <ele>202.845</ele>
        <time>2019-07-18T15:35:47Z</time>
      </trkpt>
      <trkpt lat="-27.336012" lon="-70.5911">
        <ele>202.263</ele>
        <time>2019-07-18T15:35:52Z</time>
      </trkpt>
      <trkpt lat="-27.336079" lon="-70.591354">
        <ele>203.072</ele>
        <time>2019-07-18T15:35:57Z</time>
      </trkpt>
      <trkpt lat="-27.33614" lon="-70.5916">
        <ele>202.501</ele>
        <time>2019-07-18T15:36:02Z</time>
      </trkpt>
      <trkpt lat="-27.336203" lon="-70.59186">
        <ele>202.192</ele>
        <time>2019-07-18T15:36:07Z</time>
      </trkpt>
      <trkpt lat="-27.336279" lon="-70.59215">
        <ele>202.253</ele>
        <time>2019-07-18T15:36:12Z</time>
      </trkpt>
      <trkpt lat="-27.336355" lon="-70.59244">
        <ele>202.026</ele>
        <time>2019-07-18T15:36:17Z</time>
      </trkpt>
      <trkpt lat="-27.33643" lon="-70.59273">
        <ele>201.965</ele>
        <time>2019-07-18T15:36:22Z</time>
      </trkpt>
      <trkpt lat="-27.336496" lon="-70.593">
        <ele>201.714</ele>
        <time>2019-07-18T15:36:27Z</time>
      </trkpt>
      <trkpt lat="-27.336575" lon="-70.59328">
        <ele>201.719</ele>
        <time>2019-07-18T15:36:32Z</time>
      </trkpt>
      <trkpt lat="-27.336645" lon="-70.593544">
        <ele>201.545</ele>
        <time>2019-07-18T15:36:37Z</time>
      </trkpt>
      <trkpt lat="-27.336718" lon="-70.59381">
        <ele>201.479</ele>
        <time>2019-07-18T15:36:42Z</time>
      </trkpt>
      <trkpt lat="-27.336788" lon="-70.594055">
        <ele>201.476</ele>
        <time>2019-07-18T15:36:47Z</time>
      </trkpt>
      <trkpt lat="-27.336855" lon="-70.5943">
        <ele>201.555</ele>
        <time>2019-07-18T15:36:52Z</time>
      </trkpt>
      <trkpt lat="-27.336914" lon="-70.594536">
        <ele>201.336</ele>
        <time>2019-07-18T15:36:57Z</time>
      </trkpt>
      <trkpt lat="-27.33698" lon="-70.59478">
        <ele>201.077</ele>
        <time>2019-07-18T15:37:02Z</time>
      </trkpt>
      <trkpt lat="-27.337044" lon="-70.59502">
        <ele>200.966</ele>
        <time>2019-07-18T15:37:07Z</time>
      </trkpt>
      <trkpt lat="-27.337105" lon="-70.59526">
        <ele>200.815</ele>
        <time>2019-07-18T15:37:12Z</time>
      </trkpt>
      <trkpt lat="-27.33717" lon="-70.595505">
        <ele>200.525</ele>
        <time>2019-07-18T15:37:17Z</time>
      </trkpt>
      <trkpt lat="-27.337238" lon="-70.59575">
        <ele>200.623</ele>
        <time>2019-07-18T15:37:22Z</time>
      </trkpt>
      <trkpt lat="-27.337303" lon="-70.596">
        <ele>200.406</ele>
        <time>2019-07-18T15:37:27Z</time>
      </trkpt>
      <trkpt lat="-27.337374" lon="-70.59625">
        <ele>200.401</ele>
        <time>2019-07-18T15:37:32Z</time>
      </trkpt>
      <trkpt lat="-27.337442" lon="-70.5965">
        <ele>200.054</ele>
        <time>2019-07-18T15:37:37Z</time>
      </trkpt>
      <trkpt lat="-27.33751" lon="-70.59674">
        <ele>199.986</ele>
        <time>2019-07-18T15:37:42Z</time>
      </trkpt>
      <trkpt lat="-27.337572" lon="-70.596985">
        <ele>199.975</ele>
        <time>2019-07-18T15:37:46Z</time>
      </trkpt>
      <trkpt lat="-27.337639" lon="-70.59722">
        <ele>199.78</ele>
        <time>2019-07-18T15:37:51Z</time>
      </trkpt>
      <trkpt lat="-27.337736" lon="-70.597565">
        <ele>199.632</ele>
        <time>2019-07-18T15:37:59Z</time>
      </trkpt>
      <trkpt lat="-27.337803" lon="-70.5978">
        <ele>199.523</ele>
        <time>2019-07-18T15:38:04Z</time>
      </trkpt>
      <trkpt lat="-27.337866" lon="-70.598045">
        <ele>199.579</ele>
        <time>2019-07-18T15:38:09Z</time>
      </trkpt>
      <trkpt lat="-27.337934" lon="-70.59828">
        <ele>199.463</ele>
        <time>2019-07-18T15:38:14Z</time>
      </trkpt>
      <trkpt lat="-27.338001" lon="-70.59852">
        <ele>199.069</ele>
        <time>2019-07-18T15:38:19Z</time>
      </trkpt>
      <trkpt lat="-27.338068" lon="-70.598755">
        <ele>199.146</ele>
        <time>2019-07-18T15:38:24Z</time>
      </trkpt>
      <trkpt lat="-27.338137" lon="-70.59898">
        <ele>198.702</ele>
        <time>2019-07-18T15:38:29Z</time>
      </trkpt>
      <trkpt lat="-27.338203" lon="-70.59922">
        <ele>198.786</ele>
        <time>2019-07-18T15:38:34Z</time>
      </trkpt>
      <trkpt lat="-27.338263" lon="-70.59947">
        <ele>198.72</ele>
        <time>2019-07-18T15:38:39Z</time>
      </trkpt>
      <trkpt lat="-27.338316" lon="-70.59969">
        <ele>198.752</ele>
        <time>2019-07-18T15:38:44Z</time>
      </trkpt>
      <trkpt lat="-27.33838" lon="-70.59993">
        <ele>198.408</ele>
        <time>2019-07-18T15:38:49Z</time>
      </trkpt>
      <trkpt lat="-27.338434" lon="-70.60016">
        <ele>198.297</ele>
        <time>2019-07-18T15:38:54Z</time>
      </trkpt>
      <trkpt lat="-27.338493" lon="-70.600365">
        <ele>198.226</ele>
        <time>2019-07-18T15:38:59Z</time>
      </trkpt>
      <trkpt lat="-27.338556" lon="-70.60058">
        <ele>197.991</ele>
        <time>2019-07-18T15:39:04Z</time>
      </trkpt>
      <trkpt lat="-27.338612" lon="-70.60081">
        <ele>198.015</ele>
        <time>2019-07-18T15:39:09Z</time>
      </trkpt>
      <trkpt lat="-27.338673" lon="-70.601036">
        <ele>197.758</ele>
        <time>2019-07-18T15:39:14Z</time>
      </trkpt>
      <trkpt lat="-27.338741" lon="-70.60125">
        <ele>197.716</ele>
        <time>2019-07-18T15:39:19Z</time>
      </trkpt>
      <trkpt lat="-27.3388" lon="-70.60148">
        <ele>197.626</ele>
        <time>2019-07-18T15:39:24Z</time>
      </trkpt>
      <trkpt lat="-27.338852" lon="-70.6017">
        <ele>197.75</ele>
        <time>2019-07-18T15:39:29Z</time>
      </trkpt>
      <trkpt lat="-27.338907" lon="-70.60192">
        <ele>197.439</ele>
        <time>2019-07-18T15:39:34Z</time>
      </trkpt>
      <trkpt lat="-27.338957" lon="-70.60216">
        <ele>197.341</ele>
        <time>2019-07-18T15:39:39Z</time>
      </trkpt>
      <trkpt lat="-27.339016" lon="-70.60239">
        <ele>197.169</ele>
        <time>2019-07-18T15:39:44Z</time>
      </trkpt>
      <trkpt lat="-27.339073" lon="-70.60261">
        <ele>197.399</ele>
        <time>2019-07-18T15:39:49Z</time>
      </trkpt>
      <trkpt lat="-27.339128" lon="-70.60285">
        <ele>197.04</ele>
        <time>2019-07-18T15:39:54Z</time>
      </trkpt>
      <trkpt lat="-27.339186" lon="-70.60308">
        <ele>196.997</ele>
        <time>2019-07-18T15:39:59Z</time>
      </trkpt>
      <trkpt lat="-27.33925" lon="-70.6033">
        <ele>196.963</ele>
        <time>2019-07-18T15:40:04Z</time>
      </trkpt>
      <trkpt lat="-27.339312" lon="-70.60354">
        <ele>196.717</ele>
        <time>2019-07-18T15:40:09Z</time>
      </trkpt>
      <trkpt lat="-27.339384" lon="-70.603775">
        <ele>196.699</ele>
        <time>2019-07-18T15:40:14Z</time>
      </trkpt>
      <trkpt lat="-27.339458" lon="-70.60401">
        <ele>196.511</ele>
        <time>2019-07-18T15:40:19Z</time>
      </trkpt>
      <trkpt lat="-27.33952" lon="-70.60423">
        <ele>196.384</ele>
        <time>2019-07-18T15:40:24Z</time>
      </trkpt>
      <trkpt lat="-27.339584" lon="-70.60446">
        <ele>196.382</ele>
        <time>2019-07-18T15:40:29Z</time>
      </trkpt>
      <trkpt lat="-27.339643" lon="-70.6047">
        <ele>196.337</ele>
        <time>2019-07-18T15:40:34Z</time>
      </trkpt>
      <trkpt lat="-27.339712" lon="-70.60493">
        <ele>196.31</ele>
        <time>2019-07-18T15:40:39Z</time>
      </trkpt>
      <trkpt lat="-27.339764" lon="-70.60517">
        <ele>196.091</ele>
        <time>2019-07-18T15:40:44Z</time>
      </trkpt>
      <trkpt lat="-27.339819" lon="-70.6054">
        <ele>195.911</ele>
        <time>2019-07-18T15:40:49Z</time>
      </trkpt>
      <trkpt lat="-27.339882" lon="-70.60562">
        <ele>195.779</ele>
        <time>2019-07-18T15:40:54Z</time>
      </trkpt>
      <trkpt lat="-27.339947" lon="-70.60585">
        <ele>195.901</ele>
        <time>2019-07-18T15:40:59Z</time>
      </trkpt>
      <trkpt lat="-27.340006" lon="-70.60608">
        <ele>195.983</ele>
        <time>2019-07-18T15:41:04Z</time>
      </trkpt>
      <trkpt lat="-27.340061" lon="-70.6063">
        <ele>195.584</ele>
        <time>2019-07-18T15:41:09Z</time>
      </trkpt>
      <trkpt lat="-27.340126" lon="-70.60652">
        <ele>195.378</ele>
        <time>2019-07-18T15:41:14Z</time>
      </trkpt>
      <trkpt lat="-27.340193" lon="-70.60675">
        <ele>195.436</ele>
        <time>2019-07-18T15:41:19Z</time>
      </trkpt>
      <trkpt lat="-27.340248" lon="-70.606964">
        <ele>195.325</ele>
        <time>2019-07-18T15:41:24Z</time>
      </trkpt>
      <trkpt lat="-27.340347" lon="-70.60732">
        <ele>195.227</ele>
        <time>2019-07-18T15:41:32Z</time>
      </trkpt>
      <trkpt lat="-27.340406" lon="-70.60754">
        <ele>195.195</ele>
        <time>2019-07-18T15:41:37Z</time>
      </trkpt>
      <trkpt lat="-27.340464" lon="-70.60774">
        <ele>195.401</ele>
        <time>2019-07-18T15:41:42Z</time>
      </trkpt>
      <trkpt lat="-27.34053" lon="-70.60796">
        <ele>195.383</ele>
        <time>2019-07-18T15:41:47Z</time>
      </trkpt>
      <trkpt lat="-27.340586" lon="-70.60821">
        <ele>195.098</ele>
        <time>2019-07-18T15:41:52Z</time>
      </trkpt>
      <trkpt lat="-27.340645" lon="-70.608444">
        <ele>195.058</ele>
        <time>2019-07-18T15:41:57Z</time>
      </trkpt>
      <trkpt lat="-27.340715" lon="-70.60869">
        <ele>195.285</ele>
        <time>2019-07-18T15:42:02Z</time>
      </trkpt>
      <trkpt lat="-27.340775" lon="-70.608925">
        <ele>195.069</ele>
        <time>2019-07-18T15:42:07Z</time>
      </trkpt>
      <trkpt lat="-27.340841" lon="-70.60916">
        <ele>194.622</ele>
        <time>2019-07-18T15:42:12Z</time>
      </trkpt>
      <trkpt lat="-27.34091" lon="-70.60942">
        <ele>194.609</ele>
        <time>2019-07-18T15:42:17Z</time>
      </trkpt>
      <trkpt lat="-27.340975" lon="-70.60967">
        <ele>194.569</ele>
        <time>2019-07-18T15:42:22Z</time>
      </trkpt>
      <trkpt lat="-27.341045" lon="-70.609924">
        <ele>194.244</ele>
        <time>2019-07-18T15:42:27Z</time>
      </trkpt>
      <trkpt lat="-27.341118" lon="-70.61017">
        <ele>194.456</ele>
        <time>2019-07-18T15:42:32Z</time>
      </trkpt>
      <trkpt lat="-27.34119" lon="-70.61041">
        <ele>194.345</ele>
        <time>2019-07-18T15:42:37Z</time>
      </trkpt>
      <trkpt lat="-27.341269" lon="-70.61066">
        <ele>194.202</ele>
        <time>2019-07-18T15:42:42Z</time>
      </trkpt>
      <trkpt lat="-27.34133" lon="-70.61091">
        <ele>194.064</ele>
        <time>2019-07-18T15:42:47Z</time>
      </trkpt>
      <trkpt lat="-27.341393" lon="-70.61117">
        <ele>194.099</ele>
        <time>2019-07-18T15:42:52Z</time>
      </trkpt>
      <trkpt lat="-27.341452" lon="-70.61142">
        <ele>193.753</ele>
        <time>2019-07-18T15:42:57Z</time>
      </trkpt>
      <trkpt lat="-27.341515" lon="-70.611664">
        <ele>193.668</ele>
        <time>2019-07-18T15:43:02Z</time>
      </trkpt>
      <trkpt lat="-27.341568" lon="-70.611916">
        <ele>193.613</ele>
        <time>2019-07-18T15:43:07Z</time>
      </trkpt>
      <trkpt lat="-27.341625" lon="-70.61217">
        <ele>193.499</ele>
        <time>2019-07-18T15:43:12Z</time>
      </trkpt>
      <trkpt lat="-27.34167" lon="-70.61239">
        <ele>193.533</ele>
        <time>2019-07-18T15:43:17Z</time>
      </trkpt>
      <trkpt lat="-27.341711" lon="-70.61262">
        <ele>193.208</ele>
        <time>2019-07-18T15:43:22Z</time>
      </trkpt>
      <trkpt lat="-27.341751" lon="-70.612854">
        <ele>193.57</ele>
        <time>2019-07-18T15:43:27Z</time>
      </trkpt>
      <trkpt lat="-27.341793" lon="-70.6131">
        <ele>193.303</ele>
        <time>2019-07-18T15:43:32Z</time>
      </trkpt>
      <trkpt lat="-27.341837" lon="-70.61335">
        <ele>192.984</ele>
        <time>2019-07-18T15:43:37Z</time>
      </trkpt>
      <trkpt lat="-27.341879" lon="-70.61365">
        <ele>193.047</ele>
        <time>2019-07-18T15:43:42Z</time>
      </trkpt>
      <trkpt lat="-27.341932" lon="-70.61396">
        <ele>192.965</ele>
        <time>2019-07-18T15:43:48Z</time>
      </trkpt>
      <trkpt lat="-27.341978" lon="-70.61423">
        <ele>192.656</ele>
        <time>2019-07-18T15:43:53Z</time>
      </trkpt>
      <trkpt lat="-27.342031" lon="-70.61449">
        <ele>192.545</ele>
        <time>2019-07-18T15:43:58Z</time>
      </trkpt>
      <trkpt lat="-27.342085" lon="-70.614746">
        <ele>192.455</ele>
        <time>2019-07-18T15:44:03Z</time>
      </trkpt>
      <trkpt lat="-27.342138" lon="-70.61498">
        <ele>192.194</ele>
        <time>2019-07-18T15:44:08Z</time>
      </trkpt>
      <trkpt lat="-27.342196" lon="-70.615204">
        <ele>192.138</ele>
        <time>2019-07-18T15:44:13Z</time>
      </trkpt>
      <trkpt lat="-27.342257" lon="-70.61545">
        <ele>191.874</ele>
        <time>2019-07-18T15:44:18Z</time>
      </trkpt>
      <trkpt lat="-27.342321" lon="-70.6157">
        <ele>191.779</ele>
        <time>2019-07-18T15:44:23Z</time>
      </trkpt>
      <trkpt lat="-27.34239" lon="-70.61594">
        <ele>191.671</ele>
        <time>2019-07-18T15:44:28Z</time>
      </trkpt>
      <trkpt lat="-27.342451" lon="-70.61618">
        <ele>191.71</ele>
        <time>2019-07-18T15:44:33Z</time>
      </trkpt>
      <trkpt lat="-27.342512" lon="-70.61642">
        <ele>191.137</ele>
        <time>2019-07-18T15:44:38Z</time>
      </trkpt>
      <trkpt lat="-27.342575" lon="-70.61666">
        <ele>191.021</ele>
        <time>2019-07-18T15:44:43Z</time>
      </trkpt>
      <trkpt lat="-27.342659" lon="-70.616974">
        <ele>190.87</ele>
        <time>2019-07-18T15:44:50Z</time>
      </trkpt>
      <trkpt lat="-27.342716" lon="-70.61717">
        <ele>190.714</ele>
        <time>2019-07-18T15:44:55Z</time>
      </trkpt>
      <trkpt lat="-27.342773" lon="-70.61739">
        <ele>190.423</ele>
        <time>2019-07-18T15:45:00Z</time>
      </trkpt>
      <trkpt lat="-27.342829" lon="-70.617615">
        <ele>190.474</ele>
        <time>2019-07-18T15:45:05Z</time>
      </trkpt>
      <trkpt lat="-27.342886" lon="-70.61783">
        <ele>190.508</ele>
        <time>2019-07-18T15:45:10Z</time>
      </trkpt>
      <trkpt lat="-27.342955" lon="-70.61805">
        <ele>190.41</ele>
        <time>2019-07-18T15:45:15Z</time>
      </trkpt>
      <trkpt lat="-27.343023" lon="-70.61828">
        <ele>190.331</ele>
        <time>2019-07-18T15:45:20Z</time>
      </trkpt>
      <trkpt lat="-27.34309" lon="-70.618484">
        <ele>190.244</ele>
        <time>2019-07-18T15:45:25Z</time>
      </trkpt>
      <trkpt lat="-27.343155" lon="-70.618675">
        <ele>190.175</ele>
        <time>2019-07-18T15:45:30Z</time>
      </trkpt>
      <trkpt lat="-27.343227" lon="-70.61888">
        <ele>190.225</ele>
        <time>2019-07-18T15:45:35Z</time>
      </trkpt>
      <trkpt lat="-27.343296" lon="-70.619095">
        <ele>189.673</ele>
        <time>2019-07-18T15:45:40Z</time>
      </trkpt>
      <trkpt lat="-27.343369" lon="-70.61929">
        <ele>189.517</ele>
        <time>2019-07-18T15:45:45Z</time>
      </trkpt>
      <trkpt lat="-27.343449" lon="-70.61949">
        <ele>189.507</ele>
        <time>2019-07-18T15:45:50Z</time>
      </trkpt>
      <trkpt lat="-27.343542" lon="-70.619736">
        <ele>189.369</ele>
        <time>2019-07-18T15:45:56Z</time>
      </trkpt>
      <trkpt lat="-27.343643" lon="-70.61999">
        <ele>189.163</ele>
        <time>2019-07-18T15:46:03Z</time>
      </trkpt>
      <trkpt lat="-27.343727" lon="-70.6202">
        <ele>189.168</ele>
        <time>2019-07-18T15:46:08Z</time>
      </trkpt>
      <trkpt lat="-27.34381" lon="-70.62041">
        <ele>189.287</ele>
        <time>2019-07-18T15:46:13Z</time>
      </trkpt>
      <trkpt lat="-27.343885" lon="-70.62061">
        <ele>189.594</ele>
        <time>2019-07-18T15:46:18Z</time>
      </trkpt>
      <trkpt lat="-27.343962" lon="-70.62082">
        <ele>189.681</ele>
        <time>2019-07-18T15:46:23Z</time>
      </trkpt>
      <trkpt lat="-27.34404" lon="-70.62103">
        <ele>189.99</ele>
        <time>2019-07-18T15:46:28Z</time>
      </trkpt>
      <trkpt lat="-27.344112" lon="-70.62123">
        <ele>190.13</ele>
        <time>2019-07-18T15:46:33Z</time>
      </trkpt>
      <trkpt lat="-27.344173" lon="-70.621445">
        <ele>190.635</ele>
        <time>2019-07-18T15:46:38Z</time>
      </trkpt>
      <trkpt lat="-27.34424" lon="-70.62166">
        <ele>190.698</ele>
        <time>2019-07-18T15:46:43Z</time>
      </trkpt>
      <trkpt lat="-27.344301" lon="-70.62187">
        <ele>190.888</ele>
        <time>2019-07-18T15:46:48Z</time>
      </trkpt>
      <trkpt lat="-27.344366" lon="-70.622086">
        <ele>190.841</ele>
        <time>2019-07-18T15:46:53Z</time>
      </trkpt>
      <trkpt lat="-27.344425" lon="-70.6223">
        <ele>191.068</ele>
        <time>2019-07-18T15:46:58Z</time>
      </trkpt>
      <trkpt lat="-27.344479" lon="-70.62251">
        <ele>191.068</ele>
        <time>2019-07-18T15:47:03Z</time>
      </trkpt>
      <trkpt lat="-27.34453" lon="-70.62271">
        <ele>191.245</ele>
        <time>2019-07-18T15:47:08Z</time>
      </trkpt>
      <trkpt lat="-27.34457" lon="-70.62286">
        <ele>191.322</ele>
        <time>2019-07-18T15:47:13Z</time>
      </trkpt>
      <trkpt lat="-27.344604" lon="-70.623">
        <ele>191.353</ele>
        <time>2019-07-18T15:47:18Z</time>
      </trkpt>
      <trkpt lat="-27.344639" lon="-70.623146">
        <ele>191.316</ele>
        <time>2019-07-18T15:47:23Z</time>
      </trkpt>
      <trkpt lat="-27.344685" lon="-70.62333">
        <ele>191.269</ele>
        <time>2019-07-18T15:47:28Z</time>
      </trkpt>
      <trkpt lat="-27.34475" lon="-70.62354">
        <ele>190.997</ele>
        <time>2019-07-18T15:47:33Z</time>
      </trkpt>
      <trkpt lat="-27.344837" lon="-70.62385">
        <ele>190.754</ele>
        <time>2019-07-18T15:47:42Z</time>
      </trkpt>
      <trkpt lat="-27.344887" lon="-70.62404">
        <ele>190.381</ele>
        <time>2019-07-18T15:47:47Z</time>
      </trkpt>
      <trkpt lat="-27.344944" lon="-70.62425">
        <ele>190.194</ele>
        <time>2019-07-18T15:47:52Z</time>
      </trkpt>
      <trkpt lat="-27.345007" lon="-70.62449">
        <ele>189.591</ele>
        <time>2019-07-18T15:47:57Z</time>
      </trkpt>
      <trkpt lat="-27.34507" lon="-70.62476">
        <ele>189.115</ele>
        <time>2019-07-18T15:48:02Z</time>
      </trkpt>
      <trkpt lat="-27.345144" lon="-70.625046">
        <ele>188.381</ele>
        <time>2019-07-18T15:48:07Z</time>
      </trkpt>
      <trkpt lat="-27.345217" lon="-70.62534">
        <ele>187.863</ele>
        <time>2019-07-18T15:48:12Z</time>
      </trkpt>
      <trkpt lat="-27.345295" lon="-70.625656">
        <ele>187.583</ele>
        <time>2019-07-18T15:48:17Z</time>
      </trkpt>
      <trkpt lat="-27.345366" lon="-70.62596">
        <ele>187.002</ele>
        <time>2019-07-18T15:48:22Z</time>
      </trkpt>
      <trkpt lat="-27.345444" lon="-70.62625">
        <ele>186.103</ele>
        <time>2019-07-18T15:48:27Z</time>
      </trkpt>
      <trkpt lat="-27.34555" lon="-70.62672">
        <ele>185.723</ele>
        <time>2019-07-18T15:48:36Z</time>
      </trkpt>
      <trkpt lat="-27.345621" lon="-70.62698">
        <ele>185.437</ele>
        <time>2019-07-18T15:48:41Z</time>
      </trkpt>
      <trkpt lat="-27.345695" lon="-70.627266">
        <ele>185.371</ele>
        <time>2019-07-18T15:48:46Z</time>
      </trkpt>
      <trkpt lat="-27.34577" lon="-70.62754">
        <ele>185.308</ele>
        <time>2019-07-18T15:48:51Z</time>
      </trkpt>
      <trkpt lat="-27.34583" lon="-70.6278">
        <ele>185.342</ele>
        <time>2019-07-18T15:48:56Z</time>
      </trkpt>
      <trkpt lat="-27.345905" lon="-70.62806">
        <ele>185.274</ele>
        <time>2019-07-18T15:49:01Z</time>
      </trkpt>
      <trkpt lat="-27.345982" lon="-70.62831">
        <ele>185.097</ele>
        <time>2019-07-18T15:49:06Z</time>
      </trkpt>
      <trkpt lat="-27.346046" lon="-70.62855">
        <ele>185.112</ele>
        <time>2019-07-18T15:49:11Z</time>
      </trkpt>
      <trkpt lat="-27.346107" lon="-70.62878">
        <ele>184.914</ele>
        <time>2019-07-18T15:49:16Z</time>
      </trkpt>
      <trkpt lat="-27.346163" lon="-70.62899">
        <ele>184.724</ele>
        <time>2019-07-18T15:49:21Z</time>
      </trkpt>
      <trkpt lat="-27.346226" lon="-70.62922">
        <ele>184.616</ele>
        <time>2019-07-18T15:49:26Z</time>
      </trkpt>
      <trkpt lat="-27.346289" lon="-70.62944">
        <ele>184.367</ele>
        <time>2019-07-18T15:49:31Z</time>
      </trkpt>
      <trkpt lat="-27.346357" lon="-70.62968">
        <ele>184.431</ele>
        <time>2019-07-18T15:49:36Z</time>
      </trkpt>
      <trkpt lat="-27.346409" lon="-70.629906">
        <ele>184.391</ele>
        <time>2019-07-18T15:49:41Z</time>
      </trkpt>
      <trkpt lat="-27.346474" lon="-70.63014">
        <ele>184.1</ele>
        <time>2019-07-18T15:49:46Z</time>
      </trkpt>
      <trkpt lat="-27.346542" lon="-70.63038">
        <ele>184.077</ele>
        <time>2019-07-18T15:49:51Z</time>
      </trkpt>
      <trkpt lat="-27.346603" lon="-70.6306">
        <ele>184.103</ele>
        <time>2019-07-18T15:49:56Z</time>
      </trkpt>
      <trkpt lat="-27.34666" lon="-70.63083">
        <ele>184.066</ele>
        <time>2019-07-18T15:50:01Z</time>
      </trkpt>
      <trkpt lat="-27.346718" lon="-70.63106">
        <ele>184.161</ele>
        <time>2019-07-18T15:50:06Z</time>
      </trkpt>
      <trkpt lat="-27.34678" lon="-70.63126">
        <ele>184.185</ele>
        <time>2019-07-18T15:50:11Z</time>
      </trkpt>
      <trkpt lat="-27.346836" lon="-70.63148">
        <ele>183.939</ele>
        <time>2019-07-18T15:50:16Z</time>
      </trkpt>
      <trkpt lat="-27.34689" lon="-70.63168">
        <ele>183.802</ele>
        <time>2019-07-18T15:50:21Z</time>
      </trkpt>
      <trkpt lat="-27.346943" lon="-70.6319">
        <ele>183.643</ele>
        <time>2019-07-18T15:50:26Z</time>
      </trkpt>
      <trkpt lat="-27.346998" lon="-70.63209">
        <ele>183.67</ele>
        <time>2019-07-18T15:50:31Z</time>
      </trkpt>
      <trkpt lat="-27.34706" lon="-70.6323">
        <ele>183.265</ele>
        <time>2019-07-18T15:50:36Z</time>
      </trkpt>
      <trkpt lat="-27.347109" lon="-70.632515">
        <ele>183.411</ele>
        <time>2019-07-18T15:50:41Z</time>
      </trkpt>
      <trkpt lat="-27.347157" lon="-70.63271">
        <ele>183.371</ele>
        <time>2019-07-18T15:50:46Z</time>
      </trkpt>
      <trkpt lat="-27.347216" lon="-70.63293">
        <ele>183.305</ele>
        <time>2019-07-18T15:50:51Z</time>
      </trkpt>
      <trkpt lat="-27.347267" lon="-70.633125">
        <ele>183.305</ele>
        <time>2019-07-18T15:50:56Z</time>
      </trkpt>
      <trkpt lat="-27.347322" lon="-70.63331">
        <ele>183.411</ele>
        <time>2019-07-18T15:51:01Z</time>
      </trkpt>
      <trkpt lat="-27.347376" lon="-70.6335">
        <ele>183.136</ele>
        <time>2019-07-18T15:51:06Z</time>
      </trkpt>
      <trkpt lat="-27.347422" lon="-70.6337">
        <ele>182.985</ele>
        <time>2019-07-18T15:51:11Z</time>
      </trkpt>
      <trkpt lat="-27.347467" lon="-70.6339">
        <ele>183.033</ele>
        <time>2019-07-18T15:51:16Z</time>
      </trkpt>
      <trkpt lat="-27.347513" lon="-70.63406">
        <ele>182.843</ele>
        <time>2019-07-18T15:51:21Z</time>
      </trkpt>
      <trkpt lat="-27.347567" lon="-70.634254">
        <ele>182.407</ele>
        <time>2019-07-18T15:51:26Z</time>
      </trkpt>
      <trkpt lat="-27.347624" lon="-70.634445">
        <ele>182.468</ele>
        <time>2019-07-18T15:51:31Z</time>
      </trkpt>
      <trkpt lat="-27.347677" lon="-70.63464">
        <ele>182.42</ele>
        <time>2019-07-18T15:51:36Z</time>
      </trkpt>
      <trkpt lat="-27.347723" lon="-70.63484">
        <ele>182.33</ele>
        <time>2019-07-18T15:51:41Z</time>
      </trkpt>
      <trkpt lat="-27.347767" lon="-70.63503">
        <ele>182.177</ele>
        <time>2019-07-18T15:51:46Z</time>
      </trkpt>
      <trkpt lat="-27.347807" lon="-70.63524">
        <ele>181.976</ele>
        <time>2019-07-18T15:51:51Z</time>
      </trkpt>
      <trkpt lat="-27.347866" lon="-70.635445">
        <ele>181.839</ele>
        <time>2019-07-18T15:51:56Z</time>
      </trkpt>
      <trkpt lat="-27.347925" lon="-70.63566">
        <ele>181.81</ele>
        <time>2019-07-18T15:52:01Z</time>
      </trkpt>
      <trkpt lat="-27.347982" lon="-70.63586">
        <ele>181.67</ele>
        <time>2019-07-18T15:52:06Z</time>
      </trkpt>
      <trkpt lat="-27.347998" lon="-70.63604">
        <ele>181.178</ele>
        <time>2019-07-18T15:52:12Z</time>
      </trkpt>
      <trkpt lat="-27.348043" lon="-70.63622">
        <ele>181.429</ele>
        <time>2019-07-18T15:52:17Z</time>
      </trkpt>
      <trkpt lat="-27.348104" lon="-70.63642">
        <ele>181.424</ele>
        <time>2019-07-18T15:52:22Z</time>
      </trkpt>
      <trkpt lat="-27.348154" lon="-70.63663">
        <ele>181.384</ele>
        <time>2019-07-18T15:52:27Z</time>
      </trkpt>
      <trkpt lat="-27.348223" lon="-70.636856">
        <ele>181.115</ele>
        <time>2019-07-18T15:52:32Z</time>
      </trkpt>
      <trkpt lat="-27.348295" lon="-70.63706">
        <ele>181.115</ele>
        <time>2019-07-18T15:52:37Z</time>
      </trkpt>
      <trkpt lat="-27.34838" lon="-70.637276">
        <ele>180.824</ele>
        <time>2019-07-18T15:52:42Z</time>
      </trkpt>
      <trkpt lat="-27.348436" lon="-70.6375">
        <ele>180.798</ele>
        <time>2019-07-18T15:52:47Z</time>
      </trkpt>
      <trkpt lat="-27.348516" lon="-70.63772">
        <ele>180.642</ele>
        <time>2019-07-18T15:52:52Z</time>
      </trkpt>
      <trkpt lat="-27.34857" lon="-70.63793">
        <ele>180.57</ele>
        <time>2019-07-18T15:52:57Z</time>
      </trkpt>
      <trkpt lat="-27.348623" lon="-70.63815">
        <ele>180.414</ele>
        <time>2019-07-18T15:53:02Z</time>
      </trkpt>
      <trkpt lat="-27.348686" lon="-70.63838">
        <ele>180.317</ele>
        <time>2019-07-18T15:53:07Z</time>
      </trkpt>
      <trkpt lat="-27.348743" lon="-70.638626">
        <ele>180.364</ele>
        <time>2019-07-18T15:53:12Z</time>
      </trkpt>
      <trkpt lat="-27.348814" lon="-70.63892">
        <ele>180.375</ele>
        <time>2019-07-18T15:53:19Z</time>
      </trkpt>
      <trkpt lat="-27.348879" lon="-70.63916">
        <ele>180.013</ele>
        <time>2019-07-18T15:53:24Z</time>
      </trkpt>
      <trkpt lat="-27.348942" lon="-70.63939">
        <ele>180.129</ele>
        <time>2019-07-18T15:53:29Z</time>
      </trkpt>
      <trkpt lat="-27.349007" lon="-70.63964">
        <ele>179.566</ele>
        <time>2019-07-18T15:53:34Z</time>
      </trkpt>
      <trkpt lat="-27.349064" lon="-70.63986">
        <ele>179.698</ele>
        <time>2019-07-18T15:53:39Z</time>
      </trkpt>
      <trkpt lat="-27.349113" lon="-70.6401">
        <ele>179.323</ele>
        <time>2019-07-18T15:53:44Z</time>
      </trkpt>
      <trkpt lat="-27.349182" lon="-70.64033">
        <ele>179.181</ele>
        <time>2019-07-18T15:53:49Z</time>
      </trkpt>
      <trkpt lat="-27.34924" lon="-70.64055">
        <ele>179.067</ele>
        <time>2019-07-18T15:53:54Z</time>
      </trkpt>
      <trkpt lat="-27.349297" lon="-70.64076">
        <ele>178.993</ele>
        <time>2019-07-18T15:53:59Z</time>
      </trkpt>
      <trkpt lat="-27.349358" lon="-70.640976">
        <ele>178.966</ele>
        <time>2019-07-18T15:54:04Z</time>
      </trkpt>
      <trkpt lat="-27.349432" lon="-70.641205">
        <ele>178.927</ele>
        <time>2019-07-18T15:54:09Z</time>
      </trkpt>
      <trkpt lat="-27.349497" lon="-70.64145">
        <ele>178.472</ele>
        <time>2019-07-18T15:54:14Z</time>
      </trkpt>
      <trkpt lat="-27.349564" lon="-70.64168">
        <ele>178.361</ele>
        <time>2019-07-18T15:54:19Z</time>
      </trkpt>
      <trkpt lat="-27.349634" lon="-70.64192">
        <ele>178.272</ele>
        <time>2019-07-18T15:54:24Z</time>
      </trkpt>
      <trkpt lat="-27.349703" lon="-70.64216">
        <ele>178.124</ele>
        <time>2019-07-18T15:54:29Z</time>
      </trkpt>
      <trkpt lat="-27.349762" lon="-70.64239">
        <ele>177.986</ele>
        <time>2019-07-18T15:54:34Z</time>
      </trkpt>
      <trkpt lat="-27.349821" lon="-70.6426">
        <ele>177.807</ele>
        <time>2019-07-18T15:54:39Z</time>
      </trkpt>
      <trkpt lat="-27.349861" lon="-70.64279">
        <ele>177.672</ele>
        <time>2019-07-18T15:54:44Z</time>
      </trkpt>
      <trkpt lat="-27.349905" lon="-70.64298">
        <ele>177.096</ele>
        <time>2019-07-18T15:54:49Z</time>
      </trkpt>
      <trkpt lat="-27.349955" lon="-70.64319">
        <ele>177.788</ele>
        <time>2019-07-18T15:54:54Z</time>
      </trkpt>
      <trkpt lat="-27.350021" lon="-70.64339">
        <ele>177.408</ele>
        <time>2019-07-18T15:54:59Z</time>
      </trkpt>
      <trkpt lat="-27.350082" lon="-70.6436">
        <ele>177.434</ele>
        <time>2019-07-18T15:55:04Z</time>
      </trkpt>
      <trkpt lat="-27.350134" lon="-70.64382">
        <ele>177.389</ele>
        <time>2019-07-18T15:55:09Z</time>
      </trkpt>
      <trkpt lat="-27.35019" lon="-70.64404">
        <ele>177.098</ele>
        <time>2019-07-18T15:55:14Z</time>
      </trkpt>
      <trkpt lat="-27.35025" lon="-70.644264">
        <ele>176.99</ele>
        <time>2019-07-18T15:55:19Z</time>
      </trkpt>
      <trkpt lat="-27.350306" lon="-70.644455">
        <ele>176.752</ele>
        <time>2019-07-18T15:55:24Z</time>
      </trkpt>
      <trkpt lat="-27.35035" lon="-70.64463">
        <ele>176.715</ele>
        <time>2019-07-18T15:55:29Z</time>
      </trkpt>
      <trkpt lat="-27.350395" lon="-70.64481">
        <ele>176.691</ele>
        <time>2019-07-18T15:55:34Z</time>
      </trkpt>
      <trkpt lat="-27.350437" lon="-70.645004">
        <ele>176.44</ele>
        <time>2019-07-18T15:55:39Z</time>
      </trkpt>
      <trkpt lat="-27.350557" lon="-70.645424">
        <ele>176.559</ele>
        <time>2019-07-18T15:55:48Z</time>
      </trkpt>
      <trkpt lat="-27.35061" lon="-70.64563">
        <ele>176.454</ele>
        <time>2019-07-18T15:55:54Z</time>
      </trkpt>
      <trkpt lat="-27.350655" lon="-70.64582">
        <ele>176.324</ele>
        <time>2019-07-18T15:55:59Z</time>
      </trkpt>
      <trkpt lat="-27.350695" lon="-70.645996">
        <ele>176.057</ele>
        <time>2019-07-18T15:56:04Z</time>
      </trkpt>
      <trkpt lat="-27.35075" lon="-70.64622">
        <ele>176.168</ele>
        <time>2019-07-18T15:56:09Z</time>
      </trkpt>
      <trkpt lat="-27.3508" lon="-70.646416">
        <ele>176.018</ele>
        <time>2019-07-18T15:56:14Z</time>
      </trkpt>
      <trkpt lat="-27.350863" lon="-70.646645">
        <ele>175.78</ele>
        <time>2019-07-18T15:56:19Z</time>
      </trkpt>
      <trkpt lat="-27.350927" lon="-70.64689">
        <ele>175.798</ele>
        <time>2019-07-18T15:56:24Z</time>
      </trkpt>
      <trkpt lat="-27.35099" lon="-70.647156">
        <ele>175.463</ele>
        <time>2019-07-18T15:56:29Z</time>
      </trkpt>
      <trkpt lat="-27.351044" lon="-70.647385">
        <ele>175.0</ele>
        <time>2019-07-18T15:56:34Z</time>
      </trkpt>
      <trkpt lat="-27.351133" lon="-70.647575">
        <ele>175.312</ele>
        <time>2019-07-18T15:56:39Z</time>
      </trkpt>
      <trkpt lat="-27.35119" lon="-70.6478">
        <ele>175.254</ele>
        <time>2019-07-18T15:56:44Z</time>
      </trkpt>
      <trkpt lat="-27.351254" lon="-70.64803">
        <ele>175.006</ele>
        <time>2019-07-18T15:56:49Z</time>
      </trkpt>
      <trkpt lat="-27.351316" lon="-70.64827">
        <ele>175.106</ele>
        <time>2019-07-18T15:56:54Z</time>
      </trkpt>
      <trkpt lat="-27.351393" lon="-70.64853">
        <ele>174.815</ele>
        <time>2019-07-18T15:56:59Z</time>
      </trkpt>
      <trkpt lat="-27.351463" lon="-70.648796">
        <ele>174.583</ele>
        <time>2019-07-18T15:57:04Z</time>
      </trkpt>
      <trkpt lat="-27.351532" lon="-70.64906">
        <ele>175.064</ele>
        <time>2019-07-18T15:57:09Z</time>
      </trkpt>
      <trkpt lat="-27.351599" lon="-70.64932">
        <ele>174.752</ele>
        <time>2019-07-18T15:57:14Z</time>
      </trkpt>
      <trkpt lat="-27.351664" lon="-70.649574">
        <ele>174.163</ele>
        <time>2019-07-18T15:57:19Z</time>
      </trkpt>
      <trkpt lat="-27.351728" lon="-70.64982">
        <ele>173.944</ele>
        <time>2019-07-18T15:57:24Z</time>
      </trkpt>
      <trkpt lat="-27.351782" lon="-70.65005">
        <ele>173.988</ele>
        <time>2019-07-18T15:57:29Z</time>
      </trkpt>
      <trkpt lat="-27.351849" lon="-70.65028">
        <ele>173.877</ele>
        <time>2019-07-18T15:57:34Z</time>
      </trkpt>
      <trkpt lat="-27.351908" lon="-70.65052">
        <ele>173.743</ele>
        <time>2019-07-18T15:57:39Z</time>
      </trkpt>
      <trkpt lat="-27.351982" lon="-70.65076">
        <ele>173.671</ele>
        <time>2019-07-18T15:57:44Z</time>
      </trkpt>
      <trkpt lat="-27.352129" lon="-70.65097">
        <ele>173.547</ele>
        <time>2019-07-18T15:57:49Z</time>
      </trkpt>
      <trkpt lat="-27.352226" lon="-70.65123">
        <ele>173.677</ele>
        <time>2019-07-18T15:57:54Z</time>
      </trkpt>
      <trkpt lat="-27.352299" lon="-70.651505">
        <ele>173.37</ele>
        <time>2019-07-18T15:57:59Z</time>
      </trkpt>
      <trkpt lat="-27.352362" lon="-70.65177">
        <ele>173.029</ele>
        <time>2019-07-18T15:58:04Z</time>
      </trkpt>
      <trkpt lat="-27.352427" lon="-70.65204">
        <ele>173.05</ele>
        <time>2019-07-18T15:58:09Z</time>
      </trkpt>
      <trkpt lat="-27.352484" lon="-70.652275">
        <ele>172.836</ele>
        <time>2019-07-18T15:58:14Z</time>
      </trkpt>
      <trkpt lat="-27.35255" lon="-70.65251">
        <ele>173.016</ele>
        <time>2019-07-18T15:58:19Z</time>
      </trkpt>
      <trkpt lat="-27.35261" lon="-70.65273">
        <ele>172.884</ele>
        <time>2019-07-18T15:58:24Z</time>
      </trkpt>
      <trkpt lat="-27.352648" lon="-70.65289">
        <ele>172.921</ele>
        <time>2019-07-18T15:58:29Z</time>
      </trkpt>
      <trkpt lat="-27.352669" lon="-70.65294">
        <ele>173.204</ele>
        <time>2019-07-18T15:58:34Z</time>
      </trkpt>
      <trkpt lat="-27.352873" lon="-70.65299">
        <ele>172.868</ele>
        <time>2019-07-18T15:59:04Z</time>
      </trkpt>
      <trkpt lat="-27.353024" lon="-70.652985">
        <ele>173.069</ele>
        <time>2019-07-18T15:59:09Z</time>
      </trkpt>
      <trkpt lat="-27.353092" lon="-70.653015">
        <ele>172.303</ele>
        <time>2019-07-18T15:59:14Z</time>
      </trkpt>
      <trkpt lat="-27.35342" lon="-70.65296">
        <ele>172.358</ele>
        <time>2019-07-18T16:02:07Z</time>
      </trkpt>
      <trkpt lat="-27.353582" lon="-70.65293">
        <ele>172.266</ele>
        <time>2019-07-18T16:02:12Z</time>
      </trkpt>
      <trkpt lat="-27.353771" lon="-70.65291">
        <ele>172.091</ele>
        <time>2019-07-18T16:02:17Z</time>
      </trkpt>
      <trkpt lat="-27.35401" lon="-70.65288">
        <ele>171.97</ele>
        <time>2019-07-18T16:02:23Z</time>
      </trkpt>
      <trkpt lat="-27.354187" lon="-70.6529">
        <ele>171.576</ele>
        <time>2019-07-18T16:02:28Z</time>
      </trkpt>
      <trkpt lat="-27.35435" lon="-70.65287">
        <ele>172.009</ele>
        <time>2019-07-18T16:02:33Z</time>
      </trkpt>
      <trkpt lat="-27.354588" lon="-70.65275">
        <ele>172.456</ele>
        <time>2019-07-18T16:02:38Z</time>
      </trkpt>
      <trkpt lat="-27.35485" lon="-70.65266">
        <ele>172.21</ele>
        <time>2019-07-18T16:02:44Z</time>
      </trkpt>
      <trkpt lat="-27.355066" lon="-70.65262">
        <ele>172.065</ele>
        <time>2019-07-18T16:02:49Z</time>
      </trkpt>
      <trkpt lat="-27.355278" lon="-70.65259">
        <ele>172.173</ele>
        <time>2019-07-18T16:02:54Z</time>
      </trkpt>
      <trkpt lat="-27.3555" lon="-70.652534">
        <ele>172.152</ele>
        <time>2019-07-18T16:02:59Z</time>
      </trkpt>
      <trkpt lat="-27.355715" lon="-70.65249">
        <ele>171.867</ele>
        <time>2019-07-18T16:03:04Z</time>
      </trkpt>
      <trkpt lat="-27.355915" lon="-70.65246">
        <ele>172.276</ele>
        <time>2019-07-18T16:03:09Z</time>
      </trkpt>
      <trkpt lat="-27.356123" lon="-70.65241">
        <ele>172.173</ele>
        <time>2019-07-18T16:03:14Z</time>
      </trkpt>
      <trkpt lat="-27.356329" lon="-70.65238">
        <ele>172.036</ele>
        <time>2019-07-18T16:03:19Z</time>
      </trkpt>
      <trkpt lat="-27.356531" lon="-70.65234">
        <ele>171.457</ele>
        <time>2019-07-18T16:03:24Z</time>
      </trkpt>
      <trkpt lat="-27.356747" lon="-70.652306">
        <ele>171.034</ele>
        <time>2019-07-18T16:03:29Z</time>
      </trkpt>
      <trkpt lat="-27.35698" lon="-70.65227">
        <ele>170.197</ele>
        <time>2019-07-18T16:03:34Z</time>
      </trkpt>
      <trkpt lat="-27.357225" lon="-70.65223">
        <ele>170.445</ele>
        <time>2019-07-18T16:03:39Z</time>
      </trkpt>
      <trkpt lat="-27.357477" lon="-70.652176">
        <ele>169.391</ele>
        <time>2019-07-18T16:03:46Z</time>
      </trkpt>
      <trkpt lat="-27.35772" lon="-70.65212">
        <ele>170.353</ele>
        <time>2019-07-18T16:03:51Z</time>
      </trkpt>
      <trkpt lat="-27.357954" lon="-70.65208">
        <ele>170.567</ele>
        <time>2019-07-18T16:03:56Z</time>
      </trkpt>
      <trkpt lat="-27.35817" lon="-70.65203">
        <ele>170.622</ele>
        <time>2019-07-18T16:04:01Z</time>
      </trkpt>
      <trkpt lat="-27.35838" lon="-70.65202">
        <ele>170.884</ele>
        <time>2019-07-18T16:04:06Z</time>
      </trkpt>
      <trkpt lat="-27.358582" lon="-70.652054">
        <ele>170.894</ele>
        <time>2019-07-18T16:04:11Z</time>
      </trkpt>
      <trkpt lat="-27.358772" lon="-70.6521">
        <ele>171.901</ele>
        <time>2019-07-18T16:04:16Z</time>
      </trkpt>
      <trkpt lat="-27.358957" lon="-70.652145">
        <ele>171.547</ele>
        <time>2019-07-18T16:04:21Z</time>
      </trkpt>
      <trkpt lat="-27.359144" lon="-70.65218">
        <ele>170.995</ele>
        <time>2019-07-18T16:04:26Z</time>
      </trkpt>
      <trkpt lat="-27.359346" lon="-70.65223">
        <ele>171.299</ele>
        <time>2019-07-18T16:04:31Z</time>
      </trkpt>
      <trkpt lat="-27.359564" lon="-70.65226">
        <ele>171.058</ele>
        <time>2019-07-18T16:04:36Z</time>
      </trkpt>
      <trkpt lat="-27.35977" lon="-70.652306">
        <ele>171.481</ele>
        <time>2019-07-18T16:04:41Z</time>
      </trkpt>
      <trkpt lat="-27.359953" lon="-70.65235">
        <ele>171.922</ele>
        <time>2019-07-18T16:04:46Z</time>
      </trkpt>
      <trkpt lat="-27.360113" lon="-70.65243">
        <ele>172.044</ele>
        <time>2019-07-18T16:04:51Z</time>
      </trkpt>
      <trkpt lat="-27.360277" lon="-70.65252">
        <ele>171.706</ele>
        <time>2019-07-18T16:04:56Z</time>
      </trkpt>
      <trkpt lat="-27.360441" lon="-70.652626">
        <ele>171.51</ele>
        <time>2019-07-18T16:05:01Z</time>
      </trkpt>
      <trkpt lat="-27.36061" lon="-70.65275">
        <ele>171.563</ele>
        <time>2019-07-18T16:05:06Z</time>
      </trkpt>
      <trkpt lat="-27.36077" lon="-70.6529">
        <ele>171.098</ele>
        <time>2019-07-18T16:05:11Z</time>
      </trkpt>
      <trkpt lat="-27.360933" lon="-70.65305">
        <ele>171.299</ele>
        <time>2019-07-18T16:05:16Z</time>
      </trkpt>
      <trkpt lat="-27.361094" lon="-70.65321">
        <ele>171.026</ele>
        <time>2019-07-18T16:05:21Z</time>
      </trkpt>
      <trkpt lat="-27.361244" lon="-70.65335">
        <ele>171.267</ele>
        <time>2019-07-18T16:05:26Z</time>
      </trkpt>
      <trkpt lat="-27.361403" lon="-70.653496">
        <ele>171.248</ele>
        <time>2019-07-18T16:05:31Z</time>
      </trkpt>
      <trkpt lat="-27.361576" lon="-70.6536">
        <ele>171.235</ele>
        <time>2019-07-18T16:05:36Z</time>
      </trkpt>
      <trkpt lat="-27.361715" lon="-70.65367">
        <ele>171.172</ele>
        <time>2019-07-18T16:05:41Z</time>
      </trkpt>
      <trkpt lat="-27.361761" lon="-70.653694">
        <ele>171.521</ele>
        <time>2019-07-18T16:05:46Z</time>
      </trkpt>
      <trkpt lat="-27.362005" lon="-70.6536">
        <ele>171.521</ele>
        <time>2019-07-18T16:09:35Z</time>
      </trkpt>
      <trkpt lat="-27.362164" lon="-70.65358">
        <ele>171.595</ele>
        <time>2019-07-18T16:09:40Z</time>
      </trkpt>
      <trkpt lat="-27.362274" lon="-70.65356">
        <ele>171.729</ele>
        <time>2019-07-18T16:09:45Z</time>
      </trkpt>
      <trkpt lat="-27.362417" lon="-70.6535">
        <ele>171.492</ele>
        <time>2019-07-18T16:09:50Z</time>
      </trkpt>
      <trkpt lat="-27.362589" lon="-70.65346">
        <ele>171.743</ele>
        <time>2019-07-18T16:09:55Z</time>
      </trkpt>
      <trkpt lat="-27.362753" lon="-70.6534">
        <ele>171.653</ele>
        <time>2019-07-18T16:10:00Z</time>
      </trkpt>
      <trkpt lat="-27.362915" lon="-70.65334">
        <ele>171.679</ele>
        <time>2019-07-18T16:10:05Z</time>
      </trkpt>
      <trkpt lat="-27.363071" lon="-70.65328">
        <ele>171.669</ele>
        <time>2019-07-18T16:10:10Z</time>
      </trkpt>
      <trkpt lat="-27.363237" lon="-70.65324">
        <ele>171.92</ele>
        <time>2019-07-18T16:10:15Z</time>
      </trkpt>
      <trkpt lat="-27.363409" lon="-70.6532">
        <ele>171.885</ele>
        <time>2019-07-18T16:10:20Z</time>
      </trkpt>
      <trkpt lat="-27.36358" lon="-70.653175">
        <ele>172.009</ele>
        <time>2019-07-18T16:10:25Z</time>
      </trkpt>
      <trkpt lat="-27.363754" lon="-70.65315">
        <ele>172.046</ele>
        <time>2019-07-18T16:10:30Z</time>
      </trkpt>
      <trkpt lat="-27.36393" lon="-70.65312">
        <ele>172.239</ele>
        <time>2019-07-18T16:10:35Z</time>
      </trkpt>
      <trkpt lat="-27.36411" lon="-70.6531">
        <ele>172.295</ele>
        <time>2019-07-18T16:10:40Z</time>
      </trkpt>
      <trkpt lat="-27.364294" lon="-70.65307">
        <ele>172.358</ele>
        <time>2019-07-18T16:10:45Z</time>
      </trkpt>
      <trkpt lat="-27.36447" lon="-70.65302">
        <ele>172.245</ele>
        <time>2019-07-18T16:10:50Z</time>
      </trkpt>
      <trkpt lat="-27.364656" lon="-70.65299">
        <ele>172.398</ele>
        <time>2019-07-18T16:10:55Z</time>
      </trkpt>
      <trkpt lat="-27.364836" lon="-70.652954">
        <ele>172.078</ele>
        <time>2019-07-18T16:11:00Z</time>
      </trkpt>
      <trkpt lat="-27.365004" lon="-70.65291">
        <ele>171.941</ele>
        <time>2019-07-18T16:11:05Z</time>
      </trkpt>
      <trkpt lat="-27.365181" lon="-70.65287">
        <ele>172.189</ele>
        <time>2019-07-18T16:11:10Z</time>
      </trkpt>
      <trkpt lat="-27.365356" lon="-70.65282">
        <ele>172.493</ele>
        <time>2019-07-18T16:11:15Z</time>
      </trkpt>
      <trkpt lat="-27.365534" lon="-70.65277">
        <ele>172.718</ele>
        <time>2019-07-18T16:11:20Z</time>
      </trkpt>
      <trkpt lat="-27.365705" lon="-70.65271">
        <ele>172.326</ele>
        <time>2019-07-18T16:11:25Z</time>
      </trkpt>
      <trkpt lat="-27.365871" lon="-70.65266">
        <ele>172.739</ele>
        <time>2019-07-18T16:11:30Z</time>
      </trkpt>
      <trkpt lat="-27.366041" lon="-70.652596">
        <ele>172.485</ele>
        <time>2019-07-18T16:11:35Z</time>
      </trkpt>
      <trkpt lat="-27.366224" lon="-70.65254">
        <ele>172.464</ele>
        <time>2019-07-18T16:11:40Z</time>
      </trkpt>
      <trkpt lat="-27.366396" lon="-70.652466">
        <ele>172.371</ele>
        <time>2019-07-18T16:11:45Z</time>
      </trkpt>
      <trkpt lat="-27.366571" lon="-70.65239">
        <ele>172.358</ele>
        <time>2019-07-18T16:11:50Z</time>
      </trkpt>
      <trkpt lat="-27.366745" lon="-70.65232">
        <ele>172.223</ele>
        <time>2019-07-18T16:11:55Z</time>
      </trkpt>
      <trkpt lat="-27.366926" lon="-70.65225">
        <ele>172.123</ele>
        <time>2019-07-18T16:12:00Z</time>
      </trkpt>
      <trkpt lat="-27.367102" lon="-70.6522">
        <ele>172.131</ele>
        <time>2019-07-18T16:12:05Z</time>
      </trkpt>
      <trkpt lat="-27.367281" lon="-70.65214">
        <ele>171.83</ele>
        <time>2019-07-18T16:12:10Z</time>
      </trkpt>
      <trkpt lat="-27.367464" lon="-70.65209">
        <ele>171.925</ele>
        <time>2019-07-18T16:12:15Z</time>
      </trkpt>
      <trkpt lat="-27.367634" lon="-70.65205">
        <ele>172.21</ele>
        <time>2019-07-18T16:12:20Z</time>
      </trkpt>
      <trkpt lat="-27.367805" lon="-70.65201">
        <ele>172.123</ele>
        <time>2019-07-18T16:12:25Z</time>
      </trkpt>
      <trkpt lat="-27.367971" lon="-70.651955">
        <ele>172.186</ele>
        <time>2019-07-18T16:12:30Z</time>
      </trkpt>
      <trkpt lat="-27.368145" lon="-70.65191">
        <ele>172.382</ele>
        <time>2019-07-18T16:12:35Z</time>
      </trkpt>
      <trkpt lat="-27.36832" lon="-70.65186">
        <ele>172.192</ele>
        <time>2019-07-18T16:12:40Z</time>
      </trkpt>
      <trkpt lat="-27.36849" lon="-70.6518">
        <ele>171.988</ele>
        <time>2019-07-18T16:12:45Z</time>
      </trkpt>
      <trkpt lat="-27.36866" lon="-70.65174">
        <ele>171.959</ele>
        <time>2019-07-18T16:12:50Z</time>
      </trkpt>
      <trkpt lat="-27.368841" lon="-70.651695">
        <ele>171.706</ele>
        <time>2019-07-18T16:12:55Z</time>
      </trkpt>
      <trkpt lat="-27.369022" lon="-70.65164">
        <ele>171.975</ele>
        <time>2019-07-18T16:13:00Z</time>
      </trkpt>
      <trkpt lat="-27.369202" lon="-70.65158">
        <ele>171.671</ele>
        <time>2019-07-18T16:13:06Z</time>
      </trkpt>
      <trkpt lat="-27.369373" lon="-70.65152">
        <ele>171.92</ele>
        <time>2019-07-18T16:13:11Z</time>
      </trkpt>
      <trkpt lat="-27.369549" lon="-70.651474">
        <ele>171.676</ele>
        <time>2019-07-18T16:13:16Z</time>
      </trkpt>
      <trkpt lat="-27.36973" lon="-70.65141">
        <ele>171.885</ele>
        <time>2019-07-18T16:13:21Z</time>
      </trkpt>
      <trkpt lat="-27.36992" lon="-70.65136">
        <ele>171.119</ele>
        <time>2019-07-18T16:13:26Z</time>
      </trkpt>
      <trkpt lat="-27.370098" lon="-70.6513">
        <ele>172.009</ele>
        <time>2019-07-18T16:13:31Z</time>
      </trkpt>
      <trkpt lat="-27.370264" lon="-70.65123">
        <ele>171.814</ele>
        <time>2019-07-18T16:13:36Z</time>
      </trkpt>
      <trkpt lat="-27.370447" lon="-70.65117">
        <ele>172.038</ele>
        <time>2019-07-18T16:13:41Z</time>
      </trkpt>
      <trkpt lat="-27.37064" lon="-70.65113">
        <ele>171.761</ele>
        <time>2019-07-18T16:13:46Z</time>
      </trkpt>
      <trkpt lat="-27.37083" lon="-70.651085">
        <ele>172.142</ele>
        <time>2019-07-18T16:13:51Z</time>
      </trkpt>
      <trkpt lat="-27.371" lon="-70.65105">
        <ele>171.964</ele>
        <time>2019-07-18T16:13:56Z</time>
      </trkpt>
      <trkpt lat="-27.371176" lon="-70.650986">
        <ele>171.872</ele>
        <time>2019-07-18T16:14:01Z</time>
      </trkpt>
      <trkpt lat="-27.371372" lon="-70.65094">
        <ele>172.245</ele>
        <time>2019-07-18T16:14:06Z</time>
      </trkpt>
      <trkpt lat="-27.371548" lon="-70.65088">
        <ele>172.11</ele>
        <time>2019-07-18T16:14:11Z</time>
      </trkpt>
      <trkpt lat="-27.371735" lon="-70.65083">
        <ele>172.038</ele>
        <time>2019-07-18T16:14:16Z</time>
      </trkpt>
      <trkpt lat="-27.371923" lon="-70.65079">
        <ele>172.358</ele>
        <time>2019-07-18T16:14:21Z</time>
      </trkpt>
      <trkpt lat="-27.372213" lon="-70.65071">
        <ele>172.102</ele>
        <time>2019-07-18T16:14:29Z</time>
      </trkpt>
      <trkpt lat="-27.372387" lon="-70.650665">
        <ele>172.4</ele>
        <time>2019-07-18T16:14:34Z</time>
      </trkpt>
      <trkpt lat="-27.372559" lon="-70.65061">
        <ele>171.975</ele>
        <time>2019-07-18T16:14:39Z</time>
      </trkpt>
      <trkpt lat="-27.372747" lon="-70.650566">
        <ele>172.089</ele>
        <time>2019-07-18T16:14:44Z</time>
      </trkpt>
      <trkpt lat="-27.372925" lon="-70.65051">
        <ele>172.316</ele>
        <time>2019-07-18T16:14:49Z</time>
      </trkpt>
      <trkpt lat="-27.373077" lon="-70.65048">
        <ele>172.363</ele>
        <time>2019-07-18T16:14:54Z</time>
      </trkpt>
      <trkpt lat="-27.373251" lon="-70.65044">
        <ele>171.943</ele>
        <time>2019-07-18T16:14:59Z</time>
      </trkpt>
      <trkpt lat="-27.373425" lon="-70.65038">
        <ele>172.173</ele>
        <time>2019-07-18T16:15:04Z</time>
      </trkpt>
      <trkpt lat="-27.373585" lon="-70.65033">
        <ele>172.562</ele>
        <time>2019-07-18T16:15:09Z</time>
      </trkpt>
      <trkpt lat="-27.37375" lon="-70.65028">
        <ele>171.806</ele>
        <time>2019-07-18T16:15:14Z</time>
      </trkpt>
      <trkpt lat="-27.373922" lon="-70.65025">
        <ele>171.769</ele>
        <time>2019-07-18T16:15:19Z</time>
      </trkpt>
      <trkpt lat="-27.374102" lon="-70.65019">
        <ele>171.975</ele>
        <time>2019-07-18T16:15:24Z</time>
      </trkpt>
      <trkpt lat="-27.374271" lon="-70.650154">
        <ele>171.885</ele>
        <time>2019-07-18T16:15:29Z</time>
      </trkpt>
      <trkpt lat="-27.374447" lon="-70.6501">
        <ele>171.888</ele>
        <time>2019-07-18T16:15:34Z</time>
      </trkpt>
      <trkpt lat="-27.374619" lon="-70.65004">
        <ele>171.922</ele>
        <time>2019-07-18T16:15:39Z</time>
      </trkpt>
      <trkpt lat="-27.37479" lon="-70.649994">
        <ele>171.843</ele>
        <time>2019-07-18T16:15:44Z</time>
      </trkpt>
      <trkpt lat="-27.374958" lon="-70.64993">
        <ele>171.602</ele>
        <time>2019-07-18T16:15:49Z</time>
      </trkpt>
      <trkpt lat="-27.375118" lon="-70.64988">
        <ele>171.896</ele>
        <time>2019-07-18T16:15:54Z</time>
      </trkpt>
      <trkpt lat="-27.37528" lon="-70.64982">
        <ele>171.867</ele>
        <time>2019-07-18T16:15:59Z</time>
      </trkpt>
      <trkpt lat="-27.375454" lon="-70.649765">
        <ele>172.02</ele>
        <time>2019-07-18T16:16:04Z</time>
      </trkpt>
      <trkpt lat="-27.375608" lon="-70.6497">
        <ele>172.234</ele>
        <time>2019-07-18T16:16:09Z</time>
      </trkpt>
      <trkpt lat="-27.375755" lon="-70.64964">
        <ele>172.221</ele>
        <time>2019-07-18T16:16:14Z</time>
      </trkpt>
      <trkpt lat="-27.375906" lon="-70.64958">
        <ele>172.326</ele>
        <time>2019-07-18T16:16:19Z</time>
      </trkpt>
      <trkpt lat="-27.376041" lon="-70.64951">
        <ele>172.303</ele>
        <time>2019-07-18T16:16:24Z</time>
      </trkpt>
      <trkpt lat="-27.376148" lon="-70.64947">
        <ele>172.39</ele>
        <time>2019-07-18T16:16:29Z</time>
      </trkpt>
      <trkpt lat="-27.376247" lon="-70.649414">
        <ele>172.548</ele>
        <time>2019-07-18T16:16:34Z</time>
      </trkpt>
      <trkpt lat="-27.376352" lon="-70.649376">
        <ele>172.821</ele>
        <time>2019-07-18T16:16:39Z</time>
      </trkpt>
      <trkpt lat="-27.376467" lon="-70.64934">
        <ele>173.365</ele>
        <time>2019-07-18T16:16:44Z</time>
      </trkpt>
      <trkpt lat="-27.37656" lon="-70.64931">
        <ele>174.234</ele>
        <time>2019-07-18T16:16:49Z</time>
      </trkpt>
      <trkpt lat="-27.37667" lon="-70.64931">
        <ele>175.362</ele>
        <time>2019-07-18T16:16:54Z</time>
      </trkpt>
      <trkpt lat="-27.37679" lon="-70.64932">
        <ele>176.739</ele>
        <time>2019-07-18T16:16:59Z</time>
      </trkpt>
      <trkpt lat="-27.376902" lon="-70.649345">
        <ele>178.06</ele>
        <time>2019-07-18T16:17:04Z</time>
      </trkpt>
      <trkpt lat="-27.377007" lon="-70.64939">
        <ele>179.011</ele>
        <time>2019-07-18T16:17:09Z</time>
      </trkpt>
      <trkpt lat="-27.37711" lon="-70.64944">
        <ele>180.089</ele>
        <time>2019-07-18T16:17:14Z</time>
      </trkpt>
      <trkpt lat="-27.377193" lon="-70.64952">
        <ele>180.504</ele>
        <time>2019-07-18T16:17:19Z</time>
      </trkpt>
      <trkpt lat="-27.37726" lon="-70.6496">
        <ele>180.776</ele>
        <time>2019-07-18T16:17:24Z</time>
      </trkpt>
      <trkpt lat="-27.377298" lon="-70.649666">
        <ele>180.946</ele>
        <time>2019-07-18T16:17:29Z</time>
      </trkpt>
      <trkpt lat="-27.377344" lon="-70.64973">
        <ele>181.189</ele>
        <time>2019-07-18T16:17:34Z</time>
      </trkpt>
      <trkpt lat="-27.377382" lon="-70.649826">
        <ele>181.144</ele>
        <time>2019-07-18T16:17:39Z</time>
      </trkpt>
      <trkpt lat="-27.377438" lon="-70.64992">
        <ele>181.297</ele>
        <time>2019-07-18T16:17:44Z</time>
      </trkpt>
      <trkpt lat="-27.3775" lon="-70.650024">
        <ele>181.252</ele>
        <time>2019-07-18T16:17:49Z</time>
      </trkpt>
      <trkpt lat="-27.377565" lon="-70.65016">
        <ele>181.606</ele>
        <time>2019-07-18T16:17:54Z</time>
      </trkpt>
      <trkpt lat="-27.377647" lon="-70.65029">
        <ele>181.366</ele>
        <time>2019-07-18T16:17:59Z</time>
      </trkpt>
      <trkpt lat="-27.37772" lon="-70.650444">
        <ele>181.323</ele>
        <time>2019-07-18T16:18:04Z</time>
      </trkpt>
      <trkpt lat="-27.377804" lon="-70.65059">
        <ele>181.495</ele>
        <time>2019-07-18T16:18:09Z</time>
      </trkpt>
      <trkpt lat="-27.377897" lon="-70.65075">
        <ele>181.519</ele>
        <time>2019-07-18T16:18:14Z</time>
      </trkpt>
      <trkpt lat="-27.377987" lon="-70.6509">
        <ele>181.389</ele>
        <time>2019-07-18T16:18:19Z</time>
      </trkpt>
      <trkpt lat="-27.378086" lon="-70.65107">
        <ele>181.529</ele>
        <time>2019-07-18T16:18:24Z</time>
      </trkpt>
      <trkpt lat="-27.378174" lon="-70.651215">
        <ele>181.382</ele>
        <time>2019-07-18T16:18:29Z</time>
      </trkpt>
      <trkpt lat="-27.378265" lon="-70.65137">
        <ele>181.606</ele>
        <time>2019-07-18T16:18:34Z</time>
      </trkpt>
      <trkpt lat="-27.378353" lon="-70.65153">
        <ele>181.514</ele>
        <time>2019-07-18T16:18:39Z</time>
      </trkpt>
      <trkpt lat="-27.378448" lon="-70.65169">
        <ele>181.532</ele>
        <time>2019-07-18T16:18:44Z</time>
      </trkpt>
      <trkpt lat="-27.378546" lon="-70.65185">
        <ele>181.617</ele>
        <time>2019-07-18T16:18:49Z</time>
      </trkpt>
      <trkpt lat="-27.378637" lon="-70.65201">
        <ele>181.831</ele>
        <time>2019-07-18T16:18:54Z</time>
      </trkpt>
      <trkpt lat="-27.37874" lon="-70.652176">
        <ele>181.696</ele>
        <time>2019-07-18T16:18:59Z</time>
      </trkpt>
      <trkpt lat="-27.378838" lon="-70.65235">
        <ele>181.936</ele>
        <time>2019-07-18T16:19:04Z</time>
      </trkpt>
      <trkpt lat="-27.378939" lon="-70.652534">
        <ele>181.791</ele>
        <time>2019-07-18T16:19:09Z</time>
      </trkpt>
      <trkpt lat="-27.379045" lon="-70.65271">
        <ele>181.709</ele>
        <time>2019-07-18T16:19:14Z</time>
      </trkpt>
      <trkpt lat="-27.379152" lon="-70.65289">
        <ele>181.627</ele>
        <time>2019-07-18T16:19:18Z</time>
      </trkpt>
      <trkpt lat="-27.379278" lon="-70.65311">
        <ele>181.387</ele>
        <time>2019-07-18T16:19:25Z</time>
      </trkpt>
      <trkpt lat="-27.37938" lon="-70.653275">
        <ele>179.455</ele>
        <time>2019-07-18T16:19:30Z</time>
      </trkpt>
      <trkpt lat="-27.37947" lon="-70.653435">
        <ele>182.055</ele>
        <time>2019-07-18T16:19:35Z</time>
      </trkpt>
      <trkpt lat="-27.37957" lon="-70.65359">
        <ele>181.841</ele>
        <time>2019-07-18T16:19:40Z</time>
      </trkpt>
      <trkpt lat="-27.379652" lon="-70.65373">
        <ele>181.701</ele>
        <time>2019-07-18T16:19:45Z</time>
      </trkpt>
      <trkpt lat="-27.379723" lon="-70.65385">
        <ele>181.252</ele>
        <time>2019-07-18T16:19:50Z</time>
      </trkpt>
      <trkpt lat="-27.379791" lon="-70.65397">
        <ele>182.47</ele>
        <time>2019-07-18T16:19:55Z</time>
      </trkpt>
      <trkpt lat="-27.379868" lon="-70.65407">
        <ele>181.701</ele>
        <time>2019-07-18T16:20:00Z</time>
      </trkpt>
      <trkpt lat="-27.379948" lon="-70.65417">
        <ele>180.819</ele>
        <time>2019-07-18T16:20:05Z</time>
      </trkpt>
      <trkpt lat="-27.380033" lon="-70.65428">
        <ele>182.462</ele>
        <time>2019-07-18T16:20:10Z</time>
      </trkpt>
      <trkpt lat="-27.380085" lon="-70.65442">
        <ele>182.01</ele>
        <time>2019-07-18T16:20:15Z</time>
      </trkpt>
      <trkpt lat="-27.380156" lon="-70.65456">
        <ele>182.489</ele>
        <time>2019-07-18T16:20:20Z</time>
      </trkpt>
      <trkpt lat="-27.380228" lon="-70.6547">
        <ele>181.374</ele>
        <time>2019-07-18T16:20:25Z</time>
      </trkpt>
      <trkpt lat="-27.380295" lon="-70.65483">
        <ele>181.094</ele>
        <time>2019-07-18T16:20:30Z</time>
      </trkpt>
      <trkpt lat="-27.380354" lon="-70.654945">
        <ele>180.919</ele>
        <time>2019-07-18T16:20:35Z</time>
      </trkpt>
      <trkpt lat="-27.380428" lon="-70.65508">
        <ele>181.03</ele>
        <time>2019-07-18T16:20:40Z</time>
      </trkpt>
      <trkpt lat="-27.380527" lon="-70.65525">
        <ele>180.824</ele>
        <time>2019-07-18T16:20:45Z</time>
      </trkpt>
      <trkpt lat="-27.38063" lon="-70.65543">
        <ele>180.702</ele>
        <time>2019-07-18T16:20:50Z</time>
      </trkpt>
      <trkpt lat="-27.380741" lon="-70.65562">
        <ele>180.259</ele>
        <time>2019-07-18T16:20:55Z</time>
      </trkpt>
      <trkpt lat="-27.380848" lon="-70.65579">
        <ele>180.15</ele>
        <time>2019-07-18T16:21:00Z</time>
      </trkpt>
      <trkpt lat="-27.380945" lon="-70.65596">
        <ele>180.187</ele>
        <time>2019-07-18T16:21:05Z</time>
      </trkpt>
      <trkpt lat="-27.381044" lon="-70.656136">
        <ele>180.42</ele>
        <time>2019-07-18T16:21:10Z</time>
      </trkpt>
      <trkpt lat="-27.381142" lon="-70.6563">
        <ele>180.055</ele>
        <time>2019-07-18T16:21:15Z</time>
      </trkpt>
      <trkpt lat="-27.381243" lon="-70.65649">
        <ele>180.346</ele>
        <time>2019-07-18T16:21:20Z</time>
      </trkpt>
      <trkpt lat="-27.38134" lon="-70.65663">
        <ele>180.19</ele>
        <time>2019-07-18T16:21:25Z</time>
      </trkpt>
      <trkpt lat="-27.381422" lon="-70.65678">
        <ele>180.208</ele>
        <time>2019-07-18T16:21:30Z</time>
      </trkpt>
      <trkpt lat="-27.381514" lon="-70.656944">
        <ele>180.171</ele>
        <time>2019-07-18T16:21:35Z</time>
      </trkpt>
      <trkpt lat="-27.381617" lon="-70.65712">
        <ele>179.931</ele>
        <time>2019-07-18T16:21:40Z</time>
      </trkpt>
      <trkpt lat="-27.38172" lon="-70.6573">
        <ele>179.923</ele>
        <time>2019-07-18T16:21:45Z</time>
      </trkpt>
      <trkpt lat="-27.381832" lon="-70.657486">
        <ele>179.675</ele>
        <time>2019-07-18T16:21:49Z</time>
      </trkpt>
      <trkpt lat="-27.38194" lon="-70.65768">
        <ele>179.878</ele>
        <time>2019-07-18T16:21:54Z</time>
      </trkpt>
      <trkpt lat="-27.382057" lon="-70.657875">
        <ele>179.574</ele>
        <time>2019-07-18T16:21:59Z</time>
      </trkpt>
      <trkpt lat="-27.382193" lon="-70.65809">
        <ele>179.144</ele>
        <time>2019-07-18T16:22:04Z</time>
      </trkpt>
      <trkpt lat="-27.38232" lon="-70.65831">
        <ele>179.614</ele>
        <time>2019-07-18T16:22:09Z</time>
      </trkpt>
      <trkpt lat="-27.382448" lon="-70.65851">
        <ele>179.392</ele>
        <time>2019-07-18T16:22:14Z</time>
      </trkpt>
      <trkpt lat="-27.382568" lon="-70.65872">
        <ele>179.328</ele>
        <time>2019-07-18T16:22:19Z</time>
      </trkpt>
      <trkpt lat="-27.38271" lon="-70.658966">
        <ele>179.503</ele>
        <time>2019-07-18T16:22:24Z</time>
      </trkpt>
      <trkpt lat="-27.38287" lon="-70.65924">
        <ele>179.582</ele>
        <time>2019-07-18T16:22:29Z</time>
      </trkpt>
      <trkpt lat="-27.38302" lon="-70.65949">
        <ele>178.977</ele>
        <time>2019-07-18T16:22:34Z</time>
      </trkpt>
      <trkpt lat="-27.383163" lon="-70.65973">
        <ele>178.993</ele>
        <time>2019-07-18T16:22:39Z</time>
      </trkpt>
      <trkpt lat="-27.383356" lon="-70.66004">
        <ele>179.239</ele>
        <time>2019-07-18T16:22:48Z</time>
      </trkpt>
      <trkpt lat="-27.383469" lon="-70.66024">
        <ele>179.218</ele>
        <time>2019-07-18T16:22:53Z</time>
      </trkpt>
      <trkpt lat="-27.383585" lon="-70.66042">
        <ele>178.977</ele>
        <time>2019-07-18T16:22:58Z</time>
      </trkpt>
      <trkpt lat="-27.383705" lon="-70.66062">
        <ele>178.848</ele>
        <time>2019-07-18T16:23:03Z</time>
      </trkpt>
      <trkpt lat="-27.38382" lon="-70.66082">
        <ele>179.191</ele>
        <time>2019-07-18T16:23:08Z</time>
      </trkpt>
      <trkpt lat="-27.383934" lon="-70.66101">
        <ele>178.731</ele>
        <time>2019-07-18T16:23:13Z</time>
      </trkpt>
      <trkpt lat="-27.383995" lon="-70.66115">
        <ele>178.768</ele>
        <time>2019-07-18T16:23:18Z</time>
      </trkpt>
      <trkpt lat="-27.38402" lon="-70.66122">
        <ele>178.636</ele>
        <time>2019-07-18T16:23:23Z</time>
      </trkpt>
      <trkpt lat="-27.384048" lon="-70.661285">
        <ele>181.506</ele>
        <time>2019-07-18T16:23:30Z</time>
      </trkpt>
      <trkpt lat="-27.384146" lon="-70.661415">
        <ele>181.849</ele>
        <time>2019-07-18T16:32:19Z</time>
      </trkpt>
      <trkpt lat="-27.384249" lon="-70.66153">
        <ele>181.825</ele>
        <time>2019-07-18T16:32:34Z</time>
      </trkpt>
      <trkpt lat="-27.384325" lon="-70.661674">
        <ele>181.802</ele>
        <time>2019-07-18T16:32:39Z</time>
      </trkpt>
      <trkpt lat="-27.384422" lon="-70.661835">
        <ele>181.96</ele>
        <time>2019-07-18T16:32:44Z</time>
      </trkpt>
      <trkpt lat="-27.384508" lon="-70.66198">
        <ele>182.026</ele>
        <time>2019-07-18T16:32:49Z</time>
      </trkpt>
      <trkpt lat="-27.384613" lon="-70.66215">
        <ele>181.873</ele>
        <time>2019-07-18T16:32:54Z</time>
      </trkpt>
      <trkpt lat="-27.38472" lon="-70.66232">
        <ele>182.29</ele>
        <time>2019-07-18T16:32:59Z</time>
      </trkpt>
      <trkpt lat="-27.384829" lon="-70.6625">
        <ele>181.995</ele>
        <time>2019-07-18T16:33:04Z</time>
      </trkpt>
      <trkpt lat="-27.38494" lon="-70.662674">
        <ele>181.997</ele>
        <time>2019-07-18T16:33:09Z</time>
      </trkpt>
      <trkpt lat="-27.385044" lon="-70.66284">
        <ele>181.656</ele>
        <time>2019-07-18T16:33:14Z</time>
      </trkpt>
      <trkpt lat="-27.385153" lon="-70.663025">
        <ele>182.01</ele>
        <time>2019-07-18T16:33:19Z</time>
      </trkpt>
      <trkpt lat="-27.385263" lon="-70.66321">
        <ele>182.322</ele>
        <time>2019-07-18T16:33:24Z</time>
      </trkpt>
      <trkpt lat="-27.385384" lon="-70.6634">
        <ele>182.042</ele>
        <time>2019-07-18T16:33:29Z</time>
      </trkpt>
      <trkpt lat="-27.38551" lon="-70.663605">
        <ele>182.674</ele>
        <time>2019-07-18T16:33:34Z</time>
      </trkpt>
      <trkpt lat="-27.385674" lon="-70.663864">
        <ele>182.518</ele>
        <time>2019-07-18T16:33:41Z</time>
      </trkpt>
      <trkpt lat="-27.385822" lon="-70.664116">
        <ele>182.174</ele>
        <time>2019-07-18T16:33:46Z</time>
      </trkpt>
      <trkpt lat="-27.385933" lon="-70.66431">
        <ele>182.333</ele>
        <time>2019-07-18T16:33:51Z</time>
      </trkpt>
      <trkpt lat="-27.386063" lon="-70.664505">
        <ele>182.47</ele>
        <time>2019-07-18T16:33:56Z</time>
      </trkpt>
      <trkpt lat="-27.38616" lon="-70.66466">
        <ele>182.409</ele>
        <time>2019-07-18T16:34:02Z</time>
      </trkpt>
      <trkpt lat="-27.386278" lon="-70.66485">
        <ele>182.46</ele>
        <time>2019-07-18T16:34:07Z</time>
      </trkpt>
      <trkpt lat="-27.386404" lon="-70.66506">
        <ele>182.47</ele>
        <time>2019-07-18T16:34:12Z</time>
      </trkpt>
      <trkpt lat="-27.38654" lon="-70.66527">
        <ele>182.325</ele>
        <time>2019-07-18T16:34:17Z</time>
      </trkpt>
      <trkpt lat="-27.386667" lon="-70.66548">
        <ele>182.219</ele>
        <time>2019-07-18T16:34:22Z</time>
      </trkpt>
      <trkpt lat="-27.386795" lon="-70.66568">
        <ele>182.219</ele>
        <time>2019-07-18T16:34:27Z</time>
      </trkpt>
      <trkpt lat="-27.386925" lon="-70.665886">
        <ele>182.256</ele>
        <time>2019-07-18T16:34:32Z</time>
      </trkpt>
      <trkpt lat="-27.387054" lon="-70.66609">
        <ele>182.37</ele>
        <time>2019-07-18T16:34:37Z</time>
      </trkpt>
      <trkpt lat="-27.387184" lon="-70.666306">
        <ele>182.103</ele>
        <time>2019-07-18T16:34:42Z</time>
      </trkpt>
      <trkpt lat="-27.38731" lon="-70.66652">
        <ele>182.19</ele>
        <time>2019-07-18T16:34:47Z</time>
      </trkpt>
      <trkpt lat="-27.387453" lon="-70.66674">
        <ele>181.598</ele>
        <time>2019-07-18T16:34:52Z</time>
      </trkpt>
      <trkpt lat="-27.38761" lon="-70.66698">
        <ele>181.067</ele>
        <time>2019-07-18T16:34:57Z</time>
      </trkpt>
      <trkpt lat="-27.3878" lon="-70.6673">
        <ele>180.85</ele>
        <time>2019-07-18T16:35:02Z</time>
      </trkpt>
      <trkpt lat="-27.388039" lon="-70.66767">
        <ele>181.384</ele>
        <time>2019-07-18T16:35:09Z</time>
      </trkpt>
      <trkpt lat="-27.388199" lon="-70.66793">
        <ele>180.914</ele>
        <time>2019-07-18T16:35:14Z</time>
      </trkpt>
      <trkpt lat="-27.388351" lon="-70.66817">
        <ele>181.165</ele>
        <time>2019-07-18T16:35:19Z</time>
      </trkpt>
      <trkpt lat="-27.388512" lon="-70.66841">
        <ele>180.75</ele>
        <time>2019-07-18T16:35:24Z</time>
      </trkpt>
      <trkpt lat="-27.388662" lon="-70.66867">
        <ele>180.584</ele>
        <time>2019-07-18T16:35:29Z</time>
      </trkpt>
      <trkpt lat="-27.38883" lon="-70.66892">
        <ele>180.882</ele>
        <time>2019-07-18T16:35:34Z</time>
      </trkpt>
      <trkpt lat="-27.388971" lon="-70.66916">
        <ele>180.829</ele>
        <time>2019-07-18T16:35:39Z</time>
      </trkpt>
      <trkpt lat="-27.38911" lon="-70.66938">
        <ele>180.589</ele>
        <time>2019-07-18T16:35:44Z</time>
      </trkpt>
      <trkpt lat="-27.389242" lon="-70.66959">
        <ele>180.827</ele>
        <time>2019-07-18T16:35:49Z</time>
      </trkpt>
      <trkpt lat="-27.389376" lon="-70.66981">
        <ele>180.858</ele>
        <time>2019-07-18T16:35:55Z</time>
      </trkpt>
      <trkpt lat="-27.389505" lon="-70.67001">
        <ele>181.009</ele>
        <time>2019-07-18T16:36:00Z</time>
      </trkpt>
      <trkpt lat="-27.389614" lon="-70.6702">
        <ele>180.607</ele>
        <time>2019-07-18T16:36:05Z</time>
      </trkpt>
      <trkpt lat="-27.389706" lon="-70.670334">
        <ele>180.885</ele>
        <time>2019-07-18T16:36:10Z</time>
      </trkpt>
      <trkpt lat="-27.38977" lon="-70.670456">
        <ele>180.29</ele>
        <time>2019-07-18T16:36:15Z</time>
      </trkpt>
      <trkpt lat="-27.389786" lon="-70.67049">
        <ele>180.573</ele>
        <time>2019-07-18T16:36:20Z</time>
      </trkpt>
      <trkpt lat="-27.390028" lon="-70.67085">
        <ele>180.565</ele>
        <time>2019-07-18T16:38:06Z</time>
      </trkpt>
      <trkpt lat="-27.39013" lon="-70.67101">
        <ele>180.494</ele>
        <time>2019-07-18T16:38:11Z</time>
      </trkpt>
      <trkpt lat="-27.390234" lon="-70.67119">
        <ele>181.033</ele>
        <time>2019-07-18T16:38:16Z</time>
      </trkpt>
      <trkpt lat="-27.390345" lon="-70.67136">
        <ele>181.115</ele>
        <time>2019-07-18T16:38:21Z</time>
      </trkpt>
      <trkpt lat="-27.390457" lon="-70.67154">
        <ele>181.006</ele>
        <time>2019-07-18T16:38:26Z</time>
      </trkpt>
      <trkpt lat="-27.390564" lon="-70.671715">
        <ele>180.806</ele>
        <time>2019-07-18T16:38:31Z</time>
      </trkpt>
      <trkpt lat="-27.390673" lon="-70.67189">
        <ele>180.99</ele>
        <time>2019-07-18T16:38:36Z</time>
      </trkpt>
      <trkpt lat="-27.390778" lon="-70.67207">
        <ele>180.903</ele>
        <time>2019-07-18T16:38:41Z</time>
      </trkpt>
      <trkpt lat="-27.390884" lon="-70.67225">
        <ele>180.845</ele>
        <time>2019-07-18T16:38:46Z</time>
      </trkpt>
      <trkpt lat="-27.390987" lon="-70.67242">
        <ele>180.724</ele>
        <time>2019-07-18T16:38:51Z</time>
      </trkpt>
      <trkpt lat="-27.391098" lon="-70.672585">
        <ele>180.761</ele>
        <time>2019-07-18T16:38:56Z</time>
      </trkpt>
      <trkpt lat="-27.391212" lon="-70.67276">
        <ele>180.584</ele>
        <time>2019-07-18T16:39:01Z</time>
      </trkpt>
      <trkpt lat="-27.391323" lon="-70.67294">
        <ele>180.502</ele>
        <time>2019-07-18T16:39:06Z</time>
      </trkpt>
      <trkpt lat="-27.391443" lon="-70.673134">
        <ele>180.652</ele>
        <time>2019-07-18T16:39:11Z</time>
      </trkpt>
      <trkpt lat="-27.391571" lon="-70.673325">
        <ele>180.388</ele>
        <time>2019-07-18T16:39:16Z</time>
      </trkpt>
      <trkpt lat="-27.391693" lon="-70.673515">
        <ele>180.393</ele>
        <time>2019-07-18T16:39:21Z</time>
      </trkpt>
      <trkpt lat="-27.391819" lon="-70.67373">
        <ele>180.576</ele>
        <time>2019-07-18T16:39:26Z</time>
      </trkpt>
      <trkpt lat="-27.391945" lon="-70.673935">
        <ele>180.417</ele>
        <time>2019-07-18T16:39:31Z</time>
      </trkpt>
      <trkpt lat="-27.392078" lon="-70.67415">
        <ele>180.327</ele>
        <time>2019-07-18T16:39:36Z</time>
      </trkpt>
      <trkpt lat="-27.392208" lon="-70.67435">
        <ele>180.557</ele>
        <time>2019-07-18T16:39:41Z</time>
      </trkpt>
      <trkpt lat="-27.392338" lon="-70.67456">
        <ele>180.562</ele>
        <time>2019-07-18T16:39:46Z</time>
      </trkpt>
      <trkpt lat="-27.392466" lon="-70.67476">
        <ele>180.75</ele>
        <time>2019-07-18T16:39:51Z</time>
      </trkpt>
      <trkpt lat="-27.392666" lon="-70.675095">
        <ele>180.998</ele>
        <time>2019-07-18T16:39:59Z</time>
      </trkpt>
      <trkpt lat="-27.39279" lon="-70.675316">
        <ele>180.813</ele>
        <time>2019-07-18T16:40:04Z</time>
      </trkpt>
      <trkpt lat="-27.392906" lon="-70.67552">
        <ele>180.88</ele>
        <time>2019-07-18T16:40:09Z</time>
      </trkpt>
      <trkpt lat="-27.393084" lon="-70.67583">
        <ele>180.969</ele>
        <time>2019-07-18T16:40:18Z</time>
      </trkpt>
      <trkpt lat="-27.393173" lon="-70.67598">
        <ele>180.998</ele>
        <time>2019-07-18T16:40:23Z</time>
      </trkpt>
      <trkpt lat="-27.393274" lon="-70.67614">
        <ele>181.363</ele>
        <time>2019-07-18T16:40:28Z</time>
      </trkpt>
      <trkpt lat="-27.393383" lon="-70.67634">
        <ele>181.656</ele>
        <time>2019-07-18T16:40:33Z</time>
      </trkpt>
      <trkpt lat="-27.39349" lon="-70.676544">
        <ele>181.725</ele>
        <time>2019-07-18T16:40:38Z</time>
      </trkpt>
      <trkpt lat="-27.393602" lon="-70.67677">
        <ele>181.812</ele>
        <time>2019-07-18T16:40:43Z</time>
      </trkpt>
      <trkpt lat="-27.393719" lon="-70.676994">
        <ele>181.717</ele>
        <time>2019-07-18T16:40:48Z</time>
      </trkpt>
      <trkpt lat="-27.393845" lon="-70.67724">
        <ele>181.96</ele>
        <time>2019-07-18T16:40:53Z</time>
      </trkpt>
      <trkpt lat="-27.39398" lon="-70.677475">
        <ele>182.66</ele>
        <time>2019-07-18T16:40:58Z</time>
      </trkpt>
      <trkpt lat="-27.394108" lon="-70.67772">
        <ele>181.389</ele>
        <time>2019-07-18T16:41:03Z</time>
      </trkpt>
      <trkpt lat="-27.394238" lon="-70.677956">
        <ele>182.306</ele>
        <time>2019-07-18T16:41:08Z</time>
      </trkpt>
      <trkpt lat="-27.394382" lon="-70.67819">
        <ele>181.799</ele>
        <time>2019-07-18T16:41:12Z</time>
      </trkpt>
      <trkpt lat="-27.394491" lon="-70.678406">
        <ele>182.724</ele>
        <time>2019-07-18T16:41:17Z</time>
      </trkpt>
      <trkpt lat="-27.394588" lon="-70.678604">
        <ele>182.386</ele>
        <time>2019-07-18T16:41:22Z</time>
      </trkpt>
      <trkpt lat="-27.394674" lon="-70.678795">
        <ele>182.327</ele>
        <time>2019-07-18T16:41:27Z</time>
      </trkpt>
      <trkpt lat="-27.394773" lon="-70.67899">
        <ele>181.519</ele>
        <time>2019-07-18T16:41:32Z</time>
      </trkpt>
      <trkpt lat="-27.39488" lon="-70.67921">
        <ele>181.683</ele>
        <time>2019-07-18T16:41:37Z</time>
      </trkpt>
      <trkpt lat="-27.394995" lon="-70.67943">
        <ele>181.54</ele>
        <time>2019-07-18T16:41:42Z</time>
      </trkpt>
      <trkpt lat="-27.39511" lon="-70.67965">
        <ele>181.442</ele>
        <time>2019-07-18T16:41:47Z</time>
      </trkpt>
      <trkpt lat="-27.39523" lon="-70.67988">
        <ele>181.445</ele>
        <time>2019-07-18T16:41:52Z</time>
      </trkpt>
      <trkpt lat="-27.395357" lon="-70.68012">
        <ele>181.025</ele>
        <time>2019-07-18T16:41:57Z</time>
      </trkpt>
      <trkpt lat="-27.395489" lon="-70.680374">
        <ele>180.462</ele>
        <time>2019-07-18T16:42:02Z</time>
      </trkpt>
      <trkpt lat="-27.395617" lon="-70.680626">
        <ele>179.841</ele>
        <time>2019-07-18T16:42:07Z</time>
      </trkpt>
      <trkpt lat="-27.395754" lon="-70.68089">
        <ele>179.447</ele>
        <time>2019-07-18T16:42:12Z</time>
      </trkpt>
      <trkpt lat="-27.395895" lon="-70.68117">
        <ele>178.805</ele>
        <time>2019-07-18T16:42:17Z</time>
      </trkpt>
      <trkpt lat="-27.396038" lon="-70.681435">
        <ele>178.512</ele>
        <time>2019-07-18T16:42:22Z</time>
      </trkpt>
      <trkpt lat="-27.39617" lon="-70.68169">
        <ele>178.396</ele>
        <time>2019-07-18T16:42:27Z</time>
      </trkpt>
      <trkpt lat="-27.396301" lon="-70.68193">
        <ele>178.047</ele>
        <time>2019-07-18T16:42:32Z</time>
      </trkpt>
      <trkpt lat="-27.396465" lon="-70.682236">
        <ele>178.129</ele>
        <time>2019-07-18T16:42:39Z</time>
      </trkpt>
      <trkpt lat="-27.396587" lon="-70.68247">
        <ele>177.915</ele>
        <time>2019-07-18T16:42:44Z</time>
      </trkpt>
      <trkpt lat="-27.39672" lon="-70.682724">
        <ele>177.785</ele>
        <time>2019-07-18T16:42:49Z</time>
      </trkpt>
      <trkpt lat="-27.39686" lon="-70.68297">
        <ele>177.809</ele>
        <time>2019-07-18T16:42:54Z</time>
      </trkpt>
      <trkpt lat="-27.397005" lon="-70.68323">
        <ele>177.521</ele>
        <time>2019-07-18T16:42:59Z</time>
      </trkpt>
      <trkpt lat="-27.397139" lon="-70.68347">
        <ele>177.635</ele>
        <time>2019-07-18T16:43:04Z</time>
      </trkpt>
      <trkpt lat="-27.397264" lon="-70.68369">
        <ele>177.669</ele>
        <time>2019-07-18T16:43:09Z</time>
      </trkpt>
      <trkpt lat="-27.39739" lon="-70.68392">
        <ele>177.738</ele>
        <time>2019-07-18T16:43:14Z</time>
      </trkpt>
      <trkpt lat="-27.397516" lon="-70.68414">
        <ele>177.833</ele>
        <time>2019-07-18T16:43:19Z</time>
      </trkpt>
      <trkpt lat="-27.397646" lon="-70.68439">
        <ele>178.047</ele>
        <time>2019-07-18T16:43:24Z</time>
      </trkpt>
      <trkpt lat="-27.397762" lon="-70.684616">
        <ele>177.875</ele>
        <time>2019-07-18T16:43:29Z</time>
      </trkpt>
      <trkpt lat="-27.39788" lon="-70.68483">
        <ele>177.986</ele>
        <time>2019-07-18T16:43:34Z</time>
      </trkpt>
      <trkpt lat="-27.397991" lon="-70.68504">
        <ele>177.534</ele>
        <time>2019-07-18T16:43:39Z</time>
      </trkpt>
      <trkpt lat="-27.398104" lon="-70.685265">
        <ele>177.577</ele>
        <time>2019-07-18T16:43:44Z</time>
      </trkpt>
      <trkpt lat="-27.398214" lon="-70.6855">
        <ele>177.302</ele>
        <time>2019-07-18T16:43:49Z</time>
      </trkpt>
      <trkpt lat="-27.39833" lon="-70.68574">
        <ele>177.648</ele>
        <time>2019-07-18T16:43:54Z</time>
      </trkpt>
      <trkpt lat="-27.39844" lon="-70.68596">
        <ele>177.709</ele>
        <time>2019-07-18T16:43:59Z</time>
      </trkpt>
      <trkpt lat="-27.398542" lon="-70.686165">
        <ele>177.883</ele>
        <time>2019-07-18T16:44:04Z</time>
      </trkpt>
      <trkpt lat="-27.398657" lon="-70.6864">
        <ele>177.791</ele>
        <time>2019-07-18T16:44:09Z</time>
      </trkpt>
      <trkpt lat="-27.398773" lon="-70.68664">
        <ele>177.64</ele>
        <time>2019-07-18T16:44:14Z</time>
      </trkpt>
      <trkpt lat="-27.398878" lon="-70.686844">
        <ele>180.309</ele>
        <time>2019-07-18T16:44:19Z</time>
      </trkpt>
      <trkpt lat="-27.401136" lon="-70.69112">
        <ele>180.721</ele>
        <time>2019-07-18T16:46:01Z</time>
      </trkpt>
      <trkpt lat="-27.401247" lon="-70.69128">
        <ele>180.975</ele>
        <time>2019-07-18T16:46:05Z</time>
      </trkpt>
      <trkpt lat="-27.401384" lon="-70.691414">
        <ele>181.334</ele>
        <time>2019-07-18T16:46:12Z</time>
      </trkpt>
      <trkpt lat="-27.401503" lon="-70.691536">
        <ele>181.688</ele>
        <time>2019-07-18T16:46:17Z</time>
      </trkpt>
      <trkpt lat="-27.401611" lon="-70.691635">
        <ele>181.976</ele>
        <time>2019-07-18T16:46:22Z</time>
      </trkpt>
      <trkpt lat="-27.401718" lon="-70.691734">
        <ele>182.214</ele>
        <time>2019-07-18T16:46:27Z</time>
      </trkpt>
      <trkpt lat="-27.401821" lon="-70.69181">
        <ele>182.549</ele>
        <time>2019-07-18T16:46:32Z</time>
      </trkpt>
      <trkpt lat="-27.401937" lon="-70.6919">
        <ele>183.107</ele>
        <time>2019-07-18T16:46:37Z</time>
      </trkpt>
      <trkpt lat="-27.402044" lon="-70.69199">
        <ele>183.569</ele>
        <time>2019-07-18T16:46:42Z</time>
      </trkpt>
      <trkpt lat="-27.402147" lon="-70.692085">
        <ele>183.945</ele>
        <time>2019-07-18T16:46:47Z</time>
      </trkpt>
      <trkpt lat="-27.40225" lon="-70.692154">
        <ele>184.267</ele>
        <time>2019-07-18T16:46:52Z</time>
      </trkpt>
      <trkpt lat="-27.402332" lon="-70.69224">
        <ele>184.579</ele>
        <time>2019-07-18T16:46:57Z</time>
      </trkpt>
      <trkpt lat="-27.402418" lon="-70.692314">
        <ele>185.038</ele>
        <time>2019-07-18T16:47:02Z</time>
      </trkpt>
      <trkpt lat="-27.402512" lon="-70.69239">
        <ele>185.451</ele>
        <time>2019-07-18T16:47:07Z</time>
      </trkpt>
      <trkpt lat="-27.4026" lon="-70.69247">
        <ele>185.702</ele>
        <time>2019-07-18T16:47:12Z</time>
      </trkpt>
      <trkpt lat="-27.402674" lon="-70.69253">
        <ele>185.961</ele>
        <time>2019-07-18T16:47:17Z</time>
      </trkpt>
      <trkpt lat="-27.40275" lon="-70.692604">
        <ele>186.082</ele>
        <time>2019-07-18T16:47:22Z</time>
      </trkpt>
      <trkpt lat="-27.402845" lon="-70.69268">
        <ele>186.735</ele>
        <time>2019-07-18T16:47:27Z</time>
      </trkpt>
      <trkpt lat="-27.402939" lon="-70.69276">
        <ele>187.276</ele>
        <time>2019-07-18T16:47:32Z</time>
      </trkpt>
      <trkpt lat="-27.403027" lon="-70.692825">
        <ele>187.047</ele>
        <time>2019-07-18T16:47:37Z</time>
      </trkpt>
      <trkpt lat="-27.403107" lon="-70.6929">
        <ele>187.398</ele>
        <time>2019-07-18T16:47:42Z</time>
      </trkpt>
      <trkpt lat="-27.403202" lon="-70.69299">
        <ele>187.739</ele>
        <time>2019-07-18T16:47:47Z</time>
      </trkpt>
      <trkpt lat="-27.403309" lon="-70.69307">
        <ele>188.011</ele>
        <time>2019-07-18T16:47:52Z</time>
      </trkpt>
      <trkpt lat="-27.403397" lon="-70.69317">
        <ele>188.51</ele>
        <time>2019-07-18T16:47:57Z</time>
      </trkpt>
      <trkpt lat="-27.403498" lon="-70.69325">
        <ele>188.431</ele>
        <time>2019-07-18T16:48:03Z</time>
      </trkpt>
      <trkpt lat="-27.40358" lon="-70.69332">
        <ele>188.769</ele>
        <time>2019-07-18T16:48:08Z</time>
      </trkpt>
      <trkpt lat="-27.403667" lon="-70.6934">
        <ele>188.973</ele>
        <time>2019-07-18T16:48:13Z</time>
      </trkpt>
      <trkpt lat="-27.40376" lon="-70.693474">
        <ele>189.108</ele>
        <time>2019-07-18T16:48:18Z</time>
      </trkpt>
      <trkpt lat="-27.403858" lon="-70.69355">
        <ele>189.448</ele>
        <time>2019-07-18T16:48:23Z</time>
      </trkpt>
      <trkpt lat="-27.403957" lon="-70.693634">
        <ele>189.652</ele>
        <time>2019-07-18T16:48:28Z</time>
      </trkpt>
      <trkpt lat="-27.404047" lon="-70.69372">
        <ele>189.668</ele>
        <time>2019-07-18T16:48:33Z</time>
      </trkpt>
      <trkpt lat="-27.404142" lon="-70.6938">
        <ele>190.043</ele>
        <time>2019-07-18T16:48:38Z</time>
      </trkpt>
      <trkpt lat="-27.404232" lon="-70.69388">
        <ele>190.352</ele>
        <time>2019-07-18T16:48:43Z</time>
      </trkpt>
      <trkpt lat="-27.40433" lon="-70.69396">
        <ele>190.688</ele>
        <time>2019-07-18T16:48:48Z</time>
      </trkpt>
      <trkpt lat="-27.404434" lon="-70.69406">
        <ele>190.857</ele>
        <time>2019-07-18T16:48:53Z</time>
      </trkpt>
      <trkpt lat="-27.404562" lon="-70.69417">
        <ele>190.962</ele>
        <time>2019-07-18T16:48:58Z</time>
      </trkpt>
      <trkpt lat="-27.404684" lon="-70.69428">
        <ele>191.216</ele>
        <time>2019-07-18T16:49:04Z</time>
      </trkpt>
      <trkpt lat="-27.40481" lon="-70.69439">
        <ele>191.464</ele>
        <time>2019-07-18T16:49:10Z</time>
      </trkpt>
      <trkpt lat="-27.404903" lon="-70.69447">
        <ele>191.784</ele>
        <time>2019-07-18T16:49:15Z</time>
      </trkpt>
      <trkpt lat="-27.404999" lon="-70.69453">
        <ele>192.291</ele>
        <time>2019-07-18T16:49:20Z</time>
      </trkpt>
      <trkpt lat="-27.405113" lon="-70.694626">
        <ele>192.31</ele>
        <time>2019-07-18T16:49:26Z</time>
      </trkpt>
      <trkpt lat="-27.405233" lon="-70.694725">
        <ele>192.606</ele>
        <time>2019-07-18T16:49:31Z</time>
      </trkpt>
      <trkpt lat="-27.405352" lon="-70.69482">
        <ele>192.587</ele>
        <time>2019-07-18T16:49:36Z</time>
      </trkpt>
      <trkpt lat="-27.405457" lon="-70.694916">
        <ele>192.524</ele>
        <time>2019-07-18T16:49:41Z</time>
      </trkpt>
      <trkpt lat="-27.405571" lon="-70.695">
        <ele>192.291</ele>
        <time>2019-07-18T16:49:46Z</time>
      </trkpt>
      <trkpt lat="-27.405703" lon="-70.6951">
        <ele>192.532</ele>
        <time>2019-07-18T16:49:51Z</time>
      </trkpt>
      <trkpt lat="-27.405842" lon="-70.69521">
        <ele>192.104</ele>
        <time>2019-07-18T16:49:56Z</time>
      </trkpt>
      <trkpt lat="-27.405975" lon="-70.69531">
        <ele>191.988</ele>
        <time>2019-07-18T16:50:01Z</time>
      </trkpt>
      <trkpt lat="-27.406103" lon="-70.69541">
        <ele>191.956</ele>
        <time>2019-07-18T16:50:06Z</time>
      </trkpt>
      <trkpt lat="-27.406254" lon="-70.69553">
        <ele>190.402</ele>
        <time>2019-07-18T16:50:11Z</time>
      </trkpt>
      <trkpt lat="-27.40649" lon="-70.69571">
        <ele>190.17</ele>
        <time>2019-07-18T16:50:15Z</time>
      </trkpt>
      <trkpt lat="-27.406935" lon="-70.69606">
        <ele>190.46</ele>
        <time>2019-07-18T16:50:23Z</time>
      </trkpt>
      <trkpt lat="-27.407179" lon="-70.69626">
        <ele>190.365</ele>
        <time>2019-07-18T16:50:28Z</time>
      </trkpt>
      <trkpt lat="-27.407396" lon="-70.69644">
        <ele>190.714</ele>
        <time>2019-07-18T16:50:33Z</time>
      </trkpt>
      <trkpt lat="-27.407576" lon="-70.69658">
        <ele>191.105</ele>
        <time>2019-07-18T16:50:38Z</time>
      </trkpt>
      <trkpt lat="-27.407833" lon="-70.69679">
        <ele>191.147</ele>
        <time>2019-07-18T16:50:47Z</time>
      </trkpt>
      <trkpt lat="-27.407986" lon="-70.69692">
        <ele>191.179</ele>
        <time>2019-07-18T16:50:52Z</time>
      </trkpt>
      <trkpt lat="-27.40813" lon="-70.69704">
        <ele>190.941</ele>
        <time>2019-07-18T16:50:57Z</time>
      </trkpt>
      <trkpt lat="-27.40826" lon="-70.69714">
        <ele>190.645</ele>
        <time>2019-07-18T16:51:02Z</time>
      </trkpt>
      <trkpt lat="-27.408384" lon="-70.69723">
        <ele>190.648</ele>
        <time>2019-07-18T16:51:07Z</time>
      </trkpt>
      <trkpt lat="-27.408518" lon="-70.69735">
        <ele>190.273</ele>
        <time>2019-07-18T16:51:12Z</time>
      </trkpt>
      <trkpt lat="-27.408669" lon="-70.69746">
        <ele>190.323</ele>
        <time>2019-07-18T16:51:17Z</time>
      </trkpt>
      <trkpt lat="-27.408846" lon="-70.6976">
        <ele>190.162</ele>
        <time>2019-07-18T16:51:22Z</time>
      </trkpt>
      <trkpt lat="-27.409035" lon="-70.69776">
        <ele>189.913</ele>
        <time>2019-07-18T16:51:27Z</time>
      </trkpt>
      <trkpt lat="-27.40922" lon="-70.6979">
        <ele>189.879</ele>
        <time>2019-07-18T16:51:32Z</time>
      </trkpt>
      <trkpt lat="-27.40939" lon="-70.69807">
        <ele>189.779</ele>
        <time>2019-07-18T16:51:37Z</time>
      </trkpt>
      <trkpt lat="-27.409565" lon="-70.698204">
        <ele>189.567</ele>
        <time>2019-07-18T16:51:42Z</time>
      </trkpt>
      <trkpt lat="-27.409739" lon="-70.69836">
        <ele>189.615</ele>
        <time>2019-07-18T16:51:47Z</time>
      </trkpt>
      <trkpt lat="-27.409922" lon="-70.698494">
        <ele>189.604</ele>
        <time>2019-07-18T16:51:52Z</time>
      </trkpt>
      <trkpt lat="-27.4101" lon="-70.69864">
        <ele>189.715</ele>
        <time>2019-07-18T16:51:57Z</time>
      </trkpt>
      <trkpt lat="-27.410276" lon="-70.698784">
        <ele>189.858</ele>
        <time>2019-07-18T16:52:02Z</time>
      </trkpt>
      <trkpt lat="-27.410452" lon="-70.69892">
        <ele>189.908</ele>
        <time>2019-07-18T16:52:07Z</time>
      </trkpt>
      <trkpt lat="-27.410624" lon="-70.69906">
        <ele>190.003</ele>
        <time>2019-07-18T16:52:12Z</time>
      </trkpt>
      <trkpt lat="-27.41079" lon="-70.69918">
        <ele>190.053</ele>
        <time>2019-07-18T16:52:17Z</time>
      </trkpt>
      <trkpt lat="-27.410952" lon="-70.6993">
        <ele>190.069</ele>
        <time>2019-07-18T16:52:22Z</time>
      </trkpt>
      <trkpt lat="-27.41111" lon="-70.69943">
        <ele>190.215</ele>
        <time>2019-07-18T16:52:27Z</time>
      </trkpt>
      <trkpt lat="-27.411242" lon="-70.69953">
        <ele>190.252</ele>
        <time>2019-07-18T16:52:32Z</time>
      </trkpt>
      <trkpt lat="-27.411367" lon="-70.699646">
        <ele>190.278</ele>
        <time>2019-07-18T16:52:37Z</time>
      </trkpt>
      <trkpt lat="-27.4115" lon="-70.69975">
        <ele>190.228</ele>
        <time>2019-07-18T16:52:42Z</time>
      </trkpt>
      <trkpt lat="-27.411623" lon="-70.699844">
        <ele>190.363</ele>
        <time>2019-07-18T16:52:47Z</time>
      </trkpt>
      <trkpt lat="-27.411743" lon="-70.69994">
        <ele>190.32</ele>
        <time>2019-07-18T16:52:52Z</time>
      </trkpt>
      <trkpt lat="-27.411861" lon="-70.70004">
        <ele>190.431</ele>
        <time>2019-07-18T16:52:57Z</time>
      </trkpt>
      <trkpt lat="-27.411974" lon="-70.700134">
        <ele>190.64</ele>
        <time>2019-07-18T16:53:02Z</time>
      </trkpt>
      <trkpt lat="-27.412174" lon="-70.700294">
        <ele>190.754</ele>
        <time>2019-07-18T16:53:10Z</time>
      </trkpt>
      <trkpt lat="-27.412292" lon="-70.700386">
        <ele>190.878</ele>
        <time>2019-07-18T16:53:15Z</time>
      </trkpt>
      <trkpt lat="-27.41241" lon="-70.7005">
        <ele>191.079</ele>
        <time>2019-07-18T16:53:20Z</time>
      </trkpt>
      <trkpt lat="-27.412533" lon="-70.700584">
        <ele>191.314</ele>
        <time>2019-07-18T16:53:25Z</time>
      </trkpt>
      <trkpt lat="-27.412651" lon="-70.70068">
        <ele>191.562</ele>
        <time>2019-07-18T16:53:30Z</time>
      </trkpt>
      <trkpt lat="-27.41278" lon="-70.70078">
        <ele>191.652</ele>
        <time>2019-07-18T16:53:35Z</time>
      </trkpt>
      <trkpt lat="-27.412905" lon="-70.70088">
        <ele>191.776</ele>
        <time>2019-07-18T16:53:40Z</time>
      </trkpt>
      <trkpt lat="-27.413033" lon="-70.70099">
        <ele>192.038</ele>
        <time>2019-07-18T16:53:45Z</time>
      </trkpt>
      <trkpt lat="-27.413153" lon="-70.70109">
        <ele>192.249</ele>
        <time>2019-07-18T16:53:50Z</time>
      </trkpt>
      <trkpt lat="-27.413279" lon="-70.70118">
        <ele>192.55</ele>
        <time>2019-07-18T16:53:55Z</time>
      </trkpt>
      <trkpt lat="-27.413395" lon="-70.70129">
        <ele>192.788</ele>
        <time>2019-07-18T16:54:00Z</time>
      </trkpt>
      <trkpt lat="-27.413525" lon="-70.70139">
        <ele>193.108</ele>
        <time>2019-07-18T16:54:05Z</time>
      </trkpt>
      <trkpt lat="-27.41365" lon="-70.70149">
        <ele>193.335</ele>
        <time>2019-07-18T16:54:10Z</time>
      </trkpt>
      <trkpt lat="-27.413769" lon="-70.70159">
        <ele>193.676</ele>
        <time>2019-07-18T16:54:15Z</time>
      </trkpt>
      <trkpt lat="-27.413883" lon="-70.70168">
        <ele>193.848</ele>
        <time>2019-07-18T16:54:20Z</time>
      </trkpt>
      <trkpt lat="-27.414007" lon="-70.701775">
        <ele>194.308</ele>
        <time>2019-07-18T16:54:25Z</time>
      </trkpt>
      <trkpt lat="-27.414118" lon="-70.701866">
        <ele>194.421</ele>
        <time>2019-07-18T16:54:30Z</time>
      </trkpt>
      <trkpt lat="-27.41425" lon="-70.70197">
        <ele>194.762</ele>
        <time>2019-07-18T16:54:35Z</time>
      </trkpt>
      <trkpt lat="-27.41437" lon="-70.70207">
        <ele>194.947</ele>
        <time>2019-07-18T16:54:40Z</time>
      </trkpt>
      <trkpt lat="-27.414492" lon="-70.70218">
        <ele>194.918</ele>
        <time>2019-07-18T16:54:45Z</time>
      </trkpt>
      <trkpt lat="-27.414614" lon="-70.70227">
        <ele>194.987</ele>
        <time>2019-07-18T16:54:50Z</time>
      </trkpt>
      <trkpt lat="-27.4147" lon="-70.70234">
        <ele>195.222</ele>
        <time>2019-07-18T16:54:55Z</time>
      </trkpt>
      <trkpt lat="-27.41479" lon="-70.70242">
        <ele>195.441</ele>
        <time>2019-07-18T16:55:00Z</time>
      </trkpt>
      <trkpt lat="-27.414898" lon="-70.70252">
        <ele>195.769</ele>
        <time>2019-07-18T16:55:05Z</time>
      </trkpt>
      <trkpt lat="-27.415" lon="-70.70259">
        <ele>196.014</ele>
        <time>2019-07-18T16:55:10Z</time>
      </trkpt>
      <trkpt lat="-27.415102" lon="-70.70268">
        <ele>196.014</ele>
        <time>2019-07-18T16:55:15Z</time>
      </trkpt>
      <trkpt lat="-27.415207" lon="-70.70277">
        <ele>196.099</ele>
        <time>2019-07-18T16:55:20Z</time>
      </trkpt>
      <trkpt lat="-27.415308" lon="-70.70285">
        <ele>196.543</ele>
        <time>2019-07-18T16:55:25Z</time>
      </trkpt>
      <trkpt lat="-27.41543" lon="-70.70296">
        <ele>196.485</ele>
        <time>2019-07-18T16:55:30Z</time>
      </trkpt>
      <trkpt lat="-27.41554" lon="-70.70305">
        <ele>196.657</ele>
        <time>2019-07-18T16:55:35Z</time>
      </trkpt>
      <trkpt lat="-27.415657" lon="-70.70314">
        <ele>196.857</ele>
        <time>2019-07-18T16:55:40Z</time>
      </trkpt>
      <trkpt lat="-27.415798" lon="-70.703255">
        <ele>197.14</ele>
        <time>2019-07-18T16:55:47Z</time>
      </trkpt>
      <trkpt lat="-27.415918" lon="-70.70335">
        <ele>197.386</ele>
        <time>2019-07-18T16:55:52Z</time>
      </trkpt>
      <trkpt lat="-27.416021" lon="-70.70344">
        <ele>197.087</ele>
        <time>2019-07-18T16:55:57Z</time>
      </trkpt>
      <trkpt lat="-27.416086" lon="-70.70348">
        <ele>197.407</ele>
        <time>2019-07-18T16:56:02Z</time>
      </trkpt>
      <trkpt lat="-27.416157" lon="-70.703545">
        <ele>197.513</ele>
        <time>2019-07-18T16:56:07Z</time>
      </trkpt>
      <trkpt lat="-27.416252" lon="-70.70362">
        <ele>197.795</ele>
        <time>2019-07-18T16:56:12Z</time>
      </trkpt>
      <trkpt lat="-27.416353" lon="-70.7037">
        <ele>198.173</ele>
        <time>2019-07-18T16:56:17Z</time>
      </trkpt>
      <trkpt lat="-27.416449" lon="-70.703766">
        <ele>198.136</ele>
        <time>2019-07-18T16:56:22Z</time>
      </trkpt>
      <trkpt lat="-27.416534" lon="-70.703835">
        <ele>198.503</ele>
        <time>2019-07-18T16:56:27Z</time>
      </trkpt>
      <trkpt lat="-27.41664" lon="-70.703926">
        <ele>198.646</ele>
        <time>2019-07-18T16:56:32Z</time>
      </trkpt>
      <trkpt lat="-27.41673" lon="-70.70401">
        <ele>198.773</ele>
        <time>2019-07-18T16:56:39Z</time>
      </trkpt>
      <trkpt lat="-27.416824" lon="-70.70408">
        <ele>199.032</ele>
        <time>2019-07-18T16:56:44Z</time>
      </trkpt>
      <trkpt lat="-27.416916" lon="-70.70415">
        <ele>199.505</ele>
        <time>2019-07-18T16:56:49Z</time>
      </trkpt>
      <trkpt lat="-27.417002" lon="-70.704216">
        <ele>199.851</ele>
        <time>2019-07-18T16:56:54Z</time>
      </trkpt>
      <trkpt lat="-27.41709" lon="-70.70429">
        <ele>200.121</ele>
        <time>2019-07-18T16:56:59Z</time>
      </trkpt>
      <trkpt lat="-27.417175" lon="-70.70435">
        <ele>200.607</ele>
        <time>2019-07-18T16:57:04Z</time>
      </trkpt>
      <trkpt lat="-27.417265" lon="-70.70442">
        <ele>201.088</ele>
        <time>2019-07-18T16:57:09Z</time>
      </trkpt>
      <trkpt lat="-27.417355" lon="-70.704506">
        <ele>201.632</ele>
        <time>2019-07-18T16:57:14Z</time>
      </trkpt>
      <trkpt lat="-27.417442" lon="-70.70458">
        <ele>202.118</ele>
        <time>2019-07-18T16:57:19Z</time>
      </trkpt>
      <trkpt lat="-27.417524" lon="-70.70465">
        <ele>202.477</ele>
        <time>2019-07-18T16:57:24Z</time>
      </trkpt>
      <trkpt lat="-27.417604" lon="-70.70471">
        <ele>203.011</ele>
        <time>2019-07-18T16:57:29Z</time>
      </trkpt>
      <trkpt lat="-27.417683" lon="-70.70477">
        <ele>203.701</ele>
        <time>2019-07-18T16:57:34Z</time>
      </trkpt>
      <trkpt lat="-27.417776" lon="-70.704865">
        <ele>204.412</ele>
        <time>2019-07-18T16:57:39Z</time>
      </trkpt>
      <trkpt lat="-27.417862" lon="-70.704926">
        <ele>205.434</ele>
        <time>2019-07-18T16:57:44Z</time>
      </trkpt>
      <trkpt lat="-27.417942" lon="-70.705">
        <ele>206.692</ele>
        <time>2019-07-18T16:57:49Z</time>
      </trkpt>
      <trkpt lat="-27.41808" lon="-70.70512">
        <ele>207.186</ele>
        <time>2019-07-18T16:57:57Z</time>
      </trkpt>
      <trkpt lat="-27.418165" lon="-70.705185">
        <ele>207.635</ele>
        <time>2019-07-18T16:58:02Z</time>
      </trkpt>
      <trkpt lat="-27.418251" lon="-70.70526">
        <ele>208.116</ele>
        <time>2019-07-18T16:58:07Z</time>
      </trkpt>
      <trkpt lat="-27.418339" lon="-70.70533">
        <ele>208.119</ele>
        <time>2019-07-18T16:58:12Z</time>
      </trkpt>
      <trkpt lat="-27.418438" lon="-70.705414">
        <ele>208.29</ele>
        <time>2019-07-18T16:58:17Z</time>
      </trkpt>
      <trkpt lat="-27.418535" lon="-70.7055">
        <ele>208.845</ele>
        <time>2019-07-18T16:58:22Z</time>
      </trkpt>
      <trkpt lat="-27.418636" lon="-70.70558">
        <ele>209.112</ele>
        <time>2019-07-18T16:58:27Z</time>
      </trkpt>
      <trkpt lat="-27.418724" lon="-70.705666">
        <ele>209.593</ele>
        <time>2019-07-18T16:58:32Z</time>
      </trkpt>
      <trkpt lat="-27.418818" lon="-70.70575">
        <ele>210.011</ele>
        <time>2019-07-18T16:58:37Z</time>
      </trkpt>
      <trkpt lat="-27.418913" lon="-70.705826">
        <ele>210.312</ele>
        <time>2019-07-18T16:58:42Z</time>
      </trkpt>
      <trkpt lat="-27.419006" lon="-70.70591">
        <ele>210.489</ele>
        <time>2019-07-18T16:58:47Z</time>
      </trkpt>
      <trkpt lat="-27.419111" lon="-70.70602">
        <ele>210.341</ele>
        <time>2019-07-18T16:58:52Z</time>
      </trkpt>
      <trkpt lat="-27.419235" lon="-70.70612">
        <ele>210.27</ele>
        <time>2019-07-18T16:58:57Z</time>
      </trkpt>
      <trkpt lat="-27.41947" lon="-70.70634">
        <ele>210.38</ele>
        <time>2019-07-18T16:59:06Z</time>
      </trkpt>
      <trkpt lat="-27.41957" lon="-70.70643">
        <ele>210.322</ele>
        <time>2019-07-18T16:59:11Z</time>
      </trkpt>
      <trkpt lat="-27.419693" lon="-70.70654">
        <ele>210.478</ele>
        <time>2019-07-18T16:59:16Z</time>
      </trkpt>
      <trkpt lat="-27.419815" lon="-70.70666">
        <ele>210.0</ele>
        <time>2019-07-18T16:59:21Z</time>
      </trkpt>
      <trkpt lat="-27.419949" lon="-70.70679">
        <ele>209.905</ele>
        <time>2019-07-18T16:59:26Z</time>
      </trkpt>
      <trkpt lat="-27.420088" lon="-70.70691">
        <ele>209.971</ele>
        <time>2019-07-18T16:59:31Z</time>
      </trkpt>
      <trkpt lat="-27.420238" lon="-70.70705">
        <ele>210.156</ele>
        <time>2019-07-18T16:59:36Z</time>
      </trkpt>
      <trkpt lat="-27.420397" lon="-70.70719">
        <ele>210.211</ele>
        <time>2019-07-18T16:59:41Z</time>
      </trkpt>
      <trkpt lat="-27.420555" lon="-70.707344">
        <ele>210.301</ele>
        <time>2019-07-18T16:59:46Z</time>
      </trkpt>
      <trkpt lat="-27.420715" lon="-70.70749">
        <ele>210.518</ele>
        <time>2019-07-18T16:59:51Z</time>
      </trkpt>
      <trkpt lat="-27.420872" lon="-70.707634">
        <ele>210.616</ele>
        <time>2019-07-18T16:59:56Z</time>
      </trkpt>
      <trkpt lat="-27.42103" lon="-70.70779">
        <ele>210.151</ele>
        <time>2019-07-18T17:00:01Z</time>
      </trkpt>
      <trkpt lat="-27.421192" lon="-70.70794">
        <ele>209.847</ele>
        <time>2019-07-18T17:00:06Z</time>
      </trkpt>
      <trkpt lat="-27.421371" lon="-70.7081">
        <ele>209.408</ele>
        <time>2019-07-18T17:00:11Z</time>
      </trkpt>
      <trkpt lat="-27.421537" lon="-70.70826">
        <ele>209.577</ele>
        <time>2019-07-18T17:00:16Z</time>
      </trkpt>
      <trkpt lat="-27.42168" lon="-70.7084">
        <ele>209.363</ele>
        <time>2019-07-18T17:00:21Z</time>
      </trkpt>
      <trkpt lat="-27.421827" lon="-70.708534">
        <ele>209.226</ele>
        <time>2019-07-18T17:00:26Z</time>
      </trkpt>
      <trkpt lat="-27.421991" lon="-70.70869">
        <ele>209.012</ele>
        <time>2019-07-18T17:00:31Z</time>
      </trkpt>
      <trkpt lat="-27.422167" lon="-70.70885">
        <ele>208.911</ele>
        <time>2019-07-18T17:00:36Z</time>
      </trkpt>
      <trkpt lat="-27.42235" lon="-70.70902">
        <ele>209.086</ele>
        <time>2019-07-18T17:00:41Z</time>
      </trkpt>
      <trkpt lat="-27.422533" lon="-70.70919">
        <ele>208.951</ele>
        <time>2019-07-18T17:00:46Z</time>
      </trkpt>
      <trkpt lat="-27.42271" lon="-70.709366">
        <ele>209.141</ele>
        <time>2019-07-18T17:00:51Z</time>
      </trkpt>
      <trkpt lat="-27.422884" lon="-70.709526">
        <ele>209.102</ele>
        <time>2019-07-18T17:00:56Z</time>
      </trkpt>
      <trkpt lat="-27.423061" lon="-70.709694">
        <ele>209.107</ele>
        <time>2019-07-18T17:01:01Z</time>
      </trkpt>
      <trkpt lat="-27.42326" lon="-70.70988">
        <ele>209.361</ele>
        <time>2019-07-18T17:01:06Z</time>
      </trkpt>
      <trkpt lat="-27.42347" lon="-70.71007">
        <ele>209.263</ele>
        <time>2019-07-18T17:01:11Z</time>
      </trkpt>
      <trkpt lat="-27.42368" lon="-70.71027">
        <ele>209.693</ele>
        <time>2019-07-18T17:01:16Z</time>
      </trkpt>
      <trkpt lat="-27.423887" lon="-70.71046">
        <ele>209.337</ele>
        <time>2019-07-18T17:01:21Z</time>
      </trkpt>
      <trkpt lat="-27.424088" lon="-70.71064">
        <ele>209.804</ele>
        <time>2019-07-18T17:01:26Z</time>
      </trkpt>
      <trkpt lat="-27.424269" lon="-70.71081">
        <ele>210.246</ele>
        <time>2019-07-18T17:01:30Z</time>
      </trkpt>
      <trkpt lat="-27.424421" lon="-70.71096">
        <ele>210.703</ele>
        <time>2019-07-18T17:01:35Z</time>
      </trkpt>
      <trkpt lat="-27.424551" lon="-70.71109">
        <ele>210.949</ele>
        <time>2019-07-18T17:01:40Z</time>
      </trkpt>
      <trkpt lat="-27.424683" lon="-70.71121">
        <ele>210.962</ele>
        <time>2019-07-18T17:01:45Z</time>
      </trkpt>
      <trkpt lat="-27.424816" lon="-70.711334">
        <ele>210.986</ele>
        <time>2019-07-18T17:01:50Z</time>
      </trkpt>
      <trkpt lat="-27.424963" lon="-70.711464">
        <ele>211.517</ele>
        <time>2019-07-18T17:01:55Z</time>
      </trkpt>
      <trkpt lat="-27.425093" lon="-70.711586">
        <ele>211.3</ele>
        <time>2019-07-18T17:02:00Z</time>
      </trkpt>
      <trkpt lat="-27.42519" lon="-70.71168">
        <ele>211.556</ele>
        <time>2019-07-18T17:02:05Z</time>
      </trkpt>
      <trkpt lat="-27.425297" lon="-70.711754">
        <ele>211.017</ele>
        <time>2019-07-18T17:02:10Z</time>
      </trkpt>
      <trkpt lat="-27.425438" lon="-70.71185">
        <ele>211.57</ele>
        <time>2019-07-18T17:02:15Z</time>
      </trkpt>
      <trkpt lat="-27.425613" lon="-70.71201">
        <ele>211.469</ele>
        <time>2019-07-18T17:02:21Z</time>
      </trkpt>
      <trkpt lat="-27.42578" lon="-70.71214">
        <ele>211.448</ele>
        <time>2019-07-18T17:02:26Z</time>
      </trkpt>
      <trkpt lat="-27.425928" lon="-70.71226">
        <ele>211.163</ele>
        <time>2019-07-18T17:02:31Z</time>
      </trkpt>
      <trkpt lat="-27.426052" lon="-70.71236">
        <ele>211.464</ele>
        <time>2019-07-18T17:02:36Z</time>
      </trkpt>
      <trkpt lat="-27.42617" lon="-70.712456">
        <ele>211.157</ele>
        <time>2019-07-18T17:02:41Z</time>
      </trkpt>
      <trkpt lat="-27.42633" lon="-70.71257">
        <ele>211.229</ele>
        <time>2019-07-18T17:02:46Z</time>
      </trkpt>
      <trkpt lat="-27.426533" lon="-70.71272">
        <ele>211.157</ele>
        <time>2019-07-18T17:02:53Z</time>
      </trkpt>
      <trkpt lat="-27.426704" lon="-70.71287">
        <ele>211.007</ele>
        <time>2019-07-18T17:02:58Z</time>
      </trkpt>
      <trkpt lat="-27.426884" lon="-70.713">
        <ele>211.091</ele>
        <time>2019-07-18T17:03:03Z</time>
      </trkpt>
      <trkpt lat="-27.427027" lon="-70.713104">
        <ele>211.466</ele>
        <time>2019-07-18T17:03:08Z</time>
      </trkpt>
      <trkpt lat="-27.427164" lon="-70.713196">
        <ele>211.53</ele>
        <time>2019-07-18T17:03:13Z</time>
      </trkpt>
      <trkpt lat="-27.427317" lon="-70.71332">
        <ele>211.318</ele>
        <time>2019-07-18T17:03:18Z</time>
      </trkpt>
      <trkpt lat="-27.42748" lon="-70.71345">
        <ele>211.702</ele>
        <time>2019-07-18T17:03:23Z</time>
      </trkpt>
      <trkpt lat="-27.427645" lon="-70.71358">
        <ele>211.609</ele>
        <time>2019-07-18T17:03:28Z</time>
      </trkpt>
      <trkpt lat="-27.427814" lon="-70.71371">
        <ele>211.855</ele>
        <time>2019-07-18T17:03:33Z</time>
      </trkpt>
      <trkpt lat="-27.427992" lon="-70.713844">
        <ele>211.659</ele>
        <time>2019-07-18T17:03:38Z</time>
      </trkpt>
      <trkpt lat="-27.428171" lon="-70.713974">
        <ele>211.662</ele>
        <time>2019-07-18T17:03:43Z</time>
      </trkpt>
      <trkpt lat="-27.428343" lon="-70.71411">
        <ele>211.588</ele>
        <time>2019-07-18T17:03:48Z</time>
      </trkpt>
      <trkpt lat="-27.428518" lon="-70.71425">
        <ele>211.525</ele>
        <time>2019-07-18T17:03:53Z</time>
      </trkpt>
      <trkpt lat="-27.428696" lon="-70.71439">
        <ele>211.517</ele>
        <time>2019-07-18T17:03:58Z</time>
      </trkpt>
      <trkpt lat="-27.428879" lon="-70.71454">
        <ele>211.35</ele>
        <time>2019-07-18T17:04:03Z</time>
      </trkpt>
      <trkpt lat="-27.429068" lon="-70.71469">
        <ele>211.49</ele>
        <time>2019-07-18T17:04:08Z</time>
      </trkpt>
      <trkpt lat="-27.429264" lon="-70.71483">
        <ele>211.39</ele>
        <time>2019-07-18T17:04:13Z</time>
      </trkpt>
      <trkpt lat="-27.429457" lon="-70.71498">
        <ele>211.551</ele>
        <time>2019-07-18T17:04:18Z</time>
      </trkpt>
      <trkpt lat="-27.429653" lon="-70.715126">
        <ele>211.287</ele>
        <time>2019-07-18T17:04:23Z</time>
      </trkpt>
      <trkpt lat="-27.429842" lon="-70.71527">
        <ele>211.104</ele>
        <time>2019-07-18T17:04:28Z</time>
      </trkpt>
      <trkpt lat="-27.430008" lon="-70.71539">
        <ele>211.181</ele>
        <time>2019-07-18T17:04:33Z</time>
      </trkpt>
      <trkpt lat="-27.430183" lon="-70.71553">
        <ele>211.139</ele>
        <time>2019-07-18T17:04:38Z</time>
      </trkpt>
      <trkpt lat="-27.430357" lon="-70.71566">
        <ele>211.429</ele>
        <time>2019-07-18T17:04:43Z</time>
      </trkpt>
      <trkpt lat="-27.430525" lon="-70.71578">
        <ele>211.141</ele>
        <time>2019-07-18T17:04:48Z</time>
      </trkpt>
      <trkpt lat="-27.430689" lon="-70.71591">
        <ele>211.171</ele>
        <time>2019-07-18T17:04:53Z</time>
      </trkpt>
      <trkpt lat="-27.430859" lon="-70.716034">
        <ele>211.163</ele>
        <time>2019-07-18T17:04:58Z</time>
      </trkpt>
      <trkpt lat="-27.431038" lon="-70.71618">
        <ele>211.025</ele>
        <time>2019-07-18T17:05:03Z</time>
      </trkpt>
      <trkpt lat="-27.431192" lon="-70.71628">
        <ele>211.289</ele>
        <time>2019-07-18T17:05:08Z</time>
      </trkpt>
      <trkpt lat="-27.431341" lon="-70.71641">
        <ele>211.435</ele>
        <time>2019-07-18T17:05:13Z</time>
      </trkpt>
      <trkpt lat="-27.431519" lon="-70.71654">
        <ele>211.493</ele>
        <time>2019-07-18T17:05:19Z</time>
      </trkpt>
      <trkpt lat="-27.43169" lon="-70.716675">
        <ele>211.562</ele>
        <time>2019-07-18T17:05:24Z</time>
      </trkpt>
      <trkpt lat="-27.43187" lon="-70.71681">
        <ele>211.62</ele>
        <time>2019-07-18T17:05:29Z</time>
      </trkpt>
      <trkpt lat="-27.432053" lon="-70.71696">
        <ele>211.739</ele>
        <time>2019-07-18T17:05:34Z</time>
      </trkpt>
      <trkpt lat="-27.432247" lon="-70.7171">
        <ele>211.704</ele>
        <time>2019-07-18T17:05:39Z</time>
      </trkpt>
      <trkpt lat="-27.432432" lon="-70.71725">
        <ele>211.4</ele>
        <time>2019-07-18T17:05:44Z</time>
      </trkpt>
      <trkpt lat="-27.432617" lon="-70.71739">
        <ele>211.316</ele>
        <time>2019-07-18T17:05:49Z</time>
      </trkpt>
      <trkpt lat="-27.432814" lon="-70.717545">
        <ele>211.435</ele>
        <time>2019-07-18T17:05:54Z</time>
      </trkpt>
      <trkpt lat="-27.433022" lon="-70.717705">
        <ele>211.231</ele>
        <time>2019-07-18T17:05:59Z</time>
      </trkpt>
      <trkpt lat="-27.433329" lon="-70.71795">
        <ele>210.943</ele>
        <time>2019-07-18T17:06:08Z</time>
      </trkpt>
      <trkpt lat="-27.433506" lon="-70.718094">
        <ele>211.012</ele>
        <time>2019-07-18T17:06:13Z</time>
      </trkpt>
      <trkpt lat="-27.433691" lon="-70.71823">
        <ele>210.576</ele>
        <time>2019-07-18T17:06:18Z</time>
      </trkpt>
      <trkpt lat="-27.433987" lon="-70.71846">
        <ele>210.816</ele>
        <time>2019-07-18T17:06:26Z</time>
      </trkpt>
      <trkpt lat="-27.434168" lon="-70.7186">
        <ele>210.56</ele>
        <time>2019-07-18T17:06:31Z</time>
      </trkpt>
      <trkpt lat="-27.434343" lon="-70.718735">
        <ele>211.073</ele>
        <time>2019-07-18T17:06:36Z</time>
      </trkpt>
      <trkpt lat="-27.434523" lon="-70.71888">
        <ele>210.954</ele>
        <time>2019-07-18T17:06:41Z</time>
      </trkpt>
      <trkpt lat="-27.434673" lon="-70.718994">
        <ele>211.329</ele>
        <time>2019-07-18T17:06:45Z</time>
      </trkpt>
      <trkpt lat="-27.434862" lon="-70.71915">
        <ele>211.385</ele>
        <time>2019-07-18T17:06:50Z</time>
      </trkpt>
      <trkpt lat="-27.435045" lon="-70.71929">
        <ele>211.155</ele>
        <time>2019-07-18T17:06:55Z</time>
      </trkpt>
      <trkpt lat="-27.435217" lon="-70.71943">
        <ele>211.104</ele>
        <time>2019-07-18T17:07:00Z</time>
      </trkpt>
      <trkpt lat="-27.435368" lon="-70.71954">
        <ele>211.062</ele>
        <time>2019-07-18T17:07:05Z</time>
      </trkpt>
      <trkpt lat="-27.435532" lon="-70.71967">
        <ele>210.909</ele>
        <time>2019-07-18T17:07:10Z</time>
      </trkpt>
      <trkpt lat="-27.435717" lon="-70.71981">
        <ele>210.568</ele>
        <time>2019-07-18T17:07:15Z</time>
      </trkpt>
      <trkpt lat="-27.435913" lon="-70.71996">
        <ele>210.687</ele>
        <time>2019-07-18T17:07:20Z</time>
      </trkpt>
      <trkpt lat="-27.43612" lon="-70.72012">
        <ele>210.489</ele>
        <time>2019-07-18T17:07:25Z</time>
      </trkpt>
      <trkpt lat="-27.436325" lon="-70.7203">
        <ele>210.441</ele>
        <time>2019-07-18T17:07:30Z</time>
      </trkpt>
      <trkpt lat="-27.43653" lon="-70.72046">
        <ele>210.653</ele>
        <time>2019-07-18T17:07:35Z</time>
      </trkpt>
      <trkpt lat="-27.436749" lon="-70.72062">
        <ele>210.542</ele>
        <time>2019-07-18T17:07:40Z</time>
      </trkpt>
      <trkpt lat="-27.436972" lon="-70.72079">
        <ele>210.024</ele>
        <time>2019-07-18T17:07:45Z</time>
      </trkpt>
      <trkpt lat="-27.437204" lon="-70.72093">
        <ele>209.62</ele>
        <time>2019-07-18T17:07:50Z</time>
      </trkpt>
      <trkpt lat="-27.437391" lon="-70.721016">
        <ele>209.265</ele>
        <time>2019-07-18T17:07:55Z</time>
      </trkpt>
      <trkpt lat="-27.437714" lon="-70.721214">
        <ele>209.102</ele>
        <time>2019-07-18T17:08:03Z</time>
      </trkpt>
      <trkpt lat="-27.437948" lon="-70.721344">
        <ele>209.067</ele>
        <time>2019-07-18T17:08:08Z</time>
      </trkpt>
      <trkpt lat="-27.438145" lon="-70.72146">
        <ele>208.689</ele>
        <time>2019-07-18T17:08:13Z</time>
      </trkpt>
      <trkpt lat="-27.438332" lon="-70.72155">
        <ele>208.346</ele>
        <time>2019-07-18T17:08:18Z</time>
      </trkpt>
      <trkpt lat="-27.438484" lon="-70.72164">
        <ele>208.518</ele>
        <time>2019-07-18T17:08:23Z</time>
      </trkpt>
      <trkpt lat="-27.438639" lon="-70.721725">
        <ele>208.201</ele>
        <time>2019-07-18T17:08:28Z</time>
      </trkpt>
      <trkpt lat="-27.438845" lon="-70.72183">
        <ele>207.564</ele>
        <time>2019-07-18T17:08:33Z</time>
      </trkpt>
      <trkpt lat="-27.43908" lon="-70.72196">
        <ele>207.485</ele>
        <time>2019-07-18T17:08:38Z</time>
      </trkpt>
      <trkpt lat="-27.439335" lon="-70.72211">
        <ele>206.848</ele>
        <time>2019-07-18T17:08:43Z</time>
      </trkpt>
      <trkpt lat="-27.439627" lon="-70.72228">
        <ele>206.317</ele>
        <time>2019-07-18T17:08:49Z</time>
      </trkpt>
      <trkpt lat="-27.439972" lon="-70.7225">
        <ele>205.672</ele>
        <time>2019-07-18T17:08:55Z</time>
      </trkpt>
      <trkpt lat="-27.440266" lon="-70.72266">
        <ele>205.434</ele>
        <time>2019-07-18T17:09:01Z</time>
      </trkpt>
      <trkpt lat="-27.4405" lon="-70.72281">
        <ele>205.196</ele>
        <time>2019-07-18T17:09:06Z</time>
      </trkpt>
      <trkpt lat="-27.44073" lon="-70.72292">
        <ele>204.626</ele>
        <time>2019-07-18T17:09:11Z</time>
      </trkpt>
      <trkpt lat="-27.440958" lon="-70.723045">
        <ele>204.427</ele>
        <time>2019-07-18T17:09:16Z</time>
      </trkpt>
      <trkpt lat="-27.44124" lon="-70.72321">
        <ele>204.338</ele>
        <time>2019-07-18T17:09:22Z</time>
      </trkpt>
      <trkpt lat="-27.441477" lon="-70.72335">
        <ele>204.211</ele>
        <time>2019-07-18T17:09:27Z</time>
      </trkpt>
      <trkpt lat="-27.441786" lon="-70.72351">
        <ele>204.021</ele>
        <time>2019-07-18T17:09:36Z</time>
      </trkpt>
      <trkpt lat="-27.442013" lon="-70.72365">
        <ele>203.555</ele>
        <time>2019-07-18T17:09:41Z</time>
      </trkpt>
      <trkpt lat="-27.442238" lon="-70.72378">
        <ele>203.228</ele>
        <time>2019-07-18T17:09:46Z</time>
      </trkpt>
      <trkpt lat="-27.44247" lon="-70.72391">
        <ele>202.744</ele>
        <time>2019-07-18T17:09:51Z</time>
      </trkpt>
      <trkpt lat="-27.4427" lon="-70.72403">
        <ele>202.385</ele>
        <time>2019-07-18T17:09:56Z</time>
      </trkpt>
      <trkpt lat="-27.44291" lon="-70.72414">
        <ele>202.385</ele>
        <time>2019-07-18T17:10:01Z</time>
      </trkpt>
      <trkpt lat="-27.443115" lon="-70.72426">
        <ele>202.689</ele>
        <time>2019-07-18T17:10:06Z</time>
      </trkpt>
      <trkpt lat="-27.443321" lon="-70.724396">
        <ele>202.311</ele>
        <time>2019-07-18T17:10:11Z</time>
      </trkpt>
      <trkpt lat="-27.44351" lon="-70.7245">
        <ele>201.989</ele>
        <time>2019-07-18T17:10:16Z</time>
      </trkpt>
      <trkpt lat="-27.443707" lon="-70.72463">
        <ele>201.724</ele>
        <time>2019-07-18T17:10:21Z</time>
      </trkpt>
      <trkpt lat="-27.443878" lon="-70.72472">
        <ele>201.243</ele>
        <time>2019-07-18T17:10:26Z</time>
      </trkpt>
      <trkpt lat="-27.444012" lon="-70.72479">
        <ele>200.908</ele>
        <time>2019-07-18T17:10:31Z</time>
      </trkpt>
      <trkpt lat="-27.444033" lon="-70.72485">
        <ele>200.543</ele>
        <time>2019-07-18T17:10:36Z</time>
      </trkpt>
      <trkpt lat="-27.444052" lon="-70.724945">
        <ele>200.525</ele>
        <time>2019-07-18T17:10:46Z</time>
      </trkpt>
      <trkpt lat="-27.444094" lon="-70.72502">
        <ele>200.845</ele>
        <time>2019-07-18T17:10:56Z</time>
      </trkpt>
      <trkpt lat="-27.444134" lon="-70.72532">
        <ele>223.962</ele>
        <time>2019-07-18T17:12:22Z</time>
      </trkpt>
      <trkpt lat="-27.443977" lon="-70.72546">
        <ele>223.666</ele>
        <time>2019-07-18T18:36:39Z</time>
      </trkpt>
      <trkpt lat="-27.444113" lon="-70.7256">
        <ele>223.552</ele>
        <time>2019-07-18T18:37:05Z</time>
      </trkpt>
      <trkpt lat="-27.4442" lon="-70.72571">
        <ele>223.462</ele>
        <time>2019-07-18T18:37:10Z</time>
      </trkpt>
      <trkpt lat="-27.444279" lon="-70.72572">
        <ele>223.703</ele>
        <time>2019-07-18T18:37:15Z</time>
      </trkpt>
      <trkpt lat="-27.444363" lon="-70.72578">
        <ele>223.465</ele>
        <time>2019-07-18T18:37:20Z</time>
      </trkpt>
      <trkpt lat="-27.44446" lon="-70.72587">
        <ele>223.306</ele>
        <time>2019-07-18T18:37:25Z</time>
      </trkpt>
      <trkpt lat="-27.444534" lon="-70.72594">
        <ele>223.201</ele>
        <time>2019-07-18T18:37:30Z</time>
      </trkpt>
      <trkpt lat="-27.444618" lon="-70.72602">
        <ele>222.9</ele>
        <time>2019-07-18T18:37:35Z</time>
      </trkpt>
      <trkpt lat="-27.44472" lon="-70.7261">
        <ele>222.921</ele>
        <time>2019-07-18T18:37:40Z</time>
      </trkpt>
      <trkpt lat="-27.444815" lon="-70.72613">
        <ele>222.804</ele>
        <time>2019-07-18T18:37:48Z</time>
      </trkpt>
      <trkpt lat="-27.444893" lon="-70.7262">
        <ele>222.527</ele>
        <time>2019-07-18T18:37:53Z</time>
      </trkpt>
      <trkpt lat="-27.44497" lon="-70.726234">
        <ele>223.071</ele>
        <time>2019-07-18T18:37:58Z</time>
      </trkpt>
      <trkpt lat="-27.44509" lon="-70.726295">
        <ele>222.265</ele>
        <time>2019-07-18T18:38:03Z</time>
      </trkpt>
      <trkpt lat="-27.445282" lon="-70.726395">
        <ele>222.575</ele>
        <time>2019-07-18T18:38:11Z</time>
      </trkpt>
      <trkpt lat="-27.4454" lon="-70.726456">
        <ele>222.221</ele>
        <time>2019-07-18T18:38:16Z</time>
      </trkpt>
      <trkpt lat="-27.445518" lon="-70.7265">
        <ele>221.837</ele>
        <time>2019-07-18T18:38:21Z</time>
      </trkpt>
      <trkpt lat="-27.44563" lon="-70.72655">
        <ele>221.896</ele>
        <time>2019-07-18T18:38:26Z</time>
      </trkpt>
      <trkpt lat="-27.445713" lon="-70.72659">
        <ele>221.679</ele>
        <time>2019-07-18T18:38:31Z</time>
      </trkpt>
      <trkpt lat="-27.445711" lon="-70.7266">
        <ele>221.676</ele>
        <time>2019-07-18T18:38:36Z</time>
      </trkpt>
      <trkpt lat="-27.445995" lon="-70.72671">
        <ele>221.264</ele>
        <time>2019-07-18T18:39:00Z</time>
      </trkpt>
      <trkpt lat="-27.44605" lon="-70.72679">
        <ele>221.541</ele>
        <time>2019-07-18T18:39:05Z</time>
      </trkpt>
      <trkpt lat="-27.446115" lon="-70.72688">
        <ele>221.314</ele>
        <time>2019-07-18T18:39:10Z</time>
      </trkpt>
      <trkpt lat="-27.44619" lon="-70.72696">
        <ele>221.277</ele>
        <time>2019-07-18T18:39:15Z</time>
      </trkpt>
      <trkpt lat="-27.446274" lon="-70.72703">
        <ele>221.145</ele>
        <time>2019-07-18T18:39:20Z</time>
      </trkpt>
      <trkpt lat="-27.446415" lon="-70.72712">
        <ele>221.09</ele>
        <time>2019-07-18T18:39:25Z</time>
      </trkpt>
      <trkpt lat="-27.44652" lon="-70.72723">
        <ele>220.685</ele>
        <time>2019-07-18T18:39:30Z</time>
      </trkpt>
      <trkpt lat="-27.446684" lon="-70.72732">
        <ele>221.526</ele>
        <time>2019-07-18T18:39:35Z</time>
      </trkpt>
      <trkpt lat="-27.44686" lon="-70.72741">
        <ele>220.965</ele>
        <time>2019-07-18T18:39:40Z</time>
      </trkpt>
      <trkpt lat="-27.447031" lon="-70.7275">
        <ele>220.395</ele>
        <time>2019-07-18T18:39:45Z</time>
      </trkpt>
      <trkpt lat="-27.44722" lon="-70.727585">
        <ele>220.492</ele>
        <time>2019-07-18T18:39:50Z</time>
      </trkpt>
      <trkpt lat="-27.447376" lon="-70.727684">
        <ele>220.271</ele>
        <time>2019-07-18T18:39:55Z</time>
      </trkpt>
      <trkpt lat="-27.447557" lon="-70.72777">
        <ele>219.898</ele>
        <time>2019-07-18T18:40:00Z</time>
      </trkpt>
      <trkpt lat="-27.447763" lon="-70.72787">
        <ele>219.829</ele>
        <time>2019-07-18T18:40:05Z</time>
      </trkpt>
      <trkpt lat="-27.44797" lon="-70.72795">
        <ele>219.628</ele>
        <time>2019-07-18T18:40:10Z</time>
      </trkpt>
      <trkpt lat="-27.448168" lon="-70.728035">
        <ele>219.401</ele>
        <time>2019-07-18T18:40:15Z</time>
      </trkpt>
      <trkpt lat="-27.448364" lon="-70.728096">
        <ele>219.454</ele>
        <time>2019-07-18T18:40:20Z</time>
      </trkpt>
      <trkpt lat="-27.448526" lon="-70.728134">
        <ele>219.129</ele>
        <time>2019-07-18T18:40:25Z</time>
      </trkpt>
      <trkpt lat="-27.448708" lon="-70.72818">
        <ele>218.667</ele>
        <time>2019-07-18T18:40:30Z</time>
      </trkpt>
      <trkpt lat="-27.4489" lon="-70.72824">
        <ele>218.677</ele>
        <time>2019-07-18T18:40:35Z</time>
      </trkpt>
      <trkpt lat="-27.449049" lon="-70.728294">
        <ele>218.284</ele>
        <time>2019-07-18T18:40:40Z</time>
      </trkpt>
      <trkpt lat="-27.449223" lon="-70.728386">
        <ele>218.466</ele>
        <time>2019-07-18T18:40:45Z</time>
      </trkpt>
      <trkpt lat="-27.449385" lon="-70.72847">
        <ele>218.202</ele>
        <time>2019-07-18T18:40:50Z</time>
      </trkpt>
      <trkpt lat="-27.449533" lon="-70.72856">
        <ele>218.146</ele>
        <time>2019-07-18T18:40:55Z</time>
      </trkpt>
      <trkpt lat="-27.449629" lon="-70.72867">
        <ele>218.492</ele>
        <time>2019-07-18T18:41:00Z</time>
      </trkpt>
      <trkpt lat="-27.449743" lon="-70.72875">
        <ele>218.299</ele>
        <time>2019-07-18T18:41:05Z</time>
      </trkpt>
      <trkpt lat="-27.449837" lon="-70.728806">
        <ele>218.196</ele>
        <time>2019-07-18T18:41:10Z</time>
      </trkpt>
      <trkpt lat="-27.449947" lon="-70.72887">
        <ele>218.109</ele>
        <time>2019-07-18T18:41:15Z</time>
      </trkpt>
      <trkpt lat="-27.450022" lon="-70.7289">
        <ele>218.167</ele>
        <time>2019-07-18T18:41:20Z</time>
      </trkpt>
      <trkpt lat="-27.450094" lon="-70.72894">
        <ele>217.922</ele>
        <time>2019-07-18T18:41:25Z</time>
      </trkpt>
      <trkpt lat="-27.450167" lon="-70.72898">
        <ele>217.898</ele>
        <time>2019-07-18T18:41:30Z</time>
      </trkpt>
      <trkpt lat="-27.450235" lon="-70.72899">
        <ele>218.101</ele>
        <time>2019-07-18T18:41:35Z</time>
      </trkpt>
      <trkpt lat="-27.450321" lon="-70.72902">
        <ele>217.903</ele>
        <time>2019-07-18T18:41:40Z</time>
      </trkpt>
      <trkpt lat="-27.45043" lon="-70.72907">
        <ele>217.61</ele>
        <time>2019-07-18T18:41:45Z</time>
      </trkpt>
      <trkpt lat="-27.450512" lon="-70.72911">
        <ele>217.615</ele>
        <time>2019-07-18T18:41:50Z</time>
      </trkpt>
      <trkpt lat="-27.450598" lon="-70.729164">
        <ele>217.306</ele>
        <time>2019-07-18T18:41:55Z</time>
      </trkpt>
      <trkpt lat="-27.450672" lon="-70.7292">
        <ele>217.335</ele>
        <time>2019-07-18T18:42:00Z</time>
      </trkpt>
      <trkpt lat="-27.45075" lon="-70.72924">
        <ele>216.904</ele>
        <time>2019-07-18T18:42:05Z</time>
      </trkpt>
      <trkpt lat="-27.450844" lon="-70.72929">
        <ele>217.53</ele>
        <time>2019-07-18T18:42:10Z</time>
      </trkpt>
      <trkpt lat="-27.450941" lon="-70.72933">
        <ele>216.772</ele>
        <time>2019-07-18T18:42:15Z</time>
      </trkpt>
      <trkpt lat="-27.451027" lon="-70.7294">
        <ele>216.804</ele>
        <time>2019-07-18T18:42:20Z</time>
      </trkpt>
      <trkpt lat="-27.451105" lon="-70.729454">
        <ele>216.886</ele>
        <time>2019-07-18T18:42:25Z</time>
      </trkpt>
      <trkpt lat="-27.451183" lon="-70.72951">
        <ele>216.838</ele>
        <time>2019-07-18T18:42:30Z</time>
      </trkpt>
      <trkpt lat="-27.451256" lon="-70.729546">
        <ele>216.762</ele>
        <time>2019-07-18T18:42:35Z</time>
      </trkpt>
      <trkpt lat="-27.451319" lon="-70.729576">
        <ele>216.582</ele>
        <time>2019-07-18T18:42:40Z</time>
      </trkpt>
      <trkpt lat="-27.451353" lon="-70.729614">
        <ele>216.54</ele>
        <time>2019-07-18T18:42:45Z</time>
      </trkpt>
      <trkpt lat="-27.451378" lon="-70.72972">
        <ele>216.709</ele>
        <time>2019-07-18T18:42:50Z</time>
      </trkpt>
      <trkpt lat="-27.451344" lon="-70.729836">
        <ele>216.223</ele>
        <time>2019-07-18T18:42:55Z</time>
      </trkpt>
      <trkpt lat="-27.451368" lon="-70.729935">
        <ele>216.693</ele>
        <time>2019-07-18T18:43:00Z</time>
      </trkpt>
      <trkpt lat="-27.451452" lon="-70.73">
        <ele>216.225</ele>
        <time>2019-07-18T18:43:06Z</time>
      </trkpt>
      <trkpt lat="-27.451532" lon="-70.730034">
        <ele>215.855</ele>
        <time>2019-07-18T18:43:10Z</time>
      </trkpt>
      <trkpt lat="-27.451632" lon="-70.73005">
        <ele>215.99</ele>
        <time>2019-07-18T18:43:15Z</time>
      </trkpt>
      <trkpt lat="-27.451702" lon="-70.73006">
        <ele>216.125</ele>
        <time>2019-07-18T18:43:20Z</time>
      </trkpt>
      <trkpt lat="-27.45177" lon="-70.7301">
        <ele>215.797</ele>
        <time>2019-07-18T18:43:25Z</time>
      </trkpt>
      <trkpt lat="-27.451807" lon="-70.73021">
        <ele>215.837</ele>
        <time>2019-07-18T18:43:30Z</time>
      </trkpt>
      <trkpt lat="-27.45184" lon="-70.73029">
        <ele>215.821</ele>
        <time>2019-07-18T18:43:35Z</time>
      </trkpt>
      <trkpt lat="-27.451914" lon="-70.73007">
        <ele>215.99</ele>
        <time>2019-07-18T18:43:45Z</time>
      </trkpt>
      <trkpt lat="-27.451962" lon="-70.729866">
        <ele>216.075</ele>
        <time>2019-07-18T18:43:50Z</time>
      </trkpt>
      <trkpt lat="-27.452013" lon="-70.72969">
        <ele>215.972</ele>
        <time>2019-07-18T18:43:55Z</time>
      </trkpt>
      <trkpt lat="-27.452082" lon="-70.72958">
        <ele>216.046</ele>
        <time>2019-07-18T18:44:00Z</time>
      </trkpt>
      <trkpt lat="-27.452202" lon="-70.72961">
        <ele>215.554</ele>
        <time>2019-07-18T18:44:05Z</time>
      </trkpt>
      <trkpt lat="-27.452387" lon="-70.729706">
        <ele>215.509</ele>
        <time>2019-07-18T18:44:10Z</time>
      </trkpt>
      <trkpt lat="-27.45259" lon="-70.72983">
        <ele>215.398</ele>
        <time>2019-07-18T18:44:15Z</time>
      </trkpt>
      <trkpt lat="-27.452805" lon="-70.72997">
        <ele>215.216</ele>
        <time>2019-07-18T18:44:20Z</time>
      </trkpt>
      <trkpt lat="-27.453035" lon="-70.73011">
        <ele>215.137</ele>
        <time>2019-07-18T18:44:25Z</time>
      </trkpt>
      <trkpt lat="-27.453276" lon="-70.73024">
        <ele>214.524</ele>
        <time>2019-07-18T18:44:30Z</time>
      </trkpt>
      <trkpt lat="-27.453526" lon="-70.730385">
        <ele>214.41</ele>
        <time>2019-07-18T18:44:35Z</time>
      </trkpt>
      <trkpt lat="-27.453775" lon="-70.73054">
        <ele>214.056</ele>
        <time>2019-07-18T18:44:40Z</time>
      </trkpt>
      <trkpt lat="-27.454033" lon="-70.73068">
        <ele>214.162</ele>
        <time>2019-07-18T18:44:45Z</time>
      </trkpt>
      <trkpt lat="-27.454287" lon="-70.730835">
        <ele>213.821</ele>
        <time>2019-07-18T18:44:50Z</time>
      </trkpt>
      <trkpt lat="-27.45455" lon="-70.73099">
        <ele>213.163</ele>
        <time>2019-07-18T18:44:55Z</time>
      </trkpt>
      <trkpt lat="-27.454805" lon="-70.73114">
        <ele>212.566</ele>
        <time>2019-07-18T18:45:00Z</time>
      </trkpt>
      <trkpt lat="-27.455053" lon="-70.73128">
        <ele>212.254</ele>
        <time>2019-07-18T18:45:05Z</time>
      </trkpt>
      <trkpt lat="-27.455309" lon="-70.73144">
        <ele>211.95</ele>
        <time>2019-07-18T18:45:10Z</time>
      </trkpt>
      <trkpt lat="-27.455627" lon="-70.73163">
        <ele>212.206</ele>
        <time>2019-07-18T18:45:16Z</time>
      </trkpt>
      <trkpt lat="-27.456135" lon="-70.73193">
        <ele>211.924</ele>
        <time>2019-07-18T18:45:25Z</time>
      </trkpt>
      <trkpt lat="-27.456474" lon="-70.73214">
        <ele>212.013</ele>
        <time>2019-07-18T18:45:34Z</time>
      </trkpt>
      <trkpt lat="-27.456722" lon="-70.73228">
        <ele>212.066</ele>
        <time>2019-07-18T18:45:39Z</time>
      </trkpt>
      <trkpt lat="-27.456972" lon="-70.73242">
        <ele>211.836</ele>
        <time>2019-07-18T18:45:44Z</time>
      </trkpt>
      <trkpt lat="-27.457226" lon="-70.73257">
        <ele>211.651</ele>
        <time>2019-07-18T18:45:49Z</time>
      </trkpt>
      <trkpt lat="-27.457476" lon="-70.732704">
        <ele>211.511</ele>
        <time>2019-07-18T18:45:54Z</time>
      </trkpt>
      <trkpt lat="-27.457722" lon="-70.73284">
        <ele>212.278</ele>
        <time>2019-07-18T18:45:59Z</time>
      </trkpt>
      <trkpt lat="-27.457952" lon="-70.73297">
        <ele>211.863</ele>
        <time>2019-07-18T18:46:04Z</time>
      </trkpt>
      <trkpt lat="-27.458172" lon="-70.733086">
        <ele>211.754</ele>
        <time>2019-07-18T18:46:09Z</time>
      </trkpt>
      <trkpt lat="-27.458393" lon="-70.73323">
        <ele>212.206</ele>
        <time>2019-07-18T18:46:14Z</time>
      </trkpt>
      <trkpt lat="-27.458626" lon="-70.73336">
        <ele>212.328</ele>
        <time>2019-07-18T18:46:19Z</time>
      </trkpt>
      <trkpt lat="-27.458858" lon="-70.73348">
        <ele>211.868</ele>
        <time>2019-07-18T18:46:24Z</time>
      </trkpt>
      <trkpt lat="-27.45907" lon="-70.733604">
        <ele>211.289</ele>
        <time>2019-07-18T18:46:29Z</time>
      </trkpt>
      <trkpt lat="-27.459286" lon="-70.7337">
        <ele>210.856</ele>
        <time>2019-07-18T18:46:34Z</time>
      </trkpt>
      <trkpt lat="-27.459488" lon="-70.73383">
        <ele>210.772</ele>
        <time>2019-07-18T18:46:39Z</time>
      </trkpt>
      <trkpt lat="-27.45969" lon="-70.73395">
        <ele>210.219</ele>
        <time>2019-07-18T18:46:44Z</time>
      </trkpt>
      <trkpt lat="-27.459904" lon="-70.73407">
        <ele>210.045</ele>
        <time>2019-07-18T18:46:49Z</time>
      </trkpt>
      <trkpt lat="-27.460106" lon="-70.7342">
        <ele>210.74</ele>
        <time>2019-07-18T18:46:54Z</time>
      </trkpt>
      <trkpt lat="-27.460316" lon="-70.7343">
        <ele>211.593</ele>
        <time>2019-07-18T18:46:59Z</time>
      </trkpt>
      <trkpt lat="-27.460491" lon="-70.7344">
        <ele>210.581</ele>
        <time>2019-07-18T18:47:04Z</time>
      </trkpt>
      <trkpt lat="-27.460665" lon="-70.73448">
        <ele>210.51</ele>
        <time>2019-07-18T18:47:09Z</time>
      </trkpt>
      <trkpt lat="-27.460829" lon="-70.73456">
        <ele>210.222</ele>
        <time>2019-07-18T18:47:14Z</time>
      </trkpt>
      <trkpt lat="-27.461006" lon="-70.73467">
        <ele>210.695</ele>
        <time>2019-07-18T18:47:19Z</time>
      </trkpt>
      <trkpt lat="-27.461191" lon="-70.73478">
        <ele>211.258</ele>
        <time>2019-07-18T18:47:24Z</time>
      </trkpt>
      <trkpt lat="-27.461391" lon="-70.734924">
        <ele>207.4</ele>
        <time>2019-07-18T18:47:29Z</time>
      </trkpt>
      <trkpt lat="-27.461607" lon="-70.73503">
        <ele>210.938</ele>
        <time>2019-07-18T18:47:34Z</time>
      </trkpt>
      <trkpt lat="-27.461838" lon="-70.73514">
        <ele>210.602</ele>
        <time>2019-07-18T18:47:39Z</time>
      </trkpt>
      <trkpt lat="-27.462032" lon="-70.73525">
        <ele>211.152</ele>
        <time>2019-07-18T18:47:44Z</time>
      </trkpt>
      <trkpt lat="-27.462238" lon="-70.73535">
        <ele>210.999</ele>
        <time>2019-07-18T18:47:49Z</time>
      </trkpt>
      <trkpt lat="-27.462461" lon="-70.735466">
        <ele>210.573</ele>
        <time>2019-07-18T18:47:54Z</time>
      </trkpt>
      <trkpt lat="-27.462948" lon="-70.7357">
        <ele>210.824</ele>
        <time>2019-07-18T18:48:03Z</time>
      </trkpt>
      <trkpt lat="-27.46319" lon="-70.73583">
        <ele>211.007</ele>
        <time>2019-07-18T18:48:08Z</time>
      </trkpt>
      <trkpt lat="-27.463425" lon="-70.73596">
        <ele>210.909</ele>
        <time>2019-07-18T18:48:13Z</time>
      </trkpt>
      <trkpt lat="-27.463661" lon="-70.736084">
        <ele>210.779</ele>
        <time>2019-07-18T18:48:18Z</time>
      </trkpt>
      <trkpt lat="-27.463898" lon="-70.73621">
        <ele>211.178</ele>
        <time>2019-07-18T18:48:23Z</time>
      </trkpt>
      <trkpt lat="-27.464134" lon="-70.73633">
        <ele>210.885</ele>
        <time>2019-07-18T18:48:28Z</time>
      </trkpt>
      <trkpt lat="-27.464325" lon="-70.736435">
        <ele>211.35</ele>
        <time>2019-07-18T18:48:33Z</time>
      </trkpt>
      <trkpt lat="-27.464556" lon="-70.736565">
        <ele>211.802</ele>
        <time>2019-07-18T18:48:38Z</time>
      </trkpt>
      <trkpt lat="-27.46478" lon="-70.73669">
        <ele>211.144</ele>
        <time>2019-07-18T18:48:43Z</time>
      </trkpt>
      <trkpt lat="-27.465004" lon="-70.73682">
        <ele>211.075</ele>
        <time>2019-07-18T18:48:48Z</time>
      </trkpt>
      <trkpt lat="-27.465239" lon="-70.73695">
        <ele>211.104</ele>
        <time>2019-07-18T18:48:53Z</time>
      </trkpt>
      <trkpt lat="-27.46546" lon="-70.73709">
        <ele>210.481</ele>
        <time>2019-07-18T18:48:58Z</time>
      </trkpt>
      <trkpt lat="-27.465673" lon="-70.73722">
        <ele>210.333</ele>
        <time>2019-07-18T18:49:03Z</time>
      </trkpt>
      <trkpt lat="-27.465872" lon="-70.737335">
        <ele>209.839</ele>
        <time>2019-07-18T18:49:08Z</time>
      </trkpt>
      <trkpt lat="-27.466068" lon="-70.73745">
        <ele>210.293</ele>
        <time>2019-07-18T18:49:13Z</time>
      </trkpt>
      <trkpt lat="-27.466276" lon="-70.73755">
        <ele>209.979</ele>
        <time>2019-07-18T18:49:18Z</time>
      </trkpt>
      <trkpt lat="-27.466494" lon="-70.73768">
        <ele>210.106</ele>
        <time>2019-07-18T18:49:23Z</time>
      </trkpt>
      <trkpt lat="-27.466713" lon="-70.73781">
        <ele>209.678</ele>
        <time>2019-07-18T18:49:28Z</time>
      </trkpt>
      <trkpt lat="-27.466938" lon="-70.737946">
        <ele>209.482</ele>
        <time>2019-07-18T18:49:33Z</time>
      </trkpt>
      <trkpt lat="-27.467176" lon="-70.738075">
        <ele>209.72</ele>
        <time>2019-07-18T18:49:38Z</time>
      </trkpt>
      <trkpt lat="-27.4674" lon="-70.738205">
        <ele>210.156</ele>
        <time>2019-07-18T18:49:43Z</time>
      </trkpt>
      <trkpt lat="-27.467611" lon="-70.73833">
        <ele>209.921</ele>
        <time>2019-07-18T18:49:48Z</time>
      </trkpt>
      <trkpt lat="-27.467829" lon="-70.73845">
        <ele>210.383</ele>
        <time>2019-07-18T18:49:53Z</time>
      </trkpt>
      <trkpt lat="-27.468035" lon="-70.73856">
        <ele>210.23</ele>
        <time>2019-07-18T18:49:58Z</time>
      </trkpt>
      <trkpt lat="-27.468245" lon="-70.73866">
        <ele>210.267</ele>
        <time>2019-07-18T18:50:03Z</time>
      </trkpt>
      <trkpt lat="-27.468445" lon="-70.738785">
        <ele>210.526</ele>
        <time>2019-07-18T18:50:08Z</time>
      </trkpt>
      <trkpt lat="-27.468655" lon="-70.7389">
        <ele>210.013</ele>
        <time>2019-07-18T18:50:13Z</time>
      </trkpt>
      <trkpt lat="-27.468864" lon="-70.73903">
        <ele>210.452</ele>
        <time>2019-07-18T18:50:18Z</time>
      </trkpt>
      <trkpt lat="-27.469069" lon="-70.73914">
        <ele>209.612</ele>
        <time>2019-07-18T18:50:23Z</time>
      </trkpt>
      <trkpt lat="-27.469275" lon="-70.73927">
        <ele>209.892</ele>
        <time>2019-07-18T18:50:28Z</time>
      </trkpt>
      <trkpt lat="-27.469486" lon="-70.7394">
        <ele>209.506</ele>
        <time>2019-07-18T18:50:33Z</time>
      </trkpt>
      <trkpt lat="-27.469696" lon="-70.739525">
        <ele>210.349</ele>
        <time>2019-07-18T18:50:38Z</time>
      </trkpt>
      <trkpt lat="-27.469917" lon="-70.739655">
        <ele>209.942</ele>
        <time>2019-07-18T18:50:43Z</time>
      </trkpt>
      <trkpt lat="-27.470135" lon="-70.739784">
        <ele>209.966</ele>
        <time>2019-07-18T18:50:48Z</time>
      </trkpt>
      <trkpt lat="-27.470346" lon="-70.73993">
        <ele>210.129</ele>
        <time>2019-07-18T18:50:53Z</time>
      </trkpt>
      <trkpt lat="-27.470566" lon="-70.74008">
        <ele>209.976</ele>
        <time>2019-07-18T18:50:58Z</time>
      </trkpt>
      <trkpt lat="-27.470985" lon="-70.74041">
        <ele>210.164</ele>
        <time>2019-07-18T18:51:07Z</time>
      </trkpt>
      <trkpt lat="-27.47118" lon="-70.74057">
        <ele>209.881</ele>
        <time>2019-07-18T18:51:12Z</time>
      </trkpt>
      <trkpt lat="-27.47138" lon="-70.74074">
        <ele>210.106</ele>
        <time>2019-07-18T18:51:17Z</time>
      </trkpt>
      <trkpt lat="-27.471592" lon="-70.740906">
        <ele>209.765</ele>
        <time>2019-07-18T18:51:22Z</time>
      </trkpt>
      <trkpt lat="-27.47181" lon="-70.74109">
        <ele>209.984</ele>
        <time>2019-07-18T18:51:27Z</time>
      </trkpt>
      <trkpt lat="-27.47203" lon="-70.74125">
        <ele>210.637</ele>
        <time>2019-07-18T18:51:32Z</time>
      </trkpt>
      <trkpt lat="-27.472223" lon="-70.74138">
        <ele>210.539</ele>
        <time>2019-07-18T18:51:37Z</time>
      </trkpt>
      <trkpt lat="-27.472477" lon="-70.741516">
        <ele>209.559</ele>
        <time>2019-07-18T18:51:42Z</time>
      </trkpt>
      <trkpt lat="-27.472736" lon="-70.74161">
        <ele>210.735</ele>
        <time>2019-07-18T18:51:47Z</time>
      </trkpt>
      <trkpt lat="-27.47299" lon="-70.7417">
        <ele>210.378</ele>
        <time>2019-07-18T18:51:52Z</time>
      </trkpt>
      <trkpt lat="-27.473236" lon="-70.74176">
        <ele>210.653</ele>
        <time>2019-07-18T18:51:57Z</time>
      </trkpt>
      <trkpt lat="-27.473494" lon="-70.74183">
        <ele>210.764</ele>
        <time>2019-07-18T18:52:02Z</time>
      </trkpt>
      <trkpt lat="-27.473728" lon="-70.74189">
        <ele>211.075</ele>
        <time>2019-07-18T18:52:07Z</time>
      </trkpt>
      <trkpt lat="-27.47395" lon="-70.74196">
        <ele>210.941</ele>
        <time>2019-07-18T18:52:12Z</time>
      </trkpt>
      <trkpt lat="-27.474176" lon="-70.74202">
        <ele>211.255</ele>
        <time>2019-07-18T18:52:17Z</time>
      </trkpt>
      <trkpt lat="-27.47441" lon="-70.74207">
        <ele>211.939</ele>
        <time>2019-07-18T18:52:22Z</time>
      </trkpt>
      <trkpt lat="-27.474636" lon="-70.74214">
        <ele>212.196</ele>
        <time>2019-07-18T18:52:27Z</time>
      </trkpt>
      <trkpt lat="-27.474867" lon="-70.74221">
        <ele>211.762</ele>
        <time>2019-07-18T18:52:32Z</time>
      </trkpt>
      <trkpt lat="-27.475063" lon="-70.74229">
        <ele>212.299</ele>
        <time>2019-07-18T18:52:37Z</time>
      </trkpt>
      <trkpt lat="-27.475264" lon="-70.74236">
        <ele>212.611</ele>
        <time>2019-07-18T18:52:42Z</time>
      </trkpt>
      <trkpt lat="-27.475466" lon="-70.742424">
        <ele>212.793</ele>
        <time>2019-07-18T18:52:47Z</time>
      </trkpt>
      <trkpt lat="-27.475664" lon="-70.7425">
        <ele>212.835</ele>
        <time>2019-07-18T18:52:52Z</time>
      </trkpt>
      <trkpt lat="-27.475931" lon="-70.742584">
        <ele>213.173</ele>
        <time>2019-07-18T18:52:59Z</time>
      </trkpt>
      <trkpt lat="-27.47621" lon="-70.74267">
        <ele>212.951</ele>
        <time>2019-07-18T18:53:05Z</time>
      </trkpt>
      <trkpt lat="-27.476423" lon="-70.74274">
        <ele>213.062</ele>
        <time>2019-07-18T18:53:11Z</time>
      </trkpt>
      <trkpt lat="-27.4766" lon="-70.7428">
        <ele>213.041</ele>
        <time>2019-07-18T18:53:16Z</time>
      </trkpt>
      <trkpt lat="-27.476837" lon="-70.74287">
        <ele>213.089</ele>
        <time>2019-07-18T18:53:22Z</time>
      </trkpt>
      <trkpt lat="-27.477028" lon="-70.74293">
        <ele>213.612</ele>
        <time>2019-07-18T18:53:27Z</time>
      </trkpt>
      <trkpt lat="-27.477228" lon="-70.74299">
        <ele>213.689</ele>
        <time>2019-07-18T18:53:32Z</time>
      </trkpt>
      <trkpt lat="-27.477415" lon="-70.74304">
        <ele>214.106</ele>
        <time>2019-07-18T18:53:37Z</time>
      </trkpt>
      <trkpt lat="-27.477608" lon="-70.743095">
        <ele>214.093</ele>
        <time>2019-07-18T18:53:42Z</time>
      </trkpt>
      <trkpt lat="-27.47779" lon="-70.74316">
        <ele>214.357</ele>
        <time>2019-07-18T18:53:47Z</time>
      </trkpt>
      <trkpt lat="-27.478008" lon="-70.74323">
        <ele>214.133</ele>
        <time>2019-07-18T18:53:53Z</time>
      </trkpt>
      <trkpt lat="-27.47819" lon="-70.74328">
        <ele>214.495</ele>
        <time>2019-07-18T18:53:58Z</time>
      </trkpt>
      <trkpt lat="-27.478378" lon="-70.74333">
        <ele>214.296</ele>
        <time>2019-07-18T18:54:03Z</time>
      </trkpt>
      <trkpt lat="-27.478573" lon="-70.74339">
        <ele>214.185</ele>
        <time>2019-07-18T18:54:08Z</time>
      </trkpt>
      <trkpt lat="-27.47876" lon="-70.743454">
        <ele>214.748</ele>
        <time>2019-07-18T18:54:12Z</time>
      </trkpt>
      <trkpt lat="-27.478952" lon="-70.74352">
        <ele>214.299</ele>
        <time>2019-07-18T18:54:17Z</time>
      </trkpt>
      <trkpt lat="-27.47915" lon="-70.74358">
        <ele>214.077</ele>
        <time>2019-07-18T18:54:22Z</time>
      </trkpt>
      <trkpt lat="-27.479353" lon="-70.74364">
        <ele>213.892</ele>
        <time>2019-07-18T18:54:27Z</time>
      </trkpt>
      <trkpt lat="-27.47954" lon="-70.74371">
        <ele>213.913</ele>
        <time>2019-07-18T18:54:32Z</time>
      </trkpt>
      <trkpt lat="-27.479744" lon="-70.743774">
        <ele>214.117</ele>
        <time>2019-07-18T18:54:37Z</time>
      </trkpt>
      <trkpt lat="-27.47995" lon="-70.74384">
        <ele>214.093</ele>
        <time>2019-07-18T18:54:42Z</time>
      </trkpt>
      <trkpt lat="-27.480152" lon="-70.743904">
        <ele>213.63</ele>
        <time>2019-07-18T18:54:47Z</time>
      </trkpt>
      <trkpt lat="-27.480347" lon="-70.743965">
        <ele>213.813</ele>
        <time>2019-07-18T18:54:52Z</time>
      </trkpt>
      <trkpt lat="-27.480555" lon="-70.744026">
        <ele>213.525</ele>
        <time>2019-07-18T18:54:57Z</time>
      </trkpt>
      <trkpt lat="-27.480793" lon="-70.7441">
        <ele>213.66</ele>
        <time>2019-07-18T18:55:04Z</time>
      </trkpt>
      <trkpt lat="-27.480967" lon="-70.744156">
        <ele>213.66</ele>
        <time>2019-07-18T18:55:09Z</time>
      </trkpt>
      <trkpt lat="-27.481169" lon="-70.74422">
        <ele>213.321</ele>
        <time>2019-07-18T18:55:14Z</time>
      </trkpt>
      <trkpt lat="-27.48137" lon="-70.74428">
        <ele>213.414</ele>
        <time>2019-07-18T18:55:19Z</time>
      </trkpt>
      <trkpt lat="-27.481575" lon="-70.74435">
        <ele>213.58</ele>
        <time>2019-07-18T18:55:24Z</time>
      </trkpt>
      <trkpt lat="-27.48178" lon="-70.744415">
        <ele>213.609</ele>
        <time>2019-07-18T18:55:29Z</time>
      </trkpt>
      <trkpt lat="-27.48198" lon="-70.74447">
        <ele>213.475</ele>
        <time>2019-07-18T18:55:34Z</time>
      </trkpt>
      <trkpt lat="-27.482172" lon="-70.74454">
        <ele>213.697</ele>
        <time>2019-07-18T18:55:39Z</time>
      </trkpt>
      <trkpt lat="-27.482372" lon="-70.7446">
        <ele>213.464</ele>
        <time>2019-07-18T18:55:44Z</time>
      </trkpt>
      <trkpt lat="-27.482574" lon="-70.74465">
        <ele>213.477</ele>
        <time>2019-07-18T18:55:49Z</time>
      </trkpt>
      <trkpt lat="-27.482773" lon="-70.74471">
        <ele>213.636</ele>
        <time>2019-07-18T18:55:54Z</time>
      </trkpt>
      <trkpt lat="-27.482971" lon="-70.744774">
        <ele>213.789</ele>
        <time>2019-07-18T18:55:59Z</time>
      </trkpt>
      <trkpt lat="-27.48316" lon="-70.74483">
        <ele>213.813</ele>
        <time>2019-07-18T18:56:04Z</time>
      </trkpt>
      <trkpt lat="-27.48332" lon="-70.74488">
        <ele>213.483</ele>
        <time>2019-07-18T18:56:09Z</time>
      </trkpt>
      <trkpt lat="-27.483475" lon="-70.74493">
        <ele>213.739</ele>
        <time>2019-07-18T18:56:14Z</time>
      </trkpt>
      <trkpt lat="-27.483635" lon="-70.74498">
        <ele>214.17</ele>
        <time>2019-07-18T18:56:19Z</time>
      </trkpt>
      <trkpt lat="-27.48382" lon="-70.74504">
        <ele>214.664</ele>
        <time>2019-07-18T18:56:24Z</time>
      </trkpt>
      <trkpt lat="-27.483984" lon="-70.745094">
        <ele>214.555</ele>
        <time>2019-07-18T18:56:29Z</time>
      </trkpt>
      <trkpt lat="-27.48415" lon="-70.74514">
        <ele>214.833</ele>
        <time>2019-07-18T18:56:34Z</time>
      </trkpt>
      <trkpt lat="-27.4843" lon="-70.745186">
        <ele>215.068</ele>
        <time>2019-07-18T18:56:39Z</time>
      </trkpt>
      <trkpt lat="-27.484438" lon="-70.74523">
        <ele>215.67</ele>
        <time>2019-07-18T18:56:45Z</time>
      </trkpt>
      <trkpt lat="-27.48457" lon="-70.74527">
        <ele>216.096</ele>
        <time>2019-07-18T18:56:50Z</time>
      </trkpt>
      <trkpt lat="-27.484707" lon="-70.74531">
        <ele>216.793</ele>
        <time>2019-07-18T18:56:55Z</time>
      </trkpt>
      <trkpt lat="-27.484838" lon="-70.74535">
        <ele>217.414</ele>
        <time>2019-07-18T18:57:00Z</time>
      </trkpt>
      <trkpt lat="-27.484976" lon="-70.7454">
        <ele>217.932</ele>
        <time>2019-07-18T18:57:05Z</time>
      </trkpt>
      <trkpt lat="-27.485104" lon="-70.745445">
        <ele>218.77</ele>
        <time>2019-07-18T18:57:10Z</time>
      </trkpt>
      <trkpt lat="-27.485218" lon="-70.74548">
        <ele>219.174</ele>
        <time>2019-07-18T18:57:15Z</time>
      </trkpt>
      <trkpt lat="-27.48531" lon="-70.74551">
        <ele>219.885</ele>
        <time>2019-07-18T18:57:20Z</time>
      </trkpt>
      <trkpt lat="-27.485407" lon="-70.745544">
        <ele>220.218</ele>
        <time>2019-07-18T18:57:25Z</time>
      </trkpt>
      <trkpt lat="-27.485504" lon="-70.745575">
        <ele>220.683</ele>
        <time>2019-07-18T18:57:30Z</time>
      </trkpt>
      <trkpt lat="-27.485611" lon="-70.74559">
        <ele>220.979</ele>
        <time>2019-07-18T18:57:35Z</time>
      </trkpt>
      <trkpt lat="-27.485706" lon="-70.74562">
        <ele>221.19</ele>
        <time>2019-07-18T18:57:40Z</time>
      </trkpt>
      <trkpt lat="-27.485798" lon="-70.74566">
        <ele>221.742</ele>
        <time>2019-07-18T18:57:45Z</time>
      </trkpt>
      <trkpt lat="-27.485909" lon="-70.74568">
        <ele>222.051</ele>
        <time>2019-07-18T18:57:50Z</time>
      </trkpt>
      <trkpt lat="-27.48605" lon="-70.74572">
        <ele>222.014</ele>
        <time>2019-07-18T18:57:55Z</time>
      </trkpt>
      <trkpt lat="-27.486208" lon="-70.745735">
        <ele>221.74</ele>
        <time>2019-07-18T18:58:00Z</time>
      </trkpt>
      <trkpt lat="-27.486372" lon="-70.745766">
        <ele>221.589</ele>
        <time>2019-07-18T18:58:05Z</time>
      </trkpt>
      <trkpt lat="-27.486572" lon="-70.74579">
        <ele>221.6</ele>
        <time>2019-07-18T18:58:10Z</time>
      </trkpt>
      <trkpt lat="-27.486792" lon="-70.74582">
        <ele>221.742</ele>
        <time>2019-07-18T18:58:15Z</time>
      </trkpt>
      <trkpt lat="-27.487" lon="-70.74585">
        <ele>221.972</ele>
        <time>2019-07-18T18:58:20Z</time>
      </trkpt>
      <trkpt lat="-27.487202" lon="-70.74588">
        <ele>222.202</ele>
        <time>2019-07-18T18:58:25Z</time>
      </trkpt>
      <trkpt lat="-27.487398" lon="-70.7459">
        <ele>222.672</ele>
        <time>2019-07-18T18:58:30Z</time>
      </trkpt>
      <trkpt lat="-27.487589" lon="-70.74594">
        <ele>222.989</ele>
        <time>2019-07-18T18:58:35Z</time>
      </trkpt>
      <trkpt lat="-27.487782" lon="-70.74598">
        <ele>223.203</ele>
        <time>2019-07-18T18:58:40Z</time>
      </trkpt>
      <trkpt lat="-27.48798" lon="-70.74603">
        <ele>223.394</ele>
        <time>2019-07-18T18:58:45Z</time>
      </trkpt>
      <trkpt lat="-27.488192" lon="-70.74607">
        <ele>223.357</ele>
        <time>2019-07-18T18:58:50Z</time>
      </trkpt>
      <trkpt lat="-27.488386" lon="-70.74612">
        <ele>223.41</ele>
        <time>2019-07-18T18:58:55Z</time>
      </trkpt>
      <trkpt lat="-27.488573" lon="-70.74618">
        <ele>222.625</ele>
        <time>2019-07-18T18:59:00Z</time>
      </trkpt>
      <trkpt lat="-27.488781" lon="-70.74622">
        <ele>222.12</ele>
        <time>2019-07-18T18:59:05Z</time>
      </trkpt>
      <trkpt lat="-27.489004" lon="-70.746284">
        <ele>221.626</ele>
        <time>2019-07-18T18:59:10Z</time>
      </trkpt>
      <trkpt lat="-27.489481" lon="-70.74643">
        <ele>222.273</ele>
        <time>2019-07-18T18:59:19Z</time>
      </trkpt>
      <trkpt lat="-27.48961" lon="-70.74646">
        <ele>222.506</ele>
        <time>2019-07-18T18:59:24Z</time>
      </trkpt>
      <trkpt lat="-27.489813" lon="-70.74651">
        <ele>222.884</ele>
        <time>2019-07-18T18:59:29Z</time>
      </trkpt>
      <trkpt lat="-27.490005" lon="-70.74657">
        <ele>222.841</ele>
        <time>2019-07-18T18:59:34Z</time>
      </trkpt>
      <trkpt lat="-27.4902" lon="-70.74663">
        <ele>223.193</ele>
        <time>2019-07-18T18:59:39Z</time>
      </trkpt>
      <trkpt lat="-27.49041" lon="-70.746704">
        <ele>223.246</ele>
        <time>2019-07-18T18:59:44Z</time>
      </trkpt>
      <trkpt lat="-27.49062" lon="-70.74677">
        <ele>223.774</ele>
        <time>2019-07-18T18:59:49Z</time>
      </trkpt>
      <trkpt lat="-27.490837" lon="-70.74684">
        <ele>223.328</ele>
        <time>2019-07-18T18:59:54Z</time>
      </trkpt>
      <trkpt lat="-27.491056" lon="-70.746895">
        <ele>223.497</ele>
        <time>2019-07-18T18:59:59Z</time>
      </trkpt>
      <trkpt lat="-27.491268" lon="-70.74696">
        <ele>223.233</ele>
        <time>2019-07-18T19:00:04Z</time>
      </trkpt>
      <trkpt lat="-27.491488" lon="-70.74703">
        <ele>222.886</ele>
        <time>2019-07-18T19:00:09Z</time>
      </trkpt>
      <trkpt lat="-27.491701" lon="-70.747086">
        <ele>222.865</ele>
        <time>2019-07-18T19:00:14Z</time>
      </trkpt>
      <trkpt lat="-27.491888" lon="-70.74716">
        <ele>222.514</ele>
        <time>2019-07-18T19:00:19Z</time>
      </trkpt>
      <trkpt lat="-27.492105" lon="-70.74725">
        <ele>222.117</ele>
        <time>2019-07-18T19:00:24Z</time>
      </trkpt>
      <trkpt lat="-27.492327" lon="-70.74736">
        <ele>222.25</ele>
        <time>2019-07-18T19:00:29Z</time>
      </trkpt>
      <trkpt lat="-27.492538" lon="-70.74751">
        <ele>222.31</ele>
        <time>2019-07-18T19:00:34Z</time>
      </trkpt>
      <trkpt lat="-27.492746" lon="-70.74768">
        <ele>222.675</ele>
        <time>2019-07-18T19:00:39Z</time>
      </trkpt>
      <trkpt lat="-27.492933" lon="-70.74786">
        <ele>222.469</ele>
        <time>2019-07-18T19:00:44Z</time>
      </trkpt>
      <trkpt lat="-27.4931" lon="-70.74803">
        <ele>222.556</ele>
        <time>2019-07-18T19:00:49Z</time>
      </trkpt>
      <trkpt lat="-27.493248" lon="-70.7482">
        <ele>222.646</ele>
        <time>2019-07-18T19:00:54Z</time>
      </trkpt>
      <trkpt lat="-27.49339" lon="-70.74838">
        <ele>222.376</ele>
        <time>2019-07-18T19:00:59Z</time>
      </trkpt>
      <trkpt lat="-27.493507" lon="-70.74858">
        <ele>221.679</ele>
        <time>2019-07-18T19:01:04Z</time>
      </trkpt>
      <trkpt lat="-27.493605" lon="-70.748795">
        <ele>221.89</ele>
        <time>2019-07-18T19:01:09Z</time>
      </trkpt>
      <trkpt lat="-27.493673" lon="-70.749">
        <ele>221.193</ele>
        <time>2019-07-18T19:01:14Z</time>
      </trkpt>
      <trkpt lat="-27.493713" lon="-70.74922">
        <ele>220.606</ele>
        <time>2019-07-18T19:01:19Z</time>
      </trkpt>
      <trkpt lat="-27.493757" lon="-70.74947">
        <ele>220.252</ele>
        <time>2019-07-18T19:01:24Z</time>
      </trkpt>
      <trkpt lat="-27.493761" lon="-70.74955">
        <ele>218.257</ele>
        <time>2019-07-18T19:01:29Z</time>
      </trkpt>
      <trkpt lat="-27.493923" lon="-70.74977">
        <ele>218.273</ele>
        <time>2019-07-18T19:03:14Z</time>
      </trkpt>
      <trkpt lat="-27.493952" lon="-70.750015">
        <ele>217.319</ele>
        <time>2019-07-18T19:03:19Z</time>
      </trkpt>
      <trkpt lat="-27.494007" lon="-70.75027">
        <ele>216.598</ele>
        <time>2019-07-18T19:03:24Z</time>
      </trkpt>
      <trkpt lat="-27.494078" lon="-70.75058">
        <ele>216.429</ele>
        <time>2019-07-18T19:03:28Z</time>
      </trkpt>
      <trkpt lat="-27.49415" lon="-70.75085">
        <ele>215.731</ele>
        <time>2019-07-18T19:03:34Z</time>
      </trkpt>
      <trkpt lat="-27.494255" lon="-70.751114">
        <ele>214.79</ele>
        <time>2019-07-18T19:03:39Z</time>
      </trkpt>
      <trkpt lat="-27.494377" lon="-70.75138">
        <ele>213.768</ele>
        <time>2019-07-18T19:03:44Z</time>
      </trkpt>
      <trkpt lat="-27.494507" lon="-70.75163">
        <ele>213.226</ele>
        <time>2019-07-18T19:03:49Z</time>
      </trkpt>
      <trkpt lat="-27.494665" lon="-70.751884">
        <ele>212.389</ele>
        <time>2019-07-18T19:03:54Z</time>
      </trkpt>
      <trkpt lat="-27.49484" lon="-70.752144">
        <ele>211.279</ele>
        <time>2019-07-18T19:03:58Z</time>
      </trkpt>
      <trkpt lat="-27.495062" lon="-70.75242">
        <ele>210.431</ele>
        <time>2019-07-18T19:04:04Z</time>
      </trkpt>
      <trkpt lat="-27.495293" lon="-70.75269">
        <ele>209.612</ele>
        <time>2019-07-18T19:04:09Z</time>
      </trkpt>
      <trkpt lat="-27.495523" lon="-70.75295">
        <ele>208.985</ele>
        <time>2019-07-18T19:04:13Z</time>
      </trkpt>
      <trkpt lat="-27.495735" lon="-70.75322">
        <ele>208.771</ele>
        <time>2019-07-18T19:04:18Z</time>
      </trkpt>
      <trkpt lat="-27.49594" lon="-70.75347">
        <ele>208.076</ele>
        <time>2019-07-18T19:04:24Z</time>
      </trkpt>
      <trkpt lat="-27.496243" lon="-70.753876">
        <ele>208.061</ele>
        <time>2019-07-18T19:04:32Z</time>
      </trkpt>
      <trkpt lat="-27.496431" lon="-70.75414">
        <ele>207.434</ele>
        <time>2019-07-18T19:04:37Z</time>
      </trkpt>
      <trkpt lat="-27.49663" lon="-70.75438">
        <ele>206.909</ele>
        <time>2019-07-18T19:04:42Z</time>
      </trkpt>
      <trkpt lat="-27.49683" lon="-70.7546">
        <ele>206.61</ele>
        <time>2019-07-18T19:04:47Z</time>
      </trkpt>
      <trkpt lat="-27.497017" lon="-70.75481">
        <ele>206.288</ele>
        <time>2019-07-18T19:04:52Z</time>
      </trkpt>
      <trkpt lat="-27.497194" lon="-70.755">
        <ele>205.003</ele>
        <time>2019-07-18T19:04:57Z</time>
      </trkpt>
      <trkpt lat="-27.49738" lon="-70.7552">
        <ele>203.902</ele>
        <time>2019-07-18T19:05:02Z</time>
      </trkpt>
      <trkpt lat="-27.497591" lon="-70.75543">
        <ele>202.673</ele>
        <time>2019-07-18T19:05:07Z</time>
      </trkpt>
      <trkpt lat="-27.497793" lon="-70.75568">
        <ele>202.134</ele>
        <time>2019-07-18T19:05:12Z</time>
      </trkpt>
      <trkpt lat="-27.497997" lon="-70.75589">
        <ele>200.937</ele>
        <time>2019-07-18T19:05:17Z</time>
      </trkpt>
      <trkpt lat="-27.498219" lon="-70.756134">
        <ele>199.959</ele>
        <time>2019-07-18T19:05:22Z</time>
      </trkpt>
      <trkpt lat="-27.498457" lon="-70.756386">
        <ele>198.749</ele>
        <time>2019-07-18T19:05:27Z</time>
      </trkpt>
      <trkpt lat="-27.498701" lon="-70.756645">
        <ele>197.795</ele>
        <time>2019-07-18T19:05:32Z</time>
      </trkpt>
      <trkpt lat="-27.498947" lon="-70.75691">
        <ele>196.971</ele>
        <time>2019-07-18T19:05:37Z</time>
      </trkpt>
      <trkpt lat="-27.499182" lon="-70.757195">
        <ele>196.355</ele>
        <time>2019-07-18T19:05:42Z</time>
      </trkpt>
      <trkpt lat="-27.499416" lon="-70.75748">
        <ele>194.976</ele>
        <time>2019-07-18T19:05:47Z</time>
      </trkpt>
      <trkpt lat="-27.499718" lon="-70.75787">
        <ele>193.782</ele>
        <time>2019-07-18T19:05:55Z</time>
      </trkpt>
      <trkpt lat="-27.499939" lon="-70.758156">
        <ele>192.746</ele>
        <time>2019-07-18T19:06:00Z</time>
      </trkpt>
      <trkpt lat="-27.500172" lon="-70.75842">
        <ele>191.982</ele>
        <time>2019-07-18T19:06:05Z</time>
      </trkpt>
      <trkpt lat="-27.500402" lon="-70.75871">
        <ele>190.989</ele>
        <time>2019-07-18T19:06:10Z</time>
      </trkpt>
      <trkpt lat="-27.50064" lon="-70.758995">
        <ele>189.921</ele>
        <time>2019-07-18T19:06:15Z</time>
      </trkpt>
      <trkpt lat="-27.500866" lon="-70.75931">
        <ele>188.936</ele>
        <time>2019-07-18T19:06:20Z</time>
      </trkpt>
      <trkpt lat="-27.501118" lon="-70.759575">
        <ele>188.082</ele>
        <time>2019-07-18T19:06:25Z</time>
      </trkpt>
      <trkpt lat="-27.501368" lon="-70.759895">
        <ele>187.493</ele>
        <time>2019-07-18T19:06:30Z</time>
      </trkpt>
      <trkpt lat="-27.501566" lon="-70.76017">
        <ele>186.642</ele>
        <time>2019-07-18T19:06:35Z</time>
      </trkpt>
      <trkpt lat="-27.501799" lon="-70.76044">
        <ele>186.019</ele>
        <time>2019-07-18T19:06:40Z</time>
      </trkpt>
      <trkpt lat="-27.502008" lon="-70.76063">
        <ele>184.959</ele>
        <time>2019-07-18T19:06:44Z</time>
      </trkpt>
      <trkpt lat="-27.50224" lon="-70.760895">
        <ele>184.457</ele>
        <time>2019-07-18T19:06:49Z</time>
      </trkpt>
      <trkpt lat="-27.502483" lon="-70.761154">
        <ele>183.686</ele>
        <time>2019-07-18T19:06:54Z</time>
      </trkpt>
      <trkpt lat="-27.502733" lon="-70.76141">
        <ele>182.93</ele>
        <time>2019-07-18T19:06:59Z</time>
      </trkpt>
      <trkpt lat="-27.502977" lon="-70.761665">
        <ele>182.7</ele>
        <time>2019-07-18T19:07:04Z</time>
      </trkpt>
      <trkpt lat="-27.503208" lon="-70.761955">
        <ele>182.092</ele>
        <time>2019-07-18T19:07:09Z</time>
      </trkpt>
      <trkpt lat="-27.503437" lon="-70.76223">
        <ele>182.386</ele>
        <time>2019-07-18T19:07:14Z</time>
      </trkpt>
      <trkpt lat="-27.503653" lon="-70.76248">
        <ele>182.002</ele>
        <time>2019-07-18T19:07:19Z</time>
      </trkpt>
      <trkpt lat="-27.503843" lon="-70.76272">
        <ele>181.891</ele>
        <time>2019-07-18T19:07:24Z</time>
      </trkpt>
      <trkpt lat="-27.504032" lon="-70.76294">
        <ele>182.09</ele>
        <time>2019-07-18T19:07:29Z</time>
      </trkpt>
      <trkpt lat="-27.504208" lon="-70.76316">
        <ele>181.897</ele>
        <time>2019-07-18T19:07:34Z</time>
      </trkpt>
      <trkpt lat="-27.504372" lon="-70.76337">
        <ele>182.169</ele>
        <time>2019-07-18T19:07:39Z</time>
      </trkpt>
      <trkpt lat="-27.504534" lon="-70.763565">
        <ele>182.129</ele>
        <time>2019-07-18T19:07:44Z</time>
      </trkpt>
      <trkpt lat="-27.504683" lon="-70.76375">
        <ele>182.544</ele>
        <time>2019-07-18T19:07:49Z</time>
      </trkpt>
      <trkpt lat="-27.504843" lon="-70.763916">
        <ele>182.306</ele>
        <time>2019-07-18T19:07:54Z</time>
      </trkpt>
      <trkpt lat="-27.504997" lon="-70.76406">
        <ele>182.357</ele>
        <time>2019-07-18T19:07:59Z</time>
      </trkpt>
      <trkpt lat="-27.505148" lon="-70.76421">
        <ele>182.52</ele>
        <time>2019-07-18T19:08:04Z</time>
      </trkpt>
      <trkpt lat="-27.505283" lon="-70.76438">
        <ele>182.623</ele>
        <time>2019-07-18T19:08:09Z</time>
      </trkpt>
      <trkpt lat="-27.505428" lon="-70.76454">
        <ele>182.563</ele>
        <time>2019-07-18T19:08:14Z</time>
      </trkpt>
      <trkpt lat="-27.505577" lon="-70.76472">
        <ele>182.655</ele>
        <time>2019-07-18T19:08:19Z</time>
      </trkpt>
      <trkpt lat="-27.505733" lon="-70.76489">
        <ele>182.465</ele>
        <time>2019-07-18T19:08:24Z</time>
      </trkpt>
      <trkpt lat="-27.505896" lon="-70.76504">
        <ele>182.38</ele>
        <time>2019-07-18T19:08:29Z</time>
      </trkpt>
      <trkpt lat="-27.506021" lon="-70.7652">
        <ele>182.253</ele>
        <time>2019-07-18T19:08:34Z</time>
      </trkpt>
      <trkpt lat="-27.506165" lon="-70.76535">
        <ele>181.958</ele>
        <time>2019-07-18T19:08:39Z</time>
      </trkpt>
      <trkpt lat="-27.506311" lon="-70.76552">
        <ele>181.96</ele>
        <time>2019-07-18T19:08:44Z</time>
      </trkpt>
      <trkpt lat="-27.506468" lon="-70.76568">
        <ele>181.984</ele>
        <time>2019-07-18T19:08:49Z</time>
      </trkpt>
      <trkpt lat="-27.506632" lon="-70.76585">
        <ele>181.788</ele>
        <time>2019-07-18T19:08:54Z</time>
      </trkpt>
      <trkpt lat="-27.506802" lon="-70.76601">
        <ele>181.535</ele>
        <time>2019-07-18T19:08:59Z</time>
      </trkpt>
      <trkpt lat="-27.506989" lon="-70.766174">
        <ele>181.45</ele>
        <time>2019-07-18T19:09:04Z</time>
      </trkpt>
      <trkpt lat="-27.507177" lon="-70.766335">
        <ele>181.271</ele>
        <time>2019-07-18T19:09:09Z</time>
      </trkpt>
      <trkpt lat="-27.507349" lon="-70.7665">
        <ele>181.437</ele>
        <time>2019-07-18T19:09:14Z</time>
      </trkpt>
      <trkpt lat="-27.50752" lon="-70.766655">
        <ele>181.345</ele>
        <time>2019-07-18T19:09:19Z</time>
      </trkpt>
      <trkpt lat="-27.507694" lon="-70.7668">
        <ele>181.331</ele>
        <time>2019-07-18T19:09:24Z</time>
      </trkpt>
      <trkpt lat="-27.507875" lon="-70.76695">
        <ele>181.16</ele>
        <time>2019-07-18T19:09:29Z</time>
      </trkpt>
      <trkpt lat="-27.508066" lon="-70.76712">
        <ele>180.99</ele>
        <time>2019-07-18T19:09:34Z</time>
      </trkpt>
      <trkpt lat="-27.508251" lon="-70.76729">
        <ele>181.796</ele>
        <time>2019-07-18T19:09:40Z</time>
      </trkpt>
      <trkpt lat="-27.508425" lon="-70.76745">
        <ele>181.5</ele>
        <time>2019-07-18T19:09:45Z</time>
      </trkpt>
      <trkpt lat="-27.508566" lon="-70.76761">
        <ele>181.662</ele>
        <time>2019-07-18T19:09:50Z</time>
      </trkpt>
      <trkpt lat="-27.508696" lon="-70.76776">
        <ele>181.503</ele>
        <time>2019-07-18T19:09:55Z</time>
      </trkpt>
      <trkpt lat="-27.508821" lon="-70.76791">
        <ele>181.619</ele>
        <time>2019-07-18T19:10:00Z</time>
      </trkpt>
      <trkpt lat="-27.508966" lon="-70.76806">
        <ele>181.352</ele>
        <time>2019-07-18T19:10:05Z</time>
      </trkpt>
      <trkpt lat="-27.509127" lon="-70.76823">
        <ele>181.189</ele>
        <time>2019-07-18T19:10:10Z</time>
      </trkpt>
      <trkpt lat="-27.509275" lon="-70.76839">
        <ele>180.916</ele>
        <time>2019-07-18T19:10:15Z</time>
      </trkpt>
      <trkpt lat="-27.509401" lon="-70.76855">
        <ele>180.771</ele>
        <time>2019-07-18T19:10:20Z</time>
      </trkpt>
      <trkpt lat="-27.509539" lon="-70.76871">
        <ele>180.65</ele>
        <time>2019-07-18T19:10:25Z</time>
      </trkpt>
      <trkpt lat="-27.509697" lon="-70.768875">
        <ele>180.264</ele>
        <time>2019-07-18T19:10:30Z</time>
      </trkpt>
      <trkpt lat="-27.509846" lon="-70.769035">
        <ele>180.356</ele>
        <time>2019-07-18T19:10:35Z</time>
      </trkpt>
      <trkpt lat="-27.509987" lon="-70.769196">
        <ele>180.216</ele>
        <time>2019-07-18T19:10:40Z</time>
      </trkpt>
      <trkpt lat="-27.510126" lon="-70.769356">
        <ele>180.573</ele>
        <time>2019-07-18T19:10:45Z</time>
      </trkpt>
      <trkpt lat="-27.510267" lon="-70.76953">
        <ele>180.795</ele>
        <time>2019-07-18T19:10:50Z</time>
      </trkpt>
      <trkpt lat="-27.510399" lon="-70.769714">
        <ele>180.277</ele>
        <time>2019-07-18T19:10:55Z</time>
      </trkpt>
      <trkpt lat="-27.510534" lon="-70.76989">
        <ele>180.451</ele>
        <time>2019-07-18T19:11:00Z</time>
      </trkpt>
      <trkpt lat="-27.510647" lon="-70.77004">
        <ele>180.518</ele>
        <time>2019-07-18T19:11:05Z</time>
      </trkpt>
      <trkpt lat="-27.51079" lon="-70.770195">
        <ele>180.798</ele>
        <time>2019-07-18T19:11:10Z</time>
      </trkpt>
      <trkpt lat="-27.510937" lon="-70.77036">
        <ele>180.446</ele>
        <time>2019-07-18T19:11:15Z</time>
      </trkpt>
      <trkpt lat="-27.511095" lon="-70.77052">
        <ele>180.488</ele>
        <time>2019-07-18T19:11:20Z</time>
      </trkpt>
      <trkpt lat="-27.511251" lon="-70.7707">
        <ele>180.932</ele>
        <time>2019-07-18T19:11:25Z</time>
      </trkpt>
      <trkpt lat="-27.511417" lon="-70.77086">
        <ele>181.07</ele>
        <time>2019-07-18T19:11:30Z</time>
      </trkpt>
      <trkpt lat="-27.511576" lon="-70.77101">
        <ele>181.157</ele>
        <time>2019-07-18T19:11:35Z</time>
      </trkpt>
      <trkpt lat="-27.511702" lon="-70.77116">
        <ele>181.281</ele>
        <time>2019-07-18T19:11:40Z</time>
      </trkpt>
      <trkpt lat="-27.511827" lon="-70.77131">
        <ele>181.688</ele>
        <time>2019-07-18T19:11:45Z</time>
      </trkpt>
      <trkpt lat="-27.51195" lon="-70.77144">
        <ele>181.72</ele>
        <time>2019-07-18T19:11:50Z</time>
      </trkpt>
      <trkpt lat="-27.512045" lon="-70.77154">
        <ele>181.619</ele>
        <time>2019-07-18T19:11:55Z</time>
      </trkpt>
      <trkpt lat="-27.512157" lon="-70.77165">
        <ele>181.461</ele>
        <time>2019-07-18T19:12:00Z</time>
      </trkpt>
      <trkpt lat="-27.512287" lon="-70.771805">
        <ele>180.692</ele>
        <time>2019-07-18T19:12:05Z</time>
      </trkpt>
      <trkpt lat="-27.512438" lon="-70.771965">
        <ele>180.594</ele>
        <time>2019-07-18T19:12:10Z</time>
      </trkpt>
      <trkpt lat="-27.512596" lon="-70.77216">
        <ele>180.082</ele>
        <time>2019-07-18T19:12:15Z</time>
      </trkpt>
      <trkpt lat="-27.512754" lon="-70.77235">
        <ele>179.963</ele>
        <time>2019-07-18T19:12:20Z</time>
      </trkpt>
      <trkpt lat="-27.512907" lon="-70.772514">
        <ele>180.047</ele>
        <time>2019-07-18T19:12:25Z</time>
      </trkpt>
      <trkpt lat="-27.513044" lon="-70.77267">
        <ele>179.862</ele>
        <time>2019-07-18T19:12:30Z</time>
      </trkpt>
      <trkpt lat="-27.513191" lon="-70.77283">
        <ele>180.008</ele>
        <time>2019-07-18T19:12:35Z</time>
      </trkpt>
      <trkpt lat="-27.513357" lon="-70.773">
        <ele>179.759</ele>
        <time>2019-07-18T19:12:40Z</time>
      </trkpt>
      <trkpt lat="-27.513517" lon="-70.77318">
        <ele>179.915</ele>
        <time>2019-07-18T19:12:45Z</time>
      </trkpt>
      <trkpt lat="-27.513683" lon="-70.77335">
        <ele>179.825</ele>
        <time>2019-07-18T19:12:50Z</time>
      </trkpt>
      <trkpt lat="-27.513844" lon="-70.77353">
        <ele>180.126</ele>
        <time>2019-07-18T19:12:55Z</time>
      </trkpt>
      <trkpt lat="-27.514006" lon="-70.773705">
        <ele>180.539</ele>
        <time>2019-07-18T19:13:00Z</time>
      </trkpt>
      <trkpt lat="-27.514162" lon="-70.773865">
        <ele>181.054</ele>
        <time>2019-07-18T19:13:05Z</time>
      </trkpt>
      <trkpt lat="-27.514294" lon="-70.774025">
        <ele>181.117</ele>
        <time>2019-07-18T19:13:10Z</time>
      </trkpt>
      <trkpt lat="-27.514446" lon="-70.7742">
        <ele>180.948</ele>
        <time>2019-07-18T19:13:15Z</time>
      </trkpt>
      <trkpt lat="-27.514555" lon="-70.774345">
        <ele>181.313</ele>
        <time>2019-07-18T19:13:20Z</time>
      </trkpt>
      <trkpt lat="-27.514698" lon="-70.77449">
        <ele>181.07</ele>
        <time>2019-07-18T19:13:25Z</time>
      </trkpt>
      <trkpt lat="-27.514917" lon="-70.77474">
        <ele>180.739</ele>
        <time>2019-07-18T19:13:34Z</time>
      </trkpt>
      <trkpt lat="-27.515028" lon="-70.77487">
        <ele>180.428</ele>
        <time>2019-07-18T19:13:39Z</time>
      </trkpt>
      <trkpt lat="-27.515135" lon="-70.775">
        <ele>180.24</ele>
        <time>2019-07-18T19:13:44Z</time>
      </trkpt>
      <trkpt lat="-27.51524" lon="-70.77515">
        <ele>180.045</ele>
        <time>2019-07-18T19:13:49Z</time>
      </trkpt>
      <trkpt lat="-27.515362" lon="-70.7753">
        <ele>179.825</ele>
        <time>2019-07-18T19:13:54Z</time>
      </trkpt>
      <trkpt lat="-27.515478" lon="-70.77547">
        <ele>179.743</ele>
        <time>2019-07-18T19:13:59Z</time>
      </trkpt>
      <trkpt lat="-27.515604" lon="-70.77563">
        <ele>179.413</ele>
        <time>2019-07-18T19:14:04Z</time>
      </trkpt>
      <trkpt lat="-27.515745" lon="-70.77583">
        <ele>179.609</ele>
        <time>2019-07-18T19:14:09Z</time>
      </trkpt>
      <trkpt lat="-27.515879" lon="-70.77605">
        <ele>179.392</ele>
        <time>2019-07-18T19:14:14Z</time>
      </trkpt>
      <trkpt lat="-27.516012" lon="-70.776245">
        <ele>179.22</ele>
        <time>2019-07-18T19:14:19Z</time>
      </trkpt>
      <trkpt lat="-27.51614" lon="-70.77645">
        <ele>178.602</ele>
        <time>2019-07-18T19:14:24Z</time>
      </trkpt>
      <trkpt lat="-27.516287" lon="-70.77667">
        <ele>178.948</ele>
        <time>2019-07-18T19:14:29Z</time>
      </trkpt>
      <trkpt lat="-27.516438" lon="-70.776886">
        <ele>178.427</ele>
        <time>2019-07-18T19:14:34Z</time>
      </trkpt>
      <trkpt lat="-27.516598" lon="-70.77712">
        <ele>178.56</ele>
        <time>2019-07-18T19:14:39Z</time>
      </trkpt>
      <trkpt lat="-27.516737" lon="-70.77736">
        <ele>178.615</ele>
        <time>2019-07-18T19:14:44Z</time>
      </trkpt>
      <trkpt lat="-27.51688" lon="-70.77759">
        <ele>178.248</ele>
        <time>2019-07-18T19:14:49Z</time>
      </trkpt>
      <trkpt lat="-27.517023" lon="-70.77781">
        <ele>178.937</ele>
        <time>2019-07-18T19:14:54Z</time>
      </trkpt>
      <trkpt lat="-27.51716" lon="-70.77803">
        <ele>178.174</ele>
        <time>2019-07-18T19:14:59Z</time>
      </trkpt>
      <trkpt lat="-27.517282" lon="-70.77821">
        <ele>178.1</ele>
        <time>2019-07-18T19:15:04Z</time>
      </trkpt>
      <trkpt lat="-27.517399" lon="-70.77837">
        <ele>177.593</ele>
        <time>2019-07-18T19:15:09Z</time>
      </trkpt>
      <trkpt lat="-27.517529" lon="-70.77855">
        <ele>177.09</ele>
        <time>2019-07-18T19:15:14Z</time>
      </trkpt>
      <trkpt lat="-27.517662" lon="-70.77871">
        <ele>176.966</ele>
        <time>2019-07-18T19:15:19Z</time>
      </trkpt>
      <trkpt lat="-27.51781" lon="-70.77888">
        <ele>176.448</ele>
        <time>2019-07-18T19:15:24Z</time>
      </trkpt>
      <trkpt lat="-27.517958" lon="-70.77904">
        <ele>176.282</ele>
        <time>2019-07-18T19:15:29Z</time>
      </trkpt>
      <trkpt lat="-27.518105" lon="-70.77918">
        <ele>175.872</ele>
        <time>2019-07-18T19:15:34Z</time>
      </trkpt>
      <trkpt lat="-27.518261" lon="-70.77936">
        <ele>175.03</ele>
        <time>2019-07-18T19:15:39Z</time>
      </trkpt>
      <trkpt lat="-27.518454" lon="-70.77957">
        <ele>174.084</ele>
        <time>2019-07-18T19:15:44Z</time>
      </trkpt>
      <trkpt lat="-27.518686" lon="-70.77983">
        <ele>173.719</ele>
        <time>2019-07-18T19:15:49Z</time>
      </trkpt>
      <trkpt lat="-27.5189" lon="-70.78008">
        <ele>173.328</ele>
        <time>2019-07-18T19:15:54Z</time>
      </trkpt>
      <trkpt lat="-27.519096" lon="-70.78031">
        <ele>173.386</ele>
        <time>2019-07-18T19:15:58Z</time>
      </trkpt>
      <trkpt lat="-27.51929" lon="-70.78054">
        <ele>172.686</ele>
        <time>2019-07-18T19:16:03Z</time>
      </trkpt>
      <trkpt lat="-27.519482" lon="-70.780754">
        <ele>172.755</ele>
        <time>2019-07-18T19:16:08Z</time>
      </trkpt>
      <trkpt lat="-27.519663" lon="-70.78096">
        <ele>172.509</ele>
        <time>2019-07-18T19:16:13Z</time>
      </trkpt>
      <trkpt lat="-27.51983" lon="-70.78117">
        <ele>172.266</ele>
        <time>2019-07-18T19:16:18Z</time>
      </trkpt>
      <trkpt lat="-27.520002" lon="-70.781364">
        <ele>172.06</ele>
        <time>2019-07-18T19:16:23Z</time>
      </trkpt>
      <trkpt lat="-27.520157" lon="-70.78155">
        <ele>172.252</ele>
        <time>2019-07-18T19:16:28Z</time>
      </trkpt>
      <trkpt lat="-27.520317" lon="-70.78171">
        <ele>172.004</ele>
        <time>2019-07-18T19:16:33Z</time>
      </trkpt>
      <trkpt lat="-27.520473" lon="-70.78186">
        <ele>172.178</ele>
        <time>2019-07-18T19:16:38Z</time>
      </trkpt>
      <trkpt lat="-27.520754" lon="-70.78216">
        <ele>171.967</ele>
        <time>2019-07-18T19:16:48Z</time>
      </trkpt>
      <trkpt lat="-27.520908" lon="-70.782326">
        <ele>172.202</ele>
        <time>2019-07-18T19:16:53Z</time>
      </trkpt>
      <trkpt lat="-27.521051" lon="-70.78249">
        <ele>172.231</ele>
        <time>2019-07-18T19:16:58Z</time>
      </trkpt>
      <trkpt lat="-27.521217" lon="-70.782684">
        <ele>172.641</ele>
        <time>2019-07-18T19:17:03Z</time>
      </trkpt>
      <trkpt lat="-27.5214" lon="-70.78288">
        <ele>173.28</ele>
        <time>2019-07-18T19:17:11Z</time>
      </trkpt>
      <trkpt lat="-27.521536" lon="-70.78303">
        <ele>173.999</ele>
        <time>2019-07-18T19:17:16Z</time>
      </trkpt>
      <trkpt lat="-27.52165" lon="-70.783165">
        <ele>174.594</ele>
        <time>2019-07-18T19:17:21Z</time>
      </trkpt>
      <trkpt lat="-27.521738" lon="-70.78328">
        <ele>174.218</ele>
        <time>2019-07-18T19:17:26Z</time>
      </trkpt>
      <trkpt lat="-27.521835" lon="-70.7834">
        <ele>174.21</ele>
        <time>2019-07-18T19:17:31Z</time>
      </trkpt>
      <trkpt lat="-27.52195" lon="-70.78356">
        <ele>174.411</ele>
        <time>2019-07-18T19:17:36Z</time>
      </trkpt>
      <trkpt lat="-27.522081" lon="-70.783745">
        <ele>174.335</ele>
        <time>2019-07-18T19:17:41Z</time>
      </trkpt>
      <trkpt lat="-27.522194" lon="-70.7839">
        <ele>174.38</ele>
        <time>2019-07-18T19:17:46Z</time>
      </trkpt>
      <trkpt lat="-27.52226" lon="-70.784004">
        <ele>174.475</ele>
        <time>2019-07-18T19:17:51Z</time>
      </trkpt>
      <trkpt lat="-27.522377" lon="-70.78421">
        <ele>174.464</ele>
        <time>2019-07-18T19:17:58Z</time>
      </trkpt>
      <trkpt lat="-27.522482" lon="-70.78438">
        <ele>174.586</ele>
        <time>2019-07-18T19:18:03Z</time>
      </trkpt>
      <trkpt lat="-27.522572" lon="-70.784546">
        <ele>174.261</ele>
        <time>2019-07-18T19:18:08Z</time>
      </trkpt>
      <trkpt lat="-27.522673" lon="-70.78471">
        <ele>174.393</ele>
        <time>2019-07-18T19:18:13Z</time>
      </trkpt>
      <trkpt lat="-27.52278" lon="-70.78489">
        <ele>173.938</ele>
        <time>2019-07-18T19:18:18Z</time>
      </trkpt>
      <trkpt lat="-27.522886" lon="-70.78507">
        <ele>173.814</ele>
        <time>2019-07-18T19:18:23Z</time>
      </trkpt>
      <trkpt lat="-27.522995" lon="-70.78525">
        <ele>173.93</ele>
        <time>2019-07-18T19:18:28Z</time>
      </trkpt>
      <trkpt lat="-27.523088" lon="-70.78543">
        <ele>174.173</ele>
        <time>2019-07-18T19:18:33Z</time>
      </trkpt>
      <trkpt lat="-27.523176" lon="-70.78558">
        <ele>174.303</ele>
        <time>2019-07-18T19:18:38Z</time>
      </trkpt>
      <trkpt lat="-27.523254" lon="-70.78573">
        <ele>174.541</ele>
        <time>2019-07-18T19:18:43Z</time>
      </trkpt>
      <trkpt lat="-27.52333" lon="-70.78587">
        <ele>174.609</ele>
        <time>2019-07-18T19:18:48Z</time>
      </trkpt>
      <trkpt lat="-27.523413" lon="-70.78601">
        <ele>174.578</ele>
        <time>2019-07-18T19:18:53Z</time>
      </trkpt>
      <trkpt lat="-27.523497" lon="-70.786156">
        <ele>174.921</ele>
        <time>2019-07-18T19:18:58Z</time>
      </trkpt>
      <trkpt lat="-27.523582" lon="-70.78631">
        <ele>175.196</ele>
        <time>2019-07-18T19:19:03Z</time>
      </trkpt>
      <trkpt lat="-27.523663" lon="-70.78646">
        <ele>175.463</ele>
        <time>2019-07-18T19:19:08Z</time>
      </trkpt>
      <trkpt lat="-27.523745" lon="-70.786606">
        <ele>175.896</ele>
        <time>2019-07-18T19:19:13Z</time>
      </trkpt>
      <trkpt lat="-27.523825" lon="-70.78674">
        <ele>176.234</ele>
        <time>2019-07-18T19:19:18Z</time>
      </trkpt>
      <trkpt lat="-27.523897" lon="-70.78688">
        <ele>176.464</ele>
        <time>2019-07-18T19:19:23Z</time>
      </trkpt>
      <trkpt lat="-27.523977" lon="-70.78702">
        <ele>176.38</ele>
        <time>2019-07-18T19:19:28Z</time>
      </trkpt>
      <trkpt lat="-27.52406" lon="-70.787155">
        <ele>176.393</ele>
        <time>2019-07-18T19:19:33Z</time>
      </trkpt>
      <trkpt lat="-27.524143" lon="-70.78731">
        <ele>176.187</ele>
        <time>2019-07-18T19:19:38Z</time>
      </trkpt>
      <trkpt lat="-27.524214" lon="-70.78744">
        <ele>176.189</ele>
        <time>2019-07-18T19:19:43Z</time>
      </trkpt>
      <trkpt lat="-27.524279" lon="-70.78754">
        <ele>175.687</ele>
        <time>2019-07-18T19:19:48Z</time>
      </trkpt>
      <trkpt lat="-27.524384" lon="-70.787674">
        <ele>174.731</ele>
        <time>2019-07-18T19:19:53Z</time>
      </trkpt>
      <trkpt lat="-27.524492" lon="-70.787834">
        <ele>174.382</ele>
        <time>2019-07-18T19:19:58Z</time>
      </trkpt>
      <trkpt lat="-27.52464" lon="-70.78801">
        <ele>173.621</ele>
        <time>2019-07-18T19:20:03Z</time>
      </trkpt>
      <trkpt lat="-27.524784" lon="-70.78817">
        <ele>173.283</ele>
        <time>2019-07-18T19:20:08Z</time>
      </trkpt>
      <trkpt lat="-27.524942" lon="-70.78834">
        <ele>173.135</ele>
        <time>2019-07-18T19:20:13Z</time>
      </trkpt>
      <trkpt lat="-27.525103" lon="-70.7885">
        <ele>173.006</ele>
        <time>2019-07-18T19:20:18Z</time>
      </trkpt>
      <trkpt lat="-27.525257" lon="-70.78864">
        <ele>172.527</ele>
        <time>2019-07-18T19:20:22Z</time>
      </trkpt>
      <trkpt lat="-27.525434" lon="-70.788765">
        <ele>172.2</ele>
        <time>2019-07-18T19:20:27Z</time>
      </trkpt>
      <trkpt lat="-27.525633" lon="-70.788895">
        <ele>171.787</ele>
        <time>2019-07-18T19:20:32Z</time>
      </trkpt>
      <trkpt lat="-27.525826" lon="-70.78901">
        <ele>171.55</ele>
        <time>2019-07-18T19:20:37Z</time>
      </trkpt>
      <trkpt lat="-27.526009" lon="-70.78912">
        <ele>171.18</ele>
        <time>2019-07-18T19:20:42Z</time>
      </trkpt>
      <trkpt lat="-27.52619" lon="-70.789246">
        <ele>171.032</ele>
        <time>2019-07-18T19:20:47Z</time>
      </trkpt>
      <trkpt lat="-27.52637" lon="-70.789375">
        <ele>170.374</ele>
        <time>2019-07-18T19:20:52Z</time>
      </trkpt>
      <trkpt lat="-27.526659" lon="-70.789604">
        <ele>170.128</ele>
        <time>2019-07-18T19:21:02Z</time>
      </trkpt>
      <trkpt lat="-27.526812" lon="-70.78975">
        <ele>169.793</ele>
        <time>2019-07-18T19:21:07Z</time>
      </trkpt>
      <trkpt lat="-27.52698" lon="-70.78991">
        <ele>169.444</ele>
        <time>2019-07-18T19:21:12Z</time>
      </trkpt>
      <trkpt lat="-27.527163" lon="-70.79008">
        <ele>168.965</ele>
        <time>2019-07-18T19:21:17Z</time>
      </trkpt>
      <trkpt lat="-27.527359" lon="-70.79026">
        <ele>169.404</ele>
        <time>2019-07-18T19:21:22Z</time>
      </trkpt>
      <trkpt lat="-27.527534" lon="-70.79044">
        <ele>169.425</ele>
        <time>2019-07-18T19:21:27Z</time>
      </trkpt>
      <trkpt lat="-27.527702" lon="-70.79061">
        <ele>168.794</ele>
        <time>2019-07-18T19:21:32Z</time>
      </trkpt>
      <trkpt lat="-27.52784" lon="-70.79078">
        <ele>169.275</ele>
        <time>2019-07-18T19:21:37Z</time>
      </trkpt>
      <trkpt lat="-27.527973" lon="-70.79096">
        <ele>170.128</ele>
        <time>2019-07-18T19:21:42Z</time>
      </trkpt>
      <trkpt lat="-27.528103" lon="-70.79112">
        <ele>170.136</ele>
        <time>2019-07-18T19:21:47Z</time>
      </trkpt>
      <trkpt lat="-27.5282" lon="-70.79126">
        <ele>170.847</ele>
        <time>2019-07-18T19:21:52Z</time>
      </trkpt>
      <trkpt lat="-27.528292" lon="-70.7914">
        <ele>171.188</ele>
        <time>2019-07-18T19:21:57Z</time>
      </trkpt>
      <trkpt lat="-27.528383" lon="-70.79152">
        <ele>171.579</ele>
        <time>2019-07-18T19:22:02Z</time>
      </trkpt>
      <trkpt lat="-27.52849" lon="-70.79166">
        <ele>171.877</ele>
        <time>2019-07-18T19:22:07Z</time>
      </trkpt>
      <trkpt lat="-27.528566" lon="-70.791756">
        <ele>171.457</ele>
        <time>2019-07-18T19:22:12Z</time>
      </trkpt>
      <trkpt lat="-27.528606" lon="-70.79184">
        <ele>171.222</ele>
        <time>2019-07-18T19:22:17Z</time>
      </trkpt>
      <trkpt lat="-27.52864" lon="-70.79188">
        <ele>171.917</ele>
        <time>2019-07-18T19:22:22Z</time>
      </trkpt>
      <trkpt lat="-27.528763" lon="-70.79199">
        <ele>171.579</ele>
        <time>2019-07-18T19:25:53Z</time>
      </trkpt>
      <trkpt lat="-27.52881" lon="-70.79206">
        <ele>172.186</ele>
        <time>2019-07-18T19:25:58Z</time>
      </trkpt>
      <trkpt lat="-27.528961" lon="-70.79222">
        <ele>171.608</ele>
        <time>2019-07-18T19:26:17Z</time>
      </trkpt>
      <trkpt lat="-27.529032" lon="-70.7923">
        <ele>171.301</ele>
        <time>2019-07-18T19:26:22Z</time>
      </trkpt>
      <trkpt lat="-27.529146" lon="-70.79242">
        <ele>171.021</ele>
        <time>2019-07-18T19:26:27Z</time>
      </trkpt>
      <trkpt lat="-27.529272" lon="-70.792564">
        <ele>170.707</ele>
        <time>2019-07-18T19:26:32Z</time>
      </trkpt>
      <trkpt lat="-27.529404" lon="-70.792725">
        <ele>170.989</ele>
        <time>2019-07-18T19:26:37Z</time>
      </trkpt>
      <trkpt lat="-27.529547" lon="-70.7929">
        <ele>170.847</ele>
        <time>2019-07-18T19:26:42Z</time>
      </trkpt>
      <trkpt lat="-27.529675" lon="-70.79307">
        <ele>171.328</ele>
        <time>2019-07-18T19:26:47Z</time>
      </trkpt>
      <trkpt lat="-27.529802" lon="-70.79323">
        <ele>171.637</ele>
        <time>2019-07-18T19:26:52Z</time>
      </trkpt>
      <trkpt lat="-27.529917" lon="-70.79337">
        <ele>171.954</ele>
        <time>2019-07-18T19:26:57Z</time>
      </trkpt>
      <trkpt lat="-27.53004" lon="-70.79353">
        <ele>172.35</ele>
        <time>2019-07-18T19:27:02Z</time>
      </trkpt>
      <trkpt lat="-27.530169" lon="-70.7937">
        <ele>172.715</ele>
        <time>2019-07-18T19:27:07Z</time>
      </trkpt>
      <trkpt lat="-27.5303" lon="-70.79387">
        <ele>172.406</ele>
        <time>2019-07-18T19:27:12Z</time>
      </trkpt>
      <trkpt lat="-27.530426" lon="-70.79403">
        <ele>172.247</ele>
        <time>2019-07-18T19:27:19Z</time>
      </trkpt>
      <trkpt lat="-27.53055" lon="-70.79419">
        <ele>172.078</ele>
        <time>2019-07-18T19:27:24Z</time>
      </trkpt>
      <trkpt lat="-27.530676" lon="-70.79436">
        <ele>172.163</ele>
        <time>2019-07-18T19:27:29Z</time>
      </trkpt>
      <trkpt lat="-27.530792" lon="-70.7945">
        <ele>171.869</ele>
        <time>2019-07-18T19:27:34Z</time>
      </trkpt>
      <trkpt lat="-27.530918" lon="-70.79466">
        <ele>172.025</ele>
        <time>2019-07-18T19:27:39Z</time>
      </trkpt>
      <trkpt lat="-27.531044" lon="-70.79483">
        <ele>172.015</ele>
        <time>2019-07-18T19:27:44Z</time>
      </trkpt>
      <trkpt lat="-27.531189" lon="-70.79501">
        <ele>172.089</ele>
        <time>2019-07-18T19:27:49Z</time>
      </trkpt>
      <trkpt lat="-27.531322" lon="-70.79518">
        <ele>172.083</ele>
        <time>2019-07-18T19:27:54Z</time>
      </trkpt>
      <trkpt lat="-27.531456" lon="-70.79536">
        <ele>171.785</ele>
        <time>2019-07-18T19:27:59Z</time>
      </trkpt>
      <trkpt lat="-27.531595" lon="-70.79553">
        <ele>172.252</ele>
        <time>2019-07-18T19:28:04Z</time>
      </trkpt>
      <trkpt lat="-27.531736" lon="-70.79571">
        <ele>172.231</ele>
        <time>2019-07-18T19:28:09Z</time>
      </trkpt>
      <trkpt lat="-27.531872" lon="-70.795876">
        <ele>172.316</ele>
        <time>2019-07-18T19:28:14Z</time>
      </trkpt>
      <trkpt lat="-27.532019" lon="-70.79605">
        <ele>171.97</ele>
        <time>2019-07-18T19:28:19Z</time>
      </trkpt>
      <trkpt lat="-27.532158" lon="-70.79622">
        <ele>172.205</ele>
        <time>2019-07-18T19:28:24Z</time>
      </trkpt>
      <trkpt lat="-27.532295" lon="-70.79638">
        <ele>171.912</ele>
        <time>2019-07-18T19:28:29Z</time>
      </trkpt>
      <trkpt lat="-27.532404" lon="-70.79652">
        <ele>172.25</ele>
        <time>2019-07-18T19:28:34Z</time>
      </trkpt>
      <trkpt lat="-27.532522" lon="-70.79665">
        <ele>171.864</ele>
        <time>2019-07-18T19:28:39Z</time>
      </trkpt>
      <trkpt lat="-27.532726" lon="-70.7969">
        <ele>171.61</ele>
        <time>2019-07-18T19:28:47Z</time>
      </trkpt>
      <trkpt lat="-27.532864" lon="-70.797066">
        <ele>171.695</ele>
        <time>2019-07-18T19:28:52Z</time>
      </trkpt>
      <trkpt lat="-27.533005" lon="-70.797226">
        <ele>171.608</ele>
        <time>2019-07-18T19:28:57Z</time>
      </trkpt>
      <trkpt lat="-27.53315" lon="-70.79741">
        <ele>171.774</ele>
        <time>2019-07-18T19:29:02Z</time>
      </trkpt>
      <trkpt lat="-27.533285" lon="-70.797585">
        <ele>171.486</ele>
        <time>2019-07-18T19:29:07Z</time>
      </trkpt>
      <trkpt lat="-27.533426" lon="-70.79776">
        <ele>171.188</ele>
        <time>2019-07-18T19:29:12Z</time>
      </trkpt>
      <trkpt lat="-27.533562" lon="-70.79795">
        <ele>171.259</ele>
        <time>2019-07-18T19:29:17Z</time>
      </trkpt>
      <trkpt lat="-27.533688" lon="-70.79815">
        <ele>171.159</ele>
        <time>2019-07-18T19:29:22Z</time>
      </trkpt>
      <trkpt lat="-27.533817" lon="-70.79834">
        <ele>170.897</ele>
        <time>2019-07-18T19:29:27Z</time>
      </trkpt>
      <trkpt lat="-27.53393" lon="-70.79852">
        <ele>171.235</ele>
        <time>2019-07-18T19:29:32Z</time>
      </trkpt>
      <trkpt lat="-27.534052" lon="-70.798706">
        <ele>171.14</ele>
        <time>2019-07-18T19:29:37Z</time>
      </trkpt>
      <trkpt lat="-27.534166" lon="-70.79889">
        <ele>171.256</ele>
        <time>2019-07-18T19:29:42Z</time>
      </trkpt>
      <trkpt lat="-27.534279" lon="-70.79906">
        <ele>171.106</ele>
        <time>2019-07-18T19:29:47Z</time>
      </trkpt>
      <trkpt lat="-27.53439" lon="-70.79924">
        <ele>171.198</ele>
        <time>2019-07-18T19:29:52Z</time>
      </trkpt>
      <trkpt lat="-27.534502" lon="-70.799416">
        <ele>171.225</ele>
        <time>2019-07-18T19:29:57Z</time>
      </trkpt>
      <trkpt lat="-27.53461" lon="-70.79959">
        <ele>171.227</ele>
        <time>2019-07-18T19:30:02Z</time>
      </trkpt>
      <trkpt lat="-27.534708" lon="-70.79974">
        <ele>171.045</ele>
        <time>2019-07-18T19:30:07Z</time>
      </trkpt>
      <trkpt lat="-27.534815" lon="-70.79991">
        <ele>170.791</ele>
        <time>2019-07-18T19:30:12Z</time>
      </trkpt>
      <trkpt lat="-27.534918" lon="-70.800095">
        <ele>170.678</ele>
        <time>2019-07-18T19:30:17Z</time>
      </trkpt>
      <trkpt lat="-27.53503" lon="-70.800285">
        <ele>170.149</ele>
        <time>2019-07-18T19:30:22Z</time>
      </trkpt>
      <trkpt lat="-27.535149" lon="-70.80051">
        <ele>170.044</ele>
        <time>2019-07-18T19:30:27Z</time>
      </trkpt>
      <trkpt lat="-27.53527" lon="-70.80074">
        <ele>169.473</ele>
        <time>2019-07-18T19:30:32Z</time>
      </trkpt>
      <trkpt lat="-27.535398" lon="-70.800995">
        <ele>169.206</ele>
        <time>2019-07-18T19:30:37Z</time>
      </trkpt>
      <trkpt lat="-27.535534" lon="-70.80124">
        <ele>168.86</ele>
        <time>2019-07-18T19:30:42Z</time>
      </trkpt>
      <trkpt lat="-27.535648" lon="-70.801476">
        <ele>169.055</ele>
        <time>2019-07-18T19:30:47Z</time>
      </trkpt>
      <trkpt lat="-27.53575" lon="-70.801674">
        <ele>169.187</ele>
        <time>2019-07-18T19:30:52Z</time>
      </trkpt>
      <trkpt lat="-27.535852" lon="-70.80187">
        <ele>169.039</ele>
        <time>2019-07-18T19:30:57Z</time>
      </trkpt>
      <trkpt lat="-27.535954" lon="-70.80207">
        <ele>169.51</ele>
        <time>2019-07-18T19:31:02Z</time>
      </trkpt>
      <trkpt lat="-27.536053" lon="-70.80227">
        <ele>170.125</ele>
        <time>2019-07-18T19:31:07Z</time>
      </trkpt>
      <trkpt lat="-27.53626" lon="-70.80266">
        <ele>170.001</ele>
        <time>2019-07-18T19:31:16Z</time>
      </trkpt>
      <trkpt lat="-27.536339" lon="-70.80282">
        <ele>170.178</ele>
        <time>2019-07-18T19:31:21Z</time>
      </trkpt>
      <trkpt lat="-27.536425" lon="-70.802956">
        <ele>169.962</ele>
        <time>2019-07-18T19:31:26Z</time>
      </trkpt>
      <trkpt lat="-27.536512" lon="-70.803116">
        <ele>169.407</ele>
        <time>2019-07-18T19:31:31Z</time>
      </trkpt>
      <trkpt lat="-27.536623" lon="-70.80332">
        <ele>169.486</ele>
        <time>2019-07-18T19:31:36Z</time>
      </trkpt>
      <trkpt lat="-27.536741" lon="-70.803535">
        <ele>169.341</ele>
        <time>2019-07-18T19:31:41Z</time>
      </trkpt>
      <trkpt lat="-27.536854" lon="-70.80374">
        <ele>169.317</ele>
        <time>2019-07-18T19:31:46Z</time>
      </trkpt>
      <trkpt lat="-27.536963" lon="-70.80394">
        <ele>169.613</ele>
        <time>2019-07-18T19:31:51Z</time>
      </trkpt>
      <trkpt lat="-27.53707" lon="-70.804146">
        <ele>169.565</ele>
        <time>2019-07-18T19:31:56Z</time>
      </trkpt>
      <trkpt lat="-27.537167" lon="-70.80432">
        <ele>169.655</ele>
        <time>2019-07-18T19:32:01Z</time>
      </trkpt>
      <trkpt lat="-27.537268" lon="-70.80449">
        <ele>169.837</ele>
        <time>2019-07-18T19:32:06Z</time>
      </trkpt>
      <trkpt lat="-27.537369" lon="-70.804665">
        <ele>169.779</ele>
        <time>2019-07-18T19:32:11Z</time>
      </trkpt>
      <trkpt lat="-27.53746" lon="-70.80485">
        <ele>169.684</ele>
        <time>2019-07-18T19:32:16Z</time>
      </trkpt>
      <trkpt lat="-27.53756" lon="-70.80502">
        <ele>169.901</ele>
        <time>2019-07-18T19:32:21Z</time>
      </trkpt>
      <trkpt lat="-27.537716" lon="-70.8053">
        <ele>170.104</ele>
        <time>2019-07-18T19:32:30Z</time>
      </trkpt>
      <trkpt lat="-27.5378" lon="-70.80544">
        <ele>169.925</ele>
        <time>2019-07-18T19:32:35Z</time>
      </trkpt>
      <trkpt lat="-27.537868" lon="-70.80555">
        <ele>170.03</ele>
        <time>2019-07-18T19:32:40Z</time>
      </trkpt>
      <trkpt lat="-27.537933" lon="-70.80564">
        <ele>170.21</ele>
        <time>2019-07-18T19:32:45Z</time>
      </trkpt>
      <trkpt lat="-27.538013" lon="-70.805756">
        <ele>170.649</ele>
        <time>2019-07-18T19:32:50Z</time>
      </trkpt>
      <trkpt lat="-27.538092" lon="-70.80587">
        <ele>170.363</ele>
        <time>2019-07-18T19:32:55Z</time>
      </trkpt>
      <trkpt lat="-27.538174" lon="-70.80599">
        <ele>171.267</ele>
        <time>2019-07-18T19:33:00Z</time>
      </trkpt>
      <trkpt lat="-27.538252" lon="-70.80611">
        <ele>171.465</ele>
        <time>2019-07-18T19:33:05Z</time>
      </trkpt>
      <trkpt lat="-27.538332" lon="-70.80622">
        <ele>171.743</ele>
        <time>2019-07-18T19:33:10Z</time>
      </trkpt>
      <trkpt lat="-27.538414" lon="-70.806335">
        <ele>172.424</ele>
        <time>2019-07-18T19:33:15Z</time>
      </trkpt>
      <trkpt lat="-27.538502" lon="-70.80645">
        <ele>172.926</ele>
        <time>2019-07-18T19:33:20Z</time>
      </trkpt>
      <trkpt lat="-27.538586" lon="-70.806564">
        <ele>173.626</ele>
        <time>2019-07-18T19:33:25Z</time>
      </trkpt>
      <trkpt lat="-27.53867" lon="-70.80666">
        <ele>174.572</ele>
        <time>2019-07-18T19:33:30Z</time>
      </trkpt>
      <trkpt lat="-27.538805" lon="-70.80685">
        <ele>174.903</ele>
        <time>2019-07-18T19:33:39Z</time>
      </trkpt>
      <trkpt lat="-27.538897" lon="-70.80697">
        <ele>175.484</ele>
        <time>2019-07-18T19:33:44Z</time>
      </trkpt>
      <trkpt lat="-27.538963" lon="-70.80706">
        <ele>176.063</ele>
        <time>2019-07-18T19:33:49Z</time>
      </trkpt>
      <trkpt lat="-27.539024" lon="-70.80715">
        <ele>176.644</ele>
        <time>2019-07-18T19:33:54Z</time>
      </trkpt>
      <trkpt lat="-27.539108" lon="-70.80724">
        <ele>177.157</ele>
        <time>2019-07-18T19:33:59Z</time>
      </trkpt>
      <trkpt lat="-27.539183" lon="-70.80734">
        <ele>177.875</ele>
        <time>2019-07-18T19:34:04Z</time>
      </trkpt>
      <trkpt lat="-27.539268" lon="-70.80743">
        <ele>178.248</ele>
        <time>2019-07-18T19:34:09Z</time>
      </trkpt>
      <trkpt lat="-27.539358" lon="-70.807526">
        <ele>178.779</ele>
        <time>2019-07-18T19:34:14Z</time>
      </trkpt>
      <trkpt lat="-27.539444" lon="-70.80762">
        <ele>179.199</ele>
        <time>2019-07-18T19:34:19Z</time>
      </trkpt>
      <trkpt lat="-27.539528" lon="-70.80772">
        <ele>179.881</ele>
        <time>2019-07-18T19:34:24Z</time>
      </trkpt>
      <trkpt lat="-27.539614" lon="-70.807816">
        <ele>180.06</ele>
        <time>2019-07-18T19:34:29Z</time>
      </trkpt>
      <trkpt lat="-27.539701" lon="-70.8079">
        <ele>180.2</ele>
        <time>2019-07-18T19:34:34Z</time>
      </trkpt>
      <trkpt lat="-27.5398" lon="-70.80801">
        <ele>180.325</ele>
        <time>2019-07-18T19:34:39Z</time>
      </trkpt>
      <trkpt lat="-27.539892" lon="-70.8081">
        <ele>180.52</ele>
        <time>2019-07-18T19:34:44Z</time>
      </trkpt>
      <trkpt lat="-27.539995" lon="-70.80821">
        <ele>180.935</ele>
        <time>2019-07-18T19:34:49Z</time>
      </trkpt>
      <trkpt lat="-27.540087" lon="-70.80831">
        <ele>180.967</ele>
        <time>2019-07-18T19:34:54Z</time>
      </trkpt>
      <trkpt lat="-27.540173" lon="-70.80841">
        <ele>181.004</ele>
        <time>2019-07-18T19:34:59Z</time>
      </trkpt>
      <trkpt lat="-27.540249" lon="-70.80851">
        <ele>181.334</ele>
        <time>2019-07-18T19:35:04Z</time>
      </trkpt>
      <trkpt lat="-27.540316" lon="-70.808624">
        <ele>181.413</ele>
        <time>2019-07-18T19:35:09Z</time>
      </trkpt>
      <trkpt lat="-27.540386" lon="-70.80877">
        <ele>181.825</ele>
        <time>2019-07-18T19:35:14Z</time>
      </trkpt>
      <trkpt lat="-27.54044" lon="-70.80887">
        <ele>181.799</ele>
        <time>2019-07-18T19:35:19Z</time>
      </trkpt>
      <trkpt lat="-27.540491" lon="-70.808975">
        <ele>182.0</ele>
        <time>2019-07-18T19:35:24Z</time>
      </trkpt>
      <trkpt lat="-27.540516" lon="-70.80905">
        <ele>182.238</ele>
        <time>2019-07-18T19:35:29Z</time>
      </trkpt>
      <trkpt lat="-27.540558" lon="-70.80917">
        <ele>182.483</ele>
        <time>2019-07-18T19:35:35Z</time>
      </trkpt>
      <trkpt lat="-27.540596" lon="-70.809296">
        <ele>182.708</ele>
        <time>2019-07-18T19:35:40Z</time>
      </trkpt>
      <trkpt lat="-27.540636" lon="-70.809425">
        <ele>182.79</ele>
        <time>2019-07-18T19:35:45Z</time>
      </trkpt>
      <trkpt lat="-27.540668" lon="-70.80956">
        <ele>183.115</ele>
        <time>2019-07-18T19:35:50Z</time>
      </trkpt>
      <trkpt lat="-27.540699" lon="-70.809654">
        <ele>183.601</ele>
        <time>2019-07-18T19:35:55Z</time>
      </trkpt>
      <trkpt lat="-27.540735" lon="-70.809784">
        <ele>184.003</ele>
        <time>2019-07-18T19:36:00Z</time>
      </trkpt>
      <trkpt lat="-27.540768" lon="-70.8099">
        <ele>184.262</ele>
        <time>2019-07-18T19:36:05Z</time>
      </trkpt>
      <trkpt lat="-27.540802" lon="-70.81">
        <ele>184.597</ele>
        <time>2019-07-18T19:36:10Z</time>
      </trkpt>
      <trkpt lat="-27.54083" lon="-70.8101">
        <ele>184.745</ele>
        <time>2019-07-18T19:36:15Z</time>
      </trkpt>
      <trkpt lat="-27.540855" lon="-70.81016">
        <ele>185.152</ele>
        <time>2019-07-18T19:36:20Z</time>
      </trkpt>
      <trkpt lat="-27.540977" lon="-70.81033">
        <ele>185.276</ele>
        <time>2019-07-18T19:40:17Z</time>
      </trkpt>
      <trkpt lat="-27.541037" lon="-70.81046">
        <ele>185.028</ele>
        <time>2019-07-18T19:40:22Z</time>
      </trkpt>
      <trkpt lat="-27.541096" lon="-70.81062">
        <ele>185.178</ele>
        <time>2019-07-18T19:40:27Z</time>
      </trkpt>
      <trkpt lat="-27.541145" lon="-70.8108">
        <ele>186.278</ele>
        <time>2019-07-18T19:40:32Z</time>
      </trkpt>
      <trkpt lat="-27.541204" lon="-70.81095">
        <ele>185.932</ele>
        <time>2019-07-18T19:40:37Z</time>
      </trkpt>
      <trkpt lat="-27.541254" lon="-70.81109">
        <ele>185.332</ele>
        <time>2019-07-18T19:40:42Z</time>
      </trkpt>
      <trkpt lat="-27.541298" lon="-70.81127">
        <ele>185.363</ele>
        <time>2019-07-18T19:40:47Z</time>
      </trkpt>
      <trkpt lat="-27.54136" lon="-70.81143">
        <ele>185.266</ele>
        <time>2019-07-18T19:40:52Z</time>
      </trkpt>
      <trkpt lat="-27.541431" lon="-70.8116">
        <ele>185.858</ele>
        <time>2019-07-18T19:40:57Z</time>
      </trkpt>
      <trkpt lat="-27.541512" lon="-70.81181">
        <ele>185.731</ele>
        <time>2019-07-18T19:41:02Z</time>
      </trkpt>
      <trkpt lat="-27.541618" lon="-70.81205">
        <ele>185.215</ele>
        <time>2019-07-18T19:41:07Z</time>
      </trkpt>
      <trkpt lat="-27.54172" lon="-70.81229">
        <ele>185.258</ele>
        <time>2019-07-18T19:41:12Z</time>
      </trkpt>
      <trkpt lat="-27.541805" lon="-70.812515">
        <ele>185.599</ele>
        <time>2019-07-18T19:41:17Z</time>
      </trkpt>
      <trkpt lat="-27.541908" lon="-70.8128">
        <ele>185.054</ele>
        <time>2019-07-18T19:41:23Z</time>
      </trkpt>
      <trkpt lat="-27.541998" lon="-70.813034">
        <ele>184.203</ele>
        <time>2019-07-18T19:41:28Z</time>
      </trkpt>
      <trkpt lat="-27.542076" lon="-70.813286">
        <ele>184.92</ele>
        <time>2019-07-18T19:41:33Z</time>
      </trkpt>
      <trkpt lat="-27.542141" lon="-70.813545">
        <ele>183.918</ele>
        <time>2019-07-18T19:41:38Z</time>
      </trkpt>
      <trkpt lat="-27.542229" lon="-70.81379">
        <ele>183.699</ele>
        <time>2019-07-18T19:41:44Z</time>
      </trkpt>
      <trkpt lat="-27.54231" lon="-70.81405">
        <ele>183.96</ele>
        <time>2019-07-18T19:41:49Z</time>
      </trkpt>
      <trkpt lat="-27.542387" lon="-70.81429">
        <ele>183.826</ele>
        <time>2019-07-18T19:41:54Z</time>
      </trkpt>
      <trkpt lat="-27.54246" lon="-70.81456">
        <ele>182.79</ele>
        <time>2019-07-18T19:41:59Z</time>
      </trkpt>
      <trkpt lat="-27.542524" lon="-70.81485">
        <ele>182.719</ele>
        <time>2019-07-18T19:42:04Z</time>
      </trkpt>
      <trkpt lat="-27.542578" lon="-70.815155">
        <ele>182.309</ele>
        <time>2019-07-18T19:42:09Z</time>
      </trkpt>
      <trkpt lat="-27.542627" lon="-70.81547">
        <ele>182.304</ele>
        <time>2019-07-18T19:42:14Z</time>
      </trkpt>
      <trkpt lat="-27.542658" lon="-70.81577">
        <ele>181.194</ele>
        <time>2019-07-18T19:42:19Z</time>
      </trkpt>
      <trkpt lat="-27.54269" lon="-70.816055">
        <ele>181.506</ele>
        <time>2019-07-18T19:42:24Z</time>
      </trkpt>
      <trkpt lat="-27.542717" lon="-70.816315">
        <ele>181.466</ele>
        <time>2019-07-18T19:42:29Z</time>
      </trkpt>
      <trkpt lat="-27.542732" lon="-70.81657">
        <ele>181.189</ele>
        <time>2019-07-18T19:42:34Z</time>
      </trkpt>
      <trkpt lat="-27.542747" lon="-70.816826">
        <ele>181.878</ele>
        <time>2019-07-18T19:42:39Z</time>
      </trkpt>
      <trkpt lat="-27.542759" lon="-70.817055">
        <ele>180.972</ele>
        <time>2019-07-18T19:42:44Z</time>
      </trkpt>
      <trkpt lat="-27.54278" lon="-70.81726">
        <ele>181.271</ele>
        <time>2019-07-18T19:42:49Z</time>
      </trkpt>
      <trkpt lat="-27.542791" lon="-70.817474">
        <ele>181.041</ele>
        <time>2019-07-18T19:42:54Z</time>
      </trkpt>
      <trkpt lat="-27.542818" lon="-70.817665">
        <ele>181.397</ele>
        <time>2019-07-18T19:42:59Z</time>
      </trkpt>
      <trkpt lat="-27.54284" lon="-70.817856">
        <ele>181.36</ele>
        <time>2019-07-18T19:43:04Z</time>
      </trkpt>
      <trkpt lat="-27.54285" lon="-70.81806">
        <ele>181.881</ele>
        <time>2019-07-18T19:43:09Z</time>
      </trkpt>
      <trkpt lat="-27.542864" lon="-70.81826">
        <ele>181.477</ele>
        <time>2019-07-18T19:43:14Z</time>
      </trkpt>
      <trkpt lat="-27.542866" lon="-70.81846">
        <ele>182.264</ele>
        <time>2019-07-18T19:43:19Z</time>
      </trkpt>
      <trkpt lat="-27.542873" lon="-70.81862">
        <ele>182.668</ele>
        <time>2019-07-18T19:43:24Z</time>
      </trkpt>
      <trkpt lat="-27.54288" lon="-70.818756">
        <ele>183.11</ele>
        <time>2019-07-18T19:43:29Z</time>
      </trkpt>
      <trkpt lat="-27.54289" lon="-70.8189">
        <ele>184.124</ele>
        <time>2019-07-18T19:43:34Z</time>
      </trkpt>
      <trkpt lat="-27.5429" lon="-70.819046">
        <ele>184.209</ele>
        <time>2019-07-18T19:43:39Z</time>
      </trkpt>
      <trkpt lat="-27.542913" lon="-70.81918">
        <ele>184.523</ele>
        <time>2019-07-18T19:43:44Z</time>
      </trkpt>
      <trkpt lat="-27.54292" lon="-70.81931">
        <ele>184.758</ele>
        <time>2019-07-18T19:43:49Z</time>
      </trkpt>
      <trkpt lat="-27.542927" lon="-70.81945">
        <ele>184.47</ele>
        <time>2019-07-18T19:43:54Z</time>
      </trkpt>
      <trkpt lat="-27.542936" lon="-70.81961">
        <ele>184.872</ele>
        <time>2019-07-18T19:43:59Z</time>
      </trkpt>
      <trkpt lat="-27.542965" lon="-70.81976">
        <ele>185.104</ele>
        <time>2019-07-18T19:44:04Z</time>
      </trkpt>
      <trkpt lat="-27.542988" lon="-70.81993">
        <ele>184.83</ele>
        <time>2019-07-18T19:44:09Z</time>
      </trkpt>
      <trkpt lat="-27.543007" lon="-70.82011">
        <ele>185.223</ele>
        <time>2019-07-18T19:44:14Z</time>
      </trkpt>
      <trkpt lat="-27.543034" lon="-70.8203">
        <ele>184.898</ele>
        <time>2019-07-18T19:44:19Z</time>
      </trkpt>
      <trkpt lat="-27.543034" lon="-70.820496">
        <ele>184.764</ele>
        <time>2019-07-18T19:44:24Z</time>
      </trkpt>
      <trkpt lat="-27.543032" lon="-70.82071">
        <ele>184.877</ele>
        <time>2019-07-18T19:44:29Z</time>
      </trkpt>
      <trkpt lat="-27.543024" lon="-70.82092">
        <ele>184.732</ele>
        <time>2019-07-18T19:44:34Z</time>
      </trkpt>
      <trkpt lat="-27.543007" lon="-70.821144">
        <ele>184.367</ele>
        <time>2019-07-18T19:44:39Z</time>
      </trkpt>
      <trkpt lat="-27.542974" lon="-70.821365">
        <ele>184.684</ele>
        <time>2019-07-18T19:44:44Z</time>
      </trkpt>
      <trkpt lat="-27.542927" lon="-70.82159">
        <ele>184.182</ele>
        <time>2019-07-18T19:44:49Z</time>
      </trkpt>
      <trkpt lat="-27.542858" lon="-70.82181">
        <ele>184.277</ele>
        <time>2019-07-18T19:44:54Z</time>
      </trkpt>
      <trkpt lat="-27.542795" lon="-70.82201">
        <ele>183.741</ele>
        <time>2019-07-18T19:44:59Z</time>
      </trkpt>
      <trkpt lat="-27.542723" lon="-70.822235">
        <ele>183.493</ele>
        <time>2019-07-18T19:45:04Z</time>
      </trkpt>
      <trkpt lat="-27.54265" lon="-70.822464">
        <ele>182.864</ele>
        <time>2019-07-18T19:45:09Z</time>
      </trkpt>
      <trkpt lat="-27.542568" lon="-70.82268">
        <ele>182.499</ele>
        <time>2019-07-18T19:45:14Z</time>
      </trkpt>
      <trkpt lat="-27.542492" lon="-70.82291">
        <ele>182.322</ele>
        <time>2019-07-18T19:45:19Z</time>
      </trkpt>
      <trkpt lat="-27.542414" lon="-70.82315">
        <ele>181.815</ele>
        <time>2019-07-18T19:45:24Z</time>
      </trkpt>
      <trkpt lat="-27.54234" lon="-70.8234">
        <ele>180.293</ele>
        <time>2019-07-18T19:45:29Z</time>
      </trkpt>
      <trkpt lat="-27.542215" lon="-70.823814">
        <ele>179.817</ele>
        <time>2019-07-18T19:45:37Z</time>
      </trkpt>
      <trkpt lat="-27.542122" lon="-70.82407">
        <ele>179.199</ele>
        <time>2019-07-18T19:45:42Z</time>
      </trkpt>
      <trkpt lat="-27.542036" lon="-70.82433">
        <ele>179.017</ele>
        <time>2019-07-18T19:45:47Z</time>
      </trkpt>
      <trkpt lat="-27.541945" lon="-70.82459">
        <ele>178.544</ele>
        <time>2019-07-18T19:45:52Z</time>
      </trkpt>
      <trkpt lat="-27.541866" lon="-70.824844">
        <ele>177.571</ele>
        <time>2019-07-18T19:45:57Z</time>
      </trkpt>
      <trkpt lat="-27.541784" lon="-70.82508">
        <ele>176.863</ele>
        <time>2019-07-18T19:46:02Z</time>
      </trkpt>
      <trkpt lat="-27.541708" lon="-70.82531">
        <ele>177.241</ele>
        <time>2019-07-18T19:46:07Z</time>
      </trkpt>
      <trkpt lat="-27.541636" lon="-70.82554">
        <ele>176.662</ele>
        <time>2019-07-18T19:46:12Z</time>
      </trkpt>
      <trkpt lat="-27.541557" lon="-70.82577">
        <ele>176.559</ele>
        <time>2019-07-18T19:46:17Z</time>
      </trkpt>
      <trkpt lat="-27.541506" lon="-70.82595">
        <ele>175.738</ele>
        <time>2019-07-18T19:46:22Z</time>
      </trkpt>
      <trkpt lat="-27.541447" lon="-70.82614">
        <ele>175.473</ele>
        <time>2019-07-18T19:46:27Z</time>
      </trkpt>
      <trkpt lat="-27.541388" lon="-70.82635">
        <ele>175.682</ele>
        <time>2019-07-18T19:46:32Z</time>
      </trkpt>
      <trkpt lat="-27.541311" lon="-70.82657">
        <ele>174.855</ele>
        <time>2019-07-18T19:46:37Z</time>
      </trkpt>
      <trkpt lat="-27.541237" lon="-70.82678">
        <ele>175.103</ele>
        <time>2019-07-18T19:46:42Z</time>
      </trkpt>
      <trkpt lat="-27.541166" lon="-70.82699">
        <ele>175.51</ele>
        <time>2019-07-18T19:46:47Z</time>
      </trkpt>
      <trkpt lat="-27.541098" lon="-70.82719">
        <ele>175.357</ele>
        <time>2019-07-18T19:46:52Z</time>
      </trkpt>
      <trkpt lat="-27.541023" lon="-70.82738">
        <ele>175.051</ele>
        <time>2019-07-18T19:46:57Z</time>
      </trkpt>
      <trkpt lat="-27.540962" lon="-70.82756">
        <ele>175.019</ele>
        <time>2019-07-18T19:47:02Z</time>
      </trkpt>
      <trkpt lat="-27.54091" lon="-70.82771">
        <ele>174.874</ele>
        <time>2019-07-18T19:47:07Z</time>
      </trkpt>
      <trkpt lat="-27.540857" lon="-70.82789">
        <ele>174.76</ele>
        <time>2019-07-18T19:47:12Z</time>
      </trkpt>
      <trkpt lat="-27.540783" lon="-70.82809">
        <ele>174.517</ele>
        <time>2019-07-18T19:47:17Z</time>
      </trkpt>
      <trkpt lat="-27.540707" lon="-70.82826">
        <ele>174.919</ele>
        <time>2019-07-18T19:47:22Z</time>
      </trkpt>
      <trkpt lat="-27.540657" lon="-70.8284">
        <ele>175.053</ele>
        <time>2019-07-18T19:47:27Z</time>
      </trkpt>
      <trkpt lat="-27.540617" lon="-70.82852">
        <ele>176.089</ele>
        <time>2019-07-18T19:47:32Z</time>
      </trkpt>
      <trkpt lat="-27.540558" lon="-70.828636">
        <ele>175.146</ele>
        <time>2019-07-18T19:47:37Z</time>
      </trkpt>
      <trkpt lat="-27.54051" lon="-70.82875">
        <ele>175.857</ele>
        <time>2019-07-18T19:47:42Z</time>
      </trkpt>
      <trkpt lat="-27.540459" lon="-70.82887">
        <ele>176.308</ele>
        <time>2019-07-18T19:47:47Z</time>
      </trkpt>
      <trkpt lat="-27.540407" lon="-70.828995">
        <ele>176.026</ele>
        <time>2019-07-18T19:47:52Z</time>
      </trkpt>
      <trkpt lat="-27.540344" lon="-70.82912">
        <ele>177.064</ele>
        <time>2019-07-18T19:47:57Z</time>
      </trkpt>
      <trkpt lat="-27.540281" lon="-70.82923">
        <ele>176.433</ele>
        <time>2019-07-18T19:48:02Z</time>
      </trkpt>
      <trkpt lat="-27.54024" lon="-70.82931">
        <ele>177.149</ele>
        <time>2019-07-18T19:48:07Z</time>
      </trkpt>
      <trkpt lat="-27.540203" lon="-70.8294">
        <ele>176.631</ele>
        <time>2019-07-18T19:48:12Z</time>
      </trkpt>
      <trkpt lat="-27.540161" lon="-70.82948">
        <ele>177.405</ele>
        <time>2019-07-18T19:48:17Z</time>
      </trkpt>
      <trkpt lat="-27.54011" lon="-70.82959">
        <ele>177.46</ele>
        <time>2019-07-18T19:48:22Z</time>
      </trkpt>
      <trkpt lat="-27.540058" lon="-70.829704">
        <ele>177.143</ele>
        <time>2019-07-18T19:48:27Z</time>
      </trkpt>
      <trkpt lat="-27.540022" lon="-70.829796">
        <ele>177.135</ele>
        <time>2019-07-18T19:48:32Z</time>
      </trkpt>
      <trkpt lat="-27.539974" lon="-70.829895">
        <ele>177.109</ele>
        <time>2019-07-18T19:48:37Z</time>
      </trkpt>
      <trkpt lat="-27.539831" lon="-70.8302">
        <ele>176.633</ele>
        <time>2019-07-18T19:49:51Z</time>
      </trkpt>
      <trkpt lat="-27.539747" lon="-70.83037">
        <ele>177.064</ele>
        <time>2019-07-18T19:49:56Z</time>
      </trkpt>
      <trkpt lat="-27.539669" lon="-70.830536">
        <ele>176.271</ele>
        <time>2019-07-18T19:50:01Z</time>
      </trkpt>
      <trkpt lat="-27.539581" lon="-70.83073">
        <ele>175.989</ele>
        <time>2019-07-18T19:50:06Z</time>
      </trkpt>
      <trkpt lat="-27.539486" lon="-70.83092">
        <ele>175.812</ele>
        <time>2019-07-18T19:50:11Z</time>
      </trkpt>
      <trkpt lat="-27.539377" lon="-70.83112">
        <ele>175.473</ele>
        <time>2019-07-18T19:50:16Z</time>
      </trkpt>
      <trkpt lat="-27.539268" lon="-70.831345">
        <ele>174.3</ele>
        <time>2019-07-18T19:50:21Z</time>
      </trkpt>
      <trkpt lat="-27.539154" lon="-70.83155">
        <ele>173.753</ele>
        <time>2019-07-18T19:50:26Z</time>
      </trkpt>
      <trkpt lat="-27.539036" lon="-70.83177">
        <ele>173.196</ele>
        <time>2019-07-18T19:50:31Z</time>
      </trkpt>
      <trkpt lat="-27.538912" lon="-70.832">
        <ele>173.595</ele>
        <time>2019-07-18T19:50:36Z</time>
      </trkpt>
      <trkpt lat="-27.538803" lon="-70.83222">
        <ele>173.719</ele>
        <time>2019-07-18T19:50:41Z</time>
      </trkpt>
      <trkpt lat="-27.538706" lon="-70.83245">
        <ele>173.447</ele>
        <time>2019-07-18T19:50:46Z</time>
      </trkpt>
      <trkpt lat="-27.538614" lon="-70.83265">
        <ele>173.819</ele>
        <time>2019-07-18T19:50:51Z</time>
      </trkpt>
      <trkpt lat="-27.53848" lon="-70.832825">
        <ele>173.161</ele>
        <time>2019-07-18T19:50:55Z</time>
      </trkpt>
      <trkpt lat="-27.538372" lon="-70.832985">
        <ele>172.068</ele>
        <time>2019-07-18T19:51:00Z</time>
      </trkpt>
      <trkpt lat="-27.53826" lon="-70.83313">
        <ele>171.994</ele>
        <time>2019-07-18T19:51:05Z</time>
      </trkpt>
      <trkpt lat="-27.538164" lon="-70.833275">
        <ele>172.263</ele>
        <time>2019-07-18T19:51:10Z</time>
      </trkpt>
      <trkpt lat="-27.538044" lon="-70.83344">
        <ele>171.428</ele>
        <time>2019-07-18T19:51:15Z</time>
      </trkpt>
      <trkpt lat="-27.537924" lon="-70.83362">
        <ele>171.872</ele>
        <time>2019-07-18T19:51:20Z</time>
      </trkpt>
      <trkpt lat="-27.5378" lon="-70.8338">
        <ele>171.407</ele>
        <time>2019-07-18T19:51:25Z</time>
      </trkpt>
      <trkpt lat="-27.537663" lon="-70.83401">
        <ele>171.011</ele>
        <time>2019-07-18T19:51:30Z</time>
      </trkpt>
      <trkpt lat="-27.537535" lon="-70.8342">
        <ele>169.83</ele>
        <time>2019-07-18T19:51:35Z</time>
      </trkpt>
      <trkpt lat="-27.537436" lon="-70.834366">
        <ele>168.81</ele>
        <time>2019-07-18T19:51:40Z</time>
      </trkpt>
      <trkpt lat="-27.537298" lon="-70.83458">
        <ele>168.973</ele>
        <time>2019-07-18T19:51:45Z</time>
      </trkpt>
      <trkpt lat="-27.537148" lon="-70.83482">
        <ele>168.847</ele>
        <time>2019-07-18T19:51:50Z</time>
      </trkpt>
      <trkpt lat="-27.536991" lon="-70.83506">
        <ele>168.146</ele>
        <time>2019-07-18T19:51:55Z</time>
      </trkpt>
      <trkpt lat="-27.536846" lon="-70.83531">
        <ele>168.527</ele>
        <time>2019-07-18T19:52:00Z</time>
      </trkpt>
      <trkpt lat="-27.536716" lon="-70.83553">
        <ele>168.493</ele>
        <time>2019-07-18T19:52:05Z</time>
      </trkpt>
      <trkpt lat="-27.5366" lon="-70.83574">
        <ele>168.197</ele>
        <time>2019-07-18T19:52:10Z</time>
      </trkpt>
      <trkpt lat="-27.536509" lon="-70.835945">
        <ele>167.47</ele>
        <time>2019-07-18T19:52:15Z</time>
      </trkpt>
      <trkpt lat="-27.536413" lon="-70.83615">
        <ele>167.769</ele>
        <time>2019-07-18T19:52:20Z</time>
      </trkpt>
      <trkpt lat="-27.53633" lon="-70.83633">
        <ele>167.465</ele>
        <time>2019-07-18T19:52:25Z</time>
      </trkpt>
      <trkpt lat="-27.536251" lon="-70.836494">
        <ele>167.195</ele>
        <time>2019-07-18T19:52:30Z</time>
      </trkpt>
      <trkpt lat="-27.53616" lon="-70.83668">
        <ele>166.759</ele>
        <time>2019-07-18T19:52:35Z</time>
      </trkpt>
      <trkpt lat="-27.536057" lon="-70.83689">
        <ele>166.223</ele>
        <time>2019-07-18T19:52:40Z</time>
      </trkpt>
      <trkpt lat="-27.53596" lon="-70.83712">
        <ele>165.618</ele>
        <time>2019-07-18T19:52:45Z</time>
      </trkpt>
      <trkpt lat="-27.535849" lon="-70.83735">
        <ele>164.944</ele>
        <time>2019-07-18T19:52:50Z</time>
      </trkpt>
      <trkpt lat="-27.535759" lon="-70.83756">
        <ele>164.402</ele>
        <time>2019-07-18T19:52:55Z</time>
      </trkpt>
      <trkpt lat="-27.53566" lon="-70.83776">
        <ele>163.882</ele>
        <time>2019-07-18T19:53:00Z</time>
      </trkpt>
      <trkpt lat="-27.535553" lon="-70.83798">
        <ele>163.063</ele>
        <time>2019-07-18T19:53:05Z</time>
      </trkpt>
      <trkpt lat="-27.53544" lon="-70.83823">
        <ele>162.463</ele>
        <time>2019-07-18T19:53:10Z</time>
      </trkpt>
      <trkpt lat="-27.535309" lon="-70.83849">
        <ele>162.291</ele>
        <time>2019-07-18T19:53:15Z</time>
      </trkpt>
      <trkpt lat="-27.53517" lon="-70.838745">
        <ele>161.131</ele>
        <time>2019-07-18T19:53:20Z</time>
      </trkpt>
      <trkpt lat="-27.535006" lon="-70.838974">
        <ele>160.457</ele>
        <time>2019-07-18T19:53:25Z</time>
      </trkpt>
      <trkpt lat="-27.534822" lon="-70.8392">
        <ele>159.527</ele>
        <time>2019-07-18T19:53:30Z</time>
      </trkpt>
      <trkpt lat="-27.534605" lon="-70.839455">
        <ele>159.036</ele>
        <time>2019-07-18T19:53:35Z</time>
      </trkpt>
      <trkpt lat="-27.534386" lon="-70.83976">
        <ele>156.75</ele>
        <time>2019-07-18T19:53:40Z</time>
      </trkpt>
      <trkpt lat="-27.534204" lon="-70.84006">
        <ele>157.12</ele>
        <time>2019-07-18T19:53:45Z</time>
      </trkpt>
      <trkpt lat="-27.534077" lon="-70.84038">
        <ele>156.172</ele>
        <time>2019-07-18T19:53:50Z</time>
      </trkpt>
      <trkpt lat="-27.53399" lon="-70.840706">
        <ele>155.759</ele>
        <time>2019-07-18T19:53:55Z</time>
      </trkpt>
      <trkpt lat="-27.533884" lon="-70.84101">
        <ele>155.751</ele>
        <time>2019-07-18T19:54:00Z</time>
      </trkpt>
      <trkpt lat="-27.533745" lon="-70.84132">
        <ele>155.44</ele>
        <time>2019-07-18T19:54:05Z</time>
      </trkpt>
      <trkpt lat="-27.533592" lon="-70.841606">
        <ele>154.782</ele>
        <time>2019-07-18T19:54:10Z</time>
      </trkpt>
      <trkpt lat="-27.533451" lon="-70.84188">
        <ele>153.947</ele>
        <time>2019-07-18T19:54:15Z</time>
      </trkpt>
      <trkpt lat="-27.533316" lon="-70.84216">
        <ele>152.427</ele>
        <time>2019-07-18T19:54:20Z</time>
      </trkpt>
      <trkpt lat="-27.533184" lon="-70.84243">
        <ele>152.578</ele>
        <time>2019-07-18T19:54:25Z</time>
      </trkpt>
      <trkpt lat="-27.533058" lon="-70.84268">
        <ele>152.615</ele>
        <time>2019-07-18T19:54:30Z</time>
      </trkpt>
      <trkpt lat="-27.532927" lon="-70.84296">
        <ele>152.258</ele>
        <time>2019-07-18T19:54:35Z</time>
      </trkpt>
      <trkpt lat="-27.532824" lon="-70.84321">
        <ele>150.472</ele>
        <time>2019-07-18T19:54:40Z</time>
      </trkpt>
      <trkpt lat="-27.532724" lon="-70.84348">
        <ele>150.67</ele>
        <time>2019-07-18T19:54:45Z</time>
      </trkpt>
      <trkpt lat="-27.532633" lon="-70.84377">
        <ele>151.088</ele>
        <time>2019-07-18T19:54:50Z</time>
      </trkpt>
      <trkpt lat="-27.532576" lon="-70.844055">
        <ele>150.015</ele>
        <time>2019-07-18T19:54:55Z</time>
      </trkpt>
      <trkpt lat="-27.532509" lon="-70.84432">
        <ele>149.761</ele>
        <time>2019-07-18T19:55:00Z</time>
      </trkpt>
      <trkpt lat="-27.532476" lon="-70.844604">
        <ele>148.871</ele>
        <time>2019-07-18T19:55:05Z</time>
      </trkpt>
      <trkpt lat="-27.53248" lon="-70.84487">
        <ele>147.859</ele>
        <time>2019-07-18T19:55:10Z</time>
      </trkpt>
      <trkpt lat="-27.5325" lon="-70.84509">
        <ele>148.594</ele>
        <time>2019-07-18T19:55:15Z</time>
      </trkpt>
      <trkpt lat="-27.532532" lon="-70.84525">
        <ele>148.43</ele>
        <time>2019-07-18T19:55:20Z</time>
      </trkpt>
      <trkpt lat="-27.53255" lon="-70.845375">
        <ele>145.515</ele>
        <time>2019-07-18T19:55:25Z</time>
      </trkpt>
      <trkpt lat="-27.532572" lon="-70.84547">
        <ele>147.761</ele>
        <time>2019-07-18T19:55:30Z</time>
      </trkpt>
      <trkpt lat="-27.532593" lon="-70.845566">
        <ele>145.906</ele>
        <time>2019-07-18T19:55:35Z</time>
      </trkpt>
      <trkpt lat="-27.532629" lon="-70.8457">
        <ele>145.793</ele>
        <time>2019-07-18T19:55:40Z</time>
      </trkpt>
      <trkpt lat="-27.532663" lon="-70.845825">
        <ele>145.632</ele>
        <time>2019-07-18T19:55:45Z</time>
      </trkpt>
      <trkpt lat="-27.532696" lon="-70.84595">
        <ele>146.437</ele>
        <time>2019-07-18T19:55:50Z</time>
      </trkpt>
      <trkpt lat="-27.532742" lon="-70.846085">
        <ele>146.184</ele>
        <time>2019-07-18T19:55:55Z</time>
      </trkpt>
      <trkpt lat="-27.532787" lon="-70.84622">
        <ele>148.155</ele>
        <time>2019-07-18T19:56:00Z</time>
      </trkpt>
      <trkpt lat="-27.532845" lon="-70.84635">
        <ele>147.193</ele>
        <time>2019-07-18T19:56:05Z</time>
      </trkpt>
      <trkpt lat="-27.53289" lon="-70.84648">
        <ele>147.397</ele>
        <time>2019-07-18T19:56:10Z</time>
      </trkpt>
      <trkpt lat="-27.532938" lon="-70.84663">
        <ele>146.551</ele>
        <time>2019-07-18T19:56:15Z</time>
      </trkpt>
      <trkpt lat="-27.533009" lon="-70.846756">
        <ele>146.517</ele>
        <time>2019-07-18T19:56:20Z</time>
      </trkpt>
      <trkpt lat="-27.53307" lon="-70.84687">
        <ele>149.323</ele>
        <time>2019-07-18T19:56:25Z</time>
      </trkpt>
      <trkpt lat="-27.533115" lon="-70.84698">
        <ele>147.304</ele>
        <time>2019-07-18T19:56:30Z</time>
      </trkpt>
      <trkpt lat="-27.533169" lon="-70.847084">
        <ele>149.127</ele>
        <time>2019-07-18T19:56:35Z</time>
      </trkpt>
      <trkpt lat="-27.533228" lon="-70.847206">
        <ele>150.932</ele>
        <time>2019-07-18T19:56:40Z</time>
      </trkpt>
      <trkpt lat="-27.533276" lon="-70.847305">
        <ele>151.172</ele>
        <time>2019-07-18T19:56:45Z</time>
      </trkpt>
      <trkpt lat="-27.533339" lon="-70.847435">
        <ele>149.037</ele>
        <time>2019-07-18T19:56:50Z</time>
      </trkpt>
      <trkpt lat="-27.533403" lon="-70.84758">
        <ele>150.734</ele>
        <time>2019-07-18T19:56:55Z</time>
      </trkpt>
      <trkpt lat="-27.53345" lon="-70.84771">
        <ele>150.85</ele>
        <time>2019-07-18T19:57:00Z</time>
      </trkpt>
      <trkpt lat="-27.533497" lon="-70.84781">
        <ele>149.698</ele>
        <time>2019-07-18T19:57:05Z</time>
      </trkpt>
      <trkpt lat="-27.533522" lon="-70.847885">
        <ele>148.052</ele>
        <time>2019-07-18T19:57:10Z</time>
      </trkpt>
      <trkpt lat="-27.533623" lon="-70.84812">
        <ele>147.896</ele>
        <time>2019-07-18T19:58:57Z</time>
      </trkpt>
      <trkpt lat="-27.533672" lon="-70.8483">
        <ele>147.349</ele>
        <time>2019-07-18T19:59:02Z</time>
      </trkpt>
      <trkpt lat="-27.533697" lon="-70.84844">
        <ele>146.895</ele>
        <time>2019-07-18T19:59:07Z</time>
      </trkpt>
      <trkpt lat="-27.533728" lon="-70.84859">
        <ele>146.902</ele>
        <time>2019-07-18T19:59:12Z</time>
      </trkpt>
      <trkpt lat="-27.533852" lon="-70.84869">
        <ele>147.626</ele>
        <time>2019-07-18T19:59:17Z</time>
      </trkpt>
      <trkpt lat="-27.534008" lon="-70.848724">
        <ele>148.07</ele>
        <time>2019-07-18T19:59:22Z</time>
      </trkpt>
      <trkpt lat="-27.534166" lon="-70.84873">
        <ele>148.567</ele>
        <time>2019-07-18T19:59:27Z</time>
      </trkpt>
      <trkpt lat="-27.534351" lon="-70.84874">
        <ele>148.546</ele>
        <time>2019-07-18T19:59:32Z</time>
      </trkpt>
      <trkpt lat="-27.53452" lon="-70.84875">
        <ele>148.945</ele>
        <time>2019-07-18T19:59:37Z</time>
      </trkpt>
      <trkpt lat="-27.534674" lon="-70.848755">
        <ele>149.098</ele>
        <time>2019-07-18T19:59:42Z</time>
      </trkpt>
      <trkpt lat="-27.534817" lon="-70.84877">
        <ele>149.505</ele>
        <time>2019-07-18T19:59:47Z</time>
      </trkpt>
      <trkpt lat="-27.534954" lon="-70.84878">
        <ele>149.59</ele>
        <time>2019-07-18T19:59:52Z</time>
      </trkpt>
      <trkpt lat="-27.535097" lon="-70.8488">
        <ele>149.806</ele>
        <time>2019-07-18T19:59:58Z</time>
      </trkpt>
      <trkpt lat="-27.535227" lon="-70.848816">
        <ele>150.134</ele>
        <time>2019-07-18T20:00:03Z</time>
      </trkpt>
      <trkpt lat="-27.535366" lon="-70.84885">
        <ele>150.404</ele>
        <time>2019-07-18T20:00:08Z</time>
      </trkpt>
      <trkpt lat="-27.535498" lon="-70.848854">
        <ele>150.863</ele>
        <time>2019-07-18T20:00:13Z</time>
      </trkpt>
      <trkpt lat="-27.53564" lon="-70.84888">
        <ele>151.125</ele>
        <time>2019-07-18T20:00:19Z</time>
      </trkpt>
      <trkpt lat="-27.535748" lon="-70.8489">
        <ele>151.511</ele>
        <time>2019-07-18T20:00:24Z</time>
      </trkpt>
      <trkpt lat="-27.535929" lon="-70.84892">
        <ele>151.69</ele>
        <time>2019-07-18T20:00:31Z</time>
      </trkpt>
      <trkpt lat="-27.536045" lon="-70.84894">
        <ele>152.05</ele>
        <time>2019-07-18T20:00:36Z</time>
      </trkpt>
      <trkpt lat="-27.536182" lon="-70.84896">
        <ele>152.237</ele>
        <time>2019-07-18T20:00:41Z</time>
      </trkpt>
      <trkpt lat="-27.536304" lon="-70.84899">
        <ele>152.494</ele>
        <time>2019-07-18T20:00:46Z</time>
      </trkpt>
      <trkpt lat="-27.536434" lon="-70.84902">
        <ele>152.681</ele>
        <time>2019-07-18T20:00:51Z</time>
      </trkpt>
      <trkpt lat="-27.536554" lon="-70.849045">
        <ele>153.247</ele>
        <time>2019-07-18T20:00:56Z</time>
      </trkpt>
      <trkpt lat="-27.536665" lon="-70.84907">
        <ele>153.4</ele>
        <time>2019-07-18T20:01:01Z</time>
      </trkpt>
      <trkpt lat="-27.536795" lon="-70.84909">
        <ele>153.902</ele>
        <time>2019-07-18T20:01:06Z</time>
      </trkpt>
      <trkpt lat="-27.536911" lon="-70.849106">
        <ele>153.807</ele>
        <time>2019-07-18T20:01:11Z</time>
      </trkpt>
      <trkpt lat="-27.537014" lon="-70.84914">
        <ele>154.541</ele>
        <time>2019-07-18T20:01:16Z</time>
      </trkpt>
      <trkpt lat="-27.537136" lon="-70.84915">
        <ele>154.565</ele>
        <time>2019-07-18T20:01:21Z</time>
      </trkpt>
      <trkpt lat="-27.537247" lon="-70.849174">
        <ele>154.882</ele>
        <time>2019-07-18T20:01:26Z</time>
      </trkpt>
      <trkpt lat="-27.537369" lon="-70.849205">
        <ele>155.149</ele>
        <time>2019-07-18T20:01:31Z</time>
      </trkpt>
      <trkpt lat="-27.537477" lon="-70.84922">
        <ele>155.397</ele>
        <time>2019-07-18T20:01:36Z</time>
      </trkpt>
      <trkpt lat="-27.53759" lon="-70.84924">
        <ele>155.971</ele>
        <time>2019-07-18T20:01:41Z</time>
      </trkpt>
      <trkpt lat="-27.53772" lon="-70.84927">
        <ele>155.907</ele>
        <time>2019-07-18T20:01:46Z</time>
      </trkpt>
      <trkpt lat="-27.53785" lon="-70.84929">
        <ele>156.639</ele>
        <time>2019-07-18T20:01:51Z</time>
      </trkpt>
      <trkpt lat="-27.53798" lon="-70.84931">
        <ele>156.674</ele>
        <time>2019-07-18T20:01:56Z</time>
      </trkpt>
      <trkpt lat="-27.538103" lon="-70.84933">
        <ele>156.922</ele>
        <time>2019-07-18T20:02:01Z</time>
      </trkpt>
      <trkpt lat="-27.538227" lon="-70.84936">
        <ele>157.155</ele>
        <time>2019-07-18T20:02:06Z</time>
      </trkpt>
      <trkpt lat="-27.538351" lon="-70.84938">
        <ele>157.474</ele>
        <time>2019-07-18T20:02:11Z</time>
      </trkpt>
      <trkpt lat="-27.538479" lon="-70.8494">
        <ele>157.477</ele>
        <time>2019-07-18T20:02:16Z</time>
      </trkpt>
      <trkpt lat="-27.53859" lon="-70.849434">
        <ele>157.823</ele>
        <time>2019-07-18T20:02:21Z</time>
      </trkpt>
      <trkpt lat="-27.538696" lon="-70.84945">
        <ele>157.902</ele>
        <time>2019-07-18T20:02:26Z</time>
      </trkpt>
      <trkpt lat="-27.53879" lon="-70.849464">
        <ele>158.071</ele>
        <time>2019-07-18T20:02:31Z</time>
      </trkpt>
      <trkpt lat="-27.53892" lon="-70.84949">
        <ele>158.116</ele>
        <time>2019-07-18T20:02:36Z</time>
      </trkpt>
      <trkpt lat="-27.539047" lon="-70.84951">
        <ele>158.666</ele>
        <time>2019-07-18T20:02:41Z</time>
      </trkpt>
      <trkpt lat="-27.539179" lon="-70.84954">
        <ele>158.658</ele>
        <time>2019-07-18T20:02:46Z</time>
      </trkpt>
      <trkpt lat="-27.53931" lon="-70.84957">
        <ele>159.186</ele>
        <time>2019-07-18T20:02:51Z</time>
      </trkpt>
      <trkpt lat="-27.53944" lon="-70.849594">
        <ele>159.348</ele>
        <time>2019-07-18T20:02:56Z</time>
      </trkpt>
      <trkpt lat="-27.53956" lon="-70.849625">
        <ele>159.179</ele>
        <time>2019-07-18T20:03:01Z</time>
      </trkpt>
      <trkpt lat="-27.539673" lon="-70.84965">
        <ele>159.538</ele>
        <time>2019-07-18T20:03:06Z</time>
      </trkpt>
      <trkpt lat="-27.53977" lon="-70.84967">
        <ele>159.739</ele>
        <time>2019-07-18T20:03:11Z</time>
      </trkpt>
      <trkpt lat="-27.539873" lon="-70.84968">
        <ele>159.879</ele>
        <time>2019-07-18T20:03:16Z</time>
      </trkpt>
      <trkpt lat="-27.53999" lon="-70.8497">
        <ele>160.103</ele>
        <time>2019-07-18T20:03:21Z</time>
      </trkpt>
      <trkpt lat="-27.540096" lon="-70.84972">
        <ele>159.39</ele>
        <time>2019-07-18T20:03:26Z</time>
      </trkpt>
      <trkpt lat="-27.540129" lon="-70.849655">
        <ele>160.19</ele>
        <time>2019-07-18T20:03:31Z</time>
      </trkpt>
      <trkpt lat="-27.540155" lon="-70.84961">
        <ele>160.679</ele>
        <time>2019-07-18T20:03:36Z</time>
      </trkpt>
      <trkpt lat="-27.540339" lon="-70.84968">
        <ele>160.706</ele>
        <time>2019-07-18T20:03:46Z</time>
      </trkpt>
      <trkpt lat="-27.540428" lon="-70.849686">
        <ele>160.634</ele>
        <time>2019-07-18T20:03:51Z</time>
      </trkpt>
      <trkpt lat="-27.5405" lon="-70.849724">
        <ele>161.329</ele>
        <time>2019-07-18T20:03:56Z</time>
      </trkpt>
      <trkpt lat="-27.54059" lon="-70.84981">
        <ele>161.44</ele>
        <time>2019-07-18T20:04:01Z</time>
      </trkpt>
      <trkpt lat="-27.540691" lon="-70.84984">
        <ele>161.591</ele>
        <time>2019-07-18T20:04:06Z</time>
      </trkpt>
      <trkpt lat="-27.540787" lon="-70.84986">
        <ele>161.517</ele>
        <time>2019-07-18T20:04:11Z</time>
      </trkpt>
      <trkpt lat="-27.540884" lon="-70.84986">
        <ele>161.884</ele>
        <time>2019-07-18T20:04:16Z</time>
      </trkpt>
      <trkpt lat="-27.540976" lon="-70.849884">
        <ele>161.749</ele>
        <time>2019-07-18T20:04:21Z</time>
      </trkpt>
      <trkpt lat="-27.541105" lon="-70.849915">
        <ele>161.99</ele>
        <time>2019-07-18T20:04:26Z</time>
      </trkpt>
      <trkpt lat="-27.541218" lon="-70.84994">
        <ele>162.891</ele>
        <time>2019-07-18T20:04:33Z</time>
      </trkpt>
      <trkpt lat="-27.541319" lon="-70.849945">
        <ele>163.126</ele>
        <time>2019-07-18T20:04:38Z</time>
      </trkpt>
      <trkpt lat="-27.541433" lon="-70.849976">
        <ele>162.761</ele>
        <time>2019-07-18T20:04:43Z</time>
      </trkpt>
      <trkpt lat="-27.541542" lon="-70.84999">
        <ele>162.97</ele>
        <time>2019-07-18T20:04:48Z</time>
      </trkpt>
      <trkpt lat="-27.541664" lon="-70.85001">
        <ele>163.079</ele>
        <time>2019-07-18T20:04:53Z</time>
      </trkpt>
      <trkpt lat="-27.541794" lon="-70.85003">
        <ele>163.189</ele>
        <time>2019-07-18T20:04:58Z</time>
      </trkpt>
      <trkpt lat="-27.541897" lon="-70.85004">
        <ele>162.812</ele>
        <time>2019-07-18T20:05:03Z</time>
      </trkpt>
      <trkpt lat="-27.541992" lon="-70.85007">
        <ele>162.938</ele>
        <time>2019-07-18T20:05:08Z</time>
      </trkpt>
      <trkpt lat="-27.542084" lon="-70.85008">
        <ele>162.743</ele>
        <time>2019-07-18T20:05:13Z</time>
      </trkpt>
      <trkpt lat="-27.542168" lon="-70.8501">
        <ele>162.748</ele>
        <time>2019-07-18T20:05:18Z</time>
      </trkpt>
      <trkpt lat="-27.542223" lon="-70.85012">
        <ele>162.891</ele>
        <time>2019-07-18T20:05:23Z</time>
      </trkpt>
      <trkpt lat="-27.54256" lon="-70.85016">
        <ele>163.388</ele>
        <time>2019-07-18T20:06:53Z</time>
      </trkpt>
      <trkpt lat="-27.542683" lon="-70.85019">
        <ele>163.158</ele>
        <time>2019-07-18T20:06:58Z</time>
      </trkpt>
      <trkpt lat="-27.542803" lon="-70.850204">
        <ele>163.293</ele>
        <time>2019-07-18T20:07:03Z</time>
      </trkpt>
      <trkpt lat="-27.542929" lon="-70.850235">
        <ele>163.33</ele>
        <time>2019-07-18T20:07:08Z</time>
      </trkpt>
      <trkpt lat="-27.543062" lon="-70.85026">
        <ele>163.467</ele>
        <time>2019-07-18T20:07:13Z</time>
      </trkpt>
      <trkpt lat="-27.543192" lon="-70.85028">
        <ele>163.67</ele>
        <time>2019-07-18T20:07:18Z</time>
      </trkpt>
      <trkpt lat="-27.543322" lon="-70.8503">
        <ele>163.657</ele>
        <time>2019-07-18T20:07:23Z</time>
      </trkpt>
      <trkpt lat="-27.543451" lon="-70.850334">
        <ele>163.477</ele>
        <time>2019-07-18T20:07:28Z</time>
      </trkpt>
      <trkpt lat="-27.543571" lon="-70.85036">
        <ele>163.496</ele>
        <time>2019-07-18T20:07:33Z</time>
      </trkpt>
      <trkpt lat="-27.543646" lon="-70.850365">
        <ele>163.739</ele>
        <time>2019-07-18T20:07:38Z</time>
      </trkpt>
      <trkpt lat="-27.543758" lon="-70.85039">
        <ele>163.866</ele>
        <time>2019-07-18T20:07:43Z</time>
      </trkpt>
      <trkpt lat="-27.543875" lon="-70.85042">
        <ele>163.668</ele>
        <time>2019-07-18T20:07:48Z</time>
      </trkpt>
      <trkpt lat="-27.544016" lon="-70.85045">
        <ele>163.847</ele>
        <time>2019-07-18T20:07:53Z</time>
      </trkpt>
      <trkpt lat="-27.54416" lon="-70.85048">
        <ele>164.262</ele>
        <time>2019-07-18T20:07:58Z</time>
      </trkpt>
      <trkpt lat="-27.544292" lon="-70.8505">
        <ele>163.779</ele>
        <time>2019-07-18T20:08:03Z</time>
      </trkpt>
      <trkpt lat="-27.544428" lon="-70.85053">
        <ele>164.075</ele>
        <time>2019-07-18T20:08:07Z</time>
      </trkpt>
      <trkpt lat="-27.544579" lon="-70.85056">
        <ele>163.913</ele>
        <time>2019-07-18T20:08:12Z</time>
      </trkpt>
      <trkpt lat="-27.544724" lon="-70.8506">
        <ele>164.03</ele>
        <time>2019-07-18T20:08:17Z</time>
      </trkpt>
      <trkpt lat="-27.544847" lon="-70.850624">
        <ele>163.792</ele>
        <time>2019-07-18T20:08:22Z</time>
      </trkpt>
      <trkpt lat="-27.544975" lon="-70.85063">
        <ele>164.289</ele>
        <time>2019-07-18T20:08:27Z</time>
      </trkpt>
      <trkpt lat="-27.545103" lon="-70.850655">
        <ele>164.172</ele>
        <time>2019-07-18T20:08:32Z</time>
      </trkpt>
      <trkpt lat="-27.545254" lon="-70.850685">
        <ele>164.577</ele>
        <time>2019-07-18T20:08:37Z</time>
      </trkpt>
      <trkpt lat="-27.54538" lon="-70.850716">
        <ele>164.862</ele>
        <time>2019-07-18T20:08:42Z</time>
      </trkpt>
      <trkpt lat="-27.545578" lon="-70.850746">
        <ele>165.118</ele>
        <time>2019-07-18T20:08:50Z</time>
      </trkpt>
      <trkpt lat="-27.545683" lon="-70.85077">
        <ele>165.589</ele>
        <time>2019-07-18T20:08:55Z</time>
      </trkpt>
      <trkpt lat="-27.545807" lon="-70.85078">
        <ele>165.739</ele>
        <time>2019-07-18T20:09:00Z</time>
      </trkpt>
      <trkpt lat="-27.54593" lon="-70.8508">
        <ele>166.054</ele>
        <time>2019-07-18T20:09:05Z</time>
      </trkpt>
      <trkpt lat="-27.546043" lon="-70.850815">
        <ele>166.45</ele>
        <time>2019-07-18T20:09:10Z</time>
      </trkpt>
      <trkpt lat="-27.546154" lon="-70.85083">
        <ele>167.214</ele>
        <time>2019-07-18T20:09:15Z</time>
      </trkpt>
      <trkpt lat="-27.546309" lon="-70.850845">
        <ele>167.335</ele>
        <time>2019-07-18T20:09:21Z</time>
      </trkpt>
      <trkpt lat="-27.546427" lon="-70.85087">
        <ele>167.911</ele>
        <time>2019-07-18T20:09:27Z</time>
      </trkpt>
      <trkpt lat="-27.546537" lon="-70.850876">
        <ele>168.146</ele>
        <time>2019-07-18T20:09:32Z</time>
      </trkpt>
      <trkpt lat="-27.546627" lon="-70.8509">
        <ele>168.656</ele>
        <time>2019-07-18T20:09:37Z</time>
      </trkpt>
      <trkpt lat="-27.546715" lon="-70.8509">
        <ele>169.166</ele>
        <time>2019-07-18T20:09:42Z</time>
      </trkpt>
      <trkpt lat="-27.546804" lon="-70.85091">
        <ele>169.719</ele>
        <time>2019-07-18T20:09:47Z</time>
      </trkpt>
      <trkpt lat="-27.546898" lon="-70.85093">
        <ele>170.054</ele>
        <time>2019-07-18T20:09:52Z</time>
      </trkpt>
      <trkpt lat="-27.54701" lon="-70.85095">
        <ele>170.509</ele>
        <time>2019-07-18T20:09:57Z</time>
      </trkpt>
      <trkpt lat="-27.5471" lon="-70.850975">
        <ele>170.752</ele>
        <time>2019-07-18T20:10:02Z</time>
      </trkpt>
      <trkpt lat="-27.54719" lon="-70.85099">
        <ele>171.14</ele>
        <time>2019-07-18T20:10:07Z</time>
      </trkpt>
      <trkpt lat="-27.547268" lon="-70.851006">
        <ele>171.373</ele>
        <time>2019-07-18T20:10:12Z</time>
      </trkpt>
      <trkpt lat="-27.54736" lon="-70.85103">
        <ele>171.748</ele>
        <time>2019-07-18T20:10:17Z</time>
      </trkpt>
      <trkpt lat="-27.547453" lon="-70.851036">
        <ele>172.237</ele>
        <time>2019-07-18T20:10:22Z</time>
      </trkpt>
      <trkpt lat="-27.54753" lon="-70.85105">
        <ele>172.614</ele>
        <time>2019-07-18T20:10:27Z</time>
      </trkpt>
      <trkpt lat="-27.547615" lon="-70.85107">
        <ele>173.037</ele>
        <time>2019-07-18T20:10:32Z</time>
      </trkpt>
      <trkpt lat="-27.54771" lon="-70.85108">
        <ele>173.352</ele>
        <time>2019-07-18T20:10:37Z</time>
      </trkpt>
      <trkpt lat="-27.547796" lon="-70.85112">
        <ele>174.007</ele>
        <time>2019-07-18T20:10:42Z</time>
      </trkpt>
      <trkpt lat="-27.547882" lon="-70.85117">
        <ele>174.184</ele>
        <time>2019-07-18T20:10:47Z</time>
      </trkpt>
      <trkpt lat="-27.54798" lon="-70.851204">
        <ele>174.321</ele>
        <time>2019-07-18T20:10:52Z</time>
      </trkpt>
      <trkpt lat="-27.548052" lon="-70.85123">
        <ele>174.887</ele>
        <time>2019-07-18T20:10:57Z</time>
      </trkpt>
      <trkpt lat="-27.548134" lon="-70.85124">
        <ele>175.376</ele>
        <time>2019-07-18T20:11:02Z</time>
      </trkpt>
      <trkpt lat="-27.548216" lon="-70.851265">
        <ele>175.606</ele>
        <time>2019-07-18T20:11:07Z</time>
      </trkpt>
      <trkpt lat="-27.548285" lon="-70.85127">
        <ele>176.15</ele>
        <time>2019-07-18T20:11:12Z</time>
      </trkpt>
      <trkpt lat="-27.548368" lon="-70.851295">
        <ele>176.456</ele>
        <time>2019-07-18T20:11:17Z</time>
      </trkpt>
      <trkpt lat="-27.548449" lon="-70.85131">
        <ele>176.551</ele>
        <time>2019-07-18T20:11:22Z</time>
      </trkpt>
      <trkpt lat="-27.548521" lon="-70.85133">
        <ele>176.604</ele>
        <time>2019-07-18T20:11:27Z</time>
      </trkpt>
      <trkpt lat="-27.548582" lon="-70.85134">
        <ele>176.742</ele>
        <time>2019-07-18T20:11:32Z</time>
      </trkpt>
      <trkpt lat="-27.548653" lon="-70.85136">
        <ele>177.236</ele>
        <time>2019-07-18T20:11:37Z</time>
      </trkpt>
      <trkpt lat="-27.548723" lon="-70.85137">
        <ele>177.503</ele>
        <time>2019-07-18T20:11:42Z</time>
      </trkpt>
      <trkpt lat="-27.5488" lon="-70.85138">
        <ele>177.801</ele>
        <time>2019-07-18T20:11:47Z</time>
      </trkpt>
      <trkpt lat="-27.548882" lon="-70.851395">
        <ele>178.417</ele>
        <time>2019-07-18T20:11:52Z</time>
      </trkpt>
      <trkpt lat="-27.54897" lon="-70.85141">
        <ele>178.713</ele>
        <time>2019-07-18T20:11:58Z</time>
      </trkpt>
      <trkpt lat="-27.549053" lon="-70.851425">
        <ele>179.072</ele>
        <time>2019-07-18T20:12:03Z</time>
      </trkpt>
      <trkpt lat="-27.54914" lon="-70.85144">
        <ele>179.144</ele>
        <time>2019-07-18T20:12:08Z</time>
      </trkpt>
      <trkpt lat="-27.549232" lon="-70.85146">
        <ele>179.553</ele>
        <time>2019-07-18T20:12:13Z</time>
      </trkpt>
      <trkpt lat="-27.549326" lon="-70.85148">
        <ele>179.585</ele>
        <time>2019-07-18T20:12:18Z</time>
      </trkpt>
      <trkpt lat="-27.54942" lon="-70.851494">
        <ele>179.894</ele>
        <time>2019-07-18T20:12:23Z</time>
      </trkpt>
      <trkpt lat="-27.54951" lon="-70.85151">
        <ele>180.253</ele>
        <time>2019-07-18T20:12:28Z</time>
      </trkpt>
      <trkpt lat="-27.549582" lon="-70.851524">
        <ele>180.607</ele>
        <time>2019-07-18T20:12:33Z</time>
      </trkpt>
      <trkpt lat="-27.549652" lon="-70.85154">
        <ele>181.027</ele>
        <time>2019-07-18T20:12:38Z</time>
      </trkpt>
      <trkpt lat="-27.54973" lon="-70.851555">
        <ele>181.199</ele>
        <time>2019-07-18T20:12:43Z</time>
      </trkpt>
      <trkpt lat="-27.54981" lon="-70.85157">
        <ele>181.281</ele>
        <time>2019-07-18T20:12:48Z</time>
      </trkpt>
      <trkpt lat="-27.5499" lon="-70.851585">
        <ele>181.596</ele>
        <time>2019-07-18T20:12:53Z</time>
      </trkpt>
      <trkpt lat="-27.549978" lon="-70.85161">
        <ele>182.095</ele>
        <time>2019-07-18T20:12:58Z</time>
      </trkpt>
      <trkpt lat="-27.550077" lon="-70.85163">
        <ele>182.272</ele>
        <time>2019-07-18T20:13:03Z</time>
      </trkpt>
      <trkpt lat="-27.550184" lon="-70.851654">
        <ele>182.161</ele>
        <time>2019-07-18T20:13:08Z</time>
      </trkpt>
      <trkpt lat="-27.55022" lon="-70.85167">
        <ele>183.181</ele>
        <time>2019-07-18T20:13:13Z</time>
      </trkpt>
      <trkpt lat="-27.550451" lon="-70.8517">
        <ele>183.651</ele>
        <time>2019-07-18T20:14:14Z</time>
      </trkpt>
      <trkpt lat="-27.550545" lon="-70.85172">
        <ele>184.13</ele>
        <time>2019-07-18T20:14:19Z</time>
      </trkpt>
      <trkpt lat="-27.550653" lon="-70.85174">
        <ele>184.293</ele>
        <time>2019-07-18T20:14:24Z</time>
      </trkpt>
      <trkpt lat="-27.55075" lon="-70.85176">
        <ele>184.497</ele>
        <time>2019-07-18T20:14:29Z</time>
      </trkpt>
      <trkpt lat="-27.55084" lon="-70.85178">
        <ele>184.658</ele>
        <time>2019-07-18T20:14:34Z</time>
      </trkpt>
      <trkpt lat="-27.550928" lon="-70.8518">
        <ele>184.877</ele>
        <time>2019-07-18T20:14:39Z</time>
      </trkpt>
      <trkpt lat="-27.551025" lon="-70.851814">
        <ele>185.252</ele>
        <time>2019-07-18T20:14:44Z</time>
      </trkpt>
      <trkpt lat="-27.551128" lon="-70.85184">
        <ele>185.62</ele>
        <time>2019-07-18T20:14:49Z</time>
      </trkpt>
      <trkpt lat="-27.551228" lon="-70.85186">
        <ele>185.942</ele>
        <time>2019-07-18T20:14:54Z</time>
      </trkpt>
      <trkpt lat="-27.551323" lon="-70.85188">
        <ele>185.799</ele>
        <time>2019-07-18T20:14:59Z</time>
      </trkpt>
      <trkpt lat="-27.551432" lon="-70.8519">
        <ele>186.132</ele>
        <time>2019-07-18T20:15:04Z</time>
      </trkpt>
      <trkpt lat="-27.551527" lon="-70.85192">
        <ele>186.806</ele>
        <time>2019-07-18T20:15:09Z</time>
      </trkpt>
      <trkpt lat="-27.551695" lon="-70.85196">
        <ele>186.835</ele>
        <time>2019-07-18T20:15:19Z</time>
      </trkpt>
      <trkpt lat="-27.551785" lon="-70.85198">
        <ele>186.88</ele>
        <time>2019-07-18T20:15:24Z</time>
      </trkpt>
      <trkpt lat="-27.551868" lon="-70.852">
        <ele>187.345</ele>
        <time>2019-07-18T20:15:29Z</time>
      </trkpt>
      <trkpt lat="-27.551962" lon="-70.85202">
        <ele>188.074</ele>
        <time>2019-07-18T20:15:34Z</time>
      </trkpt>
      <trkpt lat="-27.552053" lon="-70.85205">
        <ele>187.829</ele>
        <time>2019-07-18T20:15:39Z</time>
      </trkpt>
      <trkpt lat="-27.552137" lon="-70.852066">
        <ele>188.463</ele>
        <time>2019-07-18T20:15:44Z</time>
      </trkpt>
      <trkpt lat="-27.552221" lon="-70.85209">
        <ele>188.487</ele>
        <time>2019-07-18T20:15:49Z</time>
      </trkpt>
      <trkpt lat="-27.552322" lon="-70.85211">
        <ele>188.672</ele>
        <time>2019-07-18T20:15:54Z</time>
      </trkpt>
      <trkpt lat="-27.552423" lon="-70.85213">
        <ele>189.351</ele>
        <time>2019-07-18T20:15:59Z</time>
      </trkpt>
      <trkpt lat="-27.552523" lon="-70.85215">
        <ele>190.08</ele>
        <time>2019-07-18T20:16:05Z</time>
      </trkpt>
      <trkpt lat="-27.55262" lon="-70.85218">
        <ele>189.829</ele>
        <time>2019-07-18T20:16:10Z</time>
      </trkpt>
      <trkpt lat="-27.552736" lon="-70.8522">
        <ele>189.961</ele>
        <time>2019-07-18T20:16:15Z</time>
      </trkpt>
      <trkpt lat="-27.55285" lon="-70.85223">
        <ele>190.627</ele>
        <time>2019-07-18T20:16:20Z</time>
      </trkpt>
      <trkpt lat="-27.552961" lon="-70.85225">
        <ele>190.635</ele>
        <time>2019-07-18T20:16:25Z</time>
      </trkpt>
      <trkpt lat="-27.553064" lon="-70.85227">
        <ele>190.878</ele>
        <time>2019-07-18T20:16:30Z</time>
      </trkpt>
      <trkpt lat="-27.553188" lon="-70.8523">
        <ele>191.464</ele>
        <time>2019-07-18T20:16:36Z</time>
      </trkpt>
      <trkpt lat="-27.553347" lon="-70.852325">
        <ele>191.517</ele>
        <time>2019-07-18T20:16:44Z</time>
      </trkpt>
      <trkpt lat="-27.553438" lon="-70.852356">
        <ele>192.122</ele>
        <time>2019-07-18T20:16:49Z</time>
      </trkpt>
      <trkpt lat="-27.55354" lon="-70.85237">
        <ele>192.387</ele>
        <time>2019-07-18T20:16:54Z</time>
      </trkpt>
      <trkpt lat="-27.55363" lon="-70.852394">
        <ele>192.852</ele>
        <time>2019-07-18T20:16:59Z</time>
      </trkpt>
      <trkpt lat="-27.553726" lon="-70.85242">
        <ele>192.915</ele>
        <time>2019-07-18T20:17:04Z</time>
      </trkpt>
      <trkpt lat="-27.553816" lon="-70.85244">
        <ele>193.465</ele>
        <time>2019-07-18T20:17:09Z</time>
      </trkpt>
      <trkpt lat="-27.553911" lon="-70.85246">
        <ele>194.191</ele>
        <time>2019-07-18T20:17:14Z</time>
      </trkpt>
      <trkpt lat="-27.554" lon="-70.85248">
        <ele>194.596</ele>
        <time>2019-07-18T20:17:19Z</time>
      </trkpt>
      <trkpt lat="-27.55409" lon="-70.8525">
        <ele>194.791</ele>
        <time>2019-07-18T20:17:24Z</time>
      </trkpt>
      <trkpt lat="-27.554184" lon="-70.85252">
        <ele>195.304</ele>
        <time>2019-07-18T20:17:29Z</time>
      </trkpt>
      <trkpt lat="-27.554272" lon="-70.85255">
        <ele>194.984</ele>
        <time>2019-07-18T20:17:34Z</time>
      </trkpt>
      <trkpt lat="-27.554365" lon="-70.85256">
        <ele>196.004</ele>
        <time>2019-07-18T20:17:39Z</time>
      </trkpt>
      <trkpt lat="-27.554453" lon="-70.85259">
        <ele>195.491</ele>
        <time>2019-07-18T20:17:44Z</time>
      </trkpt>
      <trkpt lat="-27.554537" lon="-70.852615">
        <ele>196.038</ele>
        <time>2019-07-18T20:17:49Z</time>
      </trkpt>
      <trkpt lat="-27.554632" lon="-70.85263">
        <ele>196.453</ele>
        <time>2019-07-18T20:17:54Z</time>
      </trkpt>
      <trkpt lat="-27.554728" lon="-70.85265">
        <ele>196.96</ele>
        <time>2019-07-18T20:17:59Z</time>
      </trkpt>
      <trkpt lat="-27.554825" lon="-70.85267">
        <ele>197.037</ele>
        <time>2019-07-18T20:18:04Z</time>
      </trkpt>
      <trkpt lat="-27.554913" lon="-70.85269">
        <ele>197.388</ele>
        <time>2019-07-18T20:18:09Z</time>
      </trkpt>
      <trkpt lat="-27.555006" lon="-70.85272">
        <ele>198.041</ele>
        <time>2019-07-18T20:18:14Z</time>
      </trkpt>
      <trkpt lat="-27.555092" lon="-70.85274">
        <ele>197.658</ele>
        <time>2019-07-18T20:18:19Z</time>
      </trkpt>
      <trkpt lat="-27.555183" lon="-70.85277">
        <ele>198.435</ele>
        <time>2019-07-18T20:18:24Z</time>
      </trkpt>
      <trkpt lat="-27.55526" lon="-70.85278">
        <ele>198.197</ele>
        <time>2019-07-18T20:18:29Z</time>
      </trkpt>
      <trkpt lat="-27.555342" lon="-70.8528">
        <ele>198.91</ele>
        <time>2019-07-18T20:18:34Z</time>
      </trkpt>
      <trkpt lat="-27.55543" lon="-70.85281">
        <ele>199.151</ele>
        <time>2019-07-18T20:18:39Z</time>
      </trkpt>
      <trkpt lat="-27.555513" lon="-70.85284">
        <ele>199.698</ele>
        <time>2019-07-18T20:18:44Z</time>
      </trkpt>
      <trkpt lat="-27.555593" lon="-70.85285">
        <ele>200.128</ele>
        <time>2019-07-18T20:18:49Z</time>
      </trkpt>
      <trkpt lat="-27.555681" lon="-70.85287">
        <ele>200.393</ele>
        <time>2019-07-18T20:18:54Z</time>
      </trkpt>
      <trkpt lat="-27.555758" lon="-70.85288">
        <ele>200.723</ele>
        <time>2019-07-18T20:18:59Z</time>
      </trkpt>
      <trkpt lat="-27.555828" lon="-70.852905">
        <ele>201.016</ele>
        <time>2019-07-18T20:19:04Z</time>
      </trkpt>
      <trkpt lat="-27.555908" lon="-70.85292">
        <ele>201.339</ele>
        <time>2019-07-18T20:19:09Z</time>
      </trkpt>
      <trkpt lat="-27.555988" lon="-70.85294">
        <ele>201.426</ele>
        <time>2019-07-18T20:19:14Z</time>
      </trkpt>
      <trkpt lat="-27.556078" lon="-70.85297">
        <ele>201.722</ele>
        <time>2019-07-18T20:19:19Z</time>
      </trkpt>
      <trkpt lat="-27.55617" lon="-70.85299">
        <ele>202.065</ele>
        <time>2019-07-18T20:19:24Z</time>
      </trkpt>
      <trkpt lat="-27.55627" lon="-70.85301">
        <ele>202.255</ele>
        <time>2019-07-18T20:19:29Z</time>
      </trkpt>
      <trkpt lat="-27.556358" lon="-70.85303">
        <ele>202.644</ele>
        <time>2019-07-18T20:19:34Z</time>
      </trkpt>
      <trkpt lat="-27.556442" lon="-70.85304">
        <ele>202.308</ele>
        <time>2019-07-18T20:19:39Z</time>
      </trkpt>
      <trkpt lat="-27.55648" lon="-70.853065">
        <ele>203.606</ele>
        <time>2019-07-18T20:19:44Z</time>
      </trkpt>
      <trkpt lat="-27.556692" lon="-70.853096">
        <ele>203.931</ele>
        <time>2019-07-18T20:20:57Z</time>
      </trkpt>
      <trkpt lat="-27.556772" lon="-70.85312">
        <ele>204.554</ele>
        <time>2019-07-18T20:21:02Z</time>
      </trkpt>
      <trkpt lat="-27.556871" lon="-70.85314">
        <ele>204.808</ele>
        <time>2019-07-18T20:21:07Z</time>
      </trkpt>
      <trkpt lat="-27.55697" lon="-70.85316">
        <ele>205.371</ele>
        <time>2019-07-18T20:21:12Z</time>
      </trkpt>
      <trkpt lat="-27.557064" lon="-70.85318">
        <ele>206.251</ele>
        <time>2019-07-18T20:21:17Z</time>
      </trkpt>
      <trkpt lat="-27.557163" lon="-70.853195">
        <ele>206.562</ele>
        <time>2019-07-18T20:21:22Z</time>
      </trkpt>
      <trkpt lat="-27.557253" lon="-70.85321">
        <ele>206.829</ele>
        <time>2019-07-18T20:21:27Z</time>
      </trkpt>
      <trkpt lat="-27.557348" lon="-70.85323">
        <ele>207.833</ele>
        <time>2019-07-18T20:21:32Z</time>
      </trkpt>
      <trkpt lat="-27.557432" lon="-70.85325">
        <ele>208.061</ele>
        <time>2019-07-18T20:21:37Z</time>
      </trkpt>
      <trkpt lat="-27.557514" lon="-70.85327">
        <ele>208.333</ele>
        <time>2019-07-18T20:21:42Z</time>
      </trkpt>
      <trkpt lat="-27.557592" lon="-70.85328">
        <ele>208.56</ele>
        <time>2019-07-18T20:21:47Z</time>
      </trkpt>
      <trkpt lat="-27.55769" lon="-70.8533">
        <ele>208.943</ele>
        <time>2019-07-18T20:21:52Z</time>
      </trkpt>
      <trkpt lat="-27.557766" lon="-70.85332">
        <ele>209.522</ele>
        <time>2019-07-18T20:21:57Z</time>
      </trkpt>
      <trkpt lat="-27.557838" lon="-70.85333">
        <ele>209.767</ele>
        <time>2019-07-18T20:22:02Z</time>
      </trkpt>
      <trkpt lat="-27.557936" lon="-70.853355">
        <ele>210.217</ele>
        <time>2019-07-18T20:22:07Z</time>
      </trkpt>
      <trkpt lat="-27.558027" lon="-70.85337">
        <ele>210.116</ele>
        <time>2019-07-18T20:22:12Z</time>
      </trkpt>
      <trkpt lat="-27.558115" lon="-70.85339">
        <ele>210.47</ele>
        <time>2019-07-18T20:22:17Z</time>
      </trkpt>
      <trkpt lat="-27.558203" lon="-70.85342">
        <ele>210.946</ele>
        <time>2019-07-18T20:22:22Z</time>
      </trkpt>
      <trkpt lat="-27.558285" lon="-70.85343">
        <ele>211.321</ele>
        <time>2019-07-18T20:22:27Z</time>
      </trkpt>
      <trkpt lat="-27.558372" lon="-70.853455">
        <ele>211.802</ele>
        <time>2019-07-18T20:22:32Z</time>
      </trkpt>
      <trkpt lat="-27.558462" lon="-70.85348">
        <ele>212.109</ele>
        <time>2019-07-18T20:22:37Z</time>
      </trkpt>
      <trkpt lat="-27.558542" lon="-70.85349">
        <ele>212.471</ele>
        <time>2019-07-18T20:22:42Z</time>
      </trkpt>
      <trkpt lat="-27.558615" lon="-70.8535">
        <ele>213.554</ele>
        <time>2019-07-18T20:22:47Z</time>
      </trkpt>
      <trkpt lat="-27.558695" lon="-70.85352">
        <ele>213.551</ele>
        <time>2019-07-18T20:22:52Z</time>
      </trkpt>
      <trkpt lat="-27.55879" lon="-70.853546">
        <ele>213.94</ele>
        <time>2019-07-18T20:22:57Z</time>
      </trkpt>
      <trkpt lat="-27.558878" lon="-70.85357">
        <ele>214.473</ele>
        <time>2019-07-18T20:23:02Z</time>
      </trkpt>
      <trkpt lat="-27.55897" lon="-70.85359">
        <ele>214.64</ele>
        <time>2019-07-18T20:23:07Z</time>
      </trkpt>
      <trkpt lat="-27.559061" lon="-70.85361">
        <ele>215.129</ele>
        <time>2019-07-18T20:23:12Z</time>
      </trkpt>
      <trkpt lat="-27.559149" lon="-70.85363">
        <ele>215.721</ele>
        <time>2019-07-18T20:23:17Z</time>
      </trkpt>
      <trkpt lat="-27.55923" lon="-70.853645">
        <ele>216.032</ele>
        <time>2019-07-18T20:23:22Z</time>
      </trkpt>
      <trkpt lat="-27.559332" lon="-70.85366">
        <ele>216.307</ele>
        <time>2019-07-18T20:23:27Z</time>
      </trkpt>
      <trkpt lat="-27.559431" lon="-70.85368">
        <ele>216.87</ele>
        <time>2019-07-18T20:23:32Z</time>
      </trkpt>
      <trkpt lat="-27.559528" lon="-70.853714">
        <ele>217.174</ele>
        <time>2019-07-18T20:23:37Z</time>
      </trkpt>
      <trkpt lat="-27.559614" lon="-70.85374">
        <ele>217.552</ele>
        <time>2019-07-18T20:23:42Z</time>
      </trkpt>
      <trkpt lat="-27.559687" lon="-70.85375">
        <ele>217.792</ele>
        <time>2019-07-18T20:23:47Z</time>
      </trkpt>
      <trkpt lat="-27.559761" lon="-70.85376">
        <ele>218.236</ele>
        <time>2019-07-18T20:23:52Z</time>
      </trkpt>
      <trkpt lat="-27.55984" lon="-70.853775">
        <ele>218.249</ele>
        <time>2019-07-18T20:23:57Z</time>
      </trkpt>
      <trkpt lat="-27.559904" lon="-70.8538">
        <ele>218.743</ele>
        <time>2019-07-18T20:24:02Z</time>
      </trkpt>
      <trkpt lat="-27.559975" lon="-70.85382">
        <ele>219.084</ele>
        <time>2019-07-18T20:24:07Z</time>
      </trkpt>
      <trkpt lat="-27.560053" lon="-70.853836">
        <ele>219.28</ele>
        <time>2019-07-18T20:24:12Z</time>
      </trkpt>
      <trkpt lat="-27.560316" lon="-70.8539">
        <ele>219.79</ele>
        <time>2019-07-18T20:27:39Z</time>
      </trkpt>
      <trkpt lat="-27.560387" lon="-70.85391">
        <ele>220.424</ele>
        <time>2019-07-18T20:27:44Z</time>
      </trkpt>
      <trkpt lat="-27.560461" lon="-70.853935">
        <ele>220.913</ele>
        <time>2019-07-18T20:27:49Z</time>
      </trkpt>
      <trkpt lat="-27.560543" lon="-70.85395">
        <ele>220.886</ele>
        <time>2019-07-18T20:27:54Z</time>
      </trkpt>
      <trkpt lat="-27.560617" lon="-70.853966">
        <ele>221.42</ele>
        <time>2019-07-18T20:27:59Z</time>
      </trkpt>
      <trkpt lat="-27.560703" lon="-70.85398">
        <ele>221.703</ele>
        <time>2019-07-18T20:28:04Z</time>
      </trkpt>
      <trkpt lat="-27.560797" lon="-70.854004">
        <ele>222.041</ele>
        <time>2019-07-18T20:28:09Z</time>
      </trkpt>
      <trkpt lat="-27.56088" lon="-70.85402">
        <ele>222.625</ele>
        <time>2019-07-18T20:28:14Z</time>
      </trkpt>
      <trkpt lat="-27.560966" lon="-70.854034">
        <ele>222.81</ele>
        <time>2019-07-18T20:28:19Z</time>
      </trkpt>
      <trkpt lat="-27.561064" lon="-70.854065">
        <ele>222.762</ele>
        <time>2019-07-18T20:28:24Z</time>
      </trkpt>
      <trkpt lat="-27.561155" lon="-70.85409">
        <ele>222.955</ele>
        <time>2019-07-18T20:28:29Z</time>
      </trkpt>
      <trkpt lat="-27.561245" lon="-70.85412">
        <ele>223.655</ele>
        <time>2019-07-18T20:28:34Z</time>
      </trkpt>
      <trkpt lat="-27.561323" lon="-70.854126">
        <ele>223.867</ele>
        <time>2019-07-18T20:28:39Z</time>
      </trkpt>
      <trkpt lat="-27.561396" lon="-70.85414">
        <ele>224.567</ele>
        <time>2019-07-18T20:28:44Z</time>
      </trkpt>
      <trkpt lat="-27.561464" lon="-70.85415">
        <ele>224.622</ele>
        <time>2019-07-18T20:28:49Z</time>
      </trkpt>
      <trkpt lat="-27.561543" lon="-70.85417">
        <ele>224.813</ele>
        <time>2019-07-18T20:28:54Z</time>
      </trkpt>
      <trkpt lat="-27.56162" lon="-70.854195">
        <ele>225.214</ele>
        <time>2019-07-18T20:28:59Z</time>
      </trkpt>
      <trkpt lat="-27.561707" lon="-70.85422">
        <ele>225.132</ele>
        <time>2019-07-18T20:29:04Z</time>
      </trkpt>
      <trkpt lat="-27.561798" lon="-70.85424">
        <ele>225.27</ele>
        <time>2019-07-18T20:29:09Z</time>
      </trkpt>
      <trkpt lat="-27.561886" lon="-70.854256">
        <ele>225.544</ele>
        <time>2019-07-18T20:29:14Z</time>
      </trkpt>
      <trkpt lat="-27.561981" lon="-70.85426">
        <ele>225.761</ele>
        <time>2019-07-18T20:29:19Z</time>
      </trkpt>
      <trkpt lat="-27.562115" lon="-70.85431">
        <ele>225.875</ele>
        <time>2019-07-18T20:29:27Z</time>
      </trkpt>
      <trkpt lat="-27.562206" lon="-70.854324">
        <ele>226.017</ele>
        <time>2019-07-18T20:29:32Z</time>
      </trkpt>
      <trkpt lat="-27.562296" lon="-70.85435">
        <ele>226.776</ele>
        <time>2019-07-18T20:29:37Z</time>
      </trkpt>
      <trkpt lat="-27.562391" lon="-70.85437">
        <ele>226.707</ele>
        <time>2019-07-18T20:29:42Z</time>
      </trkpt>
      <trkpt lat="-27.562498" lon="-70.8544">
        <ele>227.286</ele>
        <time>2019-07-18T20:29:47Z</time>
      </trkpt>
      <trkpt lat="-27.562613" lon="-70.85442">
        <ele>227.064</ele>
        <time>2019-07-18T20:29:52Z</time>
      </trkpt>
      <trkpt lat="-27.562738" lon="-70.85445">
        <ele>227.402</ele>
        <time>2019-07-18T20:29:57Z</time>
      </trkpt>
      <trkpt lat="-27.562859" lon="-70.85446">
        <ele>227.566</ele>
        <time>2019-07-18T20:30:02Z</time>
      </trkpt>
      <trkpt lat="-27.562967" lon="-70.85449">
        <ele>227.735</ele>
        <time>2019-07-18T20:30:07Z</time>
      </trkpt>
      <trkpt lat="-27.563072" lon="-70.85453">
        <ele>228.401</ele>
        <time>2019-07-18T20:30:12Z</time>
      </trkpt>
      <trkpt lat="-27.56318" lon="-70.854546">
        <ele>227.759</ele>
        <time>2019-07-18T20:30:17Z</time>
      </trkpt>
      <trkpt lat="-27.56328" lon="-70.85457">
        <ele>227.775</ele>
        <time>2019-07-18T20:30:22Z</time>
      </trkpt>
      <trkpt lat="-27.563389" lon="-70.8546">
        <ele>228.58</ele>
        <time>2019-07-18T20:30:27Z</time>
      </trkpt>
      <trkpt lat="-27.563501" lon="-70.85462">
        <ele>228.129</ele>
        <time>2019-07-18T20:30:32Z</time>
      </trkpt>
      <trkpt lat="-27.56361" lon="-70.85465">
        <ele>229.024</ele>
        <time>2019-07-18T20:30:37Z</time>
      </trkpt>
      <trkpt lat="-27.563732" lon="-70.85468">
        <ele>228.866</ele>
        <time>2019-07-18T20:30:42Z</time>
      </trkpt>
      <trkpt lat="-27.56384" lon="-70.8547">
        <ele>229.627</ele>
        <time>2019-07-18T20:30:47Z</time>
      </trkpt>
      <trkpt lat="-27.563942" lon="-70.85472">
        <ele>229.624</ele>
        <time>2019-07-18T20:30:52Z</time>
      </trkpt>
      <trkpt lat="-27.564053" lon="-70.854744">
        <ele>230.005</ele>
        <time>2019-07-18T20:30:57Z</time>
      </trkpt>
      <trkpt lat="-27.564154" lon="-70.854774">
        <ele>229.793</ele>
        <time>2019-07-18T20:31:02Z</time>
      </trkpt>
      <trkpt lat="-27.564247" lon="-70.8548">
        <ele>230.063</ele>
        <time>2019-07-18T20:31:07Z</time>
      </trkpt>
      <trkpt lat="-27.56434" lon="-70.85481">
        <ele>230.269</ele>
        <time>2019-07-18T20:31:12Z</time>
      </trkpt>
      <trkpt lat="-27.564436" lon="-70.854836">
        <ele>230.464</ele>
        <time>2019-07-18T20:31:17Z</time>
      </trkpt>
      <trkpt lat="-27.564543" lon="-70.85486">
        <ele>230.895</ele>
        <time>2019-07-18T20:31:22Z</time>
      </trkpt>
      <trkpt lat="-27.564655" lon="-70.85488">
        <ele>230.618</ele>
        <time>2019-07-18T20:31:27Z</time>
      </trkpt>
      <trkpt lat="-27.564758" lon="-70.854904">
        <ele>231.447</ele>
        <time>2019-07-18T20:31:32Z</time>
      </trkpt>
      <trkpt lat="-27.564875" lon="-70.85493">
        <ele>229.822</ele>
        <time>2019-07-18T20:31:37Z</time>
      </trkpt>
      <trkpt lat="-27.564993" lon="-70.85495">
        <ele>231.408</ele>
        <time>2019-07-18T20:31:42Z</time>
      </trkpt>
      <trkpt lat="-27.565096" lon="-70.85497">
        <ele>231.191</ele>
        <time>2019-07-18T20:31:47Z</time>
      </trkpt>
      <trkpt lat="-27.565212" lon="-70.855">
        <ele>231.046</ele>
        <time>2019-07-18T20:31:52Z</time>
      </trkpt>
      <trkpt lat="-27.56532" lon="-70.85503">
        <ele>231.672</ele>
        <time>2019-07-18T20:31:57Z</time>
      </trkpt>
      <trkpt lat="-27.565458" lon="-70.85506">
        <ele>231.305</ele>
        <time>2019-07-18T20:32:02Z</time>
      </trkpt>
      <trkpt lat="-27.565588" lon="-70.855095">
        <ele>231.051</ele>
        <time>2019-07-18T20:32:07Z</time>
      </trkpt>
      <trkpt lat="-27.565699" lon="-70.85512">
        <ele>231.143</ele>
        <time>2019-07-18T20:32:12Z</time>
      </trkpt>
      <trkpt lat="-27.565805" lon="-70.85515">
        <ele>231.609</ele>
        <time>2019-07-18T20:32:17Z</time>
      </trkpt>
      <trkpt lat="-27.56587" lon="-70.855156">
        <ele>230.922</ele>
        <time>2019-07-18T20:32:22Z</time>
      </trkpt>
      <trkpt lat="-27.565954" lon="-70.85519">
        <ele>230.935</ele>
        <time>2019-07-18T20:32:27Z</time>
      </trkpt>
      <trkpt lat="-27.566017" lon="-70.85521">
        <ele>230.916</ele>
        <time>2019-07-18T20:32:32Z</time>
      </trkpt>
      <trkpt lat="-27.566145" lon="-70.85521">
        <ele>231.305</ele>
        <time>2019-07-18T20:32:42Z</time>
      </trkpt>
      <trkpt lat="-27.566204" lon="-70.85524">
        <ele>231.069</ele>
        <time>2019-07-18T20:32:47Z</time>
      </trkpt>
      <trkpt lat="-27.566294" lon="-70.85525">
        <ele>230.47</ele>
        <time>2019-07-18T20:32:52Z</time>
      </trkpt>
      <trkpt lat="-27.566402" lon="-70.85527">
        <ele>229.962</ele>
        <time>2019-07-18T20:32:57Z</time>
      </trkpt>
      <trkpt lat="-27.566517" lon="-70.8553">
        <ele>230.216</ele>
        <time>2019-07-18T20:33:02Z</time>
      </trkpt>
      <trkpt lat="-27.566608" lon="-70.85532">
        <ele>230.264</ele>
        <time>2019-07-18T20:33:07Z</time>
      </trkpt>
      <trkpt lat="-27.56674" lon="-70.85536">
        <ele>230.885</ele>
        <time>2019-07-18T20:33:12Z</time>
      </trkpt>
      <trkpt lat="-27.566881" lon="-70.8554">
        <ele>230.129</ele>
        <time>2019-07-18T20:33:17Z</time>
      </trkpt>
      <trkpt lat="-27.567001" lon="-70.85543">
        <ele>229.336</ele>
        <time>2019-07-18T20:33:22Z</time>
      </trkpt>
      <trkpt lat="-27.567081" lon="-70.85544">
        <ele>229.725</ele>
        <time>2019-07-18T20:33:27Z</time>
      </trkpt>
      <trkpt lat="-27.56717" lon="-70.85546">
        <ele>229.828</ele>
        <time>2019-07-18T20:33:32Z</time>
      </trkpt>
      <trkpt lat="-27.567293" lon="-70.855484">
        <ele>229.085</ele>
        <time>2019-07-18T20:33:37Z</time>
      </trkpt>
      <trkpt lat="-27.567444" lon="-70.855515">
        <ele>228.845</ele>
        <time>2019-07-18T20:33:42Z</time>
      </trkpt>
      <trkpt lat="-27.567589" lon="-70.85555">
        <ele>228.322</ele>
        <time>2019-07-18T20:33:47Z</time>
      </trkpt>
      <trkpt lat="-27.5677" lon="-70.85557">
        <ele>228.438</ele>
        <time>2019-07-18T20:33:52Z</time>
      </trkpt>
      <trkpt lat="-27.567799" lon="-70.85559">
        <ele>228.274</ele>
        <time>2019-07-18T20:33:57Z</time>
      </trkpt>
      <trkpt lat="-27.56789" lon="-70.855606">
        <ele>227.875</ele>
        <time>2019-07-18T20:34:02Z</time>
      </trkpt>
      <trkpt lat="-27.567968" lon="-70.85563">
        <ele>228.06</ele>
        <time>2019-07-18T20:34:07Z</time>
      </trkpt>
      <trkpt lat="-27.568031" lon="-70.85565">
        <ele>227.41</ele>
        <time>2019-07-18T20:34:12Z</time>
      </trkpt>
      <trkpt lat="-27.56816" lon="-70.85568">
        <ele>227.222</ele>
        <time>2019-07-18T20:34:17Z</time>
      </trkpt>
      <trkpt lat="-27.568317" lon="-70.85572">
        <ele>226.755</ele>
        <time>2019-07-18T20:34:22Z</time>
      </trkpt>
      <trkpt lat="-27.568476" lon="-70.85575">
        <ele>226.731</ele>
        <time>2019-07-18T20:34:27Z</time>
      </trkpt>
      <trkpt lat="-27.568617" lon="-70.85579">
        <ele>225.943</ele>
        <time>2019-07-18T20:34:32Z</time>
      </trkpt>
      <trkpt lat="-27.568727" lon="-70.855804">
        <ele>226.253</ele>
        <time>2019-07-18T20:34:37Z</time>
      </trkpt>
      <trkpt lat="-27.568829" lon="-70.85583">
        <ele>226.015</ele>
        <time>2019-07-18T20:34:42Z</time>
      </trkpt>
      <trkpt lat="-27.568968" lon="-70.85586">
        <ele>226.844</ele>
        <time>2019-07-18T20:34:47Z</time>
      </trkpt>
      <trkpt lat="-27.569117" lon="-70.855896">
        <ele>225.864</ele>
        <time>2019-07-18T20:34:52Z</time>
      </trkpt>
      <trkpt lat="-27.569265" lon="-70.85593">
        <ele>225.478</ele>
        <time>2019-07-18T20:34:57Z</time>
      </trkpt>
      <trkpt lat="-27.569418" lon="-70.85596">
        <ele>225.629</ele>
        <time>2019-07-18T20:35:02Z</time>
      </trkpt>
      <trkpt lat="-27.569567" lon="-70.855995">
        <ele>225.206</ele>
        <time>2019-07-18T20:35:07Z</time>
      </trkpt>
      <trkpt lat="-27.56972" lon="-70.856026">
        <ele>225.568</ele>
        <time>2019-07-18T20:35:12Z</time>
      </trkpt>
      <trkpt lat="-27.569885" lon="-70.85607">
        <ele>225.827</ele>
        <time>2019-07-18T20:35:17Z</time>
      </trkpt>
      <trkpt lat="-27.57004" lon="-70.8561">
        <ele>225.341</ele>
        <time>2019-07-18T20:35:22Z</time>
      </trkpt>
      <trkpt lat="-27.570194" lon="-70.85614">
        <ele>225.415</ele>
        <time>2019-07-18T20:35:27Z</time>
      </trkpt>
      <trkpt lat="-27.570333" lon="-70.85617">
        <ele>225.537</ele>
        <time>2019-07-18T20:35:32Z</time>
      </trkpt>
      <trkpt lat="-27.570454" lon="-70.8562">
        <ele>225.883</ele>
        <time>2019-07-18T20:35:37Z</time>
      </trkpt>
      <trkpt lat="-27.570606" lon="-70.85623">
        <ele>225.262</ele>
        <time>2019-07-18T20:35:42Z</time>
      </trkpt>
      <trkpt lat="-27.570751" lon="-70.85627">
        <ele>226.276</ele>
        <time>2019-07-18T20:35:47Z</time>
      </trkpt>
      <trkpt lat="-27.57087" lon="-70.856285">
        <ele>224.884</ele>
        <time>2019-07-18T20:35:52Z</time>
      </trkpt>
      <trkpt lat="-27.571047" lon="-70.856316">
        <ele>225.996</ele>
        <time>2019-07-18T20:35:59Z</time>
      </trkpt>
      <trkpt lat="-27.571188" lon="-70.85634">
        <ele>225.605</ele>
        <time>2019-07-18T20:36:04Z</time>
      </trkpt>
      <trkpt lat="-27.571335" lon="-70.85638">
        <ele>225.962</ele>
        <time>2019-07-18T20:36:09Z</time>
      </trkpt>
      <trkpt lat="-27.57146" lon="-70.85639">
        <ele>225.013</ele>
        <time>2019-07-18T20:36:14Z</time>
      </trkpt>
      <trkpt lat="-27.571579" lon="-70.856415">
        <ele>224.614</ele>
        <time>2019-07-18T20:36:19Z</time>
      </trkpt>
      <trkpt lat="-27.571638" lon="-70.85645">
        <ele>226.142</ele>
        <time>2019-07-18T20:36:24Z</time>
      </trkpt>
      <trkpt lat="-27.57199" lon="-70.85648">
        <ele>226.057</ele>
        <time>2019-07-18T20:40:22Z</time>
      </trkpt>
      <trkpt lat="-27.572098" lon="-70.856514">
        <ele>226.419</ele>
        <time>2019-07-18T20:40:27Z</time>
      </trkpt>
      <trkpt lat="-27.572182" lon="-70.85651">
        <ele>226.379</ele>
        <time>2019-07-18T20:40:32Z</time>
      </trkpt>
      <trkpt lat="-27.572304" lon="-70.856544">
        <ele>225.943</ele>
        <time>2019-07-18T20:40:37Z</time>
      </trkpt>
      <trkpt lat="-27.572426" lon="-70.85658">
        <ele>225.959</ele>
        <time>2019-07-18T20:40:42Z</time>
      </trkpt>
      <trkpt lat="-27.572542" lon="-70.8566">
        <ele>226.377</ele>
        <time>2019-07-18T20:40:47Z</time>
      </trkpt>
      <trkpt lat="-27.572659" lon="-70.856606">
        <ele>226.147</ele>
        <time>2019-07-18T20:40:52Z</time>
      </trkpt>
      <trkpt lat="-27.57276" lon="-70.85663">
        <ele>226.379</ele>
        <time>2019-07-18T20:40:57Z</time>
      </trkpt>
      <trkpt lat="-27.572872" lon="-70.85664">
        <ele>226.084</ele>
        <time>2019-07-18T20:41:02Z</time>
      </trkpt>
      <trkpt lat="-27.572989" lon="-70.85667">
        <ele>226.332</ele>
        <time>2019-07-18T20:41:07Z</time>
      </trkpt>
      <trkpt lat="-27.573137" lon="-70.8567">
        <ele>226.335</ele>
        <time>2019-07-18T20:41:12Z</time>
      </trkpt>
      <trkpt lat="-27.573261" lon="-70.85671">
        <ele>225.904</ele>
        <time>2019-07-18T20:41:17Z</time>
      </trkpt>
      <trkpt lat="-27.573374" lon="-70.856735">
        <ele>226.522</ele>
        <time>2019-07-18T20:41:22Z</time>
      </trkpt>
      <trkpt lat="-27.573483" lon="-70.85677">
        <ele>226.298</ele>
        <time>2019-07-18T20:41:27Z</time>
      </trkpt>
      <trkpt lat="-27.573595" lon="-70.85678">
        <ele>226.456</ele>
        <time>2019-07-18T20:41:32Z</time>
      </trkpt>
      <trkpt lat="-27.573706" lon="-70.8568">
        <ele>226.567</ele>
        <time>2019-07-18T20:41:37Z</time>
      </trkpt>
      <trkpt lat="-27.573814" lon="-70.85681">
        <ele>226.934</ele>
        <time>2019-07-18T20:41:42Z</time>
      </trkpt>
      <trkpt lat="-27.57392" lon="-70.85685">
        <ele>226.652</ele>
        <time>2019-07-18T20:41:47Z</time>
      </trkpt>
      <trkpt lat="-27.574007" lon="-70.85684">
        <ele>226.673</ele>
        <time>2019-07-18T20:41:52Z</time>
      </trkpt>
      <trkpt lat="-27.574116" lon="-70.85687">
        <ele>226.789</ele>
        <time>2019-07-18T20:41:57Z</time>
      </trkpt>
      <trkpt lat="-27.574215" lon="-70.856895">
        <ele>226.739</ele>
        <time>2019-07-18T20:42:02Z</time>
      </trkpt>
      <trkpt lat="-27.57433" lon="-70.85691">
        <ele>226.815</ele>
        <time>2019-07-18T20:42:07Z</time>
      </trkpt>
      <trkpt lat="-27.574448" lon="-70.85694">
        <ele>226.628</ele>
        <time>2019-07-18T20:42:13Z</time>
      </trkpt>
      <trkpt lat="-27.574547" lon="-70.85695">
        <ele>227.259</ele>
        <time>2019-07-18T20:42:18Z</time>
      </trkpt>
      <trkpt lat="-27.574656" lon="-70.85699">
        <ele>227.399</ele>
        <time>2019-07-18T20:42:23Z</time>
      </trkpt>
      <trkpt lat="-27.574747" lon="-70.857">
        <ele>227.339</ele>
        <time>2019-07-18T20:42:28Z</time>
      </trkpt>
      <trkpt lat="-27.574854" lon="-70.85702">
        <ele>227.13</ele>
        <time>2019-07-18T20:42:33Z</time>
      </trkpt>
      <trkpt lat="-27.57496" lon="-70.85704">
        <ele>227.04</ele>
        <time>2019-07-18T20:42:38Z</time>
      </trkpt>
      <trkpt lat="-27.575054" lon="-70.857056">
        <ele>227.323</ele>
        <time>2019-07-18T20:42:43Z</time>
      </trkpt>
      <trkpt lat="-27.575153" lon="-70.85707">
        <ele>227.502</ele>
        <time>2019-07-18T20:42:48Z</time>
      </trkpt>
      <trkpt lat="-27.575247" lon="-70.857086">
        <ele>227.421</ele>
        <time>2019-07-18T20:42:53Z</time>
      </trkpt>
      <trkpt lat="-27.575346" lon="-70.85711">
        <ele>227.709</ele>
        <time>2019-07-18T20:42:58Z</time>
      </trkpt>
      <trkpt lat="-27.575426" lon="-70.85711">
        <ele>227.777</ele>
        <time>2019-07-18T20:43:03Z</time>
      </trkpt>
      <trkpt lat="-27.575516" lon="-70.85713">
        <ele>227.79</ele>
        <time>2019-07-18T20:43:08Z</time>
      </trkpt>
      <trkpt lat="-27.575607" lon="-70.857155">
        <ele>228.388</ele>
        <time>2019-07-18T20:43:13Z</time>
      </trkpt>
      <trkpt lat="-27.575697" lon="-70.857155">
        <ele>228.477</ele>
        <time>2019-07-18T20:43:18Z</time>
      </trkpt>
      <trkpt lat="-27.575783" lon="-70.85718">
        <ele>228.551</ele>
        <time>2019-07-18T20:43:23Z</time>
      </trkpt>
      <trkpt lat="-27.57588" lon="-70.85719">
        <ele>228.29</ele>
        <time>2019-07-18T20:43:28Z</time>
      </trkpt>
      <trkpt lat="-27.57596" lon="-70.857216">
        <ele>229.051</ele>
        <time>2019-07-18T20:43:33Z</time>
      </trkpt>
      <trkpt lat="-27.576042" lon="-70.857216">
        <ele>228.979</ele>
        <time>2019-07-18T20:43:38Z</time>
      </trkpt>
      <trkpt lat="-27.576134" lon="-70.85724">
        <ele>229.167</ele>
        <time>2019-07-18T20:43:43Z</time>
      </trkpt>
      <trkpt lat="-27.576227" lon="-70.857254">
        <ele>229.088</ele>
        <time>2019-07-18T20:43:48Z</time>
      </trkpt>
      <trkpt lat="-27.576323" lon="-70.85728">
        <ele>229.352</ele>
        <time>2019-07-18T20:43:53Z</time>
      </trkpt>
      <trkpt lat="-27.57642" lon="-70.8573">
        <ele>229.54</ele>
        <time>2019-07-18T20:43:58Z</time>
      </trkpt>
      <trkpt lat="-27.57651" lon="-70.85731">
        <ele>229.849</ele>
        <time>2019-07-18T20:44:03Z</time>
      </trkpt>
      <trkpt lat="-27.576576" lon="-70.857315">
        <ele>230.235</ele>
        <time>2019-07-18T20:44:08Z</time>
      </trkpt>
      <trkpt lat="-27.57666" lon="-70.85733">
        <ele>230.393</ele>
        <time>2019-07-18T20:44:13Z</time>
      </trkpt>
      <trkpt lat="-27.576754" lon="-70.85735">
        <ele>230.023</ele>
        <time>2019-07-18T20:44:18Z</time>
      </trkpt>
      <trkpt lat="-27.576834" lon="-70.857376">
        <ele>230.285</ele>
        <time>2019-07-18T20:44:23Z</time>
      </trkpt>
      <trkpt lat="-27.576914" lon="-70.85738">
        <ele>230.549</ele>
        <time>2019-07-18T20:44:28Z</time>
      </trkpt>
      <trkpt lat="-27.576992" lon="-70.8574">
        <ele>230.752</ele>
        <time>2019-07-18T20:44:33Z</time>
      </trkpt>
      <trkpt lat="-27.577082" lon="-70.85741">
        <ele>231.35</ele>
        <time>2019-07-18T20:44:38Z</time>
      </trkpt>
      <trkpt lat="-27.57717" lon="-70.85743">
        <ele>231.749</ele>
        <time>2019-07-18T20:44:44Z</time>
      </trkpt>
      <trkpt lat="-27.57728" lon="-70.857445">
        <ele>231.912</ele>
        <time>2019-07-18T20:44:49Z</time>
      </trkpt>
      <trkpt lat="-27.57738" lon="-70.85746">
        <ele>231.984</ele>
        <time>2019-07-18T20:44:54Z</time>
      </trkpt>
      <trkpt lat="-27.577475" lon="-70.85748">
        <ele>232.406</ele>
        <time>2019-07-18T20:44:59Z</time>
      </trkpt>
      <trkpt lat="-27.577564" lon="-70.85749">
        <ele>232.438</ele>
        <time>2019-07-18T20:45:04Z</time>
      </trkpt>
      <trkpt lat="-27.577662" lon="-70.85751">
        <ele>232.148</ele>
        <time>2019-07-18T20:45:09Z</time>
      </trkpt>
      <trkpt lat="-27.577759" lon="-70.85754">
        <ele>233.07</ele>
        <time>2019-07-18T20:45:14Z</time>
      </trkpt>
      <trkpt lat="-27.577877" lon="-70.85755">
        <ele>233.072</ele>
        <time>2019-07-18T20:45:19Z</time>
      </trkpt>
      <trkpt lat="-27.578032" lon="-70.85759">
        <ele>233.31</ele>
        <time>2019-07-18T20:45:27Z</time>
      </trkpt>
      <trkpt lat="-27.578136" lon="-70.85761">
        <ele>233.701</ele>
        <time>2019-07-18T20:45:32Z</time>
      </trkpt>
      <trkpt lat="-27.578238" lon="-70.857635">
        <ele>233.791</ele>
        <time>2019-07-18T20:45:37Z</time>
      </trkpt>
      <trkpt lat="-27.57834" lon="-70.85764">
        <ele>233.524</ele>
        <time>2019-07-18T20:45:42Z</time>
      </trkpt>
      <trkpt lat="-27.578438" lon="-70.857666">
        <ele>234.063</ele>
        <time>2019-07-18T20:45:47Z</time>
      </trkpt>
      <trkpt lat="-27.578531" lon="-70.85767">
        <ele>234.555</ele>
        <time>2019-07-18T20:45:52Z</time>
      </trkpt>
      <trkpt lat="-27.578646" lon="-70.8577">
        <ele>234.578</ele>
        <time>2019-07-18T20:45:57Z</time>
      </trkpt>
      <trkpt lat="-27.578749" lon="-70.85772">
        <ele>234.703</ele>
        <time>2019-07-18T20:46:02Z</time>
      </trkpt>
      <trkpt lat="-27.57884" lon="-70.85774">
        <ele>235.154</ele>
        <time>2019-07-18T20:46:07Z</time>
      </trkpt>
      <trkpt lat="-27.578936" lon="-70.85776">
        <ele>235.482</ele>
        <time>2019-07-18T20:46:12Z</time>
      </trkpt>
      <trkpt lat="-27.579033" lon="-70.85777">
        <ele>235.659</ele>
        <time>2019-07-18T20:46:17Z</time>
      </trkpt>
      <trkpt lat="-27.579105" lon="-70.85777">
        <ele>235.884</ele>
        <time>2019-07-18T20:46:22Z</time>
      </trkpt>
      <trkpt lat="-27.57919" lon="-70.85779">
        <ele>236.254</ele>
        <time>2019-07-18T20:46:27Z</time>
      </trkpt>
      <trkpt lat="-27.579285" lon="-70.8578">
        <ele>236.536</ele>
        <time>2019-07-18T20:46:32Z</time>
      </trkpt>
      <trkpt lat="-27.579382" lon="-70.857834">
        <ele>236.676</ele>
        <time>2019-07-18T20:46:37Z</time>
      </trkpt>
      <trkpt lat="-27.57948" lon="-70.85785">
        <ele>236.579</ele>
        <time>2019-07-18T20:46:42Z</time>
      </trkpt>
      <trkpt lat="-27.579567" lon="-70.85786">
        <ele>236.999</ele>
        <time>2019-07-18T20:46:47Z</time>
      </trkpt>
      <trkpt lat="-27.579664" lon="-70.85787">
        <ele>237.139</ele>
        <time>2019-07-18T20:46:52Z</time>
      </trkpt>
      <trkpt lat="-27.579784" lon="-70.857895">
        <ele>237.472</ele>
        <time>2019-07-18T20:46:57Z</time>
      </trkpt>
      <trkpt lat="-27.57988" lon="-70.8579">
        <ele>237.506</ele>
        <time>2019-07-18T20:47:02Z</time>
      </trkpt>
      <trkpt lat="-27.580061" lon="-70.85794">
        <ele>238.05</ele>
        <time>2019-07-18T20:47:11Z</time>
      </trkpt>
      <trkpt lat="-27.580162" lon="-70.857956">
        <ele>238.116</ele>
        <time>2019-07-18T20:47:16Z</time>
      </trkpt>
      <trkpt lat="-27.580309" lon="-70.85799">
        <ele>238.23</ele>
        <time>2019-07-18T20:47:25Z</time>
      </trkpt>
      <trkpt lat="-27.58041" lon="-70.858">
        <ele>238.288</ele>
        <time>2019-07-18T20:47:30Z</time>
      </trkpt>
      <trkpt lat="-27.580519" lon="-70.85804">
        <ele>238.219</ele>
        <time>2019-07-18T20:47:35Z</time>
      </trkpt>
      <trkpt lat="-27.580614" lon="-70.858055">
        <ele>238.103</ele>
        <time>2019-07-18T20:47:40Z</time>
      </trkpt>
      <trkpt lat="-27.580692" lon="-70.85809">
        <ele>238.079</ele>
        <time>2019-07-18T20:47:45Z</time>
      </trkpt>
      <trkpt lat="-27.58077" lon="-70.85812">
        <ele>238.156</ele>
        <time>2019-07-18T20:47:50Z</time>
      </trkpt>
      <trkpt lat="-27.580795" lon="-70.85814">
        <ele>237.464</ele>
        <time>2019-07-18T20:47:55Z</time>
      </trkpt>
      <trkpt lat="-27.581194" lon="-70.85817">
        <ele>237.474</ele>
        <time>2019-07-18T20:53:52Z</time>
      </trkpt>
      <trkpt lat="-27.581333" lon="-70.8582">
        <ele>237.287</ele>
        <time>2019-07-18T20:53:57Z</time>
      </trkpt>
      <trkpt lat="-27.581455" lon="-70.858215">
        <ele>237.097</ele>
        <time>2019-07-18T20:54:02Z</time>
      </trkpt>
      <trkpt lat="-27.581575" lon="-70.858246">
        <ele>236.597</ele>
        <time>2019-07-18T20:54:07Z</time>
      </trkpt>
      <trkpt lat="-27.581705" lon="-70.85828">
        <ele>236.589</ele>
        <time>2019-07-18T20:54:12Z</time>
      </trkpt>
      <trkpt lat="-27.58182" lon="-70.85831">
        <ele>236.386</ele>
        <time>2019-07-18T20:54:17Z</time>
      </trkpt>
      <trkpt lat="-27.58194" lon="-70.85834">
        <ele>236.325</ele>
        <time>2019-07-18T20:54:22Z</time>
      </trkpt>
      <trkpt lat="-27.582052" lon="-70.85836">
        <ele>236.343</ele>
        <time>2019-07-18T20:54:27Z</time>
      </trkpt>
      <trkpt lat="-27.582167" lon="-70.8584">
        <ele>236.132</ele>
        <time>2019-07-18T20:54:32Z</time>
      </trkpt>
      <trkpt lat="-27.582312" lon="-70.85841">
        <ele>235.625</ele>
        <time>2019-07-18T20:54:37Z</time>
      </trkpt>
      <trkpt lat="-27.582485" lon="-70.85846">
        <ele>235.189</ele>
        <time>2019-07-18T20:54:42Z</time>
      </trkpt>
      <trkpt lat="-27.582672" lon="-70.858505">
        <ele>235.017</ele>
        <time>2019-07-18T20:54:47Z</time>
      </trkpt>
      <trkpt lat="-27.582859" lon="-70.85855">
        <ele>234.853</ele>
        <time>2019-07-18T20:54:52Z</time>
      </trkpt>
      <trkpt lat="-27.583052" lon="-70.85859">
        <ele>234.56</ele>
        <time>2019-07-18T20:54:57Z</time>
      </trkpt>
      <trkpt lat="-27.583254" lon="-70.85863">
        <ele>234.549</ele>
        <time>2019-07-18T20:55:02Z</time>
      </trkpt>
      <trkpt lat="-27.583458" lon="-70.85866">
        <ele>234.637</ele>
        <time>2019-07-18T20:55:07Z</time>
      </trkpt>
      <trkpt lat="-27.583654" lon="-70.858696">
        <ele>234.512</ele>
        <time>2019-07-18T20:55:12Z</time>
      </trkpt>
      <trkpt lat="-27.583845" lon="-70.85871">
        <ele>234.911</ele>
        <time>2019-07-18T20:55:17Z</time>
      </trkpt>
      <trkpt lat="-27.58403" lon="-70.85873">
        <ele>234.93</ele>
        <time>2019-07-18T20:55:22Z</time>
      </trkpt>
      <trkpt lat="-27.584219" lon="-70.85876">
        <ele>235.268</ele>
        <time>2019-07-18T20:55:27Z</time>
      </trkpt>
      <trkpt lat="-27.584406" lon="-70.858795">
        <ele>235.604</ele>
        <time>2019-07-18T20:55:32Z</time>
      </trkpt>
      <trkpt lat="-27.584602" lon="-70.85883">
        <ele>236.367</ele>
        <time>2019-07-18T20:55:37Z</time>
      </trkpt>
      <trkpt lat="-27.584766" lon="-70.85887">
        <ele>236.951</ele>
        <time>2019-07-18T20:55:42Z</time>
      </trkpt>
      <trkpt lat="-27.584917" lon="-70.858894">
        <ele>237.342</ele>
        <time>2019-07-18T20:55:47Z</time>
      </trkpt>
      <trkpt lat="-27.585056" lon="-70.85891">
        <ele>238.159</ele>
        <time>2019-07-18T20:55:52Z</time>
      </trkpt>
      <trkpt lat="-27.585186" lon="-70.85893">
        <ele>238.172</ele>
        <time>2019-07-18T20:55:57Z</time>
      </trkpt>
      <trkpt lat="-27.585314" lon="-70.85896">
        <ele>238.402</ele>
        <time>2019-07-18T20:56:02Z</time>
      </trkpt>
      <trkpt lat="-27.585426" lon="-70.858986">
        <ele>238.943</ele>
        <time>2019-07-18T20:56:07Z</time>
      </trkpt>
      <trkpt lat="-27.585518" lon="-70.85901">
        <ele>239.451</ele>
        <time>2019-07-18T20:56:12Z</time>
      </trkpt>
      <trkpt lat="-27.585678" lon="-70.85906">
        <ele>239.81</ele>
        <time>2019-07-18T20:56:21Z</time>
      </trkpt>
      <trkpt lat="-27.585737" lon="-70.859085">
        <ele>240.093</ele>
        <time>2019-07-18T20:56:26Z</time>
      </trkpt>
      <trkpt lat="-27.5858" lon="-70.85911">
        <ele>240.299</ele>
        <time>2019-07-18T20:56:31Z</time>
      </trkpt>
      <trkpt lat="-27.58587" lon="-70.85914">
        <ele>240.661</ele>
        <time>2019-07-18T20:56:36Z</time>
      </trkpt>
      <trkpt lat="-27.585932" lon="-70.85916">
        <ele>241.06</ele>
        <time>2019-07-18T20:56:41Z</time>
      </trkpt>
      <trkpt lat="-27.586" lon="-70.8592">
        <ele>241.295</ele>
        <time>2019-07-18T20:56:46Z</time>
      </trkpt>
      <trkpt lat="-27.586092" lon="-70.85926">
        <ele>241.647</ele>
        <time>2019-07-18T20:56:51Z</time>
      </trkpt>
      <trkpt lat="-27.586163" lon="-70.8593">
        <ele>241.916</ele>
        <time>2019-07-18T20:56:56Z</time>
      </trkpt>
      <trkpt lat="-27.586235" lon="-70.85929">
        <ele>242.141</ele>
        <time>2019-07-18T20:57:01Z</time>
      </trkpt>
      <trkpt lat="-27.586336" lon="-70.8593">
        <ele>242.326</ele>
        <time>2019-07-18T20:57:07Z</time>
      </trkpt>
      <trkpt lat="-27.586416" lon="-70.85934">
        <ele>243.015</ele>
        <time>2019-07-18T20:57:12Z</time>
      </trkpt>
      <trkpt lat="-27.58654" lon="-70.85934">
        <ele>243.081</ele>
        <time>2019-07-18T20:57:23Z</time>
      </trkpt>
      <trkpt lat="-27.586699" lon="-70.85934">
        <ele>243.285</ele>
        <time>2019-07-18T20:57:28Z</time>
      </trkpt>
      <trkpt lat="-27.5868" lon="-70.85933">
        <ele>243.353</ele>
        <time>2019-07-18T20:57:33Z</time>
      </trkpt>
      <trkpt lat="-27.586939" lon="-70.85934">
        <ele>243.131</ele>
        <time>2019-07-18T20:57:38Z</time>
      </trkpt>
      <trkpt lat="-27.587107" lon="-70.85934">
        <ele>243.892</ele>
        <time>2019-07-18T20:57:43Z</time>
      </trkpt>
      <trkpt lat="-27.587284" lon="-70.859344">
        <ele>243.205</ele>
        <time>2019-07-18T20:57:48Z</time>
      </trkpt>
      <trkpt lat="-27.58743" lon="-70.85937">
        <ele>243.171</ele>
        <time>2019-07-18T20:57:53Z</time>
      </trkpt>
      <trkpt lat="-27.58759" lon="-70.8594">
        <ele>243.176</ele>
        <time>2019-07-18T20:57:58Z</time>
      </trkpt>
      <trkpt lat="-27.587725" lon="-70.85941">
        <ele>242.223</ele>
        <time>2019-07-18T20:58:03Z</time>
      </trkpt>
      <trkpt lat="-27.58785" lon="-70.859436">
        <ele>242.592</ele>
        <time>2019-07-18T20:58:08Z</time>
      </trkpt>
      <trkpt lat="-27.587988" lon="-70.85946">
        <ele>242.302</ele>
        <time>2019-07-18T20:58:13Z</time>
      </trkpt>
      <trkpt lat="-27.588123" lon="-70.85948">
        <ele>242.302</ele>
        <time>2019-07-18T20:58:18Z</time>
      </trkpt>
      <trkpt lat="-27.588264" lon="-70.85952">
        <ele>241.929</ele>
        <time>2019-07-18T20:58:23Z</time>
      </trkpt>
      <trkpt lat="-27.588434" lon="-70.85958">
        <ele>241.364</ele>
        <time>2019-07-18T20:58:28Z</time>
      </trkpt>
      <trkpt lat="-27.58861" lon="-70.85966">
        <ele>241.004</ele>
        <time>2019-07-18T20:58:33Z</time>
      </trkpt>
      <trkpt lat="-27.588858" lon="-70.85976">
        <ele>240.426</ele>
        <time>2019-07-18T20:58:40Z</time>
      </trkpt>
      <trkpt lat="-27.589039" lon="-70.85984">
        <ele>239.932</ele>
        <time>2019-07-18T20:58:45Z</time>
      </trkpt>
      <trkpt lat="-27.58922" lon="-70.859924">
        <ele>239.929</ele>
        <time>2019-07-18T20:58:50Z</time>
      </trkpt>
      <trkpt lat="-27.589403" lon="-70.860016">
        <ele>239.43</ele>
        <time>2019-07-18T20:58:55Z</time>
      </trkpt>
      <trkpt lat="-27.58959" lon="-70.8601">
        <ele>238.592</ele>
        <time>2019-07-18T20:59:00Z</time>
      </trkpt>
      <trkpt lat="-27.589785" lon="-70.8602">
        <ele>238.463</ele>
        <time>2019-07-18T20:59:05Z</time>
      </trkpt>
      <trkpt lat="-27.58995" lon="-70.86028">
        <ele>238.5</ele>
        <time>2019-07-18T20:59:10Z</time>
      </trkpt>
      <trkpt lat="-27.590118" lon="-70.86037">
        <ele>238.346</ele>
        <time>2019-07-18T20:59:15Z</time>
      </trkpt>
      <trkpt lat="-27.59028" lon="-70.86044">
        <ele>238.309</ele>
        <time>2019-07-18T20:59:20Z</time>
      </trkpt>
      <trkpt lat="-27.59046" lon="-70.86054">
        <ele>238.122</ele>
        <time>2019-07-18T20:59:25Z</time>
      </trkpt>
      <trkpt lat="-27.590658" lon="-70.86064">
        <ele>237.702</ele>
        <time>2019-07-18T20:59:30Z</time>
      </trkpt>
      <trkpt lat="-27.590857" lon="-70.860756">
        <ele>237.564</ele>
        <time>2019-07-18T20:59:35Z</time>
      </trkpt>
      <trkpt lat="-27.591045" lon="-70.860855">
        <ele>237.815</ele>
        <time>2019-07-18T20:59:40Z</time>
      </trkpt>
      <trkpt lat="-27.591242" lon="-70.860954">
        <ele>237.865</ele>
        <time>2019-07-18T20:59:45Z</time>
      </trkpt>
      <trkpt lat="-27.591425" lon="-70.861046">
        <ele>238.267</ele>
        <time>2019-07-18T20:59:50Z</time>
      </trkpt>
      <trkpt lat="-27.591589" lon="-70.86113">
        <ele>238.41</ele>
        <time>2019-07-18T20:59:55Z</time>
      </trkpt>
      <trkpt lat="-27.591751" lon="-70.8612">
        <ele>238.764</ele>
        <time>2019-07-18T21:00:00Z</time>
      </trkpt>
      <trkpt lat="-27.59191" lon="-70.86128">
        <ele>238.98</ele>
        <time>2019-07-18T21:00:05Z</time>
      </trkpt>
      <trkpt lat="-27.592052" lon="-70.86134">
        <ele>239.512</ele>
        <time>2019-07-18T21:00:10Z</time>
      </trkpt>
      <trkpt lat="-27.59219" lon="-70.86141">
        <ele>240.238</ele>
        <time>2019-07-18T21:00:15Z</time>
      </trkpt>
      <trkpt lat="-27.592337" lon="-70.86147">
        <ele>240.111</ele>
        <time>2019-07-18T21:00:20Z</time>
      </trkpt>
      <trkpt lat="-27.59247" lon="-70.861534">
        <ele>240.521</ele>
        <time>2019-07-18T21:00:25Z</time>
      </trkpt>
      <trkpt lat="-27.592594" lon="-70.86158">
        <ele>240.999</ele>
        <time>2019-07-18T21:00:30Z</time>
      </trkpt>
      <trkpt lat="-27.592735" lon="-70.86164">
        <ele>241.287</ele>
        <time>2019-07-18T21:00:35Z</time>
      </trkpt>
      <trkpt lat="-27.592833" lon="-70.86169">
        <ele>241.335</ele>
        <time>2019-07-18T21:00:40Z</time>
      </trkpt>
      <trkpt lat="-27.592928" lon="-70.86172">
        <ele>241.71</ele>
        <time>2019-07-18T21:00:45Z</time>
      </trkpt>
      <trkpt lat="-27.593029" lon="-70.86175">
        <ele>241.924</ele>
        <time>2019-07-18T21:00:50Z</time>
      </trkpt>
      <trkpt lat="-27.593134" lon="-70.86178">
        <ele>242.048</ele>
        <time>2019-07-18T21:00:55Z</time>
      </trkpt>
      <trkpt lat="-27.59324" lon="-70.86181">
        <ele>242.347</ele>
        <time>2019-07-18T21:01:00Z</time>
      </trkpt>
      <trkpt lat="-27.593353" lon="-70.86184">
        <ele>242.442</ele>
        <time>2019-07-18T21:01:05Z</time>
      </trkpt>
      <trkpt lat="-27.593428" lon="-70.86187">
        <ele>243.256</ele>
        <time>2019-07-18T21:01:10Z</time>
      </trkpt>
      <trkpt lat="-27.593616" lon="-70.86189">
        <ele>243.53</ele>
        <time>2019-07-18T21:01:42Z</time>
      </trkpt>
      <trkpt lat="-27.593739" lon="-70.86191">
        <ele>244.083</ele>
        <time>2019-07-18T21:01:47Z</time>
      </trkpt>
      <trkpt lat="-27.593906" lon="-70.86192">
        <ele>244.357</ele>
        <time>2019-07-18T21:01:52Z</time>
      </trkpt>
      <trkpt lat="-27.594053" lon="-70.86192">
        <ele>244.741</ele>
        <time>2019-07-18T21:01:57Z</time>
      </trkpt>
      <trkpt lat="-27.594227" lon="-70.86193">
        <ele>244.82</ele>
        <time>2019-07-18T21:02:02Z</time>
      </trkpt>
      <trkpt lat="-27.594393" lon="-70.86193">
        <ele>245.7</ele>
        <time>2019-07-18T21:02:07Z</time>
      </trkpt>
      <trkpt lat="-27.594574" lon="-70.86192">
        <ele>245.961</ele>
        <time>2019-07-18T21:02:12Z</time>
      </trkpt>
      <trkpt lat="-27.594797" lon="-70.861916">
        <ele>246.223</ele>
        <time>2019-07-18T21:02:17Z</time>
      </trkpt>
      <trkpt lat="-27.595001" lon="-70.8619">
        <ele>246.564</ele>
        <time>2019-07-18T21:02:22Z</time>
      </trkpt>
      <trkpt lat="-27.595186" lon="-70.86189">
        <ele>246.796</ele>
        <time>2019-07-18T21:02:27Z</time>
      </trkpt>
      <trkpt lat="-27.595356" lon="-70.861885">
        <ele>246.91</ele>
        <time>2019-07-18T21:02:32Z</time>
      </trkpt>
      <trkpt lat="-27.595566" lon="-70.86188">
        <ele>246.699</ele>
        <time>2019-07-18T21:02:37Z</time>
      </trkpt>
      <trkpt lat="-27.595772" lon="-70.86186">
        <ele>246.96</ele>
        <time>2019-07-18T21:02:42Z</time>
      </trkpt>
      <trkpt lat="-27.596012" lon="-70.861855">
        <ele>246.722</ele>
        <time>2019-07-18T21:02:49Z</time>
      </trkpt>
      <trkpt lat="-27.596315" lon="-70.86185">
        <ele>246.524</ele>
        <time>2019-07-18T21:02:55Z</time>
      </trkpt>
      <trkpt lat="-27.596546" lon="-70.86185">
        <ele>246.321</ele>
        <time>2019-07-18T21:03:01Z</time>
      </trkpt>
      <trkpt lat="-27.59669" lon="-70.86184">
        <ele>246.046</ele>
        <time>2019-07-18T21:03:06Z</time>
      </trkpt>
      <trkpt lat="-27.596857" lon="-70.86183">
        <ele>245.515</ele>
        <time>2019-07-18T21:03:11Z</time>
      </trkpt>
      <trkpt lat="-27.59701" lon="-70.86183">
        <ele>245.266</ele>
        <time>2019-07-18T21:03:16Z</time>
      </trkpt>
      <trkpt lat="-27.597128" lon="-70.861824">
        <ele>244.867</ele>
        <time>2019-07-18T21:03:21Z</time>
      </trkpt>
      <trkpt lat="-27.597303" lon="-70.86181">
        <ele>244.743</ele>
        <time>2019-07-18T21:03:27Z</time>
      </trkpt>
      <trkpt lat="-27.597466" lon="-70.8618">
        <ele>244.397</ele>
        <time>2019-07-18T21:03:32Z</time>
      </trkpt>
      <trkpt lat="-27.597593" lon="-70.861786">
        <ele>244.027</ele>
        <time>2019-07-18T21:03:37Z</time>
      </trkpt>
      <trkpt lat="-27.59775" lon="-70.86178">
        <ele>243.245</ele>
        <time>2019-07-18T21:03:42Z</time>
      </trkpt>
      <trkpt lat="-27.59795" lon="-70.86178">
        <ele>242.886</ele>
        <time>2019-07-18T21:03:47Z</time>
      </trkpt>
      <trkpt lat="-27.598164" lon="-70.86177">
        <ele>241.594</ele>
        <time>2019-07-18T21:03:52Z</time>
      </trkpt>
      <trkpt lat="-27.598383" lon="-70.86177">
        <ele>240.283</ele>
        <time>2019-07-18T21:03:57Z</time>
      </trkpt>
      <trkpt lat="-27.59882" lon="-70.86181">
        <ele>238.737</ele>
        <time>2019-07-18T21:04:06Z</time>
      </trkpt>
      <trkpt lat="-27.599121" lon="-70.86188">
        <ele>237.519</ele>
        <time>2019-07-18T21:04:11Z</time>
      </trkpt>
      <trkpt lat="-27.599428" lon="-70.861946">
        <ele>236.507</ele>
        <time>2019-07-18T21:04:16Z</time>
      </trkpt>
      <trkpt lat="-27.59973" lon="-70.86202">
        <ele>234.726</ele>
        <time>2019-07-18T21:04:21Z</time>
      </trkpt>
      <trkpt lat="-27.600037" lon="-70.86211">
        <ele>233.072</ele>
        <time>2019-07-18T21:04:26Z</time>
      </trkpt>
      <trkpt lat="-27.60037" lon="-70.86219">
        <ele>231.376</ele>
        <time>2019-07-18T21:04:31Z</time>
      </trkpt>
      <trkpt lat="-27.600706" lon="-70.86226">
        <ele>229.236</ele>
        <time>2019-07-18T21:04:36Z</time>
      </trkpt>
      <trkpt lat="-27.601025" lon="-70.86233">
        <ele>228.108</ele>
        <time>2019-07-18T21:04:41Z</time>
      </trkpt>
      <trkpt lat="-27.601355" lon="-70.8624">
        <ele>226.85</ele>
        <time>2019-07-18T21:04:46Z</time>
      </trkpt>
      <trkpt lat="-27.601677" lon="-70.86248">
        <ele>225.299</ele>
        <time>2019-07-18T21:04:51Z</time>
      </trkpt>
      <trkpt lat="-27.601997" lon="-70.86256">
        <ele>223.851</ele>
        <time>2019-07-18T21:04:56Z</time>
      </trkpt>
      <trkpt lat="-27.602324" lon="-70.862625">
        <ele>222.53</ele>
        <time>2019-07-18T21:05:01Z</time>
      </trkpt>
      <trkpt lat="-27.602673" lon="-70.8627">
        <ele>220.635</ele>
        <time>2019-07-18T21:05:06Z</time>
      </trkpt>
      <trkpt lat="-27.603043" lon="-70.86279">
        <ele>218.643</ele>
        <time>2019-07-18T21:05:11Z</time>
      </trkpt>
      <trkpt lat="-27.603418" lon="-70.86287">
        <ele>217.132</ele>
        <time>2019-07-18T21:05:16Z</time>
      </trkpt>
      <trkpt lat="-27.60379" lon="-70.86295">
        <ele>215.422</ele>
        <time>2019-07-18T21:05:21Z</time>
      </trkpt>
      <trkpt lat="-27.604166" lon="-70.863045">
        <ele>213.496</ele>
        <time>2019-07-18T21:05:26Z</time>
      </trkpt>
      <trkpt lat="-27.604546" lon="-70.86312">
        <ele>211.707</ele>
        <time>2019-07-18T21:05:31Z</time>
      </trkpt>
      <trkpt lat="-27.60492" lon="-70.86321">
        <ele>209.934</ele>
        <time>2019-07-18T21:05:36Z</time>
      </trkpt>
      <trkpt lat="-27.605288" lon="-70.8633">
        <ele>206.935</ele>
        <time>2019-07-18T21:05:41Z</time>
      </trkpt>
      <trkpt lat="-27.605867" lon="-70.86343">
        <ele>205.532</ele>
        <time>2019-07-18T21:05:49Z</time>
      </trkpt>
      <trkpt lat="-27.606215" lon="-70.8635">
        <ele>204.369</ele>
        <time>2019-07-18T21:05:55Z</time>
      </trkpt>
      <trkpt lat="-27.606527" lon="-70.86358">
        <ele>202.911</ele>
        <time>2019-07-18T21:06:00Z</time>
      </trkpt>
      <trkpt lat="-27.60681" lon="-70.863655">
        <ele>202.47</ele>
        <time>2019-07-18T21:06:05Z</time>
      </trkpt>
      <trkpt lat="-27.607111" lon="-70.863716">
        <ele>201.619</ele>
        <time>2019-07-18T21:06:10Z</time>
      </trkpt>
      <trkpt lat="-27.607412" lon="-70.863785">
        <ele>200.258</ele>
        <time>2019-07-18T21:06:15Z</time>
      </trkpt>
      <trkpt lat="-27.607706" lon="-70.86386">
        <ele>199.634</ele>
        <time>2019-07-18T21:06:20Z</time>
      </trkpt>
      <trkpt lat="-27.607994" lon="-70.86393">
        <ele>199.167</ele>
        <time>2019-07-18T21:06:25Z</time>
      </trkpt>
      <trkpt lat="-27.608273" lon="-70.86399">
        <ele>198.649</ele>
        <time>2019-07-18T21:06:30Z</time>
      </trkpt>
      <trkpt lat="-27.60853" lon="-70.86404">
        <ele>198.477</ele>
        <time>2019-07-18T21:06:35Z</time>
      </trkpt>
      <trkpt lat="-27.60878" lon="-70.86408">
        <ele>197.597</ele>
        <time>2019-07-18T21:06:40Z</time>
      </trkpt>
      <trkpt lat="-27.609037" lon="-70.864136">
        <ele>196.857</ele>
        <time>2019-07-18T21:06:45Z</time>
      </trkpt>
      <trkpt lat="-27.609272" lon="-70.86418">
        <ele>196.318</ele>
        <time>2019-07-18T21:06:50Z</time>
      </trkpt>
      <trkpt lat="-27.609509" lon="-70.864235">
        <ele>195.684</ele>
        <time>2019-07-18T21:06:55Z</time>
      </trkpt>
      <trkpt lat="-27.609783" lon="-70.864296">
        <ele>195.05</ele>
        <time>2019-07-18T21:07:00Z</time>
      </trkpt>
      <trkpt lat="-27.610071" lon="-70.86435">
        <ele>194.181</ele>
        <time>2019-07-18T21:07:05Z</time>
      </trkpt>
      <trkpt lat="-27.610373" lon="-70.8644">
        <ele>193.911</ele>
        <time>2019-07-18T21:07:10Z</time>
      </trkpt>
      <trkpt lat="-27.610672" lon="-70.86445">
        <ele>193.161</ele>
        <time>2019-07-18T21:07:15Z</time>
      </trkpt>
      <trkpt lat="-27.610987" lon="-70.8645">
        <ele>192.624</ele>
        <time>2019-07-18T21:07:20Z</time>
      </trkpt>
      <trkpt lat="-27.611298" lon="-70.86454">
        <ele>191.89</ele>
        <time>2019-07-18T21:07:25Z</time>
      </trkpt>
      <trkpt lat="-27.61159" lon="-70.8646">
        <ele>190.941</ele>
        <time>2019-07-18T21:07:30Z</time>
      </trkpt>
      <trkpt lat="-27.611877" lon="-70.86464">
        <ele>190.18</ele>
        <time>2019-07-18T21:07:35Z</time>
      </trkpt>
      <trkpt lat="-27.612139" lon="-70.864685">
        <ele>189.591</ele>
        <time>2019-07-18T21:07:40Z</time>
      </trkpt>
      <trkpt lat="-27.612417" lon="-70.86474">
        <ele>188.632</ele>
        <time>2019-07-18T21:07:45Z</time>
      </trkpt>
      <trkpt lat="-27.612694" lon="-70.864784">
        <ele>187.43</ele>
        <time>2019-07-18T21:07:50Z</time>
      </trkpt>
      <trkpt lat="-27.612974" lon="-70.86486">
        <ele>186.526</ele>
        <time>2019-07-18T21:07:55Z</time>
      </trkpt>
      <trkpt lat="-27.61327" lon="-70.86492">
        <ele>185.54</ele>
        <time>2019-07-18T21:08:00Z</time>
      </trkpt>
      <trkpt lat="-27.613571" lon="-70.86498">
        <ele>184.954</ele>
        <time>2019-07-18T21:08:05Z</time>
      </trkpt>
      <trkpt lat="-27.613869" lon="-70.865036">
        <ele>183.952</ele>
        <time>2019-07-18T21:08:10Z</time>
      </trkpt>
      <trkpt lat="-27.614155" lon="-70.86508">
        <ele>182.829</ele>
        <time>2019-07-18T21:08:15Z</time>
      </trkpt>
      <trkpt lat="-27.614443" lon="-70.865135">
        <ele>182.224</ele>
        <time>2019-07-18T21:08:20Z</time>
      </trkpt>
      <trkpt lat="-27.614756" lon="-70.86518">
        <ele>180.832</ele>
        <time>2019-07-18T21:08:24Z</time>
      </trkpt>
      <trkpt lat="-27.61507" lon="-70.865234">
        <ele>179.783</ele>
        <time>2019-07-18T21:08:29Z</time>
      </trkpt>
      <trkpt lat="-27.615442" lon="-70.86529">
        <ele>178.927</ele>
        <time>2019-07-18T21:08:36Z</time>
      </trkpt>
      <trkpt lat="-27.615751" lon="-70.865364">
        <ele>177.582</ele>
        <time>2019-07-18T21:08:41Z</time>
      </trkpt>
      <trkpt lat="-27.616062" lon="-70.865425">
        <ele>177.08</ele>
        <time>2019-07-18T21:08:46Z</time>
      </trkpt>
      <trkpt lat="-27.616362" lon="-70.86549">
        <ele>175.489</ele>
        <time>2019-07-18T21:08:51Z</time>
      </trkpt>
      <trkpt lat="-27.616674" lon="-70.86555">
        <ele>174.95</ele>
        <time>2019-07-18T21:08:56Z</time>
      </trkpt>
      <trkpt lat="-27.61699" lon="-70.86561">
        <ele>174.01</ele>
        <time>2019-07-18T21:09:01Z</time>
      </trkpt>
      <trkpt lat="-27.61731" lon="-70.86567">
        <ele>174.068</ele>
        <time>2019-07-18T21:09:06Z</time>
      </trkpt>
      <trkpt lat="-27.61763" lon="-70.86573">
        <ele>172.876</ele>
        <time>2019-07-18T21:09:11Z</time>
      </trkpt>
      <trkpt lat="-27.61793" lon="-70.8658">
        <ele>172.485</ele>
        <time>2019-07-18T21:09:16Z</time>
      </trkpt>
      <trkpt lat="-27.618223" lon="-70.86585">
        <ele>172.057</ele>
        <time>2019-07-18T21:09:21Z</time>
      </trkpt>
      <trkpt lat="-27.618532" lon="-70.86591">
        <ele>171.317</ele>
        <time>2019-07-18T21:09:26Z</time>
      </trkpt>
      <trkpt lat="-27.618832" lon="-70.86596">
        <ele>171.528</ele>
        <time>2019-07-18T21:09:31Z</time>
      </trkpt>
      <trkpt lat="-27.61913" lon="-70.86601">
        <ele>170.49</ele>
        <time>2019-07-18T21:09:36Z</time>
      </trkpt>
      <trkpt lat="-27.619394" lon="-70.866066">
        <ele>170.709</ele>
        <time>2019-07-18T21:09:41Z</time>
      </trkpt>
      <trkpt lat="-27.619654" lon="-70.866104">
        <ele>170.551</ele>
        <time>2019-07-18T21:09:46Z</time>
      </trkpt>
      <trkpt lat="-27.619923" lon="-70.86616">
        <ele>169.993</ele>
        <time>2019-07-18T21:09:51Z</time>
      </trkpt>
      <trkpt lat="-27.620186" lon="-70.86621">
        <ele>169.948</ele>
        <time>2019-07-18T21:09:56Z</time>
      </trkpt>
      <trkpt lat="-27.620453" lon="-70.86626">
        <ele>169.748</ele>
        <time>2019-07-18T21:10:01Z</time>
      </trkpt>
      <trkpt lat="-27.620718" lon="-70.8663">
        <ele>169.018</ele>
        <time>2019-07-18T21:10:06Z</time>
      </trkpt>
      <trkpt lat="-27.620985" lon="-70.866356">
        <ele>169.375</ele>
        <time>2019-07-18T21:10:11Z</time>
      </trkpt>
      <trkpt lat="-27.621258" lon="-70.866394">
        <ele>168.712</ele>
        <time>2019-07-18T21:10:16Z</time>
      </trkpt>
      <trkpt lat="-27.621496" lon="-70.86643">
        <ele>168.577</ele>
        <time>2019-07-18T21:10:21Z</time>
      </trkpt>
      <trkpt lat="-27.621737" lon="-70.866486">
        <ele>167.924</ele>
        <time>2019-07-18T21:10:26Z</time>
      </trkpt>
      <trkpt lat="-27.621988" lon="-70.86652">
        <ele>167.729</ele>
        <time>2019-07-18T21:10:31Z</time>
      </trkpt>
      <trkpt lat="-27.62225" lon="-70.86656">
        <ele>167.496</ele>
        <time>2019-07-18T21:10:36Z</time>
      </trkpt>
      <trkpt lat="-27.622461" lon="-70.86661">
        <ele>167.647</ele>
        <time>2019-07-18T21:10:41Z</time>
      </trkpt>
      <trkpt lat="-27.622715" lon="-70.86665">
        <ele>166.947</ele>
        <time>2019-07-18T21:10:46Z</time>
      </trkpt>
      <trkpt lat="-27.623093" lon="-70.86672">
        <ele>166.318</ele>
        <time>2019-07-18T21:10:55Z</time>
      </trkpt>
      <trkpt lat="-27.623356" lon="-70.86677">
        <ele>166.442</ele>
        <time>2019-07-18T21:11:00Z</time>
      </trkpt>
      <trkpt lat="-27.623621" lon="-70.86682">
        <ele>166.365</ele>
        <time>2019-07-18T21:11:05Z</time>
      </trkpt>
      <trkpt lat="-27.623888" lon="-70.86687">
        <ele>165.893</ele>
        <time>2019-07-18T21:11:10Z</time>
      </trkpt>
      <trkpt lat="-27.624252" lon="-70.86693">
        <ele>165.626</ele>
        <time>2019-07-18T21:11:17Z</time>
      </trkpt>
      <trkpt lat="-27.624472" lon="-70.86697">
        <ele>164.762</ele>
        <time>2019-07-18T21:11:22Z</time>
      </trkpt>
      <trkpt lat="-27.6247" lon="-70.86702">
        <ele>165.155</ele>
        <time>2019-07-18T21:11:27Z</time>
      </trkpt>
      <trkpt lat="-27.624933" lon="-70.86706">
        <ele>164.952</ele>
        <time>2019-07-18T21:11:32Z</time>
      </trkpt>
      <trkpt lat="-27.625185" lon="-70.8671">
        <ele>164.489</ele>
        <time>2019-07-18T21:11:37Z</time>
      </trkpt>
      <trkpt lat="-27.625427" lon="-70.86716">
        <ele>164.017</ele>
        <time>2019-07-18T21:11:42Z</time>
      </trkpt>
      <trkpt lat="-27.625639" lon="-70.8672">
        <ele>164.223</ele>
        <time>2019-07-18T21:11:47Z</time>
      </trkpt>
      <trkpt lat="-27.625847" lon="-70.86724">
        <ele>164.426</ele>
        <time>2019-07-18T21:11:52Z</time>
      </trkpt>
      <trkpt lat="-27.626045" lon="-70.867294">
        <ele>163.919</ele>
        <time>2019-07-18T21:11:57Z</time>
      </trkpt>
      <trkpt lat="-27.626259" lon="-70.86735">
        <ele>163.726</ele>
        <time>2019-07-18T21:12:02Z</time>
      </trkpt>
      <trkpt lat="-27.626492" lon="-70.86739">
        <ele>163.253</ele>
        <time>2019-07-18T21:12:07Z</time>
      </trkpt>
      <trkpt lat="-27.626734" lon="-70.86744">
        <ele>163.031</ele>
        <time>2019-07-18T21:12:12Z</time>
      </trkpt>
      <trkpt lat="-27.626968" lon="-70.86748">
        <ele>162.545</ele>
        <time>2019-07-18T21:12:17Z</time>
      </trkpt>
      <trkpt lat="-27.627138" lon="-70.867516">
        <ele>162.125</ele>
        <time>2019-07-18T21:12:22Z</time>
      </trkpt>
      <trkpt lat="-27.627316" lon="-70.86755">
        <ele>162.394</ele>
        <time>2019-07-18T21:12:27Z</time>
      </trkpt>
      <trkpt lat="-27.627474" lon="-70.86759">
        <ele>161.966</ele>
        <time>2019-07-18T21:12:32Z</time>
      </trkpt>
      <trkpt lat="-27.627678" lon="-70.86762">
        <ele>161.715</ele>
        <time>2019-07-18T21:12:37Z</time>
      </trkpt>
      <trkpt lat="-27.627914" lon="-70.867676">
        <ele>161.617</ele>
        <time>2019-07-18T21:12:42Z</time>
      </trkpt>
      <trkpt lat="-27.628147" lon="-70.86772">
        <ele>161.129</ele>
        <time>2019-07-18T21:12:47Z</time>
      </trkpt>
      <trkpt lat="-27.628386" lon="-70.86779">
        <ele>160.901</ele>
        <time>2019-07-18T21:12:52Z</time>
      </trkpt>
      <trkpt lat="-27.628605" lon="-70.867836">
        <ele>160.486</ele>
        <time>2019-07-18T21:12:57Z</time>
      </trkpt>
      <trkpt lat="-27.628803" lon="-70.867874">
        <ele>160.188</ele>
        <time>2019-07-18T21:13:02Z</time>
      </trkpt>
      <trkpt lat="-27.629066" lon="-70.86794">
        <ele>159.527</ele>
        <time>2019-07-18T21:13:07Z</time>
      </trkpt>
      <trkpt lat="-27.629309" lon="-70.868">
        <ele>159.326</ele>
        <time>2019-07-18T21:13:12Z</time>
      </trkpt>
      <trkpt lat="-27.629526" lon="-70.86804">
        <ele>157.712</ele>
        <time>2019-07-18T21:13:17Z</time>
      </trkpt>
      <trkpt lat="-27.629751" lon="-70.868095">
        <ele>157.559</ele>
        <time>2019-07-18T21:13:22Z</time>
      </trkpt>
      <trkpt lat="-27.629967" lon="-70.86814">
        <ele>157.112</ele>
        <time>2019-07-18T21:13:27Z</time>
      </trkpt>
      <trkpt lat="-27.63013" lon="-70.868195">
        <ele>156.695</ele>
        <time>2019-07-18T21:13:32Z</time>
      </trkpt>
      <trkpt lat="-27.630228" lon="-70.86822">
        <ele>155.041</ele>
        <time>2019-07-18T21:13:37Z</time>
      </trkpt>
      <trkpt lat="-27.630339" lon="-70.86823">
        <ele>154.367</ele>
        <time>2019-07-18T21:22:14Z</time>
      </trkpt>
      <trkpt lat="-27.630518" lon="-70.86826">
        <ele>153.585</ele>
        <time>2019-07-18T21:22:19Z</time>
      </trkpt>
      <trkpt lat="-27.630753" lon="-70.86832">
        <ele>152.935</ele>
        <time>2019-07-18T21:22:24Z</time>
      </trkpt>
      <trkpt lat="-27.631014" lon="-70.868385">
        <ele>151.516</ele>
        <time>2019-07-18T21:22:29Z</time>
      </trkpt>
      <trkpt lat="-27.631342" lon="-70.868454">
        <ele>150.821</ele>
        <time>2019-07-18T21:22:35Z</time>
      </trkpt>
      <trkpt lat="-27.631638" lon="-70.868515">
        <ele>150.248</ele>
        <time>2019-07-18T21:22:40Z</time>
      </trkpt>
      <trkpt lat="-27.631912" lon="-70.868576">
        <ele>149.238</ele>
        <time>2019-07-18T21:22:45Z</time>
      </trkpt>
      <trkpt lat="-27.63218" lon="-70.86864">
        <ele>149.106</ele>
        <time>2019-07-18T21:22:50Z</time>
      </trkpt>
      <trkpt lat="-27.632442" lon="-70.86869">
        <ele>148.311</ele>
        <time>2019-07-18T21:22:55Z</time>
      </trkpt>
      <trkpt lat="-27.632698" lon="-70.86875">
        <ele>148.155</ele>
        <time>2019-07-18T21:23:00Z</time>
      </trkpt>
      <trkpt lat="-27.632952" lon="-70.868805">
        <ele>147.51</ele>
        <time>2019-07-18T21:23:05Z</time>
      </trkpt>
      <trkpt lat="-27.633196" lon="-70.86886">
        <ele>146.821</ele>
        <time>2019-07-18T21:23:10Z</time>
      </trkpt>
      <trkpt lat="-27.633436" lon="-70.86892">
        <ele>146.792</ele>
        <time>2019-07-18T21:23:15Z</time>
      </trkpt>
      <trkpt lat="-27.633657" lon="-70.868965">
        <ele>145.967</ele>
        <time>2019-07-18T21:23:20Z</time>
      </trkpt>
      <trkpt lat="-27.633873" lon="-70.86901">
        <ele>145.663</ele>
        <time>2019-07-18T21:23:25Z</time>
      </trkpt>
      <trkpt lat="-27.634098" lon="-70.86906">
        <ele>145.283</ele>
        <time>2019-07-18T21:23:30Z</time>
      </trkpt>
      <trkpt lat="-27.634378" lon="-70.869125">
        <ele>144.469</ele>
        <time>2019-07-18T21:23:37Z</time>
      </trkpt>
      <trkpt lat="-27.634586" lon="-70.86917">
        <ele>143.922</ele>
        <time>2019-07-18T21:23:42Z</time>
      </trkpt>
      <trkpt lat="-27.634827" lon="-70.869225">
        <ele>143.605</ele>
        <time>2019-07-18T21:23:47Z</time>
      </trkpt>
      <trkpt lat="-27.63509" lon="-70.86928">
        <ele>142.87</ele>
        <time>2019-07-18T21:23:52Z</time>
      </trkpt>
      <trkpt lat="-27.63542" lon="-70.869354">
        <ele>142.112</ele>
        <time>2019-07-18T21:23:58Z</time>
      </trkpt>
      <trkpt lat="-27.63578" lon="-70.86942">
        <ele>141.811</ele>
        <time>2019-07-18T21:24:05Z</time>
      </trkpt>
      <trkpt lat="-27.636055" lon="-70.869484">
        <ele>141.631</ele>
        <time>2019-07-18T21:24:10Z</time>
      </trkpt>
      <trkpt lat="-27.63632" lon="-70.869545">
        <ele>141.375</ele>
        <time>2019-07-18T21:24:15Z</time>
      </trkpt>
      <trkpt lat="-27.636599" lon="-70.8696">
        <ele>141.008</ele>
        <time>2019-07-18T21:24:20Z</time>
      </trkpt>
      <trkpt lat="-27.636852" lon="-70.869644">
        <ele>140.344</ele>
        <time>2019-07-18T21:24:25Z</time>
      </trkpt>
      <trkpt lat="-27.637106" lon="-70.86969">
        <ele>140.249</ele>
        <time>2019-07-18T21:24:29Z</time>
      </trkpt>
      <trkpt lat="-27.637339" lon="-70.86975">
        <ele>140.368</ele>
        <time>2019-07-18T21:24:34Z</time>
      </trkpt>
      <trkpt lat="-27.637634" lon="-70.86982">
        <ele>140.202</ele>
        <time>2019-07-18T21:24:41Z</time>
      </trkpt>
      <trkpt lat="-27.63788" lon="-70.86987">
        <ele>139.531</ele>
        <time>2019-07-18T21:24:46Z</time>
      </trkpt>
      <trkpt lat="-27.638132" lon="-70.869934">
        <ele>139.515</ele>
        <time>2019-07-18T21:24:51Z</time>
      </trkpt>
      <trkpt lat="-27.638376" lon="-70.86999">
        <ele>139.43</ele>
        <time>2019-07-18T21:24:56Z</time>
      </trkpt>
      <trkpt lat="-27.6386" lon="-70.87003">
        <ele>139.269</ele>
        <time>2019-07-18T21:25:01Z</time>
      </trkpt>
      <trkpt lat="-27.638794" lon="-70.87008">
        <ele>138.865</ele>
        <time>2019-07-18T21:25:06Z</time>
      </trkpt>
      <trkpt lat="-27.639" lon="-70.870125">
        <ele>138.402</ele>
        <time>2019-07-18T21:25:11Z</time>
      </trkpt>
      <trkpt lat="-27.639217" lon="-70.87017">
        <ele>138.635</ele>
        <time>2019-07-18T21:25:16Z</time>
      </trkpt>
      <trkpt lat="-27.639431" lon="-70.87022">
        <ele>138.133</ele>
        <time>2019-07-18T21:25:21Z</time>
      </trkpt>
      <trkpt lat="-27.639643" lon="-70.87027">
        <ele>137.713</ele>
        <time>2019-07-18T21:25:26Z</time>
      </trkpt>
      <trkpt lat="-27.639868" lon="-70.87032">
        <ele>137.573</ele>
        <time>2019-07-18T21:25:31Z</time>
      </trkpt>
      <trkpt lat="-27.640104" lon="-70.870384">
        <ele>137.665</ele>
        <time>2019-07-18T21:25:36Z</time>
      </trkpt>
      <trkpt lat="-27.640327" lon="-70.870445">
        <ele>137.308</ele>
        <time>2019-07-18T21:25:41Z</time>
      </trkpt>
      <trkpt lat="-27.640562" lon="-70.870514">
        <ele>136.812</ele>
        <time>2019-07-18T21:25:46Z</time>
      </trkpt>
      <trkpt lat="-27.640806" lon="-70.87058">
        <ele>136.175</ele>
        <time>2019-07-18T21:25:51Z</time>
      </trkpt>
      <trkpt lat="-27.641031" lon="-70.87067">
        <ele>135.779</ele>
        <time>2019-07-18T21:25:56Z</time>
      </trkpt>
      <trkpt lat="-27.64129" lon="-70.87076">
        <ele>135.467</ele>
        <time>2019-07-18T21:26:01Z</time>
      </trkpt>
      <trkpt lat="-27.641542" lon="-70.87086">
        <ele>134.759</ele>
        <time>2019-07-18T21:26:06Z</time>
      </trkpt>
      <trkpt lat="-27.641787" lon="-70.87095">
        <ele>134.135</ele>
        <time>2019-07-18T21:26:10Z</time>
      </trkpt>
      <trkpt lat="-27.642012" lon="-70.87104">
        <ele>133.707</ele>
        <time>2019-07-18T21:26:15Z</time>
      </trkpt>
      <trkpt lat="-27.642342" lon="-70.87118">
        <ele>132.806</ele>
        <time>2019-07-18T21:26:24Z</time>
      </trkpt>
      <trkpt lat="-27.642586" lon="-70.87129">
        <ele>132.637</ele>
        <time>2019-07-18T21:26:29Z</time>
      </trkpt>
      <trkpt lat="-27.642849" lon="-70.871414">
        <ele>131.736</ele>
        <time>2019-07-18T21:26:34Z</time>
      </trkpt>
      <trkpt lat="-27.643112" lon="-70.871544">
        <ele>131.749</ele>
        <time>2019-07-18T21:26:39Z</time>
      </trkpt>
      <trkpt lat="-27.64336" lon="-70.87167">
        <ele>131.02</ele>
        <time>2019-07-18T21:26:44Z</time>
      </trkpt>
      <trkpt lat="-27.643608" lon="-70.8718">
        <ele>131.118</ele>
        <time>2019-07-18T21:26:49Z</time>
      </trkpt>
      <trkpt lat="-27.643848" lon="-70.87193">
        <ele>131.247</ele>
        <time>2019-07-18T21:26:54Z</time>
      </trkpt>
      <trkpt lat="-27.64407" lon="-70.872055">
        <ele>130.629</ele>
        <time>2019-07-18T21:26:59Z</time>
      </trkpt>
      <trkpt lat="-27.644297" lon="-70.872185">
        <ele>130.901</ele>
        <time>2019-07-18T21:27:04Z</time>
      </trkpt>
      <trkpt lat="-27.644533" lon="-70.87232">
        <ele>130.465</ele>
        <time>2019-07-18T21:27:09Z</time>
      </trkpt>
      <trkpt lat="-27.644764" lon="-70.87245">
        <ele>130.563</ele>
        <time>2019-07-18T21:27:14Z</time>
      </trkpt>
      <trkpt lat="-27.644976" lon="-70.87257">
        <ele>130.938</ele>
        <time>2019-07-18T21:27:19Z</time>
      </trkpt>
      <trkpt lat="-27.645142" lon="-70.872665">
        <ele>130.555</ele>
        <time>2019-07-18T21:27:24Z</time>
      </trkpt>
      <trkpt lat="-27.645302" lon="-70.87275">
        <ele>130.272</ele>
        <time>2019-07-18T21:27:29Z</time>
      </trkpt>
      <trkpt lat="-27.64547" lon="-70.872856">
        <ele>130.531</ele>
        <time>2019-07-18T21:27:34Z</time>
      </trkpt>
      <trkpt lat="-27.645647" lon="-70.872955">
        <ele>130.032</ele>
        <time>2019-07-18T21:27:39Z</time>
      </trkpt>
      <trkpt lat="-27.64583" lon="-70.873055">
        <ele>130.129</ele>
        <time>2019-07-18T21:27:44Z</time>
      </trkpt>
      <trkpt lat="-27.646015" lon="-70.873146">
        <ele>129.506</ele>
        <time>2019-07-18T21:27:49Z</time>
      </trkpt>
      <trkpt lat="-27.6462" lon="-70.873245">
        <ele>129.099</ele>
        <time>2019-07-18T21:27:54Z</time>
      </trkpt>
      <trkpt lat="-27.646402" lon="-70.87337">
        <ele>128.911</ele>
        <time>2019-07-18T21:27:59Z</time>
      </trkpt>
      <trkpt lat="-27.646614" lon="-70.8735">
        <ele>129.45</ele>
        <time>2019-07-18T21:28:04Z</time>
      </trkpt>
      <trkpt lat="-27.646832" lon="-70.87363">
        <ele>128.38</ele>
        <time>2019-07-18T21:28:09Z</time>
      </trkpt>
      <trkpt lat="-27.647066" lon="-70.87376">
        <ele>127.881</ele>
        <time>2019-07-18T21:28:14Z</time>
      </trkpt>
      <trkpt lat="-27.647305" lon="-70.873886">
        <ele>127.196</ele>
        <time>2019-07-18T21:28:19Z</time>
      </trkpt>
      <trkpt lat="-27.647541" lon="-70.874016">
        <ele>126.565</ele>
        <time>2019-07-18T21:28:24Z</time>
      </trkpt>
      <trkpt lat="-27.647793" lon="-70.87416">
        <ele>125.294</ele>
        <time>2019-07-18T21:28:29Z</time>
      </trkpt>
      <trkpt lat="-27.648043" lon="-70.874306">
        <ele>124.578</ele>
        <time>2019-07-18T21:28:34Z</time>
      </trkpt>
      <trkpt lat="-27.648293" lon="-70.874435">
        <ele>124.094</ele>
        <time>2019-07-18T21:28:39Z</time>
      </trkpt>
      <trkpt lat="-27.648535" lon="-70.87457">
        <ele>122.964</ele>
        <time>2019-07-18T21:28:44Z</time>
      </trkpt>
      <trkpt lat="-27.648767" lon="-70.874695">
        <ele>122.665</ele>
        <time>2019-07-18T21:28:48Z</time>
      </trkpt>
      <trkpt lat="-27.648993" lon="-70.87481">
        <ele>121.582</ele>
        <time>2019-07-18T21:28:53Z</time>
      </trkpt>
      <trkpt lat="-27.649218" lon="-70.87494">
        <ele>120.408</ele>
        <time>2019-07-18T21:28:58Z</time>
      </trkpt>
      <trkpt lat="-27.649456" lon="-70.87507">
        <ele>120.202</ele>
        <time>2019-07-18T21:29:03Z</time>
      </trkpt>
      <trkpt lat="-27.649734" lon="-70.87521">
        <ele>119.745</ele>
        <time>2019-07-18T21:29:09Z</time>
      </trkpt>
      <trkpt lat="-27.649952" lon="-70.875336">
        <ele>119.341</ele>
        <time>2019-07-18T21:29:14Z</time>
      </trkpt>
      <trkpt lat="-27.650154" lon="-70.875435">
        <ele>119.267</ele>
        <time>2019-07-18T21:29:19Z</time>
      </trkpt>
      <trkpt lat="-27.650341" lon="-70.87555">
        <ele>119.013</ele>
        <time>2019-07-18T21:29:24Z</time>
      </trkpt>
      <trkpt lat="-27.650537" lon="-70.875656">
        <ele>118.702</ele>
        <time>2019-07-18T21:29:29Z</time>
      </trkpt>
      <trkpt lat="-27.650732" lon="-70.87576">
        <ele>119.056</ele>
        <time>2019-07-18T21:29:34Z</time>
      </trkpt>
      <trkpt lat="-27.650911" lon="-70.87586">
        <ele>118.184</ele>
        <time>2019-07-18T21:29:39Z</time>
      </trkpt>
      <trkpt lat="-27.651056" lon="-70.87594">
        <ele>118.181</ele>
        <time>2019-07-18T21:29:44Z</time>
      </trkpt>
      <trkpt lat="-27.65123" lon="-70.876045">
        <ele>118.572</ele>
        <time>2019-07-18T21:29:49Z</time>
      </trkpt>
      <trkpt lat="-27.651405" lon="-70.87614">
        <ele>118.075</ele>
        <time>2019-07-18T21:29:54Z</time>
      </trkpt>
      <trkpt lat="-27.651579" lon="-70.876236">
        <ele>117.956</ele>
        <time>2019-07-18T21:29:59Z</time>
      </trkpt>
      <trkpt lat="-27.651749" lon="-70.876335">
        <ele>117.901</ele>
        <time>2019-07-18T21:30:04Z</time>
      </trkpt>
      <trkpt lat="-27.651918" lon="-70.87643">
        <ele>118.184</ele>
        <time>2019-07-18T21:30:09Z</time>
      </trkpt>
      <trkpt lat="-27.652084" lon="-70.876526">
        <ele>117.89</ele>
        <time>2019-07-18T21:30:14Z</time>
      </trkpt>
      <trkpt lat="-27.652267" lon="-70.87662">
        <ele>118.133</ele>
        <time>2019-07-18T21:30:19Z</time>
      </trkpt>
      <trkpt lat="-27.652454" lon="-70.876724">
        <ele>117.861</ele>
        <time>2019-07-18T21:30:24Z</time>
      </trkpt>
      <trkpt lat="-27.652641" lon="-70.87682">
        <ele>117.623</ele>
        <time>2019-07-18T21:30:29Z</time>
      </trkpt>
      <trkpt lat="-27.652828" lon="-70.87693">
        <ele>117.911</ele>
        <time>2019-07-18T21:30:34Z</time>
      </trkpt>
      <trkpt lat="-27.653023" lon="-70.87704">
        <ele>117.764</ele>
        <time>2019-07-18T21:30:39Z</time>
      </trkpt>
      <trkpt lat="-27.65322" lon="-70.87714">
        <ele>117.7</ele>
        <time>2019-07-18T21:30:44Z</time>
      </trkpt>
      <trkpt lat="-27.65342" lon="-70.877235">
        <ele>117.536</ele>
        <time>2019-07-18T21:30:49Z</time>
      </trkpt>
      <trkpt lat="-27.653625" lon="-70.877335">
        <ele>117.605</ele>
        <time>2019-07-18T21:30:54Z</time>
      </trkpt>
      <trkpt lat="-27.653837" lon="-70.87744">
        <ele>117.227</ele>
        <time>2019-07-18T21:30:59Z</time>
      </trkpt>
      <trkpt lat="-27.654034" lon="-70.877525">
        <ele>117.185</ele>
        <time>2019-07-18T21:31:04Z</time>
      </trkpt>
      <trkpt lat="-27.654202" lon="-70.87761">
        <ele>117.047</ele>
        <time>2019-07-18T21:31:09Z</time>
      </trkpt>
      <trkpt lat="-27.654436" lon="-70.87772">
        <ele>116.3</ele>
        <time>2019-07-18T21:31:16Z</time>
      </trkpt>
      <trkpt lat="-27.654648" lon="-70.87782">
        <ele>116.054</ele>
        <time>2019-07-18T21:31:21Z</time>
      </trkpt>
      <trkpt lat="-27.654877" lon="-70.87794">
        <ele>116.36</ele>
        <time>2019-07-18T21:31:26Z</time>
      </trkpt>
      <trkpt lat="-27.65511" lon="-70.878044">
        <ele>115.504</ele>
        <time>2019-07-18T21:31:31Z</time>
      </trkpt>
      <trkpt lat="-27.65534" lon="-70.87814">
        <ele>115.404</ele>
        <time>2019-07-18T21:31:36Z</time>
      </trkpt>
      <trkpt lat="-27.655539" lon="-70.87824">
        <ele>115.066</ele>
        <time>2019-07-18T21:31:41Z</time>
      </trkpt>
      <trkpt lat="-27.655745" lon="-70.87834">
        <ele>114.746</ele>
        <time>2019-07-18T21:31:46Z</time>
      </trkpt>
      <trkpt lat="-27.655945" lon="-70.87843">
        <ele>114.553</ele>
        <time>2019-07-18T21:31:51Z</time>
      </trkpt>
      <trkpt lat="-27.656162" lon="-70.87853">
        <ele>114.521</ele>
        <time>2019-07-18T21:31:56Z</time>
      </trkpt>
      <trkpt lat="-27.65638" lon="-70.87864">
        <ele>114.025</ele>
        <time>2019-07-18T21:32:01Z</time>
      </trkpt>
      <trkpt lat="-27.656603" lon="-70.878746">
        <ele>113.858</ele>
        <time>2019-07-18T21:32:06Z</time>
      </trkpt>
      <trkpt lat="-27.656837" lon="-70.87886">
        <ele>113.607</ele>
        <time>2019-07-18T21:32:11Z</time>
      </trkpt>
      <trkpt lat="-27.657076" lon="-70.878975">
        <ele>113.422</ele>
        <time>2019-07-18T21:32:16Z</time>
      </trkpt>
      <trkpt lat="-27.65731" lon="-70.87909">
        <ele>112.83</ele>
        <time>2019-07-18T21:32:21Z</time>
      </trkpt>
      <trkpt lat="-27.657553" lon="-70.879196">
        <ele>112.741</ele>
        <time>2019-07-18T21:32:26Z</time>
      </trkpt>
      <trkpt lat="-27.6578" lon="-70.87931">
        <ele>112.685</ele>
        <time>2019-07-18T21:32:31Z</time>
      </trkpt>
      <trkpt lat="-27.658052" lon="-70.87943">
        <ele>112.458</ele>
        <time>2019-07-18T21:32:36Z</time>
      </trkpt>
      <trkpt lat="-27.658356" lon="-70.87958">
        <ele>112.63</ele>
        <time>2019-07-18T21:32:43Z</time>
      </trkpt>
      <trkpt lat="-27.65854" lon="-70.87966">
        <ele>112.569</ele>
        <time>2019-07-18T21:32:48Z</time>
      </trkpt>
      <trkpt lat="-27.658737" lon="-70.87977">
        <ele>112.212</ele>
        <time>2019-07-18T21:32:53Z</time>
      </trkpt>
      <trkpt lat="-27.658947" lon="-70.87985">
        <ele>112.31</ele>
        <time>2019-07-18T21:32:58Z</time>
      </trkpt>
      <trkpt lat="-27.659155" lon="-70.87995">
        <ele>112.262</ele>
        <time>2019-07-18T21:33:03Z</time>
      </trkpt>
      <trkpt lat="-27.659369" lon="-70.88005">
        <ele>111.863</ele>
        <time>2019-07-18T21:33:08Z</time>
      </trkpt>
      <trkpt lat="-27.659575" lon="-70.880135">
        <ele>112.035</ele>
        <time>2019-07-18T21:33:13Z</time>
      </trkpt>
      <trkpt lat="-27.659782" lon="-70.88024">
        <ele>112.268</ele>
        <time>2019-07-18T21:33:18Z</time>
      </trkpt>
      <trkpt lat="-27.660007" lon="-70.88034">
        <ele>112.492</ele>
        <time>2019-07-18T21:33:23Z</time>
      </trkpt>
      <trkpt lat="-27.66022" lon="-70.88045">
        <ele>111.958</ele>
        <time>2019-07-18T21:33:28Z</time>
      </trkpt>
      <trkpt lat="-27.660406" lon="-70.88053">
        <ele>112.03</ele>
        <time>2019-07-18T21:33:33Z</time>
      </trkpt>
      <trkpt lat="-27.66059" lon="-70.880615">
        <ele>111.652</ele>
        <time>2019-07-18T21:33:38Z</time>
      </trkpt>
      <trkpt lat="-27.660774" lon="-70.88069">
        <ele>111.176</ele>
        <time>2019-07-18T21:33:43Z</time>
      </trkpt>
      <trkpt lat="-27.66091" lon="-70.88077">
        <ele>111.38</ele>
        <time>2019-07-18T21:33:48Z</time>
      </trkpt>
      <trkpt lat="-27.661041" lon="-70.88084">
        <ele>111.797</ele>
        <time>2019-07-18T21:33:53Z</time>
      </trkpt>
      <trkpt lat="-27.661142" lon="-70.88088">
        <ele>110.096</ele>
        <time>2019-07-18T21:33:58Z</time>
      </trkpt>
      <trkpt lat="-27.661245" lon="-70.88094">
        <ele>112.36</ele>
        <time>2019-07-18T21:34:03Z</time>
      </trkpt>
      <trkpt lat="-27.661352" lon="-70.881004">
        <ele>111.377</ele>
        <time>2019-07-18T21:34:08Z</time>
      </trkpt>
      <trkpt lat="-27.661438" lon="-70.88105">
        <ele>111.85</ele>
        <time>2019-07-18T21:34:13Z</time>
      </trkpt>
      <trkpt lat="-27.661535" lon="-70.88109">
        <ele>111.234</ele>
        <time>2019-07-18T21:34:18Z</time>
      </trkpt>
      <trkpt lat="-27.661657" lon="-70.88115">
        <ele>111.322</ele>
        <time>2019-07-18T21:34:23Z</time>
      </trkpt>
      <trkpt lat="-27.661797" lon="-70.88121">
        <ele>111.086</ele>
        <time>2019-07-18T21:34:28Z</time>
      </trkpt>
      <trkpt lat="-27.661922" lon="-70.88127">
        <ele>111.602</ele>
        <time>2019-07-18T21:34:33Z</time>
      </trkpt>
      <trkpt lat="-27.662033" lon="-70.88132">
        <ele>111.018</ele>
        <time>2019-07-18T21:34:38Z</time>
      </trkpt>
      <trkpt lat="-27.662127" lon="-70.88136">
        <ele>111.02</ele>
        <time>2019-07-18T21:34:43Z</time>
      </trkpt>
      <trkpt lat="-27.66222" lon="-70.8814">
        <ele>110.164</ele>
        <time>2019-07-18T21:34:48Z</time>
      </trkpt>
      <trkpt lat="-27.66231" lon="-70.88145">
        <ele>109.868</ele>
        <time>2019-07-18T21:34:53Z</time>
      </trkpt>
      <trkpt lat="-27.662449" lon="-70.881516">
        <ele>110.059</ele>
        <time>2019-07-18T21:34:58Z</time>
      </trkpt>
      <trkpt lat="-27.662607" lon="-70.881584">
        <ele>110.349</ele>
        <time>2019-07-18T21:35:03Z</time>
      </trkpt>
      <trkpt lat="-27.662756" lon="-70.881645">
        <ele>109.905</ele>
        <time>2019-07-18T21:35:08Z</time>
      </trkpt>
      <trkpt lat="-27.662897" lon="-70.881714">
        <ele>109.105</ele>
        <time>2019-07-18T21:35:13Z</time>
      </trkpt>
      <trkpt lat="-27.663063" lon="-70.88179">
        <ele>108.896</ele>
        <time>2019-07-18T21:35:18Z</time>
      </trkpt>
      <trkpt lat="-27.663227" lon="-70.88186">
        <ele>109.205</ele>
        <time>2019-07-18T21:35:23Z</time>
      </trkpt>
      <trkpt lat="-27.663385" lon="-70.88193">
        <ele>108.457</ele>
        <time>2019-07-18T21:35:28Z</time>
      </trkpt>
      <trkpt lat="-27.663559" lon="-70.88201">
        <ele>107.953</ele>
        <time>2019-07-18T21:35:33Z</time>
      </trkpt>
      <trkpt lat="-27.663734" lon="-70.88211">
        <ele>108.265</ele>
        <time>2019-07-18T21:35:38Z</time>
      </trkpt>
      <trkpt lat="-27.663902" lon="-70.882195">
        <ele>107.773</ele>
        <time>2019-07-18T21:35:43Z</time>
      </trkpt>
      <trkpt lat="-27.664066" lon="-70.88226">
        <ele>109.805</ele>
        <time>2019-07-18T21:35:48Z</time>
      </trkpt>
      <trkpt lat="-27.664244" lon="-70.88235">
        <ele>107.726</ele>
        <time>2019-07-18T21:35:53Z</time>
      </trkpt>
      <trkpt lat="-27.664396" lon="-70.88242">
        <ele>108.048</ele>
        <time>2019-07-18T21:35:58Z</time>
      </trkpt>
      <trkpt lat="-27.664528" lon="-70.88249">
        <ele>107.157</ele>
        <time>2019-07-18T21:36:03Z</time>
      </trkpt>
      <trkpt lat="-27.664654" lon="-70.88255">
        <ele>104.613</ele>
        <time>2019-07-18T21:36:08Z</time>
      </trkpt>
      <trkpt lat="-27.664778" lon="-70.88263">
        <ele>106.695</ele>
        <time>2019-07-18T21:36:13Z</time>
      </trkpt>
      <trkpt lat="-27.664883" lon="-70.88268">
        <ele>109.284</ele>
        <time>2019-07-18T21:36:18Z</time>
      </trkpt>
      <trkpt lat="-27.664948" lon="-70.88271">
        <ele>104.254</ele>
        <time>2019-07-18T21:36:23Z</time>
      </trkpt>
      <trkpt lat="-27.665123" lon="-70.88305">
        <ele>102.526</ele>
        <time>2019-07-18T21:37:22Z</time>
      </trkpt>
      <trkpt lat="-27.665106" lon="-70.88323">
        <ele>101.704</ele>
        <time>2019-07-18T21:37:27Z</time>
      </trkpt>
      <trkpt lat="-27.665092" lon="-70.88343">
        <ele>100.938</ele>
        <time>2019-07-18T21:37:32Z</time>
      </trkpt>
      <trkpt lat="-27.665085" lon="-70.88366">
        <ele>100.967</ele>
        <time>2019-07-18T21:37:37Z</time>
      </trkpt>
      <trkpt lat="-27.665077" lon="-70.883865">
        <ele>101.498</ele>
        <time>2019-07-18T21:37:42Z</time>
      </trkpt>
      <trkpt lat="-27.665073" lon="-70.88408">
        <ele>101.611</ele>
        <time>2019-07-18T21:37:47Z</time>
      </trkpt>
      <trkpt lat="-27.665062" lon="-70.884254">
        <ele>103.744</ele>
        <time>2019-07-18T21:37:52Z</time>
      </trkpt>
      <trkpt lat="-27.665045" lon="-70.88441">
        <ele>100.927</ele>
        <time>2019-07-18T21:37:57Z</time>
      </trkpt>
      <trkpt lat="-27.66503" lon="-70.884575">
        <ele>101.284</ele>
        <time>2019-07-18T21:38:02Z</time>
      </trkpt>
      <trkpt lat="-27.665026" lon="-70.88477">
        <ele>100.073</ele>
        <time>2019-07-18T21:38:07Z</time>
      </trkpt>
      <trkpt lat="-27.665016" lon="-70.884964">
        <ele>102.829</ele>
        <time>2019-07-18T21:38:12Z</time>
      </trkpt>
      <trkpt lat="-27.665018" lon="-70.88516">
        <ele>102.174</ele>
        <time>2019-07-18T21:38:17Z</time>
      </trkpt>
      <trkpt lat="-27.664999" lon="-70.885544">
        <ele>101.899</ele>
        <time>2019-07-18T21:38:26Z</time>
      </trkpt>
      <trkpt lat="-27.665003" lon="-70.885765">
        <ele>101.654</ele>
        <time>2019-07-18T21:38:31Z</time>
      </trkpt>
      <trkpt lat="-27.664999" lon="-70.88598">
        <ele>101.63</ele>
        <time>2019-07-18T21:38:36Z</time>
      </trkpt>
      <trkpt lat="-27.665005" lon="-70.88616">
        <ele>101.5</ele>
        <time>2019-07-18T21:38:41Z</time>
      </trkpt>
      <trkpt lat="-27.665012" lon="-70.886345">
        <ele>101.249</ele>
        <time>2019-07-18T21:38:46Z</time>
      </trkpt>
      <trkpt lat="-27.665003" lon="-70.886536">
        <ele>101.347</ele>
        <time>2019-07-18T21:38:51Z</time>
      </trkpt>
      <trkpt lat="-27.664995" lon="-70.8867">
        <ele>101.381</ele>
        <time>2019-07-18T21:38:56Z</time>
      </trkpt>
      <trkpt lat="-27.66499" lon="-70.88688">
        <ele>100.816</ele>
        <time>2019-07-18T21:39:01Z</time>
      </trkpt>
      <trkpt lat="-27.664976" lon="-70.887085">
        <ele>100.665</ele>
        <time>2019-07-18T21:39:06Z</time>
      </trkpt>
      <trkpt lat="-27.664965" lon="-70.88728">
        <ele>100.758</ele>
        <time>2019-07-18T21:39:11Z</time>
      </trkpt>
      <trkpt lat="-27.66495" lon="-70.88748">
        <ele>100.908</ele>
        <time>2019-07-18T21:39:16Z</time>
      </trkpt>
      <trkpt lat="-27.664932" lon="-70.88769">
        <ele>100.573</ele>
        <time>2019-07-18T21:39:21Z</time>
      </trkpt>
      <trkpt lat="-27.6649" lon="-70.88788">
        <ele>100.549</ele>
        <time>2019-07-18T21:39:26Z</time>
      </trkpt>
      <trkpt lat="-27.664879" lon="-70.88807">
        <ele>100.309</ele>
        <time>2019-07-18T21:39:31Z</time>
      </trkpt>
      <trkpt lat="-27.664856" lon="-70.88825">
        <ele>100.066</ele>
        <time>2019-07-18T21:39:36Z</time>
      </trkpt>
      <trkpt lat="-27.664831" lon="-70.88845">
        <ele>100.158</ele>
        <time>2019-07-18T21:39:41Z</time>
      </trkpt>
      <trkpt lat="-27.664806" lon="-70.88865">
        <ele>100.118</ele>
        <time>2019-07-18T21:39:46Z</time>
      </trkpt>
      <trkpt lat="-27.66478" lon="-70.88885">
        <ele>99.849</ele>
        <time>2019-07-18T21:39:51Z</time>
      </trkpt>
      <trkpt lat="-27.66476" lon="-70.88905">
        <ele>99.711</ele>
        <time>2019-07-18T21:39:56Z</time>
      </trkpt>
      <trkpt lat="-27.664743" lon="-70.889244">
        <ele>99.582</ele>
        <time>2019-07-18T21:40:01Z</time>
      </trkpt>
      <trkpt lat="-27.664726" lon="-70.889465">
        <ele>99.519</ele>
        <time>2019-07-18T21:40:06Z</time>
      </trkpt>
      <trkpt lat="-27.664713" lon="-70.889694">
        <ele>99.373</ele>
        <time>2019-07-18T21:40:11Z</time>
      </trkpt>
      <trkpt lat="-27.664698" lon="-70.889915">
        <ele>99.283</ele>
        <time>2019-07-18T21:40:16Z</time>
      </trkpt>
      <trkpt lat="-27.664673" lon="-70.890144">
        <ele>99.091</ele>
        <time>2019-07-18T21:40:21Z</time>
      </trkpt>
      <trkpt lat="-27.664665" lon="-70.89035">
        <ele>99.093</ele>
        <time>2019-07-18T21:40:26Z</time>
      </trkpt>
      <trkpt lat="-27.66465" lon="-70.89056">
        <ele>98.795</ele>
        <time>2019-07-18T21:40:31Z</time>
      </trkpt>
      <trkpt lat="-27.664616" lon="-70.89077">
        <ele>98.501</ele>
        <time>2019-07-18T21:40:36Z</time>
      </trkpt>
      <trkpt lat="-27.664593" lon="-70.891">
        <ele>98.914</ele>
        <time>2019-07-18T21:40:41Z</time>
      </trkpt>
      <trkpt lat="-27.664558" lon="-70.89121">
        <ele>99.138</ele>
        <time>2019-07-18T21:40:46Z</time>
      </trkpt>
      <trkpt lat="-27.66452" lon="-70.89142">
        <ele>98.758</ele>
        <time>2019-07-18T21:40:52Z</time>
      </trkpt>
      <trkpt lat="-27.664474" lon="-70.89163">
        <ele>98.773</ele>
        <time>2019-07-18T21:40:57Z</time>
      </trkpt>
      <trkpt lat="-27.664417" lon="-70.891846">
        <ele>98.919</ele>
        <time>2019-07-18T21:41:02Z</time>
      </trkpt>
      <trkpt lat="-27.664354" lon="-70.89206">
        <ele>98.43</ele>
        <time>2019-07-18T21:41:07Z</time>
      </trkpt>
      <trkpt lat="-27.664295" lon="-70.892265">
        <ele>98.06</ele>
        <time>2019-07-18T21:41:12Z</time>
      </trkpt>
      <trkpt lat="-27.66425" lon="-70.892426">
        <ele>96.805</ele>
        <time>2019-07-18T21:41:17Z</time>
      </trkpt>
      <trkpt lat="-27.664179" lon="-70.892654">
        <ele>96.525</ele>
        <time>2019-07-18T21:41:23Z</time>
      </trkpt>
      <trkpt lat="-27.664118" lon="-70.89285">
        <ele>95.87</ele>
        <time>2019-07-18T21:41:28Z</time>
      </trkpt>
      <trkpt lat="-27.664022" lon="-70.89315">
        <ele>94.868</ele>
        <time>2019-07-18T21:41:34Z</time>
      </trkpt>
      <trkpt lat="-27.663927" lon="-70.89338">
        <ele>94.157</ele>
        <time>2019-07-18T21:41:39Z</time>
      </trkpt>
      <trkpt lat="-27.663801" lon="-70.89358">
        <ele>93.544</ele>
        <time>2019-07-18T21:41:44Z</time>
      </trkpt>
      <trkpt lat="-27.66366" lon="-70.893814">
        <ele>93.597</ele>
        <time>2019-07-18T21:41:50Z</time>
      </trkpt>
      <trkpt lat="-27.663542" lon="-70.89399">
        <ele>92.472</ele>
        <time>2019-07-18T21:41:55Z</time>
      </trkpt>
      <trkpt lat="-27.663385" lon="-70.89426">
        <ele>92.126</ele>
        <time>2019-07-18T21:42:03Z</time>
      </trkpt>
      <trkpt lat="-27.663273" lon="-70.89446">
        <ele>91.819</ele>
        <time>2019-07-18T21:42:08Z</time>
      </trkpt>
      <trkpt lat="-27.663149" lon="-70.89467">
        <ele>91.499</ele>
        <time>2019-07-18T21:42:13Z</time>
      </trkpt>
      <trkpt lat="-27.66303" lon="-70.89488">
        <ele>91.116</ele>
        <time>2019-07-18T21:42:18Z</time>
      </trkpt>
      <trkpt lat="-27.662907" lon="-70.895096">
        <ele>90.59</ele>
        <time>2019-07-18T21:42:23Z</time>
      </trkpt>
      <trkpt lat="-27.662786" lon="-70.89532">
        <ele>90.223</ele>
        <time>2019-07-18T21:42:28Z</time>
      </trkpt>
      <trkpt lat="-27.662664" lon="-70.895515">
        <ele>90.569</ele>
        <time>2019-07-18T21:42:33Z</time>
      </trkpt>
      <trkpt lat="-27.66255" lon="-70.89572">
        <ele>90.104</ele>
        <time>2019-07-18T21:42:38Z</time>
      </trkpt>
      <trkpt lat="-27.662441" lon="-70.89591">
        <ele>89.607</ele>
        <time>2019-07-18T21:42:43Z</time>
      </trkpt>
      <trkpt lat="-27.662329" lon="-70.896126">
        <ele>89.687</ele>
        <time>2019-07-18T21:42:48Z</time>
      </trkpt>
      <trkpt lat="-27.662228" lon="-70.896324">
        <ele>89.676</ele>
        <time>2019-07-18T21:42:53Z</time>
      </trkpt>
      <trkpt lat="-27.662123" lon="-70.89652">
        <ele>89.277</ele>
        <time>2019-07-18T21:42:58Z</time>
      </trkpt>
      <trkpt lat="-27.662062" lon="-70.89662">
        <ele>88.757</ele>
        <time>2019-07-18T21:43:03Z</time>
      </trkpt>
      <trkpt lat="-27.661844" lon="-70.89691">
        <ele>88.675</ele>
        <time>2019-07-18T21:45:15Z</time>
      </trkpt>
      <trkpt lat="-27.66175" lon="-70.89709">
        <ele>88.728</ele>
        <time>2019-07-18T21:45:20Z</time>
      </trkpt>
      <trkpt lat="-27.661657" lon="-70.89727">
        <ele>88.389</ele>
        <time>2019-07-18T21:45:25Z</time>
      </trkpt>
      <trkpt lat="-27.661575" lon="-70.897446">
        <ele>88.569</ele>
        <time>2019-07-18T21:45:30Z</time>
      </trkpt>
      <trkpt lat="-27.661505" lon="-70.8976">
        <ele>88.654</ele>
        <time>2019-07-18T21:45:35Z</time>
      </trkpt>
      <trkpt lat="-27.661432" lon="-70.89775">
        <ele>88.432</ele>
        <time>2019-07-18T21:45:40Z</time>
      </trkpt>
      <trkpt lat="-27.66135" lon="-70.89789">
        <ele>88.429</ele>
        <time>2019-07-18T21:45:45Z</time>
      </trkpt>
      <trkpt lat="-27.661312" lon="-70.898026">
        <ele>88.051</ele>
        <time>2019-07-18T21:45:50Z</time>
      </trkpt>
      <trkpt lat="-27.661201" lon="-70.898186">
        <ele>87.697</ele>
        <time>2019-07-18T21:45:56Z</time>
      </trkpt>
      <trkpt lat="-27.661072" lon="-70.89836">
        <ele>86.582</ele>
        <time>2019-07-18T21:46:01Z</time>
      </trkpt>
      <trkpt lat="-27.660887" lon="-70.89859">
        <ele>86.038</ele>
        <time>2019-07-18T21:46:06Z</time>
      </trkpt>
      <trkpt lat="-27.660683" lon="-70.89883">
        <ele>86.844</ele>
        <time>2019-07-18T21:46:11Z</time>
      </trkpt>
      <trkpt lat="-27.660496" lon="-70.89903">
        <ele>85.528</ele>
        <time>2019-07-18T21:46:16Z</time>
      </trkpt>
      <trkpt lat="-27.660326" lon="-70.89923">
        <ele>85.684</ele>
        <time>2019-07-18T21:46:21Z</time>
      </trkpt>
      <trkpt lat="-27.660158" lon="-70.89942">
        <ele>85.599</ele>
        <time>2019-07-18T21:46:26Z</time>
      </trkpt>
      <trkpt lat="-27.660004" lon="-70.89962">
        <ele>85.224</ele>
        <time>2019-07-18T21:46:31Z</time>
      </trkpt>
      <trkpt lat="-27.659843" lon="-70.89984">
        <ele>85.007</ele>
        <time>2019-07-18T21:46:36Z</time>
      </trkpt>
      <trkpt lat="-27.65969" lon="-70.900055">
        <ele>84.352</ele>
        <time>2019-07-18T21:46:41Z</time>
      </trkpt>
      <trkpt lat="-27.659552" lon="-70.90026">
        <ele>83.787</ele>
        <time>2019-07-18T21:46:46Z</time>
      </trkpt>
      <trkpt lat="-27.659397" lon="-70.90048">
        <ele>83.937</ele>
        <time>2019-07-18T21:46:51Z</time>
      </trkpt>
      <trkpt lat="-27.659224" lon="-70.90075">
        <ele>83.633</ele>
        <time>2019-07-18T21:46:58Z</time>
      </trkpt>
      <trkpt lat="-27.659082" lon="-70.900955">
        <ele>83.105</ele>
        <time>2019-07-18T21:47:03Z</time>
      </trkpt>
      <trkpt lat="-27.658953" lon="-70.90115">
        <ele>82.883</ele>
        <time>2019-07-18T21:47:07Z</time>
      </trkpt>
      <trkpt lat="-27.658848" lon="-70.9013">
        <ele>82.671</ele>
        <time>2019-07-18T21:47:13Z</time>
      </trkpt>
      <trkpt lat="-27.658785" lon="-70.90136">
        <ele>82.996</ele>
        <time>2019-07-18T21:47:18Z</time>
      </trkpt>
      <trkpt lat="-27.658892" lon="-70.901146">
        <ele>81.305</ele>
        <time>2019-07-18T21:49:20Z</time>
      </trkpt>
      <trkpt lat="-27.658905" lon="-70.90106">
        <ele>84.138</ele>
        <time>2019-07-18T21:49:25Z</time>
      </trkpt>
      <trkpt lat="-27.658844" lon="-70.90113">
        <ele>83.089</ele>
        <time>2019-07-18T21:49:30Z</time>
      </trkpt>
      <trkpt lat="-27.658785" lon="-70.90126">
        <ele>82.373</ele>
        <time>2019-07-18T21:49:35Z</time>
      </trkpt>
      <trkpt lat="-27.658672" lon="-70.901436">
        <ele>82.362</ele>
        <time>2019-07-18T21:49:40Z</time>
      </trkpt>
      <trkpt lat="-27.658575" lon="-70.90161">
        <ele>82.111</ele>
        <time>2019-07-18T21:49:44Z</time>
      </trkpt>
      <trkpt lat="-27.658484" lon="-70.90176">
        <ele>81.818</ele>
        <time>2019-07-18T21:49:49Z</time>
      </trkpt>
      <trkpt lat="-27.658415" lon="-70.90189">
        <ele>81.813</ele>
        <time>2019-07-18T21:49:54Z</time>
      </trkpt>
      <trkpt lat="-27.6583" lon="-70.90208">
        <ele>82.122</ele>
        <time>2019-07-18T21:49:59Z</time>
      </trkpt>
      <trkpt lat="-27.658169" lon="-70.90227">
        <ele>82.035</ele>
        <time>2019-07-18T21:50:04Z</time>
      </trkpt>
      <trkpt lat="-27.65803" lon="-70.90245">
        <ele>81.073</ele>
        <time>2019-07-18T21:50:09Z</time>
      </trkpt>
      <trkpt lat="-27.657867" lon="-70.90265">
        <ele>80.574</ele>
        <time>2019-07-18T21:50:14Z</time>
      </trkpt>
      <trkpt lat="-27.657677" lon="-70.90279">
        <ele>80.135</ele>
        <time>2019-07-18T21:50:19Z</time>
      </trkpt>
      <trkpt lat="-27.65749" lon="-70.90291">
        <ele>79.546</ele>
        <time>2019-07-18T21:50:24Z</time>
      </trkpt>
      <trkpt lat="-27.657278" lon="-70.90301">
        <ele>79.276</ele>
        <time>2019-07-18T21:50:29Z</time>
      </trkpt>
      <trkpt lat="-27.657057" lon="-70.903114">
        <ele>78.47</ele>
        <time>2019-07-18T21:50:34Z</time>
      </trkpt>
      <trkpt lat="-27.65685" lon="-70.90322">
        <ele>78.026</ele>
        <time>2019-07-18T21:50:39Z</time>
      </trkpt>
      <trkpt lat="-27.656675" lon="-70.90334">
        <ele>77.606</ele>
        <time>2019-07-18T21:50:44Z</time>
      </trkpt>
      <trkpt lat="-27.656483" lon="-70.903435">
        <ele>76.671</ele>
        <time>2019-07-18T21:50:49Z</time>
      </trkpt>
      <trkpt lat="-27.656292" lon="-70.90356">
        <ele>76.267</ele>
        <time>2019-07-18T21:50:54Z</time>
      </trkpt>
      <trkpt lat="-27.656116" lon="-70.90368">
        <ele>75.971</ele>
        <time>2019-07-18T21:50:59Z</time>
      </trkpt>
      <trkpt lat="-27.655935" lon="-70.903786">
        <ele>75.913</ele>
        <time>2019-07-18T21:51:04Z</time>
      </trkpt>
      <trkpt lat="-27.655752" lon="-70.90393">
        <ele>75.078</ele>
        <time>2019-07-18T21:51:09Z</time>
      </trkpt>
      <trkpt lat="-27.65556" lon="-70.904106">
        <ele>74.351</ele>
        <time>2019-07-18T21:51:14Z</time>
      </trkpt>
      <trkpt lat="-27.655363" lon="-70.90425">
        <ele>74.568</ele>
        <time>2019-07-18T21:51:19Z</time>
      </trkpt>
      <trkpt lat="-27.65517" lon="-70.90439">
        <ele>73.709</ele>
        <time>2019-07-18T21:51:24Z</time>
      </trkpt>
      <trkpt lat="-27.65492" lon="-70.90456">
        <ele>72.055</ele>
        <time>2019-07-18T21:51:29Z</time>
      </trkpt>
      <trkpt lat="-27.654522" lon="-70.90477">
        <ele>71.352</ele>
        <time>2019-07-18T21:51:38Z</time>
      </trkpt>
      <trkpt lat="-27.654247" lon="-70.90488">
        <ele>70.38</ele>
        <time>2019-07-18T21:51:43Z</time>
      </trkpt>
      <trkpt lat="-27.653965" lon="-70.90492">
        <ele>69.172</ele>
        <time>2019-07-18T21:51:48Z</time>
      </trkpt>
      <trkpt lat="-27.653679" lon="-70.90494">
        <ele>68.461</ele>
        <time>2019-07-18T21:51:53Z</time>
      </trkpt>
      <trkpt lat="-27.653395" lon="-70.90495">
        <ele>67.016</ele>
        <time>2019-07-18T21:51:58Z</time>
      </trkpt>
      <trkpt lat="-27.653093" lon="-70.90495">
        <ele>65.943</ele>
        <time>2019-07-18T21:52:03Z</time>
      </trkpt>
      <trkpt lat="-27.652779" lon="-70.90494">
        <ele>64.622</ele>
        <time>2019-07-18T21:52:08Z</time>
      </trkpt>
      <trkpt lat="-27.652437" lon="-70.90494">
        <ele>63.169</ele>
        <time>2019-07-18T21:52:13Z</time>
      </trkpt>
      <trkpt lat="-27.652088" lon="-70.90493">
        <ele>62.305</ele>
        <time>2019-07-18T21:52:18Z</time>
      </trkpt>
      <trkpt lat="-27.651735" lon="-70.904915">
        <ele>60.505</ele>
        <time>2019-07-18T21:52:23Z</time>
      </trkpt>
      <trkpt lat="-27.651371" lon="-70.904884">
        <ele>59.353</ele>
        <time>2019-07-18T21:52:28Z</time>
      </trkpt>
      <trkpt lat="-27.650997" lon="-70.90486">
        <ele>57.353</ele>
        <time>2019-07-18T21:52:33Z</time>
      </trkpt>
      <trkpt lat="-27.650625" lon="-70.90488">
        <ele>57.057</ele>
        <time>2019-07-18T21:52:38Z</time>
      </trkpt>
      <trkpt lat="-27.650274" lon="-70.90493">
        <ele>55.744</ele>
        <time>2019-07-18T21:52:45Z</time>
      </trkpt>
      <trkpt lat="-27.649942" lon="-70.90505">
        <ele>54.978</ele>
        <time>2019-07-18T21:52:50Z</time>
      </trkpt>
      <trkpt lat="-27.64964" lon="-70.905205">
        <ele>54.172</ele>
        <time>2019-07-18T21:52:55Z</time>
      </trkpt>
      <trkpt lat="-27.649351" lon="-70.90534">
        <ele>52.018</ele>
        <time>2019-07-18T21:53:00Z</time>
      </trkpt>
      <trkpt lat="-27.649055" lon="-70.9055">
        <ele>51.892</ele>
        <time>2019-07-18T21:53:05Z</time>
      </trkpt>
      <trkpt lat="-27.64875" lon="-70.90564">
        <ele>50.748</ele>
        <time>2019-07-18T21:53:10Z</time>
      </trkpt>
      <trkpt lat="-27.64845" lon="-70.90578">
        <ele>50.198</ele>
        <time>2019-07-18T21:53:15Z</time>
      </trkpt>
      <trkpt lat="-27.648174" lon="-70.905914">
        <ele>49.58</ele>
        <time>2019-07-18T21:53:20Z</time>
      </trkpt>
      <trkpt lat="-27.647892" lon="-70.90605">
        <ele>49.062</ele>
        <time>2019-07-18T21:53:25Z</time>
      </trkpt>
      <trkpt lat="-27.647623" lon="-70.90619">
        <ele>48.369</ele>
        <time>2019-07-18T21:53:30Z</time>
      </trkpt>
      <trkpt lat="-27.647366" lon="-70.90634">
        <ele>47.574</ele>
        <time>2019-07-18T21:53:35Z</time>
      </trkpt>
      <trkpt lat="-27.647125" lon="-70.90647">
        <ele>46.998</ele>
        <time>2019-07-18T21:53:40Z</time>
      </trkpt>
      <trkpt lat="-27.646872" lon="-70.90659">
        <ele>46.739</ele>
        <time>2019-07-18T21:53:45Z</time>
      </trkpt>
      <trkpt lat="-27.64663" lon="-70.90671">
        <ele>45.468</ele>
        <time>2019-07-18T21:53:50Z</time>
      </trkpt>
      <trkpt lat="-27.646383" lon="-70.90685">
        <ele>44.11</ele>
        <time>2019-07-18T21:53:55Z</time>
      </trkpt>
      <trkpt lat="-27.646093" lon="-70.90698">
        <ele>42.435</ele>
        <time>2019-07-18T21:54:00Z</time>
      </trkpt>
      <trkpt lat="-27.645794" lon="-70.90714">
        <ele>40.879</ele>
        <time>2019-07-18T21:54:05Z</time>
      </trkpt>
      <trkpt lat="-27.645472" lon="-70.907295">
        <ele>40.287</ele>
        <time>2019-07-18T21:54:10Z</time>
      </trkpt>
      <trkpt lat="-27.645153" lon="-70.90746">
        <ele>39.41</ele>
        <time>2019-07-18T21:54:15Z</time>
      </trkpt>
      <trkpt lat="-27.644846" lon="-70.90761">
        <ele>39.647</ele>
        <time>2019-07-18T21:54:20Z</time>
      </trkpt>
      <trkpt lat="-27.644571" lon="-70.90777">
        <ele>38.059</ele>
        <time>2019-07-18T21:54:25Z</time>
      </trkpt>
      <trkpt lat="-27.64431" lon="-70.907906">
        <ele>38.833</ele>
        <time>2019-07-18T21:54:30Z</time>
      </trkpt>
      <trkpt lat="-27.644043" lon="-70.908035">
        <ele>38.318</ele>
        <time>2019-07-18T21:54:35Z</time>
      </trkpt>
      <trkpt lat="-27.643795" lon="-70.90816">
        <ele>37.343</ele>
        <time>2019-07-18T21:54:40Z</time>
      </trkpt>
      <trkpt lat="-27.643555" lon="-70.90828">
        <ele>37.071</ele>
        <time>2019-07-18T21:54:45Z</time>
      </trkpt>
      <trkpt lat="-27.6435" lon="-70.90831">
        <ele>37.531</ele>
        <time>2019-07-18T21:54:50Z</time>
      </trkpt>
      <trkpt lat="-27.643745" lon="-70.90817">
        <ele>37.951</ele>
        <time>2019-07-18T21:55:47Z</time>
      </trkpt>
      <trkpt lat="-27.64387" lon="-70.90812">
        <ele>37.951</ele>
        <time>2019-07-18T21:55:52Z</time>
      </trkpt>
      <trkpt lat="-27.64399" lon="-70.90806">
        <ele>37.89</ele>
        <time>2019-07-18T21:55:57Z</time>
      </trkpt>
      <trkpt lat="-27.644033" lon="-70.90803">
        <ele>37.74</ele>
        <time>2019-07-18T21:56:02Z</time>
      </trkpt>
      <trkpt lat="-27.643753" lon="-70.908165">
        <ele>37.557</ele>
        <time>2019-07-18T21:56:52Z</time>
      </trkpt>
      <trkpt lat="-27.643625" lon="-70.90821">
        <ele>38.11</ele>
        <time>2019-07-18T21:56:57Z</time>
      </trkpt>
      <trkpt lat="-27.643463" lon="-70.90829">
        <ele>37.166</ele>
        <time>2019-07-18T21:57:02Z</time>
      </trkpt>
      <trkpt lat="-27.64327" lon="-70.90836">
        <ele>36.709</ele>
        <time>2019-07-18T21:57:07Z</time>
      </trkpt>
      <trkpt lat="-27.64306" lon="-70.90848">
        <ele>37.193</ele>
        <time>2019-07-18T21:57:12Z</time>
      </trkpt>
      <trkpt lat="-27.642843" lon="-70.90859">
        <ele>36.191</ele>
        <time>2019-07-18T21:57:17Z</time>
      </trkpt>
      <trkpt lat="-27.642628" lon="-70.90869">
        <ele>35.98</ele>
        <time>2019-07-18T21:57:22Z</time>
      </trkpt>
      <trkpt lat="-27.642433" lon="-70.90879">
        <ele>35.325</ele>
        <time>2019-07-18T21:57:27Z</time>
      </trkpt>
      <trkpt lat="-27.642265" lon="-70.9089">
        <ele>34.78</ele>
        <time>2019-07-18T21:57:32Z</time>
      </trkpt>
      <trkpt lat="-27.642044" lon="-70.909004">
        <ele>35.171</ele>
        <time>2019-07-18T21:57:37Z</time>
      </trkpt>
      <trkpt lat="-27.641811" lon="-70.909134">
        <ele>33.309</ele>
        <time>2019-07-18T21:57:42Z</time>
      </trkpt>
      <trkpt lat="-27.641603" lon="-70.909256">
        <ele>34.035</ele>
        <time>2019-07-18T21:57:47Z</time>
      </trkpt>
      <trkpt lat="-27.641441" lon="-70.90934">
        <ele>34.347</ele>
        <time>2019-07-18T21:57:52Z</time>
      </trkpt>
      <trkpt lat="-27.641226" lon="-70.90944">
        <ele>33.623</ele>
        <time>2019-07-18T21:57:57Z</time>
      </trkpt>
      <trkpt lat="-27.641039" lon="-70.909546">
        <ele>33.488</ele>
        <time>2019-07-18T21:58:02Z</time>
      </trkpt>
      <trkpt lat="-27.640867" lon="-70.90963">
        <ele>33.427</ele>
        <time>2019-07-18T21:58:07Z</time>
      </trkpt>
      <trkpt lat="-27.640678" lon="-70.909706">
        <ele>33.309</ele>
        <time>2019-07-18T21:58:12Z</time>
      </trkpt>
      <trkpt lat="-27.640478" lon="-70.90981">
        <ele>32.825</ele>
        <time>2019-07-18T21:58:17Z</time>
      </trkpt>
      <trkpt lat="-27.640282" lon="-70.90992">
        <ele>31.816</ele>
        <time>2019-07-18T21:58:22Z</time>
      </trkpt>
      <trkpt lat="-27.640116" lon="-70.910034">
        <ele>32.487</ele>
        <time>2019-07-18T21:58:27Z</time>
      </trkpt>
      <trkpt lat="-27.639948" lon="-70.91014">
        <ele>32.817</ele>
        <time>2019-07-18T21:58:32Z</time>
      </trkpt>
      <trkpt lat="-27.639782" lon="-70.910255">
        <ele>32.209</ele>
        <time>2019-07-18T21:58:37Z</time>
      </trkpt>
      <trkpt lat="-27.639666" lon="-70.91034">
        <ele>32.088</ele>
        <time>2019-07-18T21:58:42Z</time>
      </trkpt>
      <trkpt lat="-27.63964" lon="-70.91036">
        <ele>32.719</ele>
        <time>2019-07-18T21:58:47Z</time>
      </trkpt>
      <trkpt lat="-27.639385" lon="-70.91015">
        <ele>31.797</ele>
        <time>2019-07-18T22:01:13Z</time>
      </trkpt>
      <trkpt lat="-27.639267" lon="-70.910065">
        <ele>31.102</ele>
        <time>2019-07-18T22:01:18Z</time>
      </trkpt>
      <trkpt lat="-27.639153" lon="-70.90996">
        <ele>32.479</ele>
        <time>2019-07-18T22:01:23Z</time>
      </trkpt>
      <trkpt lat="-27.639051" lon="-70.90982">
        <ele>33.977</ele>
        <time>2019-07-18T22:01:28Z</time>
      </trkpt>
      <trkpt lat="-27.638975" lon="-70.90973">
        <ele>33.33</ele>
        <time>2019-07-18T22:01:33Z</time>
      </trkpt>
      <trkpt lat="-27.63888" lon="-70.90966">
        <ele>34.173</ele>
        <time>2019-07-18T22:01:38Z</time>
      </trkpt>
      <trkpt lat="-27.63879" lon="-70.909584">
        <ele>34.254</ele>
        <time>2019-07-18T22:01:43Z</time>
      </trkpt>
      <trkpt lat="-27.638697" lon="-70.9095">
        <ele>33.287</ele>
        <time>2019-07-18T22:01:48Z</time>
      </trkpt>
      <trkpt lat="-27.638628" lon="-70.90946">
        <ele>33.758</ele>
        <time>2019-07-18T22:01:53Z</time>
      </trkpt>
      <trkpt lat="-27.638575" lon="-70.90943">
        <ele>33.771</ele>
        <time>2019-07-18T22:01:58Z</time>
      </trkpt>
      <trkpt lat="-27.638464" lon="-70.9094">
        <ele>33.71</ele>
        <time>2019-07-18T22:02:08Z</time>
      </trkpt>
      <trkpt lat="-27.638365" lon="-70.909355">
        <ele>33.274</ele>
        <time>2019-07-18T22:02:13Z</time>
      </trkpt>
      <trkpt lat="-27.638245" lon="-70.90929">
        <ele>33.438</ele>
        <time>2019-07-18T22:02:18Z</time>
      </trkpt>
      <trkpt lat="-27.6382" lon="-70.909256">
        <ele>34.286</ele>
        <time>2019-07-18T22:02:23Z</time>
      </trkpt>
      <trkpt lat="-27.638092" lon="-70.908775">
        <time>2019-07-18T22:10:24Z</time>
      </trkpt>
    </trkseg>
  </trk>
</gpx>
